# Wetter Temperatur Luftdruck Luftfeuchtigkeit Sichtweite Windgeschwindigkeit Windrichtung Zeit
1 Clouds 6 1025 79 10000 4.47 202 14:26 01.02.2023
2 Clouds 6 1026 78 10000 3.58 360 13:20 01.02.2023
3 Clouds 6 1026 82 10000 2.68 360 12:50 01.02.2023
4 Clouds 6 1026 85 10000 3.58 203 11:56 01.02.2023
5 Clouds 4 1026 86 6770 5.36 175 08:51 01.02.2023
6 Clouds 5 1026 82 3816 2.68 222 02:34 01.02.2023
7 Clouds 5 1027 80 10000 2.24 169 21:38 31.01.2023
8 Clouds 5 1028 80 10000 1.79 203 19:48 31.01.2023
9 Clouds 5 1027 79 10000 2.24 203 18:50 31.01.2023
10 Rain 5 1026 74 10000 4.47 234 15:37 31.01.2023
11 Clouds 6 1027 74 10000 3.58 203 15:18 31.01.2023
12 Clouds 5 1027 74 10000 3.58 167 14:52 31.01.2023
13 Clouds 4 1028 81 10000 2.68 225 12:19 31.01.2023
14 Clouds 3 1028 86 10000 3.13 183 11:20 31.01.2023
15 Clouds 1 1028 91 10000 0.45 203 09:53 31.01.2023
16 Clouds -1 1029 92 10000 1.86 163 08:59 31.01.2023
17 Clouds -1 1028 92 10000 1.86 163 08:35 31.01.2023
18 Clouds -2 1027 92 10000 2.19 155 05:44 31.01.2023
19 Clouds 2 1028 88 10000 0.45 360 23:57 30.01.2023
20 Clouds 2 1027 86 10000 1.79 198 22:54 30.01.2023
21 Clouds 2 1027 88 10000 2.68 197 22:31 30.01.2023
22 Clouds 2 1027 86 10000 1.79 181 21:23 30.01.2023
23 Clouds 3 1026 86 10000 2.24 205 20:35 30.01.2023
24 Clouds 3 1025 84 4335 3.13 209 17:54 30.01.2023
25 Clouds 3 1024 82 5461 4.47 184 16:34 30.01.2023
26 Clouds 3 1023 79 10000 4.92 190 14:28 30.01.2023
27 Clouds 3 1023 77 10000 5.36 113 12:45 30.01.2023
28 Clouds 1 1025 80 10000 4.47 229 11:28 30.01.2023
29 Clouds 0 1025 81 10000 6.26 165 09:54 30.01.2023
30 Clouds -1 1024 81 10000 4.02 229 08:58 30.01.2023
31 Clouds -1 1025 80 10000 3.13 213 07:36 30.01.2023
32 Clouds -2 1025 84 10000 0.45 167 01:46 30.01.2023
33 Clouds -1 1025 83 10000 1.95 164 23:35 29.01.2023
34 Clouds -2 1027 85 10000 2.02 158 22:37 29.01.2023
35 Clouds -1 1026 86 10000 0.45 158 21:41 29.01.2023
36 Clouds -1 1026 85 10000 1.57 150 20:50 29.01.2023
37 Clouds -1 1026 83 10000 1.5 141 19:50 29.01.2023
38 Clouds 0 1026 82 10000 1.73 151 19:27 29.01.2023
39 Clouds 1 1029 79 10000 1.29 159 17:50 29.01.2023
40 Clouds 3 1026 74 10000 1.34 250 16:21 29.01.2023
41 Clouds 3 1025 73 10000 0.89 266 15:50 29.01.2023
42 Clouds 3 1026 72 10000 1.34 360 13:34 29.01.2023
43 Clouds 2 1026 75 10000 2.24 360 12:52 29.01.2023
44 Clouds 2 1027 75 10000 1.79 360 12:24 29.01.2023
45 Clouds 2 1027 80 10000 0.45 23 11:58 29.01.2023
46 Clouds 1 1028 85 10000 0.49 215 11:28 29.01.2023
47 Clouds 0 1028 87 10000 0.52 359 10:20 29.01.2023
48 Clouds -2 1027 89 10000 0.95 161 07:48 29.01.2023
49 Clouds 0 1030 94 10000 1.4 87 03:42 29.01.2023
50 Clouds 0 1029 93 10000 1.54 80 23:46 28.01.2023
51 Clouds 2 1029 94 10000 1.88 70 20:50 28.01.2023
52 Clouds 1 1028 94 10000 1.8 75 19:54 28.01.2023
53 Clouds 2 1025 79 10000 1.97 63 18:49 28.01.2023
54 Clouds 2 1025 75 10000 1.79 23 17:24 28.01.2023
55 Clouds 2 1024 70 10000 1.34 23 16:32 28.01.2023
56 Clouds 3 1024 71 10000 1.79 30 15:59 28.01.2023
57 Clouds 3 1023 72 10000 1.79 23 15:22 28.01.2023
58 Clouds 3 1023 72 10000 1.34 105 13:48 28.01.2023
59 Clouds 2 1023 73 10000 0.89 23 12:21 28.01.2023
60 Clouds 1 1023 77 10000 1.34 23 10:35 28.01.2023
61 Clouds 1 1023 75 10000 2.63 41 09:30 28.01.2023
62 Clouds 0 1021 85 10000 1.93 63 02:27 28.01.2023
63 Clouds 0 1021 83 10000 0.45 45 00:28 28.01.2023
64 Clouds 0 1021 83 10000 0.45 45 22:46 27.01.2023
65 Clouds 0 1021 83 10000 1.79 7 19:48 27.01.2023
66 Clouds 0 1020 82 10000 1.34 357 17:58 27.01.2023
67 Clouds 1 1019 81 10000 2.24 351 17:21 27.01.2023
68 Clouds 1 1019 81 10000 1.79 7 16:55 27.01.2023
69 Snow 1 1019 77 10000 2.24 305 15:37 27.01.2023
70 Clouds 1 1018 77 10000 2.24 45 14:27 27.01.2023
71 Clouds 1 1019 79 10000 2.68 7 13:36 27.01.2023
72 Clouds -1 1019 90 10000 0.89 329 10:20 27.01.2023
73 Clouds -1 1019 91 10000 1.34 7 08:35 27.01.2023
74 Clouds -2 1018 85 10000 1.34 90 00:40 27.01.2023
75 Clouds -1 1018 87 10000 1.34 113 22:43 26.01.2023
76 Clouds -1 1019 89 10000 1.34 315 20:57 26.01.2023
77 Clouds -1 1019 89 10000 1.34 338 20:30 26.01.2023
78 Clouds 0 1019 89 10000 0.89 352 18:20 26.01.2023
79 Clouds 0 1019 89 10000 2.68 311 16:59 26.01.2023
80 Clouds 0 1019 87 10000 1.34 135 16:26 26.01.2023
81 Clouds 0 1019 88 10000 1.34 342 15:46 26.01.2023
82 Clouds 0 1018 88 10000 0.45 22 15:26 26.01.2023
83 Clouds 0 1018 89 10000 1.34 320 13:56 26.01.2023
84 Clouds 0 1019 91 10000 2.68 357 12:43 26.01.2023
85 Clouds 0 1020 92 10000 1.34 314 11:25 26.01.2023
86 Clouds -1 1020 93 10000 1.34 331 10:27 26.01.2023
87 Clouds -1 1019 93 10000 0.45 360 09:44 26.01.2023
88 Clouds -1 1019 93 10000 1.34 158 08:25 26.01.2023
89 Clouds 1 1022 92 10000 0.45 269 23:58 25.01.2023
90 Clouds 1 1022 92 10000 1.79 326 23:37 25.01.2023
91 Clouds 1 1023 92 10000 0.45 360 21:56 25.01.2023
92 Clouds 1 1023 92 10000 0.45 257 21:20 25.01.2023
93 Clouds 2 1025 91 10000 1.34 357 18:57 25.01.2023
94 Clouds 2 1025 90 10000 1.79 323 18:21 25.01.2023
95 Clouds 3 1026 89 10000 2.68 308 15:44 25.01.2023
96 Clouds 3 1028 90 10000 1.79 331 12:58 25.01.2023
97 Clouds 2 1029 91 10000 2.68 360 11:21 25.01.2023
98 Clouds 2 1029 92 10000 2.24 360 09:48 25.01.2023
99 Clouds 2 1029 92 10000 0.89 264 07:45 25.01.2023
100 Clouds 2 1031 91 10000 1.45 46 01:36 25.01.2023
101 Clouds 2 1031 90 10000 0.45 199 00:25 25.01.2023
102 Clouds 3 1031 87 10000 1.34 340 21:35 24.01.2023
103 Clouds 3 1031 87 10000 1.79 336 20:23 24.01.2023
104 Clouds 3 1031 85 10000 1.7 54 18:50 24.01.2023
105 Clouds 3 1031 85 10000 0.45 357 18:29 24.01.2023
106 Clouds 4 1031 83 10000 1.34 26 16:53 24.01.2023
107 Clouds 4 1031 83 10000 1.34 26 16:53 24.01.2023
108 Clouds 4 1031 83 10000 1.34 13 16:29 24.01.2023
109 Clouds 4 1030 81 10000 1.34 122 13:50 24.01.2023
110 Clouds 4 1030 84 10000 0.45 94 11:46 24.01.2023
111 Clouds 3 1030 86 10000 1.34 23 08:43 24.01.2023
112 Clouds 2 1029 87 10000 0.89 340 08:18 24.01.2023
113 Clouds 3 1029 86 10000 0.45 86 07:48 24.01.2023
114 Clouds 3 1027 85 10000 1.34 45 02:43 24.01.2023
115 Clouds 2 1027 87 10000 1.79 357 00:40 24.01.2023
116 Clouds 2 1027 86 10000 2.24 323 22:38 23.01.2023
117 Clouds 2 1027 85 10000 3.58 34 20:45 23.01.2023
118 Clouds 2 1027 84 6358 3.58 2 19:23 23.01.2023
119 Clouds 2 1026 81 10000 3.58 330 17:29 23.01.2023
120 Clouds 2 1026 77 10000 2.68 321 15:32 23.01.2023
121 Clouds 2 1026 75 10000 2.24 45 13:57 23.01.2023
122 Clouds 2 1027 76 10000 1.79 19 12:58 23.01.2023
123 Clouds 2 1027 77 10000 1.34 23 12:34 23.01.2023
124 Clouds 1 1028 77 10000 1.34 32 11:29 23.01.2023
125 Clouds 0 1030 93 10000 1.97 57 08:25 23.01.2023
126 Clouds 0 1030 93 10000 1.97 57 08:25 23.01.2023
127 Clouds 0 1030 93 10000 1.89 92 02:23 23.01.2023
128 Clouds 0 1027 91 10000 1.38 82 22:55 22.01.2023
129 Clouds 0 1027 91 10000 1.39 83 21:19 22.01.2023
130 Clouds 0 1030 95 10000 1.48 72 20:24 22.01.2023
131 Clouds 0 1030 95 10000 1.56 91 19:45 22.01.2023
132 Clouds 0 1029 95 10000 1.53 88 18:53 22.01.2023
133 Clouds 0 1026 90 10000 0.45 23 17:57 22.01.2023
134 Clouds 0 1026 89 10000 1.34 7 17:26 22.01.2023
135 Clouds 1 1025 87 10000 0.89 23 16:21 22.01.2023
136 Clouds 1 1025 88 10000 1.79 333 14:54 22.01.2023
137 Clouds 1 1024 88 10000 2.24 335 13:40 22.01.2023
138 Clouds 0 1025 88 10000 1.79 309 12:48 22.01.2023
139 Clouds 0 1025 90 10000 0.45 350 11:36 22.01.2023
140 Clouds -1 1024 92 10000 1.34 2 09:36 22.01.2023
141 Clouds -1 1024 92 3158 1.34 23 07:39 22.01.2023
142 Snow -1 1024 90 517 0.45 325 02:37 22.01.2023
143 Clouds -1 1024 89 4707 2.68 23 23:33 21.01.2023
144 Clouds -1 1024 89 6839 2.24 27 22:35 21.01.2023
145 Clouds -1 1024 88 1078 4.02 339 20:21 21.01.2023
146 Clouds -1 1024 86 10000 2.68 357 17:51 21.01.2023
147 Clouds 0 1022 76 10000 4.92 14 14:42 21.01.2023
148 Clouds 1 1022 77 10000 4.47 338 12:58 21.01.2023
149 Clouds 1 1022 76 10000 3.13 357 12:36 21.01.2023
150 Clouds -1 1022 76 10000 1.34 344 11:27 21.01.2023
151 Clouds -3 1022 83 10000 1.94 38 09:56 21.01.2023
152 Clouds -4 1020 83 10000 1.79 86 04:41 21.01.2023
153 Clouds -1 1019 79 10000 0.45 203 22:47 20.01.2023
154 Clouds -1 1019 80 10000 2.02 151 22:24 20.01.2023
155 Clouds -1 1019 80 10000 0.45 117 21:34 20.01.2023
156 Clouds -1 1019 82 10000 2.44 145 20:39 20.01.2023
157 Clouds -1 1021 90 10000 2.3 146 17:54 20.01.2023
158 Clouds 3 1017 73 10000 2.68 208 15:26 20.01.2023
159 Clouds 2 1017 77 10000 1.34 360 14:32 20.01.2023
160 Clouds 0 1016 86 10000 0.45 210 11:18 20.01.2023
161 Clouds -2 1015 90 10000 1.15 148 08:59 20.01.2023
162 Clouds -2 1014 90 10000 1.28 147 07:40 20.01.2023
163 Clouds -1 1014 90 10000 1.41 118 02:32 20.01.2023
164 Clouds -1 1012 89 10000 1.7 113 22:37 19.01.2023
165 Clear 0 1012 88 10000 1.83 112 21:47 19.01.2023
166 Clouds 0 1011 90 10000 1.89 117 19:38 19.01.2023
167 Clouds 0 1011 83 10000 1.9 128 18:57 19.01.2023
168 Clouds 2 1008 81 10000 2.24 182 14:55 19.01.2023
169 Clouds 0 1009 83 10000 1.34 223 10:44 19.01.2023
170 Clouds -1 1008 86 10000 0.89 203 08:58 19.01.2023
171 Clouds -1 1005 90 10000 0.45 221 22:42 18.01.2023
172 Clouds -1 1003 91 10000 1.02 140 20:36 18.01.2023
173 Clouds -1 1003 91 10000 1.02 141 20:18 18.01.2023
174 Clouds -1 1002 91 10000 1.02 141 19:36 18.01.2023
175 Clouds 1 1000 88 10000 0.24 271 17:32 18.01.2023
176 Clouds 2 998 83 10000 1.02 321 14:41 18.01.2023
177 Rain 1 997 88 10000 1.3 343 12:53 18.01.2023
178 Clouds 0 994 93 3348 0.89 203 10:29 18.01.2023
179 Snow 0 991 94 47 0.45 257 07:57 18.01.2023
180 Rain 2 986 89 80 3.13 360 01:26 18.01.2023
181 Rain 2 985 92 5673 2.24 203 22:49 17.01.2023
182 Clouds 1 984 93 10000 1.79 203 20:31 17.01.2023
183 Snow 1 984 92 10000 2.36 157 19:27 17.01.2023
184 Snow 1 984 90 117 1.66 181 17:56 17.01.2023
185 Rain 3 983 86 10000 0.89 47 16:24 17.01.2023
186 Rain 4 983 79 10000 2.24 357 14:55 17.01.2023
187 Rain 4 983 78 10000 0.45 323 13:52 17.01.2023
188 Clouds 4 985 78 10000 0.89 329 12:27 17.01.2023
189 Clouds 3 985 79 10000 1.79 333 11:38 17.01.2023
190 Clouds 1 986 84 10000 0.89 81 09:34 17.01.2023
191 Clouds 1 987 86 10000 0.89 90 07:54 17.01.2023
192 Clouds 3 989 81 10000 2.24 178 03:57 17.01.2023
193 Clouds 4 990 81 10000 3.13 360 00:57 17.01.2023
194 Clouds 4 989 80 7580 4.92 360 23:38 16.01.2023
195 Clouds 3 989 82 7414 4.47 213 21:52 16.01.2023
196 Clouds 4 989 80 10000 4.02 360 20:27 16.01.2023
197 Clouds 5 989 76 7437 4.02 203 19:35 16.01.2023
198 Rain 5 988 77 6690 5.81 203 18:53 16.01.2023
199 Clouds 5 988 79 10000 3.58 276 18:21 16.01.2023
200 Clouds 5 987 85 10000 8.94 209 17:35 16.01.2023
201 Rain 7 986 75 10000 6.26 223 15:33 16.01.2023
202 Rain 7 987 70 10000 4.47 203 13:39 16.01.2023
203 Rain 5 990 78 10000 3.13 130 10:53 16.01.2023
204 Rain 6 991 69 10000 2.68 203 10:18 16.01.2023
205 Clouds 5 1006 68 10000 4.47 207 23:38 15.01.2023
206 Clouds 5 1008 67 10000 3.13 256 22:26 15.01.2023
207 Clouds 5 1010 70 10000 3.58 223 20:41 15.01.2023
208 Clouds 5 1010 70 10000 3.58 175 19:59 15.01.2023
209 Clouds 5 1011 73 10000 4.47 174 17:55 15.01.2023
210 Clouds 6 1012 78 10000 3.58 294 16:18 15.01.2023
211 Rain 5 1010 87 3004 4.47 198 12:39 15.01.2023
212 Rain 5 1009 89 1723 4.02 263 11:36 15.01.2023
213 Rain 6 1008 89 3160 2.24 360 10:36 15.01.2023
214 Rain 7 1007 86 9911 1.34 180 09:36 15.01.2023
215 Rain 12 1005 81 10000 4.92 203 01:51 15.01.2023
216 Clouds 12 1008 74 10000 4.02 203 23:21 14.01.2023
217 Clouds 12 1008 72 10000 5.36 203 22:26 14.01.2023
218 Clouds 12 1009 73 10000 6.71 198 21:36 14.01.2023
219 Clouds 12 1010 74 10000 6.26 203 21:18 14.01.2023
220 Clouds 12 1010 74 10000 6.26 203 21:18 14.01.2023
221 Clouds 12 1010 73 10000 5.81 203 20:39 14.01.2023
222 Rain 11 1010 73 10000 4.02 119 19:27 14.01.2023
223 Clouds 10 1012 78 10000 2.68 360 17:39 14.01.2023
224 Clouds 11 1012 55 10000 4.47 203 15:30 14.01.2023
225 Clouds 11 1013 61 10000 4.02 203 14:26 14.01.2023
226 Rain 10 1013 66 10000 1.79 191 13:43 14.01.2023
227 Clouds 10 1016 72 10000 3.58 165 11:58 14.01.2023
228 Clouds 10 1017 74 10000 4.02 196 10:47 14.01.2023
229 Clouds 8 1019 79 10000 1.34 198 08:19 14.01.2023
230 Clouds 7 1022 87 10000 3.13 203 23:49 13.01.2023
231 Clouds 7 1022 86 10000 2.24 167 22:53 13.01.2023
232 Clouds 7 1022 85 10000 3.58 173 22:34 13.01.2023
233 Clouds 7 1021 84 10000 3.13 131 21:56 13.01.2023
234 Clouds 7 1020 85 10000 3.58 203 19:53 13.01.2023
235 Rain 7 1019 86 10000 3.58 203 18:47 13.01.2023
236 Clouds 8 1017 81 6685 4.02 196 16:57 13.01.2023
237 Clouds 9 1016 78 9491 3.58 203 14:40 13.01.2023
238 Clouds 11 1015 75 10000 7.15 150 12:21 13.01.2023
239 Clouds 10 1014 83 5425 4.92 215 10:32 13.01.2023
240 Rain 9 1014 87 8588 3.58 179 09:55 13.01.2023
241 Clouds 9 1014 87 8588 3.58 191 09:35 13.01.2023
242 Clouds 10 1013 82 10000 4.47 111 08:47 13.01.2023
243 Clouds 10 1013 80 10000 4.92 203 06:55 13.01.2023
244 Clouds 10 1013 78 10000 4.92 164 05:45 13.01.2023
245 Clouds 11 1016 69 10000 4.02 203 00:48 13.01.2023
246 Clouds 11 1016 66 10000 4.47 263 22:46 12.01.2023
247 Clouds 11 1017 69 10000 4.47 211 21:19 12.01.2023
248 Clouds 11 1017 70 10000 4.92 203 20:46 12.01.2023
249 Clouds 10 1017 73 10000 4.92 203 18:26 12.01.2023
250 Clouds 10 1018 75 10000 4.02 283 16:59 12.01.2023
251 Clouds 10 1019 75 10000 3.58 360 14:55 12.01.2023
252 Clouds 10 1018 75 10000 4.47 276 14:26 12.01.2023
253 Clouds 10 1019 77 10000 4.92 203 13:49 12.01.2023
254 Clouds 10 1020 78 10000 5.81 210 12:19 12.01.2023
255 Clouds 9 1020 75 10000 5.81 203 10:25 12.01.2023
256 Clouds 8 1020 76 10000 4.02 269 07:26 12.01.2023
257 Clouds 8 1022 83 10000 4.47 202 00:32 12.01.2023
258 Clouds 8 1022 84 10000 4.02 203 23:57 11.01.2023
259 Clouds 8 1021 84 10000 3.13 203 23:37 11.01.2023
260 Clouds 8 1022 84 10000 2.68 203 23:19 11.01.2023
261 Clouds 8 1022 87 10000 2.24 281 21:32 11.01.2023
262 Clouds 8 1020 87 10000 2.68 190 19:19 11.01.2023
263 Rain 9 1019 89 10000 1.79 225 17:49 11.01.2023
264 Rain 10 1017 90 10000 1.34 225 15:52 11.01.2023
265 Clouds 10 1016 88 10000 3.13 203 13:59 11.01.2023
266 Clouds 11 1016 85 10000 4.92 246 12:34 11.01.2023
267 Rain 11 1016 82 10000 4.92 206 11:40 11.01.2023
268 Clouds 11 1016 79 10000 4.47 190 09:46 11.01.2023
269 Clouds 10 1016 85 10000 4.47 203 07:37 11.01.2023
270 Clouds 9 1017 87 10000 3.13 203 06:56 11.01.2023
271 Clouds 8 1020 75 10000 3.58 203 23:55 10.01.2023
272 Clouds 7 1020 66 10000 2.24 215 22:36 10.01.2023
273 Clouds 7 1020 63 10000 2.68 203 21:30 10.01.2023
274 Rain 7 1021 67 10000 2.24 203 19:56 10.01.2023
275 Clouds 7 1021 68 10000 1.79 203 19:34 10.01.2023
276 Rain 6 1021 70 10000 2.24 203 18:47 10.01.2023
277 Clouds 6 1021 72 10000 1.79 203 17:54 10.01.2023
278 Clouds 7 1022 70 10000 1.34 203 15:48 10.01.2023
279 Clouds 7 1023 70 10000 2.24 203 15:23 10.01.2023
280 Clouds 7 1023 72 10000 3.13 207 14:21 10.01.2023
281 Clouds 6 1025 80 10000 3.13 203 11:57 10.01.2023
282 Clouds 4 1023 85 10000 3.13 149 08:58 10.01.2023
283 Clouds 4 1023 86 10000 2.24 191 08:28 10.01.2023
284 Clouds 4 1021 87 10000 4.02 193 07:26 10.01.2023
285 Clouds 4 1020 88 10000 0.89 194 04:51 10.01.2023
286 Rain 5 1012 88 274 4.02 207 22:55 09.01.2023
287 Rain 5 1012 87 3091 3.58 221 21:47 09.01.2023
288 Clouds 5 1011 88 3616 2.68 360 20:43 09.01.2023
289 Rain 6 1009 88 2928 3.58 167 18:44 09.01.2023
290 Clouds 5 1008 87 1727 2.68 205 17:53 09.01.2023
291 Clouds 5 1008 88 6306 2.68 203 16:59 09.01.2023
292 Rain 5 1008 87 6306 2.68 203 16:32 09.01.2023
293 Clouds 6 1006 87 9029 3.58 203 15:23 09.01.2023
294 Rain 7 1005 81 6894 4.02 181 14:43 09.01.2023
295 Clouds 7 1005 84 3068 4.02 161 12:56 09.01.2023
296 Clouds 7 1005 85 3068 4.02 203 12:35 09.01.2023
297 Clouds 8 1005 77 10000 6.26 229 11:21 09.01.2023
298 Clouds 7 1004 77 10000 4.47 173 08:42 09.01.2023
299 Clouds 6 1005 81 10000 5.36 73 06:37 09.01.2023
300 Clouds 9 999 84 10000 4.92 203 02:53 09.01.2023
301 Rain 8 999 92 10000 1.79 203 22:54 08.01.2023
302 Rain 8 1000 90 10000 0.89 203 21:23 08.01.2023
303 Rain 8 1000 90 10000 2.39 139 20:57 08.01.2023
304 Rain 9 1001 91 10000 0.45 203 19:44 08.01.2023
305 Clouds 9 1003 90 10000 3.37 166 17:42 08.01.2023
306 Rain 9 1003 90 10000 0.45 203 17:19 08.01.2023
307 Rain 9 1004 92 10000 0.45 203 15:39 08.01.2023
308 Clouds 9 1005 91 10000 3.04 157 14:35 08.01.2023
309 Rain 9 1006 89 10000 1.79 88 13:55 08.01.2023
310 Clouds 9 1007 86 10000 1.79 203 13:21 08.01.2023
311 Rain 9 1008 83 10000 2.24 184 11:51 08.01.2023
312 Rain 9 1008 81 10000 5.81 206 09:38 08.01.2023
313 Rain 9 1008 83 10000 2.68 203 08:42 08.01.2023
314 Rain 8 1008 89 7428 1.34 203 06:20 08.01.2023
315 Clouds 6 1011 84 10000 2.55 165 23:35 07.01.2023
316 Clouds 6 1011 84 10000 2.57 169 22:45 07.01.2023
317 Clouds 6 1011 81 10000 2.66 162 22:18 07.01.2023
318 Clouds 7 1011 81 10000 2.66 162 21:32 07.01.2023
319 Clouds 7 1012 81 10000 2.71 154 20:29 07.01.2023
320 Clouds 7 1012 80 10000 2.57 156 19:25 07.01.2023
321 Clouds 9 1012 73 10000 2.5 158 18:21 07.01.2023
322 Clouds 9 1012 75 10000 2.5 158 17:43 07.01.2023
323 Clouds 12 1015 76 10000 2.86 145 16:54 07.01.2023
324 Clouds 12 1015 84 10000 2.34 167 16:29 07.01.2023
325 Clouds 12 1015 81 10000 2.34 167 15:40 07.01.2023
326 Clouds 13 1014 64 10000 0.89 203 15:22 07.01.2023
327 Clouds 14 1014 57 10000 1.79 203 14:25 07.01.2023
328 Clouds 14 1013 57 10000 3.13 203 13:43 07.01.2023
329 Clouds 13 1015 60 10000 3.13 203 13:19 07.01.2023
330 Clouds 12 1015 68 10000 1.34 203 12:21 07.01.2023
331 Clouds 9 1016 79 10000 0.45 203 10:29 07.01.2023
332 Clouds 9 1016 80 10000 1.34 203 09:51 07.01.2023
333 Clouds 7 1016 88 10000 1.59 151 08:18 07.01.2023
334 Clouds 7 1017 89 10000 1.59 151 07:42 07.01.2023
335 Clouds 8 1018 86 10000 1.67 165 06:46 07.01.2023
336 Clouds 8 1021 83 10000 0.45 203 23:53 06.01.2023
337 Clouds 8 1022 83 10000 1.94 145 22:22 06.01.2023
338 Clouds 8 1022 83 10000 0.45 203 21:53 06.01.2023
339 Clouds 9 1022 82 10000 0.89 203 20:38 06.01.2023
340 Clouds 9 1022 81 10000 0.45 203 19:56 06.01.2023
341 Clouds 9 1022 80 10000 0.89 203 19:38 06.01.2023
342 Clouds 10 1022 79 10000 0.45 203 19:20 06.01.2023
343 Clouds 10 1022 81 10000 1.79 130 18:24 06.01.2023
344 Clouds 10 1022 78 10000 1.34 273 16:54 06.01.2023
345 Clouds 11 1022 78 10000 2.24 213 16:23 06.01.2023
346 Clouds 11 1022 78 10000 1.79 203 15:53 06.01.2023
347 Clouds 11 1022 77 10000 2.24 196 15:31 06.01.2023
348 Clouds 12 1022 78 10000 2.68 215 13:47 06.01.2023
349 Clouds 12 1022 81 10000 2.68 203 12:21 06.01.2023
350 Clouds 10 1023 86 10000 2.68 203 10:57 06.01.2023
351 Clouds 8 1022 89 10000 0.89 203 08:53 06.01.2023
352 Clouds 9 1022 89 10000 1.74 168 05:26 06.01.2023
353 Clouds 10 1023 87 10000 1.91 172 23:39 05.01.2023
354 Clouds 10 1023 86 10000 2.14 172 22:45 05.01.2023
355 Clouds 11 1024 84 10000 2.31 182 21:22 05.01.2023
356 Clouds 12 1024 84 10000 1.79 215 17:57 05.01.2023
357 Clouds 12 1024 85 10000 1.79 203 17:26 05.01.2023
358 Clouds 12 1024 85 10000 1.79 203 17:26 05.01.2023
359 Clouds 12 1024 83 10000 2.24 203 15:59 05.01.2023
360 Clouds 12 1024 83 10000 2.24 203 15:59 05.01.2023
361 Clouds 13 1024 83 10000 3.13 196 15:35 05.01.2023
362 Clouds 13 1024 83 10000 3.58 214 14:34 05.01.2023
363 Clouds 12 1024 83 10000 3.13 137 12:42 05.01.2023
364 Clouds 12 1025 80 10000 1.79 145 11:42 05.01.2023
365 Clouds 11 1025 88 10000 3.13 360 09:48 05.01.2023
366 Clouds 11 1024 88 10000 4.02 227 08:24 05.01.2023
367 Clouds 11 1023 88 10000 4.02 203 06:57 05.01.2023
368 Clouds 11 1023 88 10000 4.92 126 03:34 05.01.2023
369 Clouds 11 1025 85 10000 4.47 202 22:33 04.01.2023
370 Clouds 11 1026 85 10000 4.47 203 21:33 04.01.2023
371 Clouds 11 1025 83 10000 5.36 207 20:26 04.01.2023
372 Clouds 11 1025 82 10000 4.47 203 19:54 04.01.2023
373 Clouds 11 1026 81 10000 5.81 180 19:30 04.01.2023
374 Clouds 10 1026 82 10000 6.71 222 18:19 04.01.2023
375 Clouds 10 1026 80 10000 3.58 203 16:31 04.01.2023
376 Clouds 10 1027 78 10000 4.02 157 15:27 04.01.2023
377 Clouds 10 1027 73 10000 5.36 196 13:36 04.01.2023
378 Clouds 9 1028 76 10000 3.58 189 11:40 04.01.2023
379 Clouds 9 1029 76 10000 3.58 238 11:18 04.01.2023
380 Clouds 8 1029 79 10000 3.13 203 10:42 04.01.2023
381 Clouds 8 1028 81 10000 4.92 198 10:21 04.01.2023
382 Clouds 6 1028 84 10000 2.68 161 06:18 04.01.2023
383 Clouds 4 1029 91 10000 0.45 203 01:43 04.01.2023
384 Clear 4 1030 90 10000 2.18 161 23:52 03.01.2023
385 Clear 4 1030 89 10000 2.18 161 23:31 03.01.2023
386 Clear 5 1030 88 10000 1.92 152 22:26 03.01.2023
387 Clear 5 1030 88 10000 2.01 148 20:51 03.01.2023
388 Clear 6 1030 87 10000 0.45 94 18:52 03.01.2023
389 Clouds 9 1029 83 10000 1.48 176 16:47 03.01.2023
390 Clouds 10 1028 80 10000 0.45 203 15:47 03.01.2023
391 Clouds 10 1029 84 10000 1.34 360 13:51 03.01.2023
392 Clouds 10 1029 85 10000 0.45 203 13:29 03.01.2023
393 Clouds 9 1029 88 10000 1.79 360 12:57 03.01.2023
394 Clouds 9 1029 90 10000 1.79 250 12:29 03.01.2023
395 Clouds 7 1029 93 10000 0.95 181 10:25 03.01.2023
396 Clouds 7 1028 92 10000 1.57 205 06:21 03.01.2023
397 Clouds 8 1028 91 10000 1.56 202 03:57 03.01.2023
398 Clouds 8 1028 90 10000 1.56 202 03:39 03.01.2023
399 Clouds 9 1027 88 10000 2.01 191 23:56 02.01.2023
400 Rain 10 1026 88 10000 1.98 186 22:41 02.01.2023
401 Rain 10 1026 87 10000 1.78 198 21:52 02.01.2023
402 Clouds 11 1025 86 10000 1.67 195 20:38 02.01.2023
403 Rain 11 1024 86 10000 3.13 202 19:28 02.01.2023
404 Clouds 12 1022 78 10000 3.58 203 16:56 02.01.2023
405 Rain 15 1021 55 10000 4.02 192 14:46 02.01.2023
406 Clouds 16 1020 51 10000 2.68 203 12:57 02.01.2023
407 Clouds 15 1020 50 10000 2.68 269 11:40 02.01.2023
408 Clouds 11 1019 65 10000 1.97 195 09:48 02.01.2023
409 Clouds 10 1017 74 10000 1.87 177 07:32 02.01.2023
410 Clouds 10 1017 78 10000 2.47 156 00:40 02.01.2023
411 Clouds 10 1017 79 10000 2.49 151 21:58 01.01.2023
412 Clouds 11 1017 76 10000 0.45 109 21:24 01.01.2023
413 Clouds 11 1017 76 10000 2.39 149 20:46 01.01.2023
414 Clouds 10 1018 80 10000 2.44 146 19:42 01.01.2023
415 Clouds 11 1018 78 10000 2.66 146 17:55 01.01.2023
416 Clouds 12 1017 78 10000 0.45 117 17:20 01.01.2023
417 Clouds 13 1017 75 10000 2.89 143 16:32 01.01.2023
418 Clouds 18 1018 57 10000 1.34 239 14:47 01.01.2023
419 Clouds 17 1019 59 10000 0.45 177 13:37 01.01.2023
420 Clouds 17 1020 58 10000 0.89 360 12:33 01.01.2023
421 Clouds 16 1020 61 10000 2.59 205 11:36 01.01.2023
422 Clouds 16 1020 61 10000 2.59 205 11:36 01.01.2023
423 Clouds 13 1021 71 10000 2 196 10:35 01.01.2023
424 Clouds 9 1020 80 10000 0.45 360 08:49 01.01.2023
425 Clouds 10 1019 77 10000 0.45 78 08:18 01.01.2023
426 Clouds 12 1019 74 10000 2.74 175 06:58 01.01.2023
427 Clouds 14 1019 68 10000 1.34 187 01:42 01.01.2023
428 Clouds 16 1019 66 10000 2.68 203 23:42 31.12.2022
429 Clouds 14 1018 69 10000 2.24 175 22:33 31.12.2022
430 Clouds 14 1017 74 10000 0.89 169 21:35 31.12.2022
431 Clouds 12 1017 81 10000 3.22 173 20:52 31.12.2022
432 Clouds 13 1017 80 10000 3.14 170 19:33 31.12.2022
433 Clouds 13 1016 78 10000 2.94 161 18:42 31.12.2022
434 Clouds 13 1016 78 10000 2.75 156 18:18 31.12.2022
435 Clouds 14 1016 78 10000 2.75 156 17:46 31.12.2022
436 Clouds 16 1016 72 10000 2.68 165 16:42 31.12.2022
437 Clouds 16 1016 71 10000 2.64 170 16:22 31.12.2022
438 Clouds 18 1016 62 10000 2.8 195 14:39 31.12.2022
439 Clouds 18 1018 62 10000 1.34 203 13:38 31.12.2022
440 Clouds 19 1017 58 10000 3.58 203 12:40 31.12.2022
441 Clouds 18 1019 60 10000 3.58 203 12:19 31.12.2022
442 Clouds 18 1019 60 10000 3.58 203 12:19 31.12.2022
443 Clouds 19 1019 57 10000 3.58 203 11:50 31.12.2022
444 Clouds 17 1017 63 10000 4.3 209 10:36 31.12.2022
445 Clouds 15 1017 74 10000 3.23 200 09:54 31.12.2022
446 Clouds 15 1017 74 10000 3.23 200 09:35 31.12.2022
447 Clouds 14 1017 75 10000 3.41 197 07:48 31.12.2022
448 Rain 15 1015 75 10000 4.92 204 00:37 31.12.2022
449 Clouds 15 1015 77 10000 4.92 195 23:47 30.12.2022
450 Clouds 15 1014 78 10000 5.36 203 22:49 30.12.2022
451 Clouds 14 1014 80 10000 5.81 360 21:45 30.12.2022
452 Clouds 14 1014 80 10000 5.36 203 21:26 30.12.2022
453 Clouds 13 1012 80 10000 4.92 120 18:59 30.12.2022
454 Clouds 13 1014 79 10000 6.67 199 17:51 30.12.2022
455 Clouds 13 1012 76 10000 4.92 226 17:32 30.12.2022
456 Clouds 12 1011 76 10000 4.02 203 15:58 30.12.2022
457 Clouds 12 1010 72 10000 3.13 203 14:53 30.12.2022
458 Clouds 9 1012 82 10000 0.45 71 12:50 30.12.2022
459 Clouds 6 1015 88 10000 1.34 82 08:22 30.12.2022
460 Clouds 7 1016 85 10000 0.89 176 03:40 30.12.2022
461 Clouds 8 1015 88 10000 1.79 203 01:53 30.12.2022
462 Rain 8 1014 90 4921 1.34 203 22:58 29.12.2022
463 Rain 10 1013 84 7978 4.47 210 21:32 29.12.2022
464 Rain 10 1013 80 7986 3.58 203 20:54 29.12.2022
465 Rain 11 1012 78 10000 4.02 203 20:25 29.12.2022
466 Clouds 11 1012 85 10000 3.58 200 18:32 29.12.2022
467 Clouds 12 1012 80 10000 3.58 203 17:37 29.12.2022
468 Clouds 12 1012 79 10000 3.58 272 16:56 29.12.2022
469 Clouds 12 1012 77 10000 3.58 133 16:33 29.12.2022
470 Clouds 12 1011 76 10000 3.58 277 15:37 29.12.2022
471 Clouds 13 1011 75 10000 3.13 214 13:34 29.12.2022
472 Clouds 13 1011 75 10000 3.13 214 13:34 29.12.2022
473 Clouds 12 1012 74 10000 4.02 249 11:48 29.12.2022
474 Clouds 12 1012 62 10000 3.58 214 09:18 29.12.2022
475 Clouds 11 1015 67 10000 5.79 215 00:37 29.12.2022
476 Clouds 12 1013 62 10000 3.13 219 23:28 28.12.2022
477 Clouds 11 1014 61 10000 5.58 205 21:44 28.12.2022
478 Clouds 10 1016 81 10000 4.35 201 21:18 28.12.2022
479 Clouds 8 1017 84 10000 4.65 204 19:38 28.12.2022
480 Clouds 9 1019 77 10000 2.94 157 16:58 28.12.2022
481 Clouds 10 1019 62 10000 2.85 181 15:38 28.12.2022
482 Clouds 11 1019 64 10000 5.36 174 12:59 28.12.2022
483 Clouds 10 1019 66 10000 2.68 163 12:32 28.12.2022
484 Clouds 10 1020 68 10000 1.79 268 11:32 28.12.2022
485 Clouds 7 1021 82 10000 2.89 176 09:19 28.12.2022
486 Clouds 6 1025 82 10000 2.54 174 07:28 28.12.2022
487 Clouds 6 1022 81 10000 2.68 194 06:43 28.12.2022
488 Clear 4 1025 86 10000 0.89 203 00:29 28.12.2022
489 Clear 3 1026 90 10000 2.17 162 20:59 27.12.2022
490 Clouds 3 1027 89 10000 2.24 160 19:41 27.12.2022
491 Clouds 5 1027 83 10000 2.08 164 17:58 27.12.2022
492 Clouds 7 1027 78 10000 2.01 168 16:44 27.12.2022
493 Clouds 8 1028 76 10000 0.45 203 15:49 27.12.2022
494 Clouds 9 1028 74 10000 0.45 209 13:57 27.12.2022
495 Clouds 7 1029 84 10000 2.1 221 11:42 27.12.2022
496 Clouds 5 1029 91 10000 1.71 184 09:47 27.12.2022
497 Clouds 4 1029 92 10000 1.98 167 09:23 27.12.2022
498 Clouds 4 1029 92 10000 1.98 167 08:41 27.12.2022
499 Clouds 4 1027 91 10000 1.66 210 04:32 27.12.2022
500 Clouds 9 1024 91 10000 3.54 244 23:25 26.12.2022
501 Clouds 9 1022 90 10000 1.79 203 21:32 26.12.2022
502 Clouds 9 1022 90 5517 0.89 191 20:42 26.12.2022
503 Clouds 11 1020 83 9291 4.92 360 18:50 26.12.2022
504 Clouds 11 1019 84 9275 4.47 203 17:52 26.12.2022
505 Clouds 11 1019 84 10000 4.47 203 16:37 26.12.2022
506 Clouds 11 1019 87 10000 2.68 203 14:48 26.12.2022
507 Rain 11 1019 87 7184 3.13 182 12:52 26.12.2022
508 Rain 11 1018 78 8430 1.34 203 09:27 26.12.2022
509 Clouds 11 1019 81 10000 2.85 183 00:25 26.12.2022
510 Clouds 11 1019 78 10000 2.85 183 23:38 25.12.2022
511 Clouds 11 1019 78 10000 2.99 182 22:42 25.12.2022
512 Clouds 12 1018 75 10000 2.94 182 21:49 25.12.2022
513 Clouds 13 1017 71 10000 2.85 196 19:28 25.12.2022
514 Clouds 13 1016 72 10000 3.15 191 17:52 25.12.2022
515 Clouds 12 1016 72 10000 3.15 191 17:34 25.12.2022
516 Clouds 13 1014 77 10000 1.79 213 16:19 25.12.2022
517 Clouds 13 1013 82 10000 1.17 212 13:28 25.12.2022
518 Clouds 10 1015 89 10000 0.88 147 11:21 25.12.2022
519 Clouds 8 1017 94 10000 1.29 133 02:58 25.12.2022
520 Rain 9 1017 90 10000 0.99 144 22:39 24.12.2022
521 Clouds 10 1017 83 10000 1.38 152 19:52 24.12.2022
522 Clouds 11 1016 76 10000 0.89 229 16:59 24.12.2022
523 Clouds 12 1016 76 10000 2.24 177 15:28 24.12.2022
524 Clouds 12 1016 74 10000 3.13 177 14:22 24.12.2022
525 Clouds 12 1016 75 10000 1.79 192 11:54 24.12.2022
526 Clouds 12 1016 80 10000 2.24 231 10:23 24.12.2022
527 Clouds 11 1016 84 10000 2.68 193 09:37 24.12.2022
528 Clouds 11 1015 83 10000 1.79 208 08:36 24.12.2022
529 Clouds 12 1013 79 10000 2.24 360 02:51 24.12.2022
530 Clouds 13 1012 78 10000 2.24 208 00:29 24.12.2022
531 Clouds 13 1011 83 10000 3.58 203 22:30 23.12.2022
532 Clouds 14 1010 83 10000 3.58 169 21:33 23.12.2022
533 Clouds 14 1009 86 10000 5.81 198 19:40 23.12.2022
534 Clouds 14 1009 87 8506 6.26 219 19:22 23.12.2022
535 Clouds 14 1008 87 3862 5.36 306 18:53 23.12.2022
536 Rain 14 1008 87 4175 6.26 255 18:21 23.12.2022
537 Clouds 14 1008 86 4146 5.81 182 17:43 23.12.2022
538 Clouds 14 1008 87 10000 5.81 204 15:45 23.12.2022
539 Rain 14 1007 89 10000 4.92 135 13:42 23.12.2022
540 Clouds 13 1009 90 4100 4.02 221 10:21 23.12.2022
541 Rain 13 1009 92 4100 2.68 203 09:35 23.12.2022
542 Clouds 13 1009 85 10000 3.58 215 07:30 23.12.2022
543 Clouds 13 1009 86 10000 4.02 203 06:50 23.12.2022
544 Clouds 12 1007 85 10000 5.81 265 00:39 23.12.2022
545 Clouds 11 1007 83 10000 4.02 203 23:19 22.12.2022
546 Rain 11 1008 82 10000 2.68 129 21:56 22.12.2022
547 Rain 12 1010 77 10000 4.47 190 19:48 22.12.2022
548 Clouds 12 1010 78 10000 3.58 294 19:21 22.12.2022
549 Rain 12 1012 79 10000 3.13 217 17:59 22.12.2022
550 Clouds 12 1012 80 10000 3.13 189 16:54 22.12.2022
551 Rain 11 1012 87 10000 4.47 264 15:48 22.12.2022
552 Clouds 11 1012 86 10000 3.13 186 15:29 22.12.2022
553 Clouds 11 1012 83 10000 4.02 203 14:28 22.12.2022
554 Clouds 12 1012 76 10000 5.81 174 13:31 22.12.2022
555 Clouds 12 1012 78 10000 7.15 229 12:31 22.12.2022
556 Rain 11 1012 80 10000 4.47 170 10:32 22.12.2022
557 Clouds 11 1011 80 10000 4.47 196 09:24 22.12.2022
558 Rain 12 1010 77 10000 5.81 157 08:59 22.12.2022
559 Rain 12 1010 74 10000 5.81 203 07:54 22.12.2022
560 Clouds 13 1010 76 10000 5.81 203 04:19 22.12.2022
561 Rain 12 1011 78 10000 4.02 203 00:48 22.12.2022
562 Clouds 12 1012 69 10000 3.58 198 22:41 21.12.2022
563 Clouds 11 1013 77 10000 1.79 224 21:50 21.12.2022
564 Clouds 11 1013 77 10000 0.45 194 21:20 21.12.2022
565 Clouds 10 1015 90 10000 2.89 176 20:40 21.12.2022
566 Clouds 12 1014 78 10000 2.68 154 19:56 21.12.2022
567 Clouds 12 1014 79 10000 2.68 182 19:38 21.12.2022
568 Clouds 12 1014 79 10000 3.58 203 19:19 21.12.2022
569 Clouds 12 1014 80 10000 3.13 204 18:42 21.12.2022
570 Clouds 12 1014 80 10000 3.13 200 17:34 21.12.2022
571 Clouds 12 1014 81 10000 2.68 147 14:24 21.12.2022
572 Clouds 12 1016 83 10000 1.34 203 12:30 21.12.2022
573 Clouds 12 1015 85 10000 3.13 227 11:21 21.12.2022
574 Clouds 11 1015 86 10000 3.58 186 10:50 21.12.2022
575 Rain 11 1014 86 10000 2.24 200 08:51 21.12.2022
576 Rain 10 1014 89 10000 2.24 203 06:55 21.12.2022
577 Rain 9 1015 84 10000 0.45 265 00:28 21.12.2022
578 Clouds 8 1015 82 10000 2.74 169 21:58 20.12.2022
579 Clouds 8 1015 83 10000 2.64 171 20:58 20.12.2022
580 Clouds 8 1015 81 10000 2.22 162 19:59 20.12.2022
581 Clouds 8 1015 86 10000 2.65 149 18:49 20.12.2022
582 Clouds 9 1015 88 10000 2.56 158 18:25 20.12.2022
583 Clouds 8 1015 91 10000 2.56 158 17:51 20.12.2022
584 Clouds 8 1015 92 10000 2.45 169 17:26 20.12.2022
585 Clouds 9 1015 89 10000 2.26 165 16:20 20.12.2022
586 Clouds 12 1015 79 10000 1.98 175 14:56 20.12.2022
587 Clouds 12 1015 77 10000 1.98 175 14:36 20.12.2022
588 Clouds 11 1016 78 10000 1.86 164 13:49 20.12.2022
589 Clouds 10 1017 80 10000 2.04 180 12:37 20.12.2022
590 Clouds 8 1018 81 10000 2.2 179 11:55 20.12.2022
591 Clouds 7 1018 82 10000 2.44 171 10:42 20.12.2022
592 Clouds 5 1019 87 10000 0.89 71 07:31 20.12.2022
593 Clouds 5 1022 89 10000 0.89 86 00:20 20.12.2022
594 Clouds 5 1022 89 10000 0.89 238 22:36 19.12.2022
595 Clouds 5 1022 88 10000 0.45 53 21:30 19.12.2022
596 Clouds 3 1022 91 10000 2.65 155 19:50 19.12.2022
597 Clouds 4 1022 91 10000 2.65 155 19:31 19.12.2022
598 Clouds 4 1023 90 10000 2.62 154 18:23 19.12.2022
599 Clouds 6 1023 89 10000 2.55 154 16:29 19.12.2022
600 Clouds 5 1023 91 10000 1.51 180 13:22 19.12.2022
601 Clouds 5 1024 95 10000 0.45 143 11:55 19.12.2022
602 Clouds 5 1024 86 10000 2.49 151 08:27 19.12.2022
603 Clouds 3 1024 95 10000 2.46 157 07:25 19.12.2022
604 Clouds -1 1026 95 10000 1.47 151 00:56 19.12.2022
605 Clouds -2 1026 94 10000 1.47 130 21:50 18.12.2022
606 Clouds -2 1026 94 10000 1.47 130 21:31 18.12.2022
607 Clouds -3 1026 94 10000 1.38 151 20:57 18.12.2022
608 Clouds -3 1027 94 10000 1.8 147 19:45 18.12.2022
609 Clouds -3 1027 94 10000 1.65 133 19:24 18.12.2022
610 Clouds -3 1027 94 10000 1.48 136 17:52 18.12.2022
611 Clouds -3 1027 93 10000 0.85 134 16:26 18.12.2022
612 Clouds -2 1027 92 10000 0.85 134 15:39 18.12.2022
613 Clouds -3 1027 92 10000 0.48 108 15:18 18.12.2022
614 Snow -3 1027 91 10000 0.42 284 13:35 18.12.2022
615 Snow -4 1028 92 10000 0.45 232 12:51 18.12.2022
616 Clouds -5 1028 92 10000 0.26 277 11:54 18.12.2022
617 Clear -7 1028 93 10000 0.7 176 10:19 18.12.2022
618 Clouds -8 1027 92 10000 1.47 132 08:47 18.12.2022
619 Clouds -8 1026 93 10000 1.89 125 07:20 18.12.2022
620 Clouds -8 1026 92 10000 1.69 131 06:20 18.12.2022
621 Clear -8 1027 94 10000 1.8 127 02:59 18.12.2022
622 Clouds -7 1026 94 10000 1.82 120 23:40 17.12.2022
623 Clouds -7 1027 94 10000 1.92 131 21:47 17.12.2022
624 Clouds -6 1026 94 10000 0.89 274 18:54 17.12.2022
625 Clouds -6 1025 94 10000 0.45 274 16:41 17.12.2022
626 Clouds -5 1024 93 10000 0.97 12 14:30 17.12.2022
627 Clouds -5 1026 94 10000 0.58 349 11:38 17.12.2022
628 Clouds -6 1025 94 10000 0.41 359 10:47 17.12.2022
629 Clouds -6 1024 93 10000 0.37 100 09:46 17.12.2022
630 Clouds -7 1021 93 10000 1.62 119 07:48 17.12.2022
631 Clouds -10 1022 93 10000 1.69 124 06:45 17.12.2022
632 Clouds -5 1019 93 10000 1.71 129 23:57 16.12.2022
633 Clouds -3 1017 95 10000 1.34 122 21:22 16.12.2022
634 Clouds -2 1016 95 8787 0.87 109 19:57 16.12.2022
635 Clouds -2 1013 96 10000 0.91 36 16:55 16.12.2022
636 Clouds -2 1012 91 10000 0.89 274 14:49 16.12.2022
637 Clouds -2 1011 92 10000 0.89 274 13:48 16.12.2022
638 Clouds -2 1010 92 10000 1.64 345 12:18 16.12.2022
639 Clouds -2 1010 93 10000 2.24 274 10:42 16.12.2022
640 Clouds -3 1008 93 806 1.37 357 09:26 16.12.2022
641 Clouds -3 1008 94 278 1.34 355 08:25 16.12.2022
642 Clouds -2 1007 94 278 1.34 355 07:54 16.12.2022
643 Clouds -2 1002 95 260 0.45 274 23:39 15.12.2022
644 Clouds -2 1002 95 163 1.34 274 22:30 15.12.2022
645 Clouds -2 1001 95 724 1.62 2 20:40 15.12.2022
646 Clouds -2 1001 95 638 0.89 274 19:37 15.12.2022
647 Clouds -2 1001 95 1532 1.59 4 18:25 15.12.2022
648 Clouds -2 1002 95 445 0.45 45 17:26 15.12.2022
649 Clouds -2 1002 95 320 0.89 45 15:36 15.12.2022
650 Clouds -2 1003 94 364 0.89 45 13:59 15.12.2022
651 Clouds -2 1005 94 491 1.9 9 12:41 15.12.2022
652 Clouds -2 1005 94 2951 0.89 45 10:29 15.12.2022
653 Clouds -2 1004 94 5588 0.89 45 08:54 15.12.2022
654 Clouds -1 1004 95 773 1.49 4 06:26 15.12.2022
655 Clouds -1 1003 95 1502 0.89 45 05:19 15.12.2022
656 Clouds -1 1003 95 1502 0.89 45 05:19 15.12.2022
657 Snow 0 1001 95 366 0.89 274 21:25 14.12.2022
658 Snow 0 1001 95 370 0.45 45 20:59 14.12.2022
659 Snow 0 1001 95 366 0.89 45 20:31 14.12.2022
660 Clouds 0 1002 94 634 0.06 45 18:38 14.12.2022
661 Clouds 0 1001 94 1212 1.01 270 16:58 14.12.2022
662 Clouds 0 1000 94 3018 0.77 264 15:49 14.12.2022
663 Clouds 0 1000 94 532 0.93 244 14:34 14.12.2022
664 Snow -1 1001 91 10000 1.37 220 12:49 14.12.2022
665 Clouds -1 999 94 939 0.41 152 10:44 14.12.2022
666 Clouds -2 998 93 10000 0.89 45 09:26 14.12.2022
667 Clouds -3 1002 93 10000 0.42 160 02:47 14.12.2022
668 Clouds -4 1004 89 10000 0.45 360 21:52 13.12.2022
669 Clouds -4 1004 89 10000 0.45 256 21:32 13.12.2022
670 Clouds -4 1004 89 10000 0.24 207 20:47 13.12.2022
671 Clouds -4 1005 89 10000 0.63 132 18:42 13.12.2022
672 Clouds -4 1006 88 10000 0.41 117 16:22 13.12.2022
673 Clouds -4 1006 88 10000 0.41 117 16:22 13.12.2022
674 Clouds -4 1006 87 10000 0.21 343 14:54 13.12.2022
675 Clouds -4 1009 83 10000 0.71 326 12:53 13.12.2022
676 Clouds -6 1008 90 10000 0.56 72 10:41 13.12.2022
677 Clouds -6 1008 91 10000 0.68 95 09:47 13.12.2022
678 Clouds -7 1005 91 10000 1.51 125 07:53 13.12.2022
679 Clouds -7 1010 92 10000 1.95 105 22:36 12.12.2022
680 Clouds -6 1010 91 10000 1.86 115 21:58 12.12.2022
681 Clear -7 1010 92 10000 2.03 112 19:34 12.12.2022
682 Clear -6 1011 92 10000 1.86 122 17:52 12.12.2022
683 Clear -5 1011 92 10000 1.34 360 15:32 12.12.2022
684 Clear -2 1013 61 10000 0.82 314 13:37 12.12.2022
685 Clear -6 1013 92 10000 0.45 126 09:21 12.12.2022
686 Clear -6 1014 92 10000 0.84 162 08:56 12.12.2022
687 Clear -6 1011 92 10000 0.99 154 04:48 12.12.2022
688 Clear -6 1010 92 10000 0.94 118 01:50 12.12.2022
689 Clear -5 1009 91 10000 1.12 163 22:18 11.12.2022
690 Clear -5 1009 91 10000 1.09 140 20:37 11.12.2022
691 Clear -5 1009 91 10000 1.44 117 19:38 11.12.2022
692 Clouds -4 1009 91 10000 1.57 110 18:34 11.12.2022
693 Clouds -4 1009 91 10000 0.45 109 17:34 11.12.2022
694 Clouds -3 1009 91 10000 0.5 92 16:53 11.12.2022
695 Clouds -3 1009 89 10000 0.93 309 16:29 11.12.2022
696 Clouds -2 1009 89 10000 0.93 309 15:45 11.12.2022
697 Snow -2 1009 89 10000 3.13 242 13:35 11.12.2022
698 Snow -1 1009 85 10000 1.45 295 12:42 11.12.2022
699 Clouds -3 1010 92 10000 0.36 231 10:26 11.12.2022
700 Clouds -3 1011 93 10000 0.65 136 03:38 11.12.2022
701 Clouds -3 1010 93 10000 0.79 95 00:28 11.12.2022
702 Clouds -1 1011 94 10000 0.87 89 22:38 10.12.2022
703 Clouds -1 1011 94 10000 0.62 96 22:19 10.12.2022
704 Clouds -1 1010 94 10000 0.81 89 21:18 10.12.2022
705 Clouds 0 1011 95 10000 0.78 96 20:19 10.12.2022
706 Snow 0 1009 95 10000 0.95 119 17:54 10.12.2022
707 Snow 0 1009 95 10000 0.45 323 16:47 10.12.2022
708 Snow 0 1008 95 10000 1.21 19 15:52 10.12.2022
709 Snow 0 1008 95 10000 0.45 234 15:33 10.12.2022
710 Snow 0 1007 95 10000 2.6 358 13:44 10.12.2022
711 Snow 0 1006 95 10000 0.89 271 12:27 10.12.2022
712 Snow 0 1006 95 10000 2.35 360 10:57 10.12.2022
713 Snow 0 1005 95 10000 1.76 7 09:46 10.12.2022
714 Snow 0 1004 95 4569 0.45 268 07:23 10.12.2022
715 Snow 0 1004 95 4569 0.45 360 06:54 10.12.2022
716 Clouds 0 1003 94 10000 1.12 4 23:51 09.12.2022
717 Clouds 0 1003 94 10000 1.06 356 22:43 09.12.2022
718 Clouds 0 1003 94 8356 1.2 355 21:41 09.12.2022
719 Clouds 0 1003 95 6672 1.26 359 20:59 09.12.2022
720 Clouds 0 1002 94 5065 1.29 350 19:47 09.12.2022
721 Clouds 0 1002 94 6555 1.2 4 17:56 09.12.2022
722 Clouds 0 1002 94 10000 1.49 6 17:32 09.12.2022
723 Snow 0 1001 93 10000 1.34 23 16:29 09.12.2022
724 Clouds 0 1001 93 10000 0.45 23 15:31 09.12.2022
725 Clouds 2 1003 95 10000 1.58 342 12:52 09.12.2022
726 Clouds 2 1004 94 10000 1.47 332 10:51 09.12.2022
727 Clouds -1 1002 94 10000 0.88 341 10:24 09.12.2022
728 Snow -2 1002 94 10000 0.46 4 07:29 09.12.2022
729 Clouds -1 1003 91 10000 0.85 37 03:18 09.12.2022
730 Clouds -1 1006 92 10000 0.56 27 23:36 08.12.2022
731 Clear -2 1006 92 10000 1.13 102 20:56 08.12.2022
732 Clear -1 1007 91 10000 1.4 105 18:59 08.12.2022
733 Clear 1 1007 86 10000 1.5 71 16:50 08.12.2022
734 Clear 3 1008 86 10000 1.34 272 14:40 08.12.2022
735 Clear 3 1008 84 10000 1.79 360 14:20 08.12.2022
736 Clouds 1 1011 86 10000 0.89 126 10:43 08.12.2022
737 Clouds -1 1010 92 10000 1.45 152 09:32 08.12.2022
738 Clouds -1 1011 90 10000 1.46 150 07:58 08.12.2022
739 Clouds 0 1013 88 10000 1.09 145 22:44 07.12.2022
740 Clouds 0 1013 88 10000 1.02 130 22:18 07.12.2022
741 Clouds 0 1013 88 10000 0.45 42 21:47 07.12.2022
742 Clouds 0 1014 87 10000 1.09 126 20:35 07.12.2022
743 Clouds 2 1014 82 10000 1.2 120 18:38 07.12.2022
744 Clouds 5 1015 70 10000 0.89 23 15:53 07.12.2022
745 Clouds 5 1015 70 10000 0.89 23 15:53 07.12.2022
746 Clouds 6 1015 66 10000 2.24 162 14:29 07.12.2022
747 Clouds 4 1016 82 10000 1.33 328 11:36 07.12.2022
748 Clouds 3 1017 91 10000 0.66 4 10:30 07.12.2022
749 Clouds 1 1017 93 10000 0.94 26 09:32 07.12.2022
750 Clouds 1 1017 93 10000 1.1 24 08:36 07.12.2022
751 Clouds 3 1017 93 107 0.5 346 05:27 07.12.2022
752 Clouds 3 1017 92 159 0.61 16 02:58 07.12.2022
753 Clouds 3 1017 91 3248 0.45 265 22:18 06.12.2022
754 Clouds 3 1017 91 3219 0.45 313 19:45 06.12.2022
755 Clouds 4 1016 86 386 1.44 9 17:30 06.12.2022
756 Clouds 5 1017 83 703 0.45 203 16:38 06.12.2022
757 Clouds 5 1016 83 2532 0.89 203 15:38 06.12.2022
758 Clouds 5 1017 83 10000 1.79 260 14:55 06.12.2022
759 Clouds 6 1017 80 10000 1.79 325 14:24 06.12.2022
760 Clouds 6 1016 82 10000 1.79 360 12:42 06.12.2022
761 Clouds 5 1017 82 10000 1.34 263 12:20 06.12.2022
762 Clouds 1 1017 92 10000 1.15 124 07:59 06.12.2022
763 Clouds 1 1017 92 10000 1.08 140 04:54 06.12.2022
764 Clouds 1 1018 89 10000 1.39 147 01:24 06.12.2022
765 Clouds 3 1019 85 10000 2.03 157 22:26 05.12.2022
766 Clouds 3 1022 87 10000 2.23 159 20:55 05.12.2022
767 Clouds 3 1022 85 10000 2.24 158 20:26 05.12.2022
768 Clouds 4 1019 82 10000 0.89 155 19:44 05.12.2022
769 Clouds 5 1022 82 10000 2.02 155 17:44 05.12.2022
770 Clouds 6 1019 79 10000 1.79 196 16:26 05.12.2022
771 Clouds 7 1018 78 10000 1.34 204 15:22 05.12.2022
772 Clouds 6 1018 81 10000 2.24 178 12:59 05.12.2022
773 Clouds 7 1018 81 10000 1.34 262 12:40 05.12.2022
774 Clouds 6 1018 84 10000 2.68 169 11:51 05.12.2022
775 Clouds 5 1018 87 10000 1.34 242 10:58 05.12.2022
776 Clouds 2 1014 94 10000 0.45 45 00:20 05.12.2022
777 Clouds 2 1013 94 10000 2.04 190 22:45 04.12.2022
778 Clouds 2 1013 94 10000 1.21 74 22:20 04.12.2022
779 Clouds 2 1013 94 10000 1.21 74 22:20 04.12.2022
780 Clouds 2 1012 94 10000 1.21 74 21:53 04.12.2022
781 Clouds 2 1012 94 10000 1.26 79 20:49 04.12.2022
782 Clouds 2 1012 94 10000 0.45 252 19:28 04.12.2022
783 Clouds 2 1011 94 10000 1.17 198 18:59 04.12.2022
784 Rain 2 1011 94 10000 0.2 339 17:23 04.12.2022
785 Rain 2 1011 94 10000 0.2 339 16:56 04.12.2022
786 Rain 2 1011 94 10000 0.45 45 16:36 04.12.2022
787 Rain 2 1010 94 10000 0.45 45 16:18 04.12.2022
788 Rain 2 1011 93 10000 0.89 45 14:44 04.12.2022
789 Rain 2 1011 92 10000 0.27 38 13:37 04.12.2022
790 Rain 2 1012 92 10000 0.89 360 12:44 04.12.2022
791 Rain 2 1012 92 10000 1.7 272 11:59 04.12.2022
792 Clouds 1 1012 93 10000 1.25 248 09:33 04.12.2022
793 Clouds 1 1011 94 10000 0.54 202 07:32 04.12.2022
794 Clouds 1 1012 93 10000 0.91 67 00:59 04.12.2022
795 Clouds 1 1012 93 10000 0.69 85 23:43 03.12.2022
796 Clouds 2 1012 92 10000 1.32 88 22:23 03.12.2022
797 Clouds 2 1012 92 10000 0.89 326 21:28 03.12.2022
798 Clouds 2 1012 92 10000 1.61 82 20:34 03.12.2022
799 Clouds 3 1012 92 10000 0.93 99 18:40 03.12.2022
800 Clouds 3 1012 91 10000 0.45 320 17:22 03.12.2022
801 Clouds 3 1013 87 10000 1.29 349 14:32 03.12.2022
802 Clouds 3 1014 89 10000 1.42 11 12:55 03.12.2022
803 Clouds 2 1015 89 10000 1.86 7 12:24 03.12.2022
804 Clouds 2 1016 91 10000 1.34 331 10:27 03.12.2022
805 Clouds 1 1015 92 10000 1.27 91 07:58 03.12.2022
806 Clouds 2 1015 93 10000 1.09 61 01:31 03.12.2022
807 Clouds 3 1016 93 10000 0.89 328 23:25 02.12.2022
808 Clouds 3 1015 93 10000 1.17 30 21:23 02.12.2022
809 Clouds 3 1016 93 2140 1.2 5 19:34 02.12.2022
810 Clouds 4 1015 91 249 0.45 346 16:19 02.12.2022
811 Clouds 4 1016 91 187 0.45 45 14:48 02.12.2022
812 Clouds 4 1016 91 41 1.19 355 14:27 02.12.2022
813 Clouds 4 1016 91 41 1.19 355 13:41 02.12.2022
814 Clouds 4 1017 92 66 0.89 253 11:47 02.12.2022
815 Clouds 3 1018 93 49 1.19 340 09:52 02.12.2022
816 Clouds 3 1018 93 425 1.32 344 07:25 02.12.2022
817 Clouds 3 1018 94 371 1.14 342 06:23 02.12.2022
818 Clouds 3 1020 91 10000 1.34 45 22:49 01.12.2022
819 Clouds 3 1020 91 10000 0.89 45 21:41 01.12.2022
820 Clouds 3 1020 91 10000 1.34 45 20:36 01.12.2022
821 Clouds 3 1020 90 10000 1.79 45 18:58 01.12.2022
822 Clouds 3 1020 87 10000 1.34 314 16:31 01.12.2022
823 Clouds 4 1020 84 10000 1.79 305 14:21 01.12.2022
824 Clouds 4 1021 85 10000 0.89 321 10:56 01.12.2022
825 Clouds 3 1021 86 10000 1.79 45 09:54 01.12.2022
826 Clouds 3 1021 86 10000 1.34 320 09:36 01.12.2022
827 Clouds 4 1020 91 10000 0.45 45 06:19 01.12.2022
828 Clouds 6 1020 82 10000 0.45 45 22:41 30.11.2022
829 Clouds 6 1020 81 10000 1.79 42 21:45 30.11.2022
830 Clouds 6 1020 81 10000 1.92 34 21:18 30.11.2022
831 Clouds 6 1020 80 10000 2 29 20:23 30.11.2022
832 Clouds 7 1019 83 10000 0.45 315 18:39 30.11.2022
833 Clouds 7 1019 83 10000 1.79 94 18:21 30.11.2022
834 Clouds 7 1018 83 10000 0.89 336 16:26 30.11.2022
835 Clouds 8 1018 78 10000 0.89 349 14:46 30.11.2022
836 Clouds 9 1018 79 10000 0.89 203 14:26 30.11.2022
837 Clouds 7 1019 93 10000 0.45 203 11:59 30.11.2022
838 Clouds 6 1019 94 10000 1.42 27 09:22 30.11.2022
839 Clouds 6 1019 94 10000 1.6 30 08:26 30.11.2022
840 Clouds 6 1018 94 10000 1.38 19 06:42 30.11.2022
841 Clouds 7 1018 95 10000 0.88 7 23:27 29.11.2022
842 Clouds 7 1018 95 10000 0.89 10 22:19 29.11.2022
843 Clouds 7 1018 95 10000 1.03 20 20:52 29.11.2022
844 Clouds 7 1018 94 10000 1.1 33 19:54 29.11.2022
845 Rain 7 1017 94 10000 0.45 203 18:40 29.11.2022
846 Clouds 7 1017 93 10000 1.23 24 16:47 29.11.2022
847 Clouds 7 1017 93 10000 1.33 16 15:34 29.11.2022
848 Clouds 7 1016 92 10000 1.55 15 14:47 29.11.2022
849 Clouds 8 1016 88 10000 1.71 6 12:38 29.11.2022
850 Clouds 8 1016 90 10000 1.09 5 11:31 29.11.2022
851 Clouds 7 1016 92 10000 0.73 0 10:29 29.11.2022
852 Clouds 6 1015 94 10000 0.49 323 09:28 29.11.2022
853 Clouds 6 1015 93 10000 0.67 207 07:19 29.11.2022
854 Clouds 8 1014 89 10000 1.24 207 00:29 29.11.2022
855 Clouds 8 1013 90 7247 1.79 220 23:26 28.11.2022
856 Clouds 8 1013 89 5082 1.34 209 22:21 28.11.2022
857 Clouds 8 1013 90 5082 1.79 146 21:43 28.11.2022
858 Clouds 8 1013 88 10000 1.79 215 20:25 28.11.2022
859 Clouds 8 1012 88 10000 2.24 167 19:37 28.11.2022
860 Clouds 9 1012 88 10000 2.24 166 18:28 28.11.2022
861 Rain 9 1012 87 10000 2.24 88 17:23 28.11.2022
862 Rain 9 1011 87 10000 0.74 212 14:57 28.11.2022
863 Rain 9 1011 85 10000 0.43 126 13:56 28.11.2022
864 Rain 9 1012 85 10000 0.45 203 13:32 28.11.2022
865 Rain 9 1013 79 10000 0.89 204 11:37 28.11.2022
866 Clouds 7 1013 81 10000 2.74 187 08:49 28.11.2022
867 Clouds 6 1013 82 10000 2.18 190 04:58 28.11.2022
868 Clouds 6 1013 83 10000 2.32 190 04:39 28.11.2022
869 Clouds 5 1014 91 10000 1.66 174 03:22 28.11.2022
870 Clouds 5 1015 91 10000 1.41 162 00:35 28.11.2022
871 Clouds 5 1016 91 10000 1.04 134 22:24 27.11.2022
872 Clouds 6 1016 90 10000 1.37 153 20:49 27.11.2022
873 Clouds 6 1017 89 10000 1.17 131 18:52 27.11.2022
874 Clouds 7 1019 87 10000 1.15 128 16:39 27.11.2022
875 Clouds 7 1021 87 10000 0.67 284 13:55 27.11.2022
876 Clouds 6 1023 92 10000 0.86 260 12:25 27.11.2022
877 Clouds 4 1025 95 10000 0.3 262 10:36 27.11.2022
878 Clouds 2 1025 95 10000 1.69 145 07:30 27.11.2022
879 Clouds 2 1025 95 10000 1.69 145 07:30 27.11.2022
880 Clouds 4 1029 94 10000 1.17 141 23:39 26.11.2022
881 Clouds 5 1029 94 10000 1.65 132 21:44 26.11.2022
882 Clouds 5 1029 94 10000 1.53 121 20:20 26.11.2022
883 Clouds 5 1029 93 10000 1.79 112 18:57 26.11.2022
884 Clouds 6 1030 92 10000 1.19 98 16:47 26.11.2022
885 Clouds 7 1029 91 10000 1.34 264 15:38 26.11.2022
886 Clouds 8 1030 90 10000 1.79 265 12:54 26.11.2022
887 Clouds 8 1030 90 10000 1.79 265 12:54 26.11.2022
888 Clouds 8 1031 89 10000 0.66 30 11:23 26.11.2022
889 Clouds 6 1030 94 10000 0.57 91 09:44 26.11.2022
890 Clouds 5 1030 95 10000 1.05 125 08:39 26.11.2022
891 Clouds 6 1026 94 10000 1.34 216 23:22 25.11.2022
892 Clouds 6 1025 93 10000 1.54 193 21:41 25.11.2022
893 Clouds 7 1024 92 10000 1.68 185 20:33 25.11.2022
894 Clouds 8 1023 91 10000 1.46 177 19:24 25.11.2022
895 Rain 10 1020 85 10000 1.29 213 15:51 25.11.2022
896 Clouds 10 1017 84 10000 1.79 220 12:28 25.11.2022
897 Rain 7 1016 88 10000 1.34 279 08:56 25.11.2022
898 Rain 7 1016 87 10000 2.23 195 08:37 25.11.2022
899 Clouds 5 1015 91 10000 2.18 174 06:48 25.11.2022
900 Clouds 4 1015 91 10000 0.45 120 01:26 25.11.2022
901 Clouds 5 1014 88 10000 0.45 72 23:43 24.11.2022
902 Clouds 4 1014 90 10000 0.45 116 22:37 24.11.2022
903 Clouds 6 1014 87 10000 0.89 105 21:42 24.11.2022
904 Clouds 6 1015 87 10000 0.45 94 19:49 24.11.2022
905 Clouds 8 1015 82 10000 0.89 203 17:48 24.11.2022
906 Clouds 8 1014 83 10000 0.89 203 17:24 24.11.2022
907 Clouds 10 1018 81 10000 2.4 162 16:40 24.11.2022
908 Clouds 12 1015 71 10000 3.58 140 14:26 24.11.2022
909 Clouds 11 1015 76 10000 2.68 250 13:19 24.11.2022
910 Clouds 10 1015 82 10000 3.58 215 11:45 24.11.2022
911 -273 0 0 0 0 0 11:45 24.11.2022
912 Clouds 8 1014 89 10000 3.13 203 09:23 24.11.2022
913 Clouds 9 1012 84 10000 2.24 179 06:23 24.11.2022
914 Clouds 9 1010 88 10000 3.13 360 00:48 24.11.2022
915 Rain 8 1010 87 10000 3.13 203 23:32 23.11.2022
916 Clouds 9 1008 87 10000 1.34 225 21:53 23.11.2022
917 Clouds 9 1008 87 10000 1.79 203 21:18 23.11.2022
918 Clouds 9 1006 88 10000 2.24 215 19:55 23.11.2022
919 Rain 9 1004 87 10000 3.13 360 18:57 23.11.2022
920 Rain 8 1003 86 10000 3.58 203 18:20 23.11.2022
921 Clouds 10 999 63 10000 0.89 203 15:55 23.11.2022
922 Clear 11 1001 59 10000 0.89 134 13:25 23.11.2022
923 Clear 11 1001 60 10000 1.79 203 12:58 23.11.2022
924 Clear 10 1001 69 10000 0.89 203 11:53 23.11.2022
925 Clear 8 1002 75 10000 1.34 137 10:59 23.11.2022
926 Clear 8 1002 77 10000 0.89 125 10:40 23.11.2022
927 Clear 5 1002 82 10000 0.45 90 09:41 23.11.2022
928 Clear 5 1002 84 10000 0.45 32 09:23 23.11.2022
929 Clear 3 1002 86 10000 1.34 59 08:36 23.11.2022
930 Clouds 6 1002 81 10000 0.89 184 05:21 23.11.2022
931 Clouds 7 1003 80 10000 1.34 203 02:36 23.11.2022
932 Clouds 7 1002 80 10000 1.79 203 22:38 22.11.2022
933 Clouds 7 1002 79 10000 2.68 225 21:54 22.11.2022
934 Clouds 7 1002 79 10000 2.68 206 21:32 22.11.2022
935 Clouds 8 1002 78 10000 2.24 152 20:45 22.11.2022
936 Clouds 8 1001 78 10000 2.68 183 19:52 22.11.2022
937 Clouds 8 1001 75 10000 2.68 360 17:55 22.11.2022
938 Clouds 8 1000 76 10000 2.24 160 16:48 22.11.2022
939 Clouds 8 999 75 10000 1.79 203 15:24 22.11.2022
940 Clouds 8 1000 74 10000 3.13 205 13:24 22.11.2022
941 Clouds 7 1000 78 10000 3.58 203 11:40 22.11.2022
942 Clouds 7 1000 83 10000 2.68 226 09:18 22.11.2022
943 Clouds 7 998 83 10000 3.13 203 07:18 22.11.2022
944 Clouds 8 996 87 10000 3.58 237 01:38 22.11.2022
945 Clouds 8 996 85 10000 3.13 193 23:36 21.11.2022
946 Clouds 9 996 82 10000 3.13 203 22:34 21.11.2022
947 Clouds 8 995 85 10000 3.58 203 21:58 21.11.2022
948 Rain 7 996 88 10000 2.79 162 20:36 21.11.2022
949 Rain 7 997 87 10000 2.25 169 19:41 21.11.2022
950 Clouds 7 997 86 10000 1.86 151 18:54 21.11.2022
951 Clouds 6 997 86 10000 1.76 158 17:51 21.11.2022
952 Clouds 8 997 81 10000 1.39 160 16:53 21.11.2022
953 Clouds 8 997 79 10000 1.39 160 16:34 21.11.2022
954 Clouds 10 999 73 10000 0.94 57 15:24 21.11.2022
955 Clouds 10 1002 70 10000 0.52 153 13:59 21.11.2022
956 Clouds 10 1002 71 10000 0.52 153 13:40 21.11.2022
957 Clouds 9 1006 83 10000 2.24 223 10:48 21.11.2022
958 Clouds 7 1008 86 10000 3.13 156 08:59 21.11.2022
959 Clouds 7 1009 89 10000 1.79 119 06:39 21.11.2022
960 Clouds 5 1011 88 3147 4.47 204 22:26 20.11.2022
961 Clouds 5 1010 87 3147 4.02 203 21:34 20.11.2022
962 Rain 6 1010 86 2652 3.58 203 20:24 20.11.2022
963 Clouds 7 1010 79 10000 2.68 203 18:25 20.11.2022
964 Clouds 8 1011 79 10000 1.79 144 16:23 20.11.2022
965 Clouds 8 1012 78 10000 2.24 173 15:29 20.11.2022
966 Clouds 8 1012 78 10000 2.24 173 14:41 20.11.2022
967 Clouds 9 1012 77 10000 3.58 223 13:32 20.11.2022
968 Clouds 8 1013 83 10000 2.68 156 12:33 20.11.2022
969 Clouds 7 1014 88 5168 2.68 206 10:59 20.11.2022
970 Rain 7 1014 88 3941 2.68 179 10:30 20.11.2022
971 Clouds 6 1013 86 4153 2.24 180 09:19 20.11.2022
972 Clouds 6 1013 86 4153 3.13 203 08:35 20.11.2022
973 Clouds 6 1012 87 10000 1.79 202 07:29 20.11.2022
974 Clouds 6 1012 90 10000 1.79 196 02:19 20.11.2022
975 Clouds 6 1012 90 10000 1.79 163 01:20 20.11.2022
976 Clouds 6 1012 90 10000 0.89 211 00:41 20.11.2022
977 Clouds 6 1012 91 10000 1.79 203 00:22 20.11.2022
978 Clouds 6 1012 90 10000 1.34 200 23:51 19.11.2022
979 Clouds 7 1012 91 10000 0.45 209 23:24 19.11.2022
980 Clouds 7 1011 92 10000 2 188 22:39 19.11.2022
981 Clouds 7 1012 92 10000 1.98 188 21:32 19.11.2022
982 Clouds 6 1012 92 10000 0.89 186 20:57 19.11.2022
983 Clouds 6 1012 92 10000 0.45 123 20:33 19.11.2022
984 Clouds 7 1011 91 10000 0.86 168 19:22 19.11.2022
985 Clouds 7 1010 91 10000 0.45 112 17:41 19.11.2022
986 Clouds 7 1010 91 10000 0.6 191 17:20 19.11.2022
987 Clouds 7 1010 90 10000 0.45 45 15:59 19.11.2022
988 Rain 9 1010 79 10000 0.89 203 14:38 19.11.2022
989 Clouds 9 1010 83 10000 1.34 146 12:18 19.11.2022
990 Clouds 9 1010 85 10000 2.24 213 10:57 19.11.2022
991 Clouds 7 1009 90 10000 1.79 209 08:43 19.11.2022
992 Clouds 7 1008 90 10000 0.45 181 04:59 19.11.2022
993 Clouds 7 1008 92 10000 0.45 223 02:56 19.11.2022
994 Rain 8 1007 88 10000 1.79 203 23:46 18.11.2022
995 Clouds 8 1007 87 10000 0.89 130 23:19 18.11.2022
996 Clouds 8 1007 85 10000 0.89 173 21:50 18.11.2022
997 Clouds 8 1007 85 10000 0.89 173 21:30 18.11.2022
998 Clouds 8 1007 85 10000 1.34 167 20:34 18.11.2022
999 Clouds 8 1007 85 10000 1.79 106 19:47 18.11.2022
1000 Clouds 8 1006 84 10000 1.34 219 18:49 18.11.2022
1001 Clouds 9 1005 83 10000 2.68 196 17:44 18.11.2022
1002 Clouds 10 1005 84 10000 2.68 134 14:33 18.11.2022
1003 Clouds 9 1004 88 10000 3.58 209 11:41 18.11.2022
1004 Clouds 9 1003 89 10000 2.68 223 09:19 18.11.2022
1005 Clouds 8 1002 88 8793 3.13 265 07:51 18.11.2022
1006 Clouds 9 1000 89 10000 3.13 191 05:24 18.11.2022
1007 Rain 10 997 88 10000 1.79 144 01:42 18.11.2022
1008 Clouds 12 997 80 10000 3.58 244 22:28 17.11.2022
1009 Clouds 11 996 79 10000 3.13 220 20:46 17.11.2022
1010 Clouds 11 996 83 10000 2.68 125 19:51 17.11.2022
1011 Rain 11 996 82 5621 3.58 203 18:50 17.11.2022
1012 Clouds 13 996 68 10000 3.13 256 17:35 17.11.2022
1013 Clouds 13 996 66 10000 3.13 203 16:54 17.11.2022
1014 Clouds 14 996 65 10000 3.13 176 15:20 17.11.2022
1015 Clouds 12 997 78 10000 5.36 203 11:25 17.11.2022
1016 Rain 10 998 87 10000 4.02 212 09:53 17.11.2022
1017 Clouds 12 995 81 10000 3.58 291 05:47 17.11.2022
1018 Clouds 10 996 86 10000 3.13 172 00:48 17.11.2022
1019 Clouds 9 998 86 10000 2.16 142 22:31 16.11.2022
1020 Clouds 9 998 86 10000 2.46 131 21:19 16.11.2022
1021 Clouds 8 999 86 10000 0.45 61 19:54 16.11.2022
1022 Clouds 9 1000 84 10000 0.45 90 18:46 16.11.2022
1023 Clouds 11 1000 82 10000 2.74 138 17:53 16.11.2022
1024 Clouds 13 1002 72 10000 1.79 203 14:22 16.11.2022
1025 Clouds 12 1004 80 10000 1.79 203 09:57 16.11.2022
1026 Clouds 11 1003 88 10000 2.24 203 06:39 16.11.2022
1027 Rain 11 1002 94 5948 0.89 203 01:31 16.11.2022
1028 Rain 10 1003 92 10000 0.45 225 22:43 15.11.2022
1029 Rain 11 1003 90 10000 2.3 200 20:55 15.11.2022
1030 Clouds 11 1004 91 10000 2.12 127 19:35 15.11.2022
1031 Rain 11 1004 90 10000 1.89 131 18:50 15.11.2022
1032 Clouds 12 1004 88 10000 1.81 121 17:31 15.11.2022
1033 Clouds 13 1005 84 10000 1.26 135 16:19 15.11.2022
1034 Clouds 13 1006 85 10000 0.71 165 15:21 15.11.2022
1035 Clouds 13 1008 83 10000 1.12 139 13:39 15.11.2022
1036 Clouds 12 1009 88 10000 1.75 199 11:48 15.11.2022
1037 Rain 12 1010 89 10000 1.18 197 11:19 15.11.2022
1038 Rain 10 1010 90 10000 1.28 155 09:28 15.11.2022
1039 Clouds 10 1013 83 10000 2.11 150 00:40 15.11.2022
1040 Clouds 10 1013 82 10000 2.44 152 00:18 15.11.2022
1041 Clouds 10 1013 81 10000 2.51 151 21:51 14.11.2022
1042 Clouds 12 1013 75 10000 2.47 155 20:43 14.11.2022
1043 Clouds 12 1013 78 10000 1.79 59 18:58 14.11.2022
1044 Clouds 12 1013 77 10000 3.06 156 17:28 14.11.2022
1045 Clouds 13 1014 81 10000 2.24 203 12:55 14.11.2022
1046 Rain 12 1014 81 10000 1.79 203 11:45 14.11.2022
1047 Clouds 12 1013 78 10000 1.79 203 10:49 14.11.2022
1048 Clouds 8 1013 94 10000 2.64 171 08:30 14.11.2022
1049 Clouds 7 1013 96 10000 0.89 158 07:51 14.11.2022
1050 Clouds 5 1016 94 10000 1.63 156 00:19 14.11.2022
1051 Clouds 5 1016 94 10000 1.63 156 00:19 14.11.2022
1052 Clouds 5 1016 94 10000 1.63 156 00:19 14.11.2022
1053 Clouds 5 1017 93 10000 1.59 134 22:43 13.11.2022
1054 Clouds 5 1017 93 10000 1.92 164 21:40 13.11.2022
1055 Clear 5 1017 93 10000 1.58 179 20:45 13.11.2022
1056 Clear 5 1018 93 10000 1.35 146 18:36 13.11.2022
1057 Clear 6 1018 93 10000 1.57 119 17:49 13.11.2022
1058 Clear 11 1019 87 10000 0.44 324 15:40 13.11.2022
1059 Clear 13 1019 83 10000 0.38 300 14:30 13.11.2022
1060 Clear 14 1020 77 10000 1.03 319 12:56 13.11.2022
1061 Clouds 13 1021 77 10000 0.82 339 11:35 13.11.2022
1062 Clouds 7 1022 89 10000 0.37 350 10:28 13.11.2022
1063 Clouds 4 1024 96 10000 0.9 100 05:53 13.11.2022
1064 Clouds 5 1027 96 10000 1.36 100 23:54 12.11.2022
1065 Clouds 6 1028 96 10000 1.19 95 21:32 12.11.2022
1066 Clouds 6 1028 96 10000 1.1 95 20:41 12.11.2022
1067 Clouds 7 1029 96 10000 0.98 91 18:59 12.11.2022
1068 Clouds 7 1029 95 10000 0.89 76 16:55 12.11.2022
1069 Clouds 11 1029 71 10000 0.59 26 15:48 12.11.2022
1070 Clouds 14 1030 60 10000 0.73 354 14:25 12.11.2022
1071 Clouds 7 1032 59 10000 0.32 25 09:41 12.11.2022
1072 Clouds 7 1032 59 10000 0.33 22 09:41 12.11.2022
1073 Clouds 4 1032 95 10000 0.89 126 07:48 12.11.2022
1074 Clouds 7 1032 91 10000 1.38 138 23:50 11.11.2022
1075 Clouds 8 1032 90 10000 1.44 131 20:57 11.11.2022
1076 Clouds 8 1032 90 10000 1.44 131 20:34 11.11.2022
1077 Clouds 8 1032 91 10000 1.45 121 19:27 11.11.2022
1078 Clouds 9 1032 89 10000 1.33 121 18:33 11.11.2022
1079 Clouds 10 1032 87 10000 1.35 112 17:40 11.11.2022
1080 Clouds 10 1032 87 10000 1.35 112 17:40 11.11.2022
1081 Clouds 10 1032 87 10000 1.35 112 17:40 11.11.2022
1082 Clouds 10 1032 87 10000 1.35 112 17:40 11.11.2022
1083 Clouds 13 1031 81 10000 0.78 18 14:51 11.11.2022
1084 Clouds 12 1031 82 10000 0.89 203 13:56 11.11.2022
1085 Clouds 11 1032 83 10000 0.45 360 12:45 11.11.2022
1086 Clouds 9 1032 86 10000 0.78 226 09:32 11.11.2022
1087 Clouds 9 1032 86 10000 0.78 226 09:32 11.11.2022
1088 Clouds 7 1032 90 10000 1.42 111 08:26 11.11.2022
1089 Clouds 7 1030 92 10000 1.82 135 00:40 11.11.2022
1090 Clouds 7 1030 91 10000 1.81 138 22:54 10.11.2022
1091 Clouds 8 1030 90 10000 1.54 127 21:51 10.11.2022
1092 Clouds 8 1029 90 10000 1.67 126 21:28 10.11.2022
1093 Clouds 9 1029 90 10000 0.45 47 20:47 10.11.2022
1094 Clouds 9 1029 91 10000 1.59 107 20:20 10.11.2022
1095 Clouds 10 1028 90 10000 1.57 104 18:59 10.11.2022
1096 Clouds 11 1028 90 10000 1.63 84 17:59 10.11.2022
1097 Clouds 14 1027 82 10000 1.32 338 16:25 10.11.2022
1098 Clear 15 1027 77 10000 2.24 252 13:40 10.11.2022
1099 Clouds 13 1027 85 10000 0.45 203 11:29 10.11.2022
1100 Clouds 7 1025 94 10000 1.2 151 08:21 10.11.2022
1101 Clouds 11 1020 93 10000 1.56 206 01:27 10.11.2022
1102 Clouds 12 1019 90 10000 0.45 216 23:30 09.11.2022
1103 Clouds 12 1018 90 10000 1.79 203 22:28 09.11.2022
1104 Clouds 12 1017 92 10000 0.89 203 20:48 09.11.2022
1105 Clouds 12 1017 92 8158 0.45 203 20:29 09.11.2022
1106 Rain 12 1017 92 8158 2.62 201 19:32 09.11.2022
1107 Rain 12 1016 92 7668 0.45 203 18:49 09.11.2022
1108 Rain 13 1014 92 10000 2.69 167 15:56 09.11.2022
1109 Rain 13 1013 91 10000 0.45 190 14:47 09.11.2022
1110 Rain 14 1013 89 10000 0.45 190 14:24 09.11.2022
1111 Rain 15 1013 85 10000 0.89 209 13:18 09.11.2022
1112 Rain 15 1013 84 10000 2.04 198 11:36 09.11.2022
1113 Clouds 14 1012 85 6145 0.45 269 08:42 09.11.2022
1114 Clouds 13 1012 85 5165 2.68 204 07:46 09.11.2022
1115 Clouds 11 1011 84 10000 2.9 186 00:54 09.11.2022
1116 Clouds 12 1011 79 10000 2.31 180 21:45 08.11.2022
1117 Clouds 11 1011 81 10000 2.37 161 21:26 08.11.2022
1118 Clouds 13 1011 75 10000 2.37 161 20:41 08.11.2022
1119 Clouds 12 1011 77 10000 2.34 168 19:37 08.11.2022
1120 Clouds 13 1011 73 10000 2.58 144 18:31 08.11.2022
1121 Clouds 14 1011 73 10000 2.56 153 17:26 08.11.2022
1122 Clouds 19 1011 49 10000 1.34 284 14:56 08.11.2022
1123 Clouds 20 1012 47 10000 0.45 239 13:42 08.11.2022
1124 Clouds 19 1012 50 10000 1.79 203 13:23 08.11.2022
1125 Clouds 15 1014 59 10000 1.79 203 09:43 08.11.2022
1126 Clouds 7 1012 89 10000 1.66 169 07:25 08.11.2022
1127 Clouds 8 1014 85 10000 1.89 134 00:34 08.11.2022
1128 Clouds 8 1016 86 10000 0.45 42 22:44 07.11.2022
1129 Clouds 9 1016 85 10000 1.95 136 21:38 07.11.2022
1130 Clouds 9 1016 84 10000 0.45 96 20:44 07.11.2022
1131 Clouds 11 1016 82 10000 2.24 151 19:30 07.11.2022
1132 Clouds 13 1016 76 10000 2.43 156 17:39 07.11.2022
1133 Clouds 16 1016 65 10000 1.79 210 15:36 07.11.2022
1134 Clouds 16 1016 64 10000 2.24 181 14:55 07.11.2022
1135 Clouds 15 1017 67 10000 3.58 139 13:20 07.11.2022
1136 Clouds 15 1017 66 10000 3.58 203 12:22 07.11.2022
1137 Clouds 14 1017 73 10000 2.68 196 09:50 07.11.2022
1138 Clouds 12 1017 74 10000 1.79 155 08:25 07.11.2022
1139 Clouds 12 1016 76 10000 1.79 360 06:29 07.11.2022
1140 Clouds 11 1016 82 10000 1.34 164 01:45 07.11.2022
1141 Rain 11 1016 80 10000 2.68 203 23:23 06.11.2022
1142 Clouds 12 1014 65 10000 2.68 288 21:22 06.11.2022
1143 Clouds 12 1014 66 10000 3.13 203 20:43 06.11.2022
1144 Clouds 11 1014 65 10000 3.13 213 19:56 06.11.2022
1145 Clouds 11 1014 64 10000 2.68 201 19:24 06.11.2022
1146 Clouds 8 1012 84 10000 2.62 179 18:20 06.11.2022
1147 Clouds 9 1012 82 10000 2.62 179 17:39 06.11.2022
1148 Clouds 9 1012 82 10000 2.45 181 17:18 06.11.2022
1149 Clouds 9 1012 81 10000 1.94 203 16:18 06.11.2022
1150 Clouds 9 1013 79 10000 1.42 223 14:45 06.11.2022
1151 Clouds 9 1013 79 10000 4.02 268 12:45 06.11.2022
1152 Clouds 9 1013 79 10000 4.02 268 12:45 06.11.2022
1153 Clouds 8 1014 84 10000 0.89 26 10:56 06.11.2022
1154 Clouds 6 1016 72 10000 0.62 137 09:52 06.11.2022
1155 Clouds 3 1017 89 10000 2.11 118 07:44 06.11.2022
1156 Clouds 4 1021 90 10000 0.45 98 23:23 05.11.2022
1157 Clouds 6 1021 87 10000 1.44 142 20:46 05.11.2022
1158 Clouds 8 1020 86 10000 1.38 213 18:38 05.11.2022
1159 Clouds 10 1019 83 10000 1.54 204 16:35 05.11.2022
1160 Clouds 11 1019 75 10000 1.34 238 14:43 05.11.2022
1161 Clouds 11 1020 81 10000 1.27 262 13:40 05.11.2022
1162 Clouds 10 1020 88 10000 0.96 249 11:49 05.11.2022
1163 Clouds 8 1018 94 10000 1.32 241 08:59 05.11.2022
1164 Clouds 8 1017 94 10000 1.57 224 07:23 05.11.2022
1165 Clouds 8 1016 94 10000 1.57 224 06:54 05.11.2022
1166 Clouds 8 1013 90 10000 1.34 181 00:37 05.11.2022
1167 Clouds 8 1013 89 10000 0.45 175 23:27 04.11.2022
1168 Clouds 9 1011 88 10000 1.34 212 20:56 04.11.2022
1169 Clouds 9 1010 89 10000 0.89 203 19:33 04.11.2022
1170 Clouds 10 1008 87 10000 0.45 237 17:39 04.11.2022
1171 Clouds 12 1006 77 10000 0.45 203 14:28 04.11.2022
1172 Rain 11 1006 78 10000 1.47 258 13:18 04.11.2022
1173 Rain 12 1006 74 10000 1.77 245 11:57 04.11.2022
1174 Clouds 10 1006 79 10000 1.34 203 09:25 04.11.2022
1175 Clouds 9 1006 82 10000 0.45 203 08:20 04.11.2022
1176 Clouds 10 1006 82 10000 2.24 192 06:34 04.11.2022
1177 Clouds 11 1007 87 10000 2.68 203 00:42 04.11.2022
1178 Rain 12 1005 91 7117 2.68 177 21:42 03.11.2022
1179 Rain 11 1003 92 6921 2.17 176 20:45 03.11.2022
1180 Rain 12 1004 87 8965 3.07 153 19:41 03.11.2022
1181 Rain 12 1005 84 7849 4.63 189 18:26 03.11.2022
1182 Rain 13 1005 84 7849 4.63 189 17:37 03.11.2022
1183 Clouds 15 1007 76 10000 1.7 152 15:20 03.11.2022
1184 Clouds 15 1009 71 10000 0.45 203 13:33 03.11.2022
1185 Clouds 14 1011 77 10000 1.29 207 12:35 03.11.2022
1186 Clouds 14 1012 76 10000 0.45 180 11:36 03.11.2022
1187 Clouds 10 1015 89 10000 1.49 142 07:48 03.11.2022
1188 Clouds 8 1020 88 10000 1.83 143 22:29 02.11.2022
1189 Clouds 9 1021 85 10000 0.45 146 20:56 02.11.2022
1190 Clouds 10 1021 85 10000 1.85 132 20:24 02.11.2022
1191 Clouds 11 1021 81 10000 0.45 82 18:42 02.11.2022
1192 Clouds 16 1022 69 10000 1.61 215 16:28 02.11.2022
1193 Clouds 17 1022 67 10000 1.79 360 15:30 02.11.2022
1194 Clouds 16 1024 70 10000 1.79 192 12:58 02.11.2022
1195 Clouds 15 1024 73 10000 0.89 7 12:23 02.11.2022
1196 Clouds 14 1024 77 10000 2.24 217 10:23 02.11.2022
1197 Clouds 13 1024 79 10000 2.68 203 08:38 02.11.2022
1198 Clouds 11 1022 84 10000 2.59 183 02:40 02.11.2022
1199 Clouds 11 1021 86 10000 2.42 175 22:21 01.11.2022
1200 Clouds 11 1021 85 10000 2.42 175 21:55 01.11.2022
1201 Clouds 11 1020 84 10000 2.55 172 20:55 01.11.2022
1202 Clouds 12 1021 82 10000 0.89 203 20:23 01.11.2022
1203 Clouds 12 1021 82 10000 1.34 203 19:41 01.11.2022
1204 Clouds 14 1020 76 10000 1.34 203 18:26 01.11.2022
1205 Clouds 16 1020 72 10000 2.24 169 16:48 01.11.2022
1206 Clouds 17 1019 72 10000 1.79 193 14:45 01.11.2022
1207 Clouds 17 1019 77 10000 3.13 165 13:20 01.11.2022
1208 Clouds 17 1019 80 10000 2.24 211 12:26 01.11.2022
1209 Clouds 17 1020 81 10000 1.79 200 11:20 01.11.2022
1210 Clouds 15 1019 84 10000 1.79 156 09:24 01.11.2022
1211 Clouds 14 1018 89 10000 3.89 204 07:54 01.11.2022
1212 Clouds 14 1018 88 5567 1.34 203 07:28 01.11.2022
1213 Rain 14 1018 90 10000 1.79 185 06:46 01.11.2022
1214 Rain 15 1017 89 10000 2.24 203 05:23 01.11.2022
1215 Clouds 13 1015 85 10000 1.76 157 22:51 31.10.2022
1216 Clouds 13 1015 85 10000 1.45 176 21:34 31.10.2022
1217 Clouds 13 1015 86 10000 1.78 144 19:58 31.10.2022
1218 Clouds 15 1015 85 10000 1.71 132 18:44 31.10.2022
1219 Clouds 18 1014 76 10000 2.24 279 16:45 31.10.2022
1220 Clouds 19 1014 73 10000 0.56 18 15:35 31.10.2022
1221 Clouds 17 1017 80 10000 0.83 278 12:49 31.10.2022
1222 Clouds 16 1020 76 10000 0.57 264 09:46 31.10.2022
1223 Clouds 14 1020 76 10000 0.84 126 07:41 31.10.2022
1224 Clouds 13 1019 72 10000 1.19 142 02:50 31.10.2022
1225 Clouds 15 1020 68 10000 1.22 142 01:49 31.10.2022
1226 Clouds 14 1019 74 10000 0.45 91 22:25 30.10.2022
1227 Clouds 15 1019 72 10000 1.28 147 20:45 30.10.2022
1228 Clouds 16 1018 71 10000 0.45 73 19:54 30.10.2022
1229 Clouds 20 1020 75 10000 0.78 158 16:48 30.10.2022
1230 Clouds 23 1017 58 10000 0.62 281 15:28 30.10.2022
1231 Clouds 22 1018 63 10000 1.06 279 13:51 30.10.2022
1232 Clouds 21 1019 65 10000 1.12 270 12:46 30.10.2022
1233 Clouds 19 1019 70 10000 0.45 256 11:21 30.10.2022
1234 Clouds 18 1020 61 10000 0.39 181 09:36 30.10.2022
1235 Clouds 17 1020 64 10000 1.25 127 08:20 30.10.2022
1236 Clouds 16 1019 68 10000 0.89 54 00:50 30.10.2022
1237 Clouds 15 1019 72 10000 1.83 140 00:27 30.10.2022
1238 Clouds 16 1020 72 10000 1.83 140 23:44 29.10.2022
1239 Clouds 18 1019 66 10000 1.83 139 20:54 29.10.2022
1240 Clouds 21 1018 80 10000 1.82 158 17:34 29.10.2022
1241 Clouds 24 1019 66 10000 0.82 220 16:22 29.10.2022
1242 Clouds 24 1020 61 10000 0.89 257 15:37 29.10.2022
1243 Clouds 24 1022 58 10000 0.45 203 14:47 29.10.2022
1244 Clouds 20 1021 68 10000 0.36 277 12:34 29.10.2022
1245 Clouds 20 1023 63 10000 0.23 175 10:40 29.10.2022
1246 Clouds 16 1020 69 10000 1.52 162 07:37 29.10.2022
1247 Clouds 16 1020 72 10000 1.4 145 05:56 29.10.2022
1248 Clouds 15 1021 75 10000 1.91 140 03:59 29.10.2022
1249 Clouds 17 1022 71 10000 1.95 158 23:32 28.10.2022
1250 Clouds 18 1022 66 10000 2.25 159 20:46 28.10.2022
1251 Clouds 20 1021 63 10000 2.3 153 19:26 28.10.2022
1252 Clouds 21 1021 64 10000 2.3 153 18:31 28.10.2022
1253 Clouds 27 1020 47 10000 1.34 264 15:33 28.10.2022
1254 Clouds 27 1021 49 10000 0.89 181 14:43 28.10.2022
1255 Clouds 24 1022 57 10000 0.45 203 12:57 28.10.2022
1256 Clouds 20 1021 73 10000 2.21 161 11:34 28.10.2022
1257 Clouds 20 1024 69 10000 0.45 203 10:59 28.10.2022
1258 Clouds 20 1024 63 10000 1.92 158 09:48 28.10.2022
1259 Clouds 15 1021 81 10000 1.82 155 08:29 28.10.2022
1260 Clouds 16 1022 73 10000 1.9 151 03:51 28.10.2022
1261 Clouds 16 1022 73 10000 1.9 151 03:51 28.10.2022
1262 Clouds 16 1022 73 10000 1.9 151 03:51 28.10.2022
1263 Clouds 16 1022 79 10000 2.36 140 23:49 27.10.2022
1264 Clouds 16 1022 79 10000 2.31 138 22:58 27.10.2022
1265 Clouds 17 1022 76 10000 0.45 92 21:56 27.10.2022
1266 Clouds 18 1023 72 10000 2.27 143 20:30 27.10.2022
1267 Clouds 20 1022 73 10000 2.11 151 18:23 27.10.2022
1268 Clear 23 1022 67 10000 1.79 360 14:52 27.10.2022
1269 Clear 18 1023 77 10000 1.03 241 11:33 27.10.2022
1270 Clouds 12 1023 88 10000 1.41 146 07:31 27.10.2022
1271 Clouds 13 1022 86 10000 1.81 124 00:22 27.10.2022
1272 Clouds 13 1022 86 10000 1.8 124 23:49 26.10.2022
1273 Clouds 14 1022 82 10000 1.8 133 22:38 26.10.2022
1274 Clouds 15 1021 82 10000 1.96 138 20:46 26.10.2022
1275 Clouds 22 1022 82 10000 2.02 151 17:36 26.10.2022
1276 Clouds 23 1019 60 10000 2.68 227 14:54 26.10.2022
1277 Clouds 21 1019 65 10000 2.24 155 12:56 26.10.2022
1278 Clouds 21 1019 65 10000 2.68 203 12:18 26.10.2022
1279 Clouds 14 1016 88 10000 2.65 168 09:19 26.10.2022
1280 Clouds 14 1016 89 10000 2.64 168 08:51 26.10.2022
1281 Clouds 13 1015 80 10000 2.06 108 00:52 26.10.2022
1282 Clouds 13 1015 81 10000 2.06 108 00:33 26.10.2022
1283 Clouds 14 1015 78 10000 1.82 127 22:25 25.10.2022
1284 Clouds 14 1015 78 10000 0.45 112 21:44 25.10.2022
1285 Clouds 14 1016 76 10000 2.14 123 20:29 25.10.2022
1286 Clouds 15 1016 72 10000 1.91 119 18:55 25.10.2022
1287 Clouds 20 1016 52 10000 0.59 261 16:45 25.10.2022
1288 Clear 17 1018 77 10000 2.08 228 11:46 25.10.2022
1289 Clear 16 1018 82 10000 1.75 221 10:47 25.10.2022
1290 Clear 15 1019 85 10000 0.45 225 10:29 25.10.2022
1291 Clear 11 1017 91 10000 2.09 166 08:38 25.10.2022
1292 Clear 11 1017 92 10000 2.15 170 08:18 25.10.2022
1293 Clear 11 1017 91 10000 2.14 170 07:53 25.10.2022
1294 Clear 11 1017 90 10000 2.18 166 06:48 25.10.2022
1295 Clear 12 1018 87 10000 0.45 225 03:32 25.10.2022
1296 Clouds 13 1016 89 10000 2.78 172 00:32 25.10.2022
1297 Clouds 15 1015 82 10000 2.39 173 22:28 24.10.2022
1298 Clouds 15 1015 81 10000 2.39 173 21:49 24.10.2022
1299 Rain 15 1015 79 10000 1.79 317 21:31 24.10.2022
1300 Clouds 15 1013 83 10000 2.94 174 20:23 24.10.2022
1301 Clouds 16 1012 81 10000 3.59 186 18:45 24.10.2022
1302 Clouds 19 1013 72 10000 1.79 203 16:58 24.10.2022
1303 Clouds 19 1013 71 10000 1.79 142 15:42 24.10.2022
1304 Clouds 18 1014 75 10000 1.34 207 14:20 24.10.2022
1305 Clouds 16 1016 86 10000 4.54 205 12:41 24.10.2022
1306 Clouds 15 1012 86 10000 0.45 203 09:29 24.10.2022
1307 Rain 16 1011 87 10000 0.89 225 07:56 24.10.2022
1308 Clouds 20 1015 80 10000 4.89 179 22:50 23.10.2022
1309 Clouds 19 1015 77 10000 2.54 183 20:40 23.10.2022
1310 Rain 19 1009 76 10000 0.45 263 19:29 23.10.2022
1311 Clouds 21 1008 74 10000 1.94 159 17:30 23.10.2022
1312 Clouds 21 1008 74 10000 1.94 159 17:30 23.10.2022
1313 Clouds 23 1010 64 10000 0.45 180 16:37 23.10.2022
1314 Clouds 22 1010 70 10000 1.84 189 15:19 23.10.2022
1315 Clouds 17 1012 80 10000 0.85 196 12:21 23.10.2022
1316 Clouds 16 1012 84 10000 0.91 167 10:58 23.10.2022
1317 Clouds 11 1014 89 10000 1.67 135 06:55 23.10.2022
1318 Clouds 14 1016 87 10000 0.89 43 23:32 22.10.2022
1319 Clouds 14 1016 85 10000 1.9 130 22:30 22.10.2022
1320 Clouds 15 1016 83 10000 2.04 133 21:40 22.10.2022
1321 Clouds 15 1016 82 10000 0.89 107 20:29 22.10.2022
1322 Clouds 16 1016 81 10000 0.45 96 19:31 22.10.2022
1323 Clear 17 1016 81 10000 1.89 163 18:23 22.10.2022
1324 Clear 21 1015 65 10000 1.36 212 16:50 22.10.2022
1325 Clear 22 1016 64 10000 2.68 220 15:21 22.10.2022
1326 Clear 21 1016 69 10000 2.68 220 14:34 22.10.2022
1327 Clouds 18 1016 84 10000 1.79 360 11:40 22.10.2022
1328 Clouds 13 1016 95 10000 0.45 293 09:46 22.10.2022
1329 Clouds 13 1015 95 10000 0.45 293 08:37 22.10.2022
1330 Clouds 13 1013 95 10000 2.27 144 06:27 22.10.2022
1331 Rain 13 1013 95 4111 0.53 159 01:25 22.10.2022
1332 Rain 14 1013 94 5606 1.06 157 22:53 21.10.2022
1333 Clouds 15 1011 94 9633 3.33 170 21:34 21.10.2022
1334 Rain 15 1011 93 10000 3.78 148 20:47 21.10.2022
1335 Clouds 15 1012 91 10000 0.45 163 18:30 21.10.2022
1336 Rain 17 1013 97 10000 3.26 184 14:47 21.10.2022
1337 Rain 16 1013 91 10000 2.24 161 13:40 21.10.2022
1338 Rain 16 1012 88 10000 2.68 204 11:55 21.10.2022
1339 Rain 15 1011 93 4944 2.24 203 10:26 21.10.2022
1340 Rain 15 1010 95 4944 2.53 208 09:33 21.10.2022
1341 Rain 15 1009 95 6122 1.58 127 08:26 21.10.2022
1342 Rain 15 1010 95 9413 1.92 161 05:56 21.10.2022
1343 Clouds 15 1012 93 10000 2.12 150 23:53 20.10.2022
1344 Clouds 16 1012 92 10000 1.74 141 21:23 20.10.2022
1345 Rain 17 1013 91 10000 1.99 129 19:45 20.10.2022
1346 Rain 17 1013 90 10000 0.45 338 18:51 20.10.2022
1347 Clouds 18 1013 87 10000 0.4 316 17:48 20.10.2022
1348 Clouds 19 1014 84 10000 0.79 219 15:37 20.10.2022
1349 Clouds 19 1016 82 10000 3.04 217 12:33 20.10.2022
1350 Clouds 18 1016 80 10000 1.34 315 11:53 20.10.2022
1351 Clouds 16 1016 90 10000 1.34 214 10:56 20.10.2022
1352 Clouds 13 1018 95 10000 0.45 338 09:35 20.10.2022
1353 Clouds 12 1015 95 10000 1.09 165 07:44 20.10.2022
1354 Clouds 13 1016 94 10000 1.14 132 03:31 20.10.2022
1355 Clouds 14 1018 93 10000 1.74 118 23:53 19.10.2022
1356 Clouds 15 1019 92 10000 1.81 122 22:32 19.10.2022
1357 Clouds 15 1019 92 10000 2.02 121 21:39 19.10.2022
1358 Clouds 15 1019 92 10000 1.89 118 20:23 19.10.2022
1359 Clouds 15 1019 92 10000 0.89 261 17:52 19.10.2022
1360 Clouds 17 1020 80 10000 0.54 339 16:49 19.10.2022
1361 Clouds 22 1021 72 10000 1.39 334 14:46 19.10.2022
1362 Clouds 19 1023 70 10000 1.4 330 12:42 19.10.2022
1363 Clouds 13 1023 95 10000 0.93 98 09:26 19.10.2022
1364 Clouds 13 1023 94 10000 1.02 108 07:51 19.10.2022
1365 Clear 12 1023 92 10000 1.18 107 03:44 19.10.2022
1366 Clear 14 1024 90 10000 1.29 106 00:21 19.10.2022
1367 Clear 15 1025 87 10000 1.34 96 22:41 18.10.2022
1368 Clear 16 1024 86 10000 1.28 96 21:36 18.10.2022
1369 Clear 17 1025 83 10000 1.44 94 20:35 18.10.2022
1370 Clear 18 1024 80 10000 1.27 86 19:27 18.10.2022
1371 Clear 23 1026 63 10000 0.6 281 17:20 18.10.2022
1372 Clear 24 1023 59 10000 0.89 253 16:19 18.10.2022
1373 Clouds 23 1026 66 10000 2.24 265 13:49 18.10.2022
1374 Clouds 22 1026 66 10000 0.89 248 12:21 18.10.2022
1375 Clouds 21 1026 68 10000 1.79 225 11:19 18.10.2022
1376 Clouds 18 1025 79 10000 2.68 208 09:27 18.10.2022
1377 Clouds 16 1025 83 10000 1.85 169 07:20 18.10.2022
1378 Clouds 16 1024 82 10000 1.83 144 00:49 18.10.2022
1379 Clouds 16 1025 78 10000 1.86 136 21:50 17.10.2022
1380 Clouds 17 1025 76 10000 1.75 135 20:50 17.10.2022
1381 Clouds 17 1024 77 10000 1.75 135 20:30 17.10.2022
1382 Clouds 18 1024 73 10000 1.79 141 19:50 17.10.2022
1383 Clouds 19 1022 76 10000 1.88 139 18:42 17.10.2022
1384 Clouds 25 1023 53 10000 0.89 225 16:39 17.10.2022
1385 Clouds 25 1023 50 10000 2.68 226 15:29 17.10.2022
1386 Clouds 25 1024 51 10000 2.24 237 14:34 17.10.2022
1387 Clouds 17 1022 81 10000 1 161 10:29 17.10.2022
1388 Clouds 15 1021 84 10000 1.73 135 05:26 17.10.2022
1389 Clouds 15 1018 87 10000 2.02 137 23:30 16.10.2022
1390 Clouds 16 1018 85 10000 2.17 136 21:47 16.10.2022
1391 Clouds 17 1018 78 10000 2.26 138 20:41 16.10.2022
1392 Clouds 18 1017 78 10000 2.35 132 19:46 16.10.2022
1393 Clouds 22 1018 73 10000 1.44 113 17:51 16.10.2022
1394 Clouds 24 1016 57 10000 0.45 346 16:33 16.10.2022
1395 Clouds 25 1016 53 10000 0.76 268 15:57 16.10.2022
1396 Clouds 24 1017 53 10000 0.45 225 14:33 16.10.2022
1397 Clouds 22 1017 64 10000 1.34 219 12:23 16.10.2022
1398 Clouds 17 1016 87 10000 0.98 186 10:27 16.10.2022
1399 Clouds 15 1014 91 10000 2.11 166 08:44 16.10.2022
1400 Clouds 15 1013 91 10000 1.75 160 01:26 16.10.2022
1401 Clouds 16 1013 90 10000 1.81 158 22:43 15.10.2022
1402 Clouds 16 1012 87 10000 2.35 169 21:25 15.10.2022
1403 Clouds 17 1012 86 10000 1.34 225 20:55 15.10.2022
1404 Clouds 17 1012 85 10000 1.34 203 18:44 15.10.2022
1405 Clouds 18 1012 77 10000 1.79 240 15:49 15.10.2022
1406 Rain 19 1012 76 10000 3.13 211 14:55 15.10.2022
1407 Clouds 17 1012 81 10000 4.02 192 11:58 15.10.2022
1408 Rain 17 1012 83 10000 3.58 203 10:47 15.10.2022
1409 Rain 16 1011 87 10000 4.02 173 08:54 15.10.2022
1410 Rain 17 1010 91 7621 4.92 203 03:21 15.10.2022
1411 Rain 16 1010 91 10000 2.68 196 23:58 14.10.2022
1412 Rain 16 1011 91 9104 3.58 203 22:24 14.10.2022
1413 Rain 15 1011 90 9104 3.13 203 21:30 14.10.2022
1414 Rain 15 1012 90 7460 2.24 225 20:25 14.10.2022
1415 Clouds 16 1013 88 7195 3.13 202 16:59 14.10.2022
1416 Clouds 17 1013 83 10000 3.13 222 13:52 14.10.2022
1417 Clouds 17 1014 84 10000 2.68 202 12:44 14.10.2022
1418 Clouds 14 1015 90 10000 1.81 170 09:46 14.10.2022
1419 Clouds 13 1015 89 10000 1.94 154 07:57 14.10.2022
1420 Clouds 13 1016 89 10000 2.23 153 06:18 14.10.2022
1421 Clouds 14 1016 88 10000 2.23 153 05:42 14.10.2022
1422 Clouds 13 1017 89 10000 2.27 170 04:42 14.10.2022
1423 Clouds 14 1018 89 10000 0.89 203 00:53 14.10.2022
1424 Clouds 14 1018 87 10000 2.34 163 22:32 13.10.2022
1425 Clouds 14 1018 88 10000 1.34 211 21:29 13.10.2022
1426 Clouds 14 1018 87 10000 1.34 171 20:19 13.10.2022
1427 Clouds 14 1018 87 10000 1.79 206 19:39 13.10.2022
1428 Clouds 15 1017 86 10000 0.89 193 18:44 13.10.2022
1429 Rain 17 1017 79 10000 0.89 203 17:31 13.10.2022
1430 Rain 17 1017 79 10000 0.89 203 17:31 13.10.2022
1431 Clouds 18 1018 75 10000 2.24 209 15:48 13.10.2022
1432 Clouds 18 1018 74 10000 2.24 315 14:29 13.10.2022
1433 Clouds 16 1019 81 10000 0.89 190 12:56 13.10.2022
1434 Clouds 14 1019 91 10000 2.65 244 11:39 13.10.2022
1435 Clouds 12 1021 93 10000 1.35 231 09:46 13.10.2022
1436 Clouds 10 1020 94 10000 0.94 186 08:32 13.10.2022
1437 Clouds 10 1020 93 10000 1.09 176 07:35 13.10.2022
1438 Clouds 12 1021 90 10000 1.06 161 01:59 13.10.2022
1439 Clouds 13 1021 89 10000 1.29 168 01:28 13.10.2022
1440 Clouds 14 1021 89 10000 1.43 145 22:58 12.10.2022
1441 Clouds 14 1021 89 10000 1.43 145 22:37 12.10.2022
1442 Clouds 15 1021 89 10000 1.41 132 21:24 12.10.2022
1443 Clouds 14 1021 89 10000 1.41 132 20:53 12.10.2022
1444 Clouds 14 1021 88 10000 1.57 125 20:25 12.10.2022
1445 Clear 17 1020 81 10000 1.35 99 18:40 12.10.2022
1446 Clouds 18 1020 76 10000 0.45 254 17:54 12.10.2022
1447 Clouds 18 1020 75 10000 2.24 360 16:18 12.10.2022
1448 Clouds 16 1021 78 10000 1.79 253 13:57 12.10.2022
1449 Clouds 16 1021 78 10000 3.58 360 13:34 12.10.2022
1450 Clouds 13 1022 90 10000 1.34 258 10:39 12.10.2022
1451 Clouds 11 1022 93 10000 0.82 126 08:37 12.10.2022
1452 Clouds 11 1022 92 10000 1.09 119 07:41 12.10.2022
1453 Clouds 12 1022 91 10000 1.09 124 06:43 12.10.2022
1454 Clouds 12 1022 90 10000 0.74 94 02:46 12.10.2022
1455 Clouds 13 1021 89 10000 1.16 48 22:43 11.10.2022
1456 Clouds 14 1021 88 10000 1.23 43 20:57 11.10.2022
1457 Clouds 14 1021 87 10000 1.37 18 19:58 11.10.2022
1458 Clouds 15 1021 83 10000 1.34 23 17:38 11.10.2022
1459 Clouds 15 1021 85 10000 2.68 257 15:34 11.10.2022
1460 Clouds 14 1022 89 10000 0.45 257 13:29 11.10.2022
1461 Clouds 14 1022 92 10000 1.79 0 10:32 11.10.2022
1462 Clouds 13 1021 92 10000 1.34 203 09:55 11.10.2022
1463 Clouds 12 1021 93 10000 0.76 47 08:25 11.10.2022
1464 Clouds 14 1020 89 10000 0.7 95 02:49 11.10.2022
1465 Clouds 15 1019 86 10000 1.13 140 00:34 11.10.2022
1466 Clouds 16 1020 83 10000 1.12 196 22:45 10.10.2022
1467 Clouds 16 1018 80 10000 2.23 144 20:37 10.10.2022
1468 Clouds 17 1017 77 10000 2.22 164 19:21 10.10.2022
1469 Clouds 22 1017 61 10000 0.89 203 17:25 10.10.2022
1470 Clouds 22 1017 57 10000 1.34 203 16:36 10.10.2022
1471 Clouds 22 1017 62 10000 2.24 166 13:53 10.10.2022
1472 Clouds 20 1017 68 10000 1.34 203 12:22 10.10.2022
1473 Clouds 13 1017 92 10000 0.45 45 09:32 10.10.2022
1474 Clouds 11 1016 93 10000 1.73 163 06:50 10.10.2022
1475 Clouds 11 1015 93 10000 1.65 159 05:34 10.10.2022
1476 Clouds 11 1016 91 10000 1.52 161 01:58 10.10.2022
1477 Clear 11 1016 91 10000 1.55 154 00:23 10.10.2022
1478 Clear 11 1016 88 10000 1.78 136 22:26 09.10.2022
1479 Clear 12 1016 87 10000 1.78 136 21:40 09.10.2022
1480 Clear 12 1016 86 10000 1.92 132 20:44 09.10.2022
1481 Clouds 13 1017 81 10000 1.87 130 19:51 09.10.2022
1482 Clouds 15 1017 78 10000 1.28 147 18:51 09.10.2022
1483 Clouds 17 1017 70 10000 1.34 261 17:55 09.10.2022
1484 Clouds 18 1017 64 10000 1.79 276 16:56 09.10.2022
1485 Clouds 17 1017 64 10000 1.79 360 16:21 09.10.2022
1486 Clouds 17 1018 68 10000 2.68 360 15:27 09.10.2022
1487 Clouds 16 1019 66 10000 0.19 348 14:27 09.10.2022
1488 Clouds 16 1020 59 10000 0.58 46 12:53 09.10.2022
1489 Clouds 15 1021 62 10000 1.04 44 11:32 09.10.2022
1490 Clouds 9 1021 92 10000 1.2 57 09:40 09.10.2022
1491 Clouds 8 1020 91 10000 1.4 99 07:35 09.10.2022
1492 Clouds 9 1021 90 10000 1.67 97 03:32 09.10.2022
1493 Clouds 9 1022 88 10000 1.9 93 02:23 09.10.2022
1494 Clouds 10 1023 86 10000 1.79 23 23:56 08.10.2022
1495 Clouds 11 1023 85 10000 1.82 75 22:53 08.10.2022
1496 Clouds 12 1022 83 10000 2.26 57 21:18 08.10.2022
1497 Clouds 14 1022 77 10000 2.6 47 19:56 08.10.2022
1498 Clouds 17 1020 67 10000 1.81 37 18:24 08.10.2022
1499 Clouds 18 1021 63 10000 0.89 342 15:56 08.10.2022
1500 Clouds 18 1020 65 10000 1.34 24 14:32 08.10.2022
1501 Clouds 16 1020 77 10000 0.45 325 12:31 08.10.2022
1502 Clouds 16 1020 89 10000 1.79 360 10:37 08.10.2022
1503 Clouds 16 1020 89 10000 1.79 360 10:37 08.10.2022
1504 Clouds 15 1019 91 10000 1.55 255 09:52 08.10.2022
1505 Clouds 15 1019 91 10000 0.79 233 08:41 08.10.2022
1506 Clouds 15 1018 88 10000 1.82 182 03:52 08.10.2022
1507 Clouds 16 1019 84 10000 0.89 240 00:37 08.10.2022
1508 Clouds 16 1019 84 10000 1.34 198 23:21 07.10.2022
1509 Clouds 16 1019 85 10000 0.45 180 22:49 07.10.2022
1510 Clouds 16 1019 84 10000 2.12 165 21:29 07.10.2022
1511 Clouds 17 1018 82 10000 2.28 149 19:34 07.10.2022
1512 Clouds 21 1018 68 10000 0.89 360 17:47 07.10.2022
1513 Clouds 22 1020 64 10000 0.45 158 16:41 07.10.2022
1514 Clouds 21 1021 65 10000 2.68 265 14:59 07.10.2022
1515 Clouds 19 1022 72 10000 2.24 259 13:23 07.10.2022
1516 Clouds 15 1024 87 10000 0.99 262 10:29 07.10.2022
1517 Clouds 12 1024 91 10000 0.44 199 09:24 07.10.2022
1518 Clouds 10 1024 93 10000 0.87 154 08:18 07.10.2022
1519 Clouds 13 1027 82 10000 0.64 94 02:26 07.10.2022
1520 Clouds 14 1028 84 10000 1.14 79 22:52 06.10.2022
1521 Clouds 15 1028 83 10000 1.34 75 21:50 06.10.2022
1522 Clouds 15 1028 84 10000 1.31 74 21:29 06.10.2022
1523 Clouds 15 1028 82 10000 1.31 74 20:36 06.10.2022
1524 Clouds 16 1029 76 10000 1.62 21 18:46 06.10.2022
1525 Clouds 17 1028 75 10000 1.34 248 18:20 06.10.2022
1526 Clouds 19 1028 69 10000 0.45 194 15:36 06.10.2022
1527 Clouds 17 1029 73 10000 0.89 257 12:49 06.10.2022
1528 Clear 13 1028 85 10000 0.74 184 08:23 06.10.2022
1529 Clear 14 1024 77 10000 2.08 173 04:37 06.10.2022
1530 Clear 15 1023 73 10000 2.66 173 00:50 06.10.2022
1531 Clear 16 1021 79 10000 2.83 173 21:53 05.10.2022
1532 Clear 18 1023 74 10000 3.57 180 19:44 05.10.2022
1533 Clear 24 1021 53 10000 3.96 202 17:37 05.10.2022
1534 Clear 24 1020 52 10000 1.34 203 16:40 05.10.2022
1535 Clear 24 1020 50 10000 3.13 97 14:57 05.10.2022
1536 Clear 23 1020 49 10000 3.13 97 14:23 05.10.2022
1537 Clear 22 1021 50 10000 3.13 226 12:45 05.10.2022
1538 Clear 21 1021 58 10000 1.79 236 11:38 05.10.2022
1539 Clouds 11 1020 91 10000 1.99 160 08:23 05.10.2022
1540 Clouds 11 1020 90 10000 1.89 169 07:19 05.10.2022
1541 Clouds 10 1020 93 10000 1.77 158 05:31 05.10.2022
1542 Clouds 11 1021 90 10000 1.63 146 02:31 05.10.2022
1543 Clouds 11 1022 91 10000 1.81 143 00:28 05.10.2022
1544 Clear 12 1022 90 10000 1.56 142 23:22 04.10.2022
1545 Clear 13 1021 89 10000 1.87 136 21:25 04.10.2022
1546 Clear 15 1020 85 10000 1.88 132 19:56 04.10.2022
1547 Clouds 16 1022 83 10000 1.42 123 18:55 04.10.2022
1548 Clouds 19 1020 71 10000 0.89 360 17:57 04.10.2022
1549 Clouds 19 1020 69 10000 0.89 249 16:57 04.10.2022
1550 Clouds 17 1021 71 10000 2.68 269 14:31 04.10.2022
1551 Clouds 12 1022 88 10000 0.64 281 10:43 04.10.2022
1552 Clouds 8 1021 95 10000 0.88 131 08:28 04.10.2022
1553 Clouds 7 1021 94 10000 1.23 135 04:48 04.10.2022
1554 Clouds 9 1023 93 10000 1.48 114 00:25 04.10.2022
1555 Clouds 10 1023 92 10000 1.46 123 22:57 03.10.2022
1556 Clouds 11 1023 90 10000 1.64 120 21:41 03.10.2022
1557 Clouds 13 1023 87 10000 1.47 109 20:40 03.10.2022
1558 Clouds 15 1024 84 10000 1.2 30 18:52 03.10.2022
1559 Clouds 16 1024 80 10000 1.34 319 17:35 03.10.2022
1560 Clouds 16 1024 78 10000 1.34 335 16:23 03.10.2022
1561 Clouds 16 1024 79 10000 0.89 326 14:36 03.10.2022
1562 Clouds 15 1025 83 10000 1.34 267 13:27 03.10.2022
1563 Clouds 13 1025 93 10000 1.79 267 11:38 03.10.2022
1564 Clouds 12 1025 95 10000 1.79 68 10:19 03.10.2022
1565 Clouds 11 1025 95 10000 0.45 68 08:56 03.10.2022
1566 Clouds 12 1024 95 10000 0.45 68 04:49 03.10.2022
1567 Clouds 13 1023 95 3167 2.43 3 01:51 03.10.2022
1568 Clouds 14 1021 93 5666 3.62 223 22:19 02.10.2022
1569 Rain 16 1020 83 10000 2.68 211 20:22 02.10.2022
1570 Clouds 17 1019 83 10000 3.13 195 17:59 02.10.2022
1571 Clouds 17 1019 83 5465 3.13 272 17:29 02.10.2022
1572 Clouds 18 1019 79 5465 4.92 192 16:33 02.10.2022
1573 Clouds 19 1019 78 5372 5.36 163 15:39 02.10.2022
1574 Clouds 18 1019 90 4205 2.68 180 13:48 02.10.2022
1575 Rain 17 1019 93 10000 2.24 182 12:48 02.10.2022
1576 Rain 17 1019 93 10000 1.79 203 12:24 02.10.2022
1577 Clouds 17 1019 91 10000 4.02 185 11:35 02.10.2022
1578 Clouds 17 1020 86 10000 2.68 150 10:36 02.10.2022
1579 Clouds 16 1019 85 10000 1.79 217 08:40 02.10.2022
1580 Clouds 15 1020 87 10000 1.79 189 06:38 02.10.2022
1581 Clouds 15 1020 88 10000 1.34 198 02:54 02.10.2022
1582 Clouds 14 1019 87 9994 3.58 242 00:45 02.10.2022
1583 Clouds 14 1019 88 10000 1.34 188 23:43 01.10.2022
1584 Clouds 15 1018 89 3908 2.24 203 22:31 01.10.2022
1585 Clouds 14 1016 88 4155 2.24 184 19:58 01.10.2022
1586 Clouds 14 1014 87 3690 3.58 225 17:55 01.10.2022
1587 Clouds 14 1014 87 10000 3.13 203 16:30 01.10.2022
1588 Clouds 13 1014 86 10000 4.02 190 14:25 01.10.2022
1589 Clouds 12 1013 82 10000 3.58 200 12:59 01.10.2022
1590 Clouds 12 1013 80 10000 2.68 317 12:29 01.10.2022
1591 Clouds 12 1012 82 8293 3.13 136 11:19 01.10.2022
1592 Rain 11 1012 82 8293 3.58 203 10:31 01.10.2022
1593 Rain 11 1012 83 10000 3.58 165 09:27 01.10.2022
1594 Rain 11 1012 84 10000 3.58 183 08:57 01.10.2022
1595 Clouds 10 1013 83 10000 1.79 203 03:59 01.10.2022
1596 Clouds 9 1014 85 10000 1.79 200 03:29 01.10.2022
1597 Clear 8 1014 90 10000 0.45 203 23:47 30.09.2022
1598 Clear 9 1013 89 10000 1.98 165 22:32 30.09.2022
1599 Clear 9 1013 87 10000 0.45 95 21:22 30.09.2022
1600 Clear 10 1012 85 10000 0.45 100 20:43 30.09.2022
1601 Clouds 12 1012 84 10000 1.77 141 19:43 30.09.2022
1602 Clouds 15 1011 73 10000 0.11 339 17:28 30.09.2022
1603 Clouds 15 1011 72 10000 0.72 293 15:32 30.09.2022
1604 Clouds 13 1010 81 10000 2.24 240 13:29 30.09.2022
1605 Clouds 11 1010 90 10000 1.34 263 11:57 30.09.2022
1606 Clouds 10 1010 93 10000 0.89 248 10:23 30.09.2022
1607 Clouds 8 1008 95 10000 0.16 348 08:24 30.09.2022
1608 Clouds 9 1007 94 10000 0.01 263 05:47 30.09.2022
1609 Clouds 9 1006 95 10000 0.33 5 02:31 30.09.2022
1610 Clouds 10 1005 92 10000 0.35 90 22:31 29.09.2022
1611 Clouds 11 1004 90 10000 0.9 161 21:27 29.09.2022
1612 Clouds 11 1003 91 10000 0.9 161 20:44 29.09.2022
1613 Clouds 12 1001 93 10000 0.93 184 18:34 29.09.2022
1614 Clouds 12 1001 88 7999 1.47 241 17:23 29.09.2022
1615 Clouds 13 1001 79 10000 2.84 255 16:28 29.09.2022
1616 Clouds 13 1001 78 10000 0.89 252 15:36 29.09.2022
1617 Clouds 13 1001 82 10000 0.45 217 14:29 29.09.2022
1618 Clouds 10 1000 95 10000 0.29 79 09:57 29.09.2022
1619 Clouds 8 999 94 10000 0.72 162 06:58 29.09.2022
1620 Clouds 9 1000 93 10000 0.56 238 02:49 29.09.2022
1621 Rain 9 1000 92 10000 1.68 181 23:55 28.09.2022
1622 Rain 9 1001 92 10000 1.85 172 22:42 28.09.2022
1623 Clouds 9 1000 92 10000 1.99 166 21:29 28.09.2022
1624 Clouds 9 1000 92 10000 1.91 179 20:24 28.09.2022
1625 Clouds 10 999 92 10000 2.24 192 18:41 28.09.2022
1626 Rain 11 999 92 10000 0.45 180 15:26 28.09.2022
1627 Rain 11 999 92 2149 2.28 272 13:26 28.09.2022
1628 Rain 10 998 92 7758 2.51 214 10:59 28.09.2022
1629 Rain 11 997 92 10000 4.03 229 09:18 28.09.2022
1630 Rain 11 996 90 9829 2.68 198 07:20 28.09.2022
1631 Clouds 11 998 83 8308 4.02 217 03:18 28.09.2022
1632 Clouds 11 1000 85 9553 4.92 300 01:35 28.09.2022
1633 Clouds 10 1002 88 10000 2.68 151 23:27 27.09.2022
1634 Clouds 11 1002 87 10000 4.92 227 21:47 27.09.2022
1635 Clouds 10 1003 88 6747 2.68 147 20:39 27.09.2022
1636 Clouds 11 1002 85 10000 2.68 251 19:48 27.09.2022
1637 Clouds 11 1002 81 6031 3.13 181 18:49 27.09.2022
1638 Clouds 12 1002 82 7322 2.24 134 17:46 27.09.2022
1639 Clouds 11 1002 86 10000 2.24 140 15:58 27.09.2022
1640 Rain 12 1002 80 10000 4.47 228 14:58 27.09.2022
1641 Clouds 11 1003 83 10000 2.24 116 12:53 27.09.2022
1642 Clouds 11 1003 86 10000 3.58 149 12:21 27.09.2022
1643 Clouds 10 1002 90 10000 1.34 223 09:34 27.09.2022
1644 Rain 10 1001 92 4089 1.79 219 06:56 27.09.2022
1645 Rain 11 999 86 8344 2.68 204 02:51 27.09.2022
1646 Clouds 11 999 84 7529 2.68 167 01:35 27.09.2022
1647 Rain 11 1001 85 9071 1.79 213 23:35 26.09.2022
1648 Rain 11 1002 84 10000 4.47 218 22:40 26.09.2022
1649 Rain 14 1002 68 10000 3.13 178 20:47 26.09.2022
1650 Clouds 14 1003 70 10000 2.24 202 19:34 26.09.2022
1651 Rain 14 1003 70 10000 0.89 241 18:34 26.09.2022
1652 Rain 15 1004 75 10000 1.34 212 16:41 26.09.2022
1653 Rain 15 1006 72 10000 1.34 192 14:46 26.09.2022
1654 Clouds 14 1008 76 10000 2.68 192 11:36 26.09.2022
1655 Clouds 13 1008 85 10000 3.13 184 10:41 26.09.2022
1656 Clouds 13 1008 87 10000 2.24 145 10:21 26.09.2022
1657 Clouds 12 1008 89 10000 3.1 208 09:56 26.09.2022
1658 Clouds 12 1008 92 10000 2.12 196 09:25 26.09.2022
1659 Clouds 11 1008 93 10000 2.12 196 08:58 26.09.2022
1660 Clouds 11 1011 92 10000 1.5 196 02:59 26.09.2022
1661 Clouds 12 1011 92 10000 0.76 193 01:31 26.09.2022
1662 Clouds 12 1012 91 10000 0.63 147 23:20 25.09.2022
1663 Clouds 13 1012 87 10000 0.77 103 21:44 25.09.2022
1664 Clouds 13 1012 88 10000 1.49 53 20:57 25.09.2022
1665 Clouds 13 1012 87 10000 1.49 53 20:32 25.09.2022
1666 Clouds 15 1010 80 10000 1.74 5 18:44 25.09.2022
1667 Clouds 15 1010 79 10000 1.64 344 18:21 25.09.2022
1668 Rain 15 1011 80 9648 1.81 330 16:59 25.09.2022
1669 Rain 16 1010 78 10000 1.73 299 15:48 25.09.2022
1670 Clouds 17 1011 72 10000 0.45 350 14:31 25.09.2022
1671 Clouds 17 1011 72 10000 0.45 350 14:31 25.09.2022
1672 Clouds 16 1011 75 10000 0.89 360 13:45 25.09.2022
1673 Clouds 13 1011 92 10000 1.51 265 10:37 25.09.2022
1674 Clouds 11 1011 94 10000 0.82 241 09:21 25.09.2022
1675 Clouds 11 1010 93 10000 0.5 101 06:53 25.09.2022
1676 Clouds 11 1011 93 10000 1.03 132 04:28 25.09.2022
1677 Clouds 12 1011 91 10000 1.5 136 23:36 24.09.2022
1678 Clouds 13 1011 88 10000 1.96 140 21:19 24.09.2022
1679 Clouds 15 1009 79 10000 1.76 152 19:33 24.09.2022
1680 Clouds 17 1010 74 10000 1.68 187 18:44 24.09.2022
1681 Clouds 18 1010 71 10000 0.89 169 16:50 24.09.2022
1682 Clouds 17 1010 75 10000 0.89 229 15:23 24.09.2022
1683 Clouds 17 1014 90 10000 1.86 183 14:27 24.09.2022
1684 Clouds 16 1011 84 10000 0.89 202 12:59 24.09.2022
1685 Rain 16 1012 83 10000 2.68 146 12:22 24.09.2022
1686 Rain 14 1011 89 10000 1.93 167 09:58 24.09.2022
1687 Rain 14 1011 89 10000 0.89 219 08:56 24.09.2022
1688 Rain 13 1011 90 10000 0.89 143 07:41 24.09.2022
1689 Rain 13 1011 89 10000 2.19 158 04:52 24.09.2022
1690 Rain 14 1011 87 10000 2.31 173 03:48 24.09.2022
1691 Clouds 14 1013 82 10000 1.71 173 22:54 23.09.2022
1692 Clouds 15 1013 77 10000 1.74 168 21:33 23.09.2022
1693 Clouds 16 1013 75 10000 1.85 159 20:57 23.09.2022
1694 Clouds 16 1013 76 10000 1.86 159 20:37 23.09.2022
1695 Clouds 18 1012 72 10000 1.97 157 19:19 23.09.2022
1696 Clouds 21 1014 52 10000 1.79 225 15:31 23.09.2022
1697 Clouds 19 1016 57 10000 0.89 260 12:39 23.09.2022
1698 Clouds 11 1017 87 10000 1.05 253 09:36 23.09.2022
1699 Clouds 7 1017 89 10000 1.17 144 06:51 23.09.2022
1700 Clear 9 1017 87 10000 1.87 131 00:44 23.09.2022
1701 Clear 10 1018 84 10000 0.45 57 23:28 22.09.2022
1702 Clear 11 1018 82 10000 0.89 79 22:27 22.09.2022
1703 Clear 12 1018 79 10000 2.27 127 21:23 22.09.2022
1704 Clear 13 1017 77 10000 1.99 131 20:18 22.09.2022
1705 Clear 19 1017 54 10000 1.34 336 18:30 22.09.2022
1706 Clear 18 1019 54 10000 2.24 249 14:48 22.09.2022
1707 Clear 11 1020 74 10000 2.68 263 10:38 22.09.2022
1708 Clear 11 1020 74 10000 2.68 263 10:38 22.09.2022
1709 Clear 11 1020 76 10000 2.68 259 10:19 22.09.2022
1710 Clouds 5 1021 89 10000 1.45 123 07:48 22.09.2022
1711 Clouds 6 1020 87 10000 1.63 112 04:38 22.09.2022
1712 Clear 9 1021 76 10000 2.19 117 00:25 22.09.2022
1713 Clear 10 1021 78 10000 2.71 112 22:28 21.09.2022
1714 Clear 11 1021 72 10000 2.88 104 20:55 21.09.2022
1715 Clouds 17 1022 52 10000 2.89 66 18:34 21.09.2022
1716 Clouds 18 1019 46 10000 1.34 60 17:39 21.09.2022
1717 Clouds 18 1019 47 10000 0.89 128 15:35 21.09.2022
1718 Clouds 17 1020 53 10000 1.34 120 13:39 21.09.2022
1719 Clear 14 1022 70 10000 1.34 245 11:34 21.09.2022
1720 Clear 13 1023 72 10000 2.09 50 10:54 21.09.2022
1721 Clear 10 1023 85 10000 1.75 48 09:39 21.09.2022
1722 Clear 7 1022 91 10000 1.54 70 08:31 21.09.2022
1723 Clouds 8 1022 86 10000 1.73 106 03:51 21.09.2022
1724 Clouds 9 1022 83 10000 1.7 106 02:38 21.09.2022
1725 Clouds 9 1022 82 10000 1.84 106 01:52 21.09.2022
1726 Clear 10 1022 78 10000 2.13 106 00:19 21.09.2022
1727 Clear 11 1022 74 10000 0.45 69 21:52 20.09.2022
1728 Clear 12 1022 72 10000 2 105 20:32 20.09.2022
1729 Clouds 15 1020 56 10000 0.89 231 18:41 20.09.2022
1730 Clouds 17 1021 51 10000 1.79 338 15:37 20.09.2022
1731 Clouds 16 1021 56 10000 3.4 354 14:18 20.09.2022
1732 Clouds 15 1022 67 10000 0.89 327 11:51 20.09.2022
1733 Clear 8 1022 87 10000 1.15 16 08:44 20.09.2022
1734 Clouds 6 1021 90 10000 0.95 81 08:23 20.09.2022
1735 Clouds 6 1021 88 10000 1.28 101 04:40 20.09.2022
1736 Clouds 7 1021 86 10000 1.29 99 02:24 20.09.2022
1737 Clear 9 1020 80 10000 0.45 94 22:44 19.09.2022
1738 Clear 11 1020 76 10000 1.82 115 21:28 19.09.2022
1739 Clear 11 1022 71 10000 1.91 114 20:40 19.09.2022
1740 Clear 15 1018 60 10000 1.52 29 19:20 19.09.2022
1741 Clear 17 1018 49 10000 0.45 50 17:37 19.09.2022
1742 Clouds 16 1020 52 10000 2.8 349 13:49 19.09.2022
1743 Clouds 16 1020 55 10000 0.89 232 12:33 19.09.2022
1744 Clouds 13 1020 66 10000 0.89 55 10:31 19.09.2022
1745 Clouds 10 1019 81 10000 0.46 13 08:41 19.09.2022
1746 Clouds 12 1017 71 10000 1.42 176 04:38 19.09.2022
1747 Clouds 13 1017 66 10000 2.24 269 01:18 19.09.2022
1748 Clouds 14 1016 60 10000 3.13 213 22:49 18.09.2022
1749 Clouds 14 1016 61 10000 1.34 207 21:30 18.09.2022
1750 Clouds 14 1016 65 10000 0.89 213 19:58 18.09.2022
1751 Clouds 15 1016 59 10000 1.34 264 17:53 18.09.2022
1752 Clouds 16 1016 58 10000 0.45 213 16:59 18.09.2022
1753 Clouds 17 1017 53 10000 3.58 177 14:52 18.09.2022
1754 Clouds 16 1017 56 10000 2.68 360 13:47 18.09.2022
1755 Clouds 15 1017 62 10000 2.68 360 12:33 18.09.2022
1756 Clouds 12 1019 78 10000 1.34 177 10:44 18.09.2022
1757 Clouds 10 1018 82 10000 0.45 207 03:37 18.09.2022
1758 Clouds 10 1021 79 10000 2.24 188 01:23 18.09.2022
1759 Clouds 11 1021 81 10000 2.38 191 00:21 18.09.2022
1760 Clouds 11 1018 82 10000 2.32 223 21:36 17.09.2022
1761 Clouds 12 1016 74 10000 1.79 284 19:40 17.09.2022
1762 Clouds 13 1016 68 10000 1.34 360 18:46 17.09.2022
1763 Clouds 14 1014 66 10000 1.34 269 15:51 17.09.2022
1764 Clouds 13 1016 71 10000 1.34 271 13:56 17.09.2022
1765 Clouds 11 1016 82 10000 0.45 261 10:56 17.09.2022
1766 Clouds 9 1015 90 10000 2.07 212 08:34 17.09.2022
1767 Clouds 9 1014 88 10000 1.13 184 06:24 17.09.2022
1768 Clouds 11 1012 84 10000 2.12 212 23:59 16.09.2022
1769 Clouds 12 1012 84 10000 0.89 261 22:52 16.09.2022
1770 Clouds 13 1011 83 10000 1.56 255 20:59 16.09.2022
1771 Clouds 13 1011 88 10000 1.4 240 19:50 16.09.2022
1772 Clouds 15 1011 85 10000 1.88 342 16:30 16.09.2022
1773 Clouds 15 1011 86 10000 1.85 38 14:58 16.09.2022
1774 Clouds 15 1011 84 10000 0.45 342 13:43 16.09.2022
1775 Clouds 14 1010 93 3521 1.53 17 10:50 16.09.2022
1776 Clouds 15 1009 94 10000 0.08 299 08:19 16.09.2022
1777 Clouds 14 1009 93 10000 0.42 156 07:18 16.09.2022
1778 Rain 14 1009 93 10000 0.42 156 06:35 16.09.2022
1779 Clouds 14 1010 93 10000 1.11 168 02:38 16.09.2022
1780 Clouds 14 1009 93 10000 0.2 231 22:52 15.09.2022
1781 Clouds 16 1008 91 10000 0.67 63 20:57 15.09.2022
1782 Clouds 17 1008 89 10000 0.11 192 19:48 15.09.2022
1783 Clouds 17 1008 89 10000 0.9 293 18:29 15.09.2022
1784 Clouds 17 1008 90 10000 0.9 293 17:32 15.09.2022
1785 Clouds 17 1008 91 4097 1.81 247 16:42 15.09.2022
1786 Rain 18 1007 89 4139 2.68 329 14:30 15.09.2022
1787 Rain 19 1006 85 4399 2.68 200 12:20 15.09.2022
1788 Clouds 18 1006 87 10000 1.79 149 09:53 15.09.2022
1789 Rain 17 1005 85 10000 3.13 198 07:50 15.09.2022
1790 Clouds 18 1005 76 10000 3.58 168 03:52 15.09.2022
1791 Clouds 19 1009 95 10000 5.08 193 23:44 14.09.2022
1792 Clouds 19 1003 94 10000 2.96 163 21:39 14.09.2022
1793 Clouds 20 1003 85 10000 2.32 202 19:34 14.09.2022
1794 Clouds 22 1003 79 10000 0.45 155 18:32 14.09.2022
1795 Clouds 22 1004 86 10000 2.86 216 16:46 14.09.2022
1796 Rain 21 1005 87 10000 1.34 318 15:38 14.09.2022
1797 Clouds 22 1005 89 9066 5.08 228 13:54 14.09.2022
1798 Rain 24 1005 73 10000 1.79 174 11:39 14.09.2022
1799 Clouds 22 1004 80 10000 2.68 175 09:48 14.09.2022
1800 Clouds 20 1004 87 10000 1.34 195 07:38 14.09.2022
1801 Clouds 20 1004 89 10000 0.89 138 06:46 14.09.2022
1802 Clouds 19 1005 90 10000 4.11 193 04:33 14.09.2022
1803 Clouds 20 1004 84 6274 1.63 177 01:47 14.09.2022
1804 Clouds 20 1005 84 10000 2.61 199 01:27 14.09.2022
1805 Clouds 20 1005 84 10000 2.61 199 00:48 14.09.2022
1806 Rain 21 1006 79 10000 1.4 171 23:54 13.09.2022
1807 Rain 21 1006 79 10000 1.4 171 23:36 13.09.2022
1808 Clouds 21 1006 79 10000 1.31 151 23:18 13.09.2022
1809 Clouds 21 1005 81 10000 1.74 140 21:50 13.09.2022
1810 Clouds 24 1005 74 10000 1.93 128 19:52 13.09.2022
1811 Clouds 27 1005 59 10000 0.86 249 18:18 13.09.2022
1812 Clouds 28 1008 51 10000 1.34 7 15:55 13.09.2022
1813 Clouds 28 1008 49 10000 0.45 320 14:36 13.09.2022
1814 Clouds 28 1008 49 10000 0.45 320 14:36 13.09.2022
1815 Clouds 25 1008 59 10000 1.79 360 12:40 13.09.2022
1816 Clouds 18 1009 80 10000 0.65 154 09:23 13.09.2022
1817 Clouds 16 1010 79 10000 1.35 149 06:24 13.09.2022
1818 Clouds 16 1011 77 10000 1.88 136 00:22 13.09.2022
1819 Clouds 17 1011 72 10000 0.89 98 22:50 12.09.2022
1820 Clouds 18 1011 71 10000 0.45 64 21:55 12.09.2022
1821 Clear 19 1010 70 10000 2 120 20:25 12.09.2022
1822 Clear 26 1010 47 10000 0.83 66 18:44 12.09.2022
1823 Clear 26 1011 46 10000 0.89 243 17:25 12.09.2022
1824 Clear 24 1012 55 10000 1.34 360 14:37 12.09.2022
1825 Clouds 19 1014 70 10000 1.49 290 11:31 12.09.2022
1826 Clouds 16 1014 80 10000 0.63 265 09:56 12.09.2022
1827 Clear 11 1014 91 10000 1.68 133 04:54 12.09.2022
1828 Clear 11 1014 92 10000 1.61 127 04:25 12.09.2022
1829 Clear 14 1015 86 10000 1.76 122 23:47 11.09.2022
1830 Clear 15 1015 83 10000 1.77 116 22:43 11.09.2022
1831 Clear 17 1015 78 10000 2.18 101 20:51 11.09.2022
1832 Clear 19 1015 69 10000 2.03 76 20:18 11.09.2022
1833 Clear 21 1015 64 10000 1.85 19 19:25 11.09.2022
1834 Clear 22 1015 60 10000 1.85 19 18:37 11.09.2022
1835 Clear 23 1015 57 10000 1.34 258 16:56 11.09.2022
1836 Clear 23 1016 60 10000 2.28 336 14:56 11.09.2022
1837 Clear 21 1018 62 10000 2.24 360 12:53 11.09.2022
1838 Clear 17 1018 82 10000 1.43 242 09:45 11.09.2022
1839 Clouds 13 1017 92 10000 1.1 157 07:43 11.09.2022
1840 Clouds 15 1016 88 10000 2.14 177 02:55 11.09.2022
1841 Clouds 15 1019 84 10000 2.58 180 23:27 10.09.2022
1842 Clouds 16 1017 85 10000 0.45 360 21:33 10.09.2022
1843 Clouds 16 1016 83 10000 1.34 135 19:56 10.09.2022
1844 Clouds 16 1016 83 10000 1.34 135 19:37 10.09.2022
1845 Clouds 16 1016 84 10000 2.24 360 19:19 10.09.2022
1846 Rain 18 1015 75 10000 1.79 179 16:58 10.09.2022
1847 Clouds 20 1015 66 10000 3.13 150 15:28 10.09.2022
1848 Clouds 16 1016 86 10000 2.24 122 12:55 10.09.2022
1849 Clouds 15 1016 89 10000 3.58 205 11:36 10.09.2022
1850 Rain 15 1016 90 10000 1.79 251 10:25 10.09.2022
1851 Clouds 15 1015 91 10000 2.68 198 08:37 10.09.2022
1852 Clouds 15 1014 90 10000 2.68 124 08:18 10.09.2022
1853 Clouds 15 1014 90 10000 2.68 124 08:18 10.09.2022
1854 Clouds 16 1017 93 10000 3 181 02:54 10.09.2022
1855 Clouds 16 1017 76 10000 2.85 175 23:35 09.09.2022
1856 Clouds 15 1013 93 10000 2.75 174 22:22 09.09.2022
1857 Clouds 16 1012 84 10000 2.7 184 20:49 09.09.2022
1858 Clouds 17 1013 78 10000 2.11 232 19:52 09.09.2022
1859 Rain 17 1013 80 9616 0.89 211 19:22 09.09.2022
1860 Clouds 21 1012 65 10000 2.24 201 16:34 09.09.2022
1861 Clouds 21 1012 60 10000 2.68 173 14:28 09.09.2022
1862 Rain 20 1012 68 10000 1.79 261 13:18 09.09.2022
1863 Clouds 18 1012 76 10000 3.13 179 10:37 09.09.2022
1864 Clouds 16 1011 88 10000 2.4 181 07:24 09.09.2022
1865 Clouds 16 1011 88 10000 2.4 181 07:24 09.09.2022
1866 Clouds 16 1011 88 10000 2.4 181 07:24 09.09.2022
1867 Clouds 15 1011 81 10000 2.23 166 03:30 09.09.2022
1868 Clouds 16 1011 78 10000 2.53 152 22:33 08.09.2022
1869 Clouds 16 1010 78 10000 2.52 153 21:51 08.09.2022
1870 Clear 17 1010 76 10000 2.45 153 20:46 08.09.2022
1871 Clouds 19 1010 67 10000 0.89 190 20:24 08.09.2022
1872 Clouds 22 1013 54 10000 1.9 223 18:34 08.09.2022
1873 Clouds 23 1010 51 10000 4.47 181 16:49 08.09.2022
1874 Clear 22 1011 57 10000 2.68 234 14:50 08.09.2022
1875 Clouds 21 1011 64 10000 2.24 140 13:27 08.09.2022
1876 Clouds 20 1011 71 10000 3.13 200 12:39 08.09.2022
1877 Clouds 19 1011 77 10000 2.68 146 10:59 08.09.2022
1878 Clouds 17 1010 87 10000 2.68 159 09:26 08.09.2022
1879 Clouds 17 1009 89 10000 1.79 184 06:53 08.09.2022
1880 Rain 17 1009 94 5801 2.28 162 03:23 08.09.2022
1881 Rain 17 1009 94 5801 2.28 162 02:36 08.09.2022
1882 Rain 17 1009 94 6865 1.34 195 02:18 08.09.2022
1883 Rain 19 1010 88 10000 1.32 169 22:56 07.09.2022
1884 Clouds 19 1010 88 10000 1.84 133 21:44 07.09.2022
1885 Clouds 19 1010 87 10000 2.35 155 21:21 07.09.2022
1886 Rain 20 1010 87 10000 2.02 107 20:22 07.09.2022
1887 Rain 23 1010 74 10000 1.61 71 18:54 07.09.2022
1888 Clouds 28 1010 45 10000 1.79 253 15:51 07.09.2022
1889 Clouds 24 1013 68 10000 1.34 194 10:51 07.09.2022
1890 Clouds 24 1013 70 10000 2.24 147 10:32 07.09.2022
1891 Clouds 18 1016 85 10000 1.89 178 08:23 07.09.2022
1892 Clouds 18 1016 96 10000 1.84 163 05:33 07.09.2022
1893 Clouds 19 1012 83 10000 0.45 69 00:27 07.09.2022
1894 Clouds 19 1013 82 10000 2.26 128 21:48 06.09.2022
1895 Clouds 20 1013 82 10000 2.26 128 21:30 06.09.2022
1896 Clouds 23 1012 69 10000 1.34 131 19:38 06.09.2022
1897 Clouds 25 1012 62 10000 2.24 167 18:34 06.09.2022
1898 Clouds 26 1013 64 10000 0.89 252 17:37 06.09.2022
1899 Clouds 26 1014 64 10000 1.62 262 16:44 06.09.2022
1900 Clouds 27 1014 63 10000 0.45 82 15:58 06.09.2022
1901 Clouds 25 1015 70 10000 1.34 216 13:48 06.09.2022
1902 Clouds 25 1015 70 10000 0.45 249 13:27 06.09.2022
1903 Clouds 24 1015 72 10000 1.34 235 12:57 06.09.2022
1904 Rain 22 1018 91 10000 2.47 246 10:55 06.09.2022
1905 Rain 20 1016 84 10000 1.15 192 09:18 06.09.2022
1906 Clouds 18 1016 87 10000 1.86 137 07:52 06.09.2022
1907 Clouds 18 1016 87 10000 1.86 137 07:52 06.09.2022
1908 Clouds 18 1015 84 10000 2.45 149 06:19 06.09.2022
1909 Clouds 19 1015 79 10000 1.99 142 00:54 06.09.2022
1910 Clouds 21 1015 74 10000 2.16 135 22:49 05.09.2022
1911 Clear 21 1015 73 10000 2.38 136 21:38 05.09.2022
1912 Clear 24 1014 64 10000 1.96 111 20:20 05.09.2022
1913 Clear 28 1017 47 10000 1.49 40 18:53 05.09.2022
1914 Clear 30 1014 43 10000 1.18 337 18:24 05.09.2022
1915 Clear 30 1014 43 10000 1.18 337 17:53 05.09.2022
1916 Clear 29 1016 46 10000 0.93 310 15:54 05.09.2022
1917 Clear 28 1017 50 10000 0.45 11 14:40 05.09.2022
1918 Clouds 27 1018 55 10000 1.64 311 12:53 05.09.2022
1919 Clouds 24 1019 63 10000 2.24 160 11:21 05.09.2022
1920 Clouds 18 1021 83 10000 0.57 237 08:52 05.09.2022
1921 Clouds 15 1018 87 10000 1.6 137 03:57 05.09.2022
1922 Clouds 17 1018 83 10000 1.85 129 01:19 05.09.2022
1923 Clouds 19 1017 74 10000 2.18 117 22:29 04.09.2022
1924 Clouds 19 1017 74 10000 2.18 117 21:57 04.09.2022
1925 Clouds 21 1016 71 10000 2.25 111 20:35 04.09.2022
1926 Clear 26 1019 50 10000 1.29 35 18:39 04.09.2022
1927 Clear 28 1016 43 10000 0.89 140 17:43 04.09.2022
1928 Clear 27 1016 45 10000 1.85 306 16:28 04.09.2022
1929 Clear 26 1016 49 10000 2.34 313 14:25 04.09.2022
1930 Clear 25 1017 58 10000 1.34 240 12:52 04.09.2022
1931 Clear 23 1018 70 10000 0.89 261 11:28 04.09.2022
1932 Clear 18 1017 84 10000 1.19 296 09:39 04.09.2022
1933 Clear 13 1016 93 10000 1.23 136 06:40 04.09.2022
1934 Clear 14 1015 90 10000 1.57 147 03:18 04.09.2022
1935 Clear 17 1013 84 10000 1.69 138 22:56 03.09.2022
1936 Clear 18 1013 83 10000 1.71 138 22:18 03.09.2022
1937 Clear 19 1015 82 10000 1.34 146 21:22 03.09.2022
1938 Clear 19 1012 80 10000 1.35 146 21:22 03.09.2022
1939 Clouds 23 1011 66 10000 1.34 209 18:57 03.09.2022
1940 Clouds 24 1011 63 10000 2.68 187 17:22 03.09.2022
1941 Clouds 24 1011 65 10000 1.34 185 16:20 03.09.2022
1942 Rain 22 1013 51 10000 4.3 237 14:43 03.09.2022
1943 Clouds 21 1013 52 10000 3.82 238 13:50 03.09.2022
1944 Rain 20 1011 76 10000 0.89 192 11:37 03.09.2022
1945 Clouds 20 1010 77 10000 2.2 241 09:51 03.09.2022
1946 Clouds 16 1010 87 10000 1.43 163 07:57 03.09.2022
1947 Clouds 17 1010 85 10000 1.63 163 04:57 03.09.2022
1948 Clouds 16 1010 88 10000 1.56 156 03:57 03.09.2022
1949 Clouds 16 1010 83 10000 0.45 76 23:49 02.09.2022
1950 Clouds 17 1009 82 10000 1.94 142 22:34 02.09.2022
1951 Clouds 18 1010 77 10000 1.8 139 20:57 02.09.2022
1952 Clouds 19 1010 74 10000 1.34 232 20:27 02.09.2022
1953 Clouds 21 1010 62 10000 2.24 220 18:59 02.09.2022
1954 Clouds 21 1010 62 10000 2.24 220 18:59 02.09.2022
1955 Clouds 23 1010 52 10000 3.58 165 18:27 02.09.2022
1956 Clouds 26 1009 49 10000 0.89 245 17:36 02.09.2022
1957 Clouds 26 1009 46 10000 0.89 360 16:46 02.09.2022
1958 Clouds 24 1010 51 10000 2.68 360 13:51 02.09.2022
1959 Clouds 22 1011 56 10000 2.24 232 12:24 02.09.2022
1960 Clouds 18 1012 69 10000 0.56 347 09:50 02.09.2022
1961 Clouds 16 1012 77 10000 0.45 125 08:56 02.09.2022
1962 Clear 12 1012 85 10000 1.84 114 07:24 02.09.2022
1963 Clear 12 1012 85 10000 1.84 114 06:35 02.09.2022
1964 Clear 14 1016 83 10000 2.18 121 02:37 02.09.2022
1965 Clouds 18 1013 73 10000 2.83 117 22:30 01.09.2022
1966 Clouds 20 1017 63 10000 2.96 115 21:43 01.09.2022
1967 Clouds 20 1017 62 10000 2.97 107 21:23 01.09.2022
1968 Clouds 21 1017 61 10000 3.12 103 20:43 01.09.2022
1969 Clouds 24 1012 52 10000 0.45 64 18:54 01.09.2022
1970 Clouds 25 1013 52 10000 1.34 351 17:21 01.09.2022
1971 Clouds 24 1013 55 10000 3.65 78 15:47 01.09.2022
1972 Clouds 24 1014 58 10000 1.34 344 14:22 01.09.2022
1973 Clouds 22 1015 69 10000 1.34 304 12:58 01.09.2022
1974 Clouds 21 1016 73 10000 1.49 19 11:52 01.09.2022
1975 Clouds 20 1016 76 10000 0.89 245 11:31 01.09.2022
1976 Clouds 18 1016 80 10000 0.45 246 10:23 01.09.2022
1977 Clouds 13 1015 94 10000 1.12 103 07:51 01.09.2022
1978 Clouds 13 1015 91 10000 1.29 108 06:22 01.09.2022
1979 Clouds 15 1015 87 10000 1.73 110 01:32 01.09.2022
1980 Clouds 15 1015 87 10000 1.73 110 01:32 01.09.2022
1981 Clouds 15 1015 87 10000 1.73 110 01:32 01.09.2022
1982 Clouds 15 1015 87 10000 1.73 110 01:32 01.09.2022
1983 Clouds 17 1016 84 10000 1.93 110 23:29 31.08.2022
1984 Clouds 19 1016 78 10000 1.82 110 21:32 31.08.2022
1985 Clouds 21 1015 72 10000 2.11 92 19:50 31.08.2022
1986 Clouds 23 1015 63 10000 2.18 93 18:18 31.08.2022
1987 Clouds 23 1015 65 10000 2.79 77 15:56 31.08.2022
1988 Clouds 23 1015 66 10000 1.53 30 14:27 31.08.2022
1989 Clouds 21 1017 78 10000 1.34 348 12:21 31.08.2022
1990 Clouds 19 1017 87 10000 1.18 108 11:22 31.08.2022
1991 Rain 17 1016 94 10000 0.58 92 08:36 31.08.2022
1992 Rain 17 1015 94 10000 0.46 102 04:47 31.08.2022
1993 Rain 19 1014 93 10000 0.59 151 23:20 30.08.2022
1994 Clouds 19 1018 92 10000 1.62 87 21:41 30.08.2022
1995 Clouds 19 1018 94 10000 1.78 154 20:57 30.08.2022
1996 Clouds 27 1012 52 10000 1.34 140 18:23 30.08.2022
1997 Clouds 29 1012 54 10000 2.24 265 15:23 30.08.2022
1998 Clouds 27 1014 56 10000 3.13 223 13:24 30.08.2022
1999 Clouds 24 1015 64 10000 2.68 360 11:21 30.08.2022
2000 Clouds 23 1015 68 10000 4.02 360 10:40 30.08.2022
2001 Clouds 17 1015 85 10000 1 117 07:41 30.08.2022
2002 Clear 18 1015 86 10000 1.85 123 02:32 30.08.2022
2003 Clouds 20 1014 79 10000 2.61 120 23:20 29.08.2022
2004 Clouds 21 1014 78 10000 2.71 122 22:24 29.08.2022
2005 Clouds 22 1014 73 10000 2.79 118 21:25 29.08.2022
2006 Clouds 26 1017 68 10000 2.02 113 19:52 29.08.2022
2007 Clouds 29 1013 51 10000 0.89 342 17:54 29.08.2022
2008 Clouds 29 1014 51 10000 2.68 360 17:25 29.08.2022
2009 Clouds 29 1013 52 10000 0.45 232 16:40 29.08.2022
2010 Clouds 28 1014 56 10000 2.24 271 14:47 29.08.2022
2011 Clouds 26 1014 61 10000 1.34 278 13:21 29.08.2022
2012 Clouds 23 1016 68 10000 4.02 251 11:20 29.08.2022
2013 Clouds 21 1016 75 10000 2.24 246 10:19 29.08.2022
2014 Clear 17 1016 88 10000 0.45 310 08:37 29.08.2022
2015 Clouds 16 1015 90 10000 1.47 113 05:52 29.08.2022
2016 Clear 18 1014 86 10000 2 121 01:24 29.08.2022
2017 Clear 20 1018 82 10000 2.26 108 22:47 28.08.2022
2018 Clear 22 1018 91 10000 2.35 107 21:44 28.08.2022
2019 Clear 23 1018 69 10000 2.25 94 20:56 28.08.2022
2020 Clouds 25 1016 63 10000 2.01 48 19:29 28.08.2022
2021 Clouds 26 1016 58 10000 2.3 41 18:21 28.08.2022
2022 Clouds 26 1012 58 10000 2.27 38 17:25 28.08.2022
2023 Clouds 27 1016 55 10000 2.27 38 16:32 28.08.2022
2024 Clouds 25 1013 62 10000 2.07 27 14:44 28.08.2022
2025 Clouds 23 1014 72 10000 1.79 203 12:49 28.08.2022
2026 Clouds 20 1014 83 10000 1.79 261 10:51 28.08.2022
2027 Clouds 18 1014 91 10000 1.35 349 09:56 28.08.2022
2028 Clouds 16 1014 93 10000 0.52 12 08:39 28.08.2022
2029 Clouds 15 1014 94 10000 0.74 86 07:48 28.08.2022
2030 Clouds 16 1013 93 10000 1.05 109 03:32 28.08.2022
2031 Clouds 17 1013 91 10000 1.3 97 00:33 28.08.2022
2032 Clouds 18 1013 89 10000 1.41 101 22:41 27.08.2022
2033 Clear 18 1012 91 10000 0.45 114 21:58 27.08.2022
2034 Clouds 20 1012 87 10000 0.45 37 20:27 27.08.2022
2035 Clouds 22 1012 82 10000 2.14 15 18:42 27.08.2022
2036 Rain 23 1011 75 10000 2.58 2 16:25 27.08.2022
2037 Clouds 24 1011 72 10000 0.89 16 15:30 27.08.2022
2038 Clouds 23 1015 84 10000 1.81 20 12:41 27.08.2022
2039 Clouds 22 1015 78 10000 1.63 29 11:53 27.08.2022
2040 Clouds 19 1012 91 10000 1.43 9 09:52 27.08.2022
2041 Clouds 19 1012 94 10000 1.08 358 08:53 27.08.2022
2042 Clouds 18 1011 94 10000 0.24 24 04:39 27.08.2022
2043 Clouds 18 1012 93 10000 0.7 18 00:25 27.08.2022
2044 Rain 18 1012 92 10000 0.45 46 23:35 26.08.2022
2045 Rain 20 1013 87 10000 1.06 11 21:45 26.08.2022
2046 Clouds 23 1010 76 10000 1.74 20 19:40 26.08.2022
2047 Clouds 27 1009 55 10000 3.13 232 17:29 26.08.2022
2048 Clouds 29 1009 47 10000 0.89 240 15:40 26.08.2022
2049 Clouds 29 1010 47 10000 3.13 250 14:59 26.08.2022
2050 Clouds 26 1011 54 10000 1.79 196 12:56 26.08.2022
2051 Clouds 25 1011 56 10000 2.68 242 11:47 26.08.2022
2052 Clouds 25 1011 57 10000 3.13 257 11:21 26.08.2022
2053 Clouds 20 1011 75 10000 0.83 172 08:21 26.08.2022
2054 Clear 18 1010 74 10000 1.33 141 03:51 26.08.2022
2055 Clear 21 1010 63 10000 1.75 129 23:47 25.08.2022
2056 Clear 23 1010 55 10000 2.38 135 22:20 25.08.2022
2057 Clear 24 1009 55 10000 2.25 134 20:54 25.08.2022
2058 Clear 24 1009 55 10000 2.25 134 20:54 25.08.2022
2059 Clear 29 1013 42 10000 1.21 154 19:35 25.08.2022
2060 Clear 32 1009 31 10000 1.34 360 18:29 25.08.2022
2061 Clear 32 1012 32 10000 1.53 254 17:31 25.08.2022
2062 Clear 31 1009 33 10000 1.79 209 16:40 25.08.2022
2063 Clear 31 1010 42 10000 1.79 360 15:29 25.08.2022
2064 Clear 29 1010 48 10000 1.79 227 13:58 25.08.2022
2065 Clear 26 1012 56 10000 2.24 254 11:21 25.08.2022
2066 Clear 24 1013 60 10000 2.24 360 10:42 25.08.2022
2067 Clear 17 1013 82 10000 0.83 139 07:35 25.08.2022
2068 Clear 18 1013 80 10000 1.56 126 03:44 25.08.2022
2069 Clouds 20 1013 72 10000 2.31 122 23:37 24.08.2022
2070 Clouds 21 1017 66 10000 2.43 121 22:56 24.08.2022
2071 Clouds 22 1018 60 10000 2.77 117 21:56 24.08.2022
2072 Clouds 22 1018 59 10000 2.77 117 21:30 24.08.2022
2073 Clouds 29 1017 59 10000 2.73 114 19:56 24.08.2022
2074 Clouds 31 1012 29 10000 1.34 130 17:28 24.08.2022
2075 Clouds 31 1013 31 10000 0.45 109 15:54 24.08.2022
2076 Clouds 31 1013 31 10000 0.89 90 15:35 24.08.2022
2077 Clouds 28 1013 42 10000 0.89 32 12:52 24.08.2022
2078 Clouds 28 1013 42 10000 0.89 32 12:52 24.08.2022
2079 Clouds 25 1015 55 10000 0.45 360 11:21 24.08.2022
2080 Clouds 20 1015 70 10000 0.55 87 08:59 24.08.2022
2081 Clouds 16 1015 76 10000 1.75 105 06:52 24.08.2022
2082 Clouds 19 1014 72 10000 2.2 127 01:20 24.08.2022
2083 Clouds 21 1014 67 10000 2.49 128 22:49 23.08.2022
2084 Clouds 21 1014 67 10000 2.73 126 22:18 23.08.2022
2085 Clouds 23 1014 62 10000 2.38 125 21:21 23.08.2022
2086 Clouds 28 1012 47 10000 0.76 209 19:28 23.08.2022
2087 Clouds 28 1012 46 10000 0.52 259 18:21 23.08.2022
2088 Clouds 30 1012 38 10000 1.34 360 17:43 23.08.2022
2089 Clouds 30 1012 40 10000 1.79 200 16:31 23.08.2022
2090 Clouds 29 1013 44 10000 0.45 260 14:55 23.08.2022
2091 Clear 27 1013 47 10000 3.13 360 13:25 23.08.2022
2092 Clear 25 1014 55 10000 3.13 265 11:21 23.08.2022
2093 Clear 23 1015 61 10000 2.24 257 10:35 23.08.2022
2094 Clear 22 1014 66 10000 1.22 314 09:46 23.08.2022
2095 Clear 19 1014 73 10000 0.63 296 08:48 23.08.2022
2096 Clear 18 1014 79 10000 0.8 140 08:20 23.08.2022
2097 Clear 17 1014 80 10000 0.8 140 07:34 23.08.2022
2098 Clear 16 1013 81 10000 1.44 142 06:26 23.08.2022
2099 Clear 18 1012 78 10000 1.91 128 01:55 23.08.2022
2100 Clouds 20 1011 72 10000 2.26 130 00:27 23.08.2022
2101 Clouds 20 1011 69 10000 2.26 130 23:33 22.08.2022
2102 Clouds 21 1011 67 10000 2.34 127 22:32 22.08.2022
2103 Clouds 23 1011 61 10000 2.02 127 21:24 22.08.2022
2104 Clouds 24 1014 59 10000 1.6 131 19:47 22.08.2022
2105 Clouds 29 1013 37 10000 0.99 119 18:44 22.08.2022
2106 Clouds 28 1013 43 10000 0.5 353 16:47 22.08.2022
2107 Clouds 28 1014 43 10000 0.12 164 15:38 22.08.2022
2108 Clouds 26 1014 49 10000 1.16 276 13:44 22.08.2022
2109 Clear 23 1013 60 10000 2.24 360 10:38 22.08.2022
2110 Clouds 16 1012 81 10000 0.98 137 07:58 22.08.2022
2111 Clouds 17 1012 80 10000 1.18 140 04:22 22.08.2022
2112 Clouds 19 1012 75 10000 1.64 125 00:41 22.08.2022
2113 Clouds 19 1012 74 10000 1.74 124 00:22 22.08.2022
2114 Clouds 20 1012 70 10000 1.76 114 22:20 21.08.2022
2115 Clouds 20 1012 74 10000 1.87 97 21:25 21.08.2022
2116 Clouds 22 1011 71 10000 1.91 100 20:47 21.08.2022
2117 Clouds 26 1012 50 10000 1.43 332 19:26 21.08.2022
2118 Clouds 27 1011 50 10000 1.64 327 17:35 21.08.2022
2119 Clear 26 1013 51 10000 1.34 330 15:53 21.08.2022
2120 Clear 27 1013 51 10000 2.24 360 15:21 21.08.2022
2121 Clear 26 1014 53 10000 1.34 313 13:52 21.08.2022
2122 Clear 25 1014 54 10000 1.79 360 13:30 21.08.2022
2123 Clear 24 1014 60 10000 1.79 263 11:54 21.08.2022
2124 Clear 19 1016 78 10000 1.79 246 09:31 21.08.2022
2125 Clear 17 1015 86 10000 0.57 17 08:56 21.08.2022
2126 Clear 17 1015 85 10000 0.57 17 08:38 21.08.2022
2127 Clouds 14 1016 90 10000 1.23 125 07:27 21.08.2022
2128 Clear 15 1015 88 10000 0.45 81 03:41 21.08.2022
2129 Clear 17 1016 87 10000 2.02 148 00:24 21.08.2022
2130 Clear 18 1016 87 10000 2.09 147 22:41 20.08.2022
2131 Clear 19 1015 88 10000 1.94 151 21:39 20.08.2022
2132 Clear 20 1015 85 10000 1.7 154 20:43 20.08.2022
2133 Clouds 22 1015 78 10000 1.55 173 19:41 20.08.2022
2134 Clouds 24 1015 67 10000 0.45 45 18:33 20.08.2022
2135 Clouds 24 1015 71 10000 0.45 42 17:52 20.08.2022
2136 Clouds 23 1016 73 10000 1.23 92 17:18 20.08.2022
2137 Clouds 24 1015 72 10000 1.79 2 15:50 20.08.2022
2138 Clouds 23 1016 71 10000 1.81 262 13:36 20.08.2022
2139 Clouds 20 1016 85 2434 0.45 261 11:53 20.08.2022
2140 Clouds 19 1016 93 3767 0.89 238 10:36 20.08.2022
2141 Rain 18 1016 93 7381 0.89 284 08:53 20.08.2022
2142 Clouds 18 1015 89 10000 1.92 183 05:59 20.08.2022
2143 Clouds 18 1015 89 10000 2.2 166 03:57 20.08.2022
2144 Clouds 18 1015 88 10000 1.94 177 00:51 20.08.2022
2145 Clouds 19 1015 87 10000 2.04 165 23:19 19.08.2022
2146 Clouds 18 1014 86 10000 2.04 165 22:35 19.08.2022
2147 Clouds 18 1014 86 10000 2.04 165 22:35 19.08.2022
2148 Clouds 22 1012 76 10000 2.62 167 20:30 19.08.2022
2149 Clouds 23 1013 73 10000 1.34 244 18:51 19.08.2022
2150 Clouds 23 1013 73 10000 1.34 167 15:54 19.08.2022
2151 Clouds 22 1013 78 10000 1.34 242 13:40 19.08.2022
2152 Clouds 20 1013 87 10000 0.89 242 11:39 19.08.2022
2153 Clouds 19 1012 93 10000 1.17 236 10:30 19.08.2022
2154 Clouds 18 1012 95 10000 0.87 235 07:25 19.08.2022
2155 Rain 18 1011 95 3642 0.89 201 02:23 19.08.2022
2156 Rain 18 1011 94 6107 1.41 96 00:32 19.08.2022
2157 Rain 19 1011 94 9904 1.08 123 23:48 18.08.2022
2158 Rain 19 1011 94 10000 0.94 134 22:53 18.08.2022
2159 Rain 19 1011 93 6833 0.64 97 22:18 18.08.2022
2160 Rain 20 1010 91 6833 0.64 97 21:41 18.08.2022
2161 Rain 20 1010 88 8037 1.36 109 20:42 18.08.2022
2162 Clouds 21 1010 84 9868 1.26 94 19:32 18.08.2022
2163 Clouds 21 1010 84 7788 0.45 249 18:29 18.08.2022
2164 Clouds 21 1010 84 6075 1.34 245 17:29 18.08.2022
2165 Clouds 21 1009 81 7190 1.34 348 15:50 18.08.2022
2166 Clouds 21 1010 81 7898 0.89 282 14:21 18.08.2022
2167 Clouds 21 1010 83 7898 0.89 252 13:40 18.08.2022
2168 Clouds 20 1010 87 10000 2.24 339 12:27 18.08.2022
2169 Clouds 19 1011 91 10000 1.45 353 10:52 18.08.2022
2170 Clouds 18 1011 93 10000 1.13 8 09:42 18.08.2022
2171 Clouds 17 1011 94 10000 0.84 82 07:27 18.08.2022
2172 Rain 16 1010 93 10000 0.3 78 05:33 18.08.2022
2173 Rain 17 1011 92 3385 0.45 44 00:45 18.08.2022
2174 Rain 18 1011 90 8444 0.45 63 22:32 17.08.2022
2175 Rain 20 1008 81 10000 1.36 69 20:21 17.08.2022
2176 Rain 20 1007 80 10000 0.89 60 19:55 17.08.2022
2177 Rain 21 1008 76 10000 0.89 101 18:32 17.08.2022
2178 Clouds 29 1009 55 10000 3.28 323 16:50 17.08.2022
2179 Clouds 29 1008 46 10000 1.79 360 15:45 17.08.2022
2180 Clouds 28 1008 51 10000 0.45 187 14:36 17.08.2022
2181 Rain 25 1011 71 10000 1.68 306 12:29 17.08.2022
2182 Clouds 22 1008 80 10000 3.58 275 10:59 17.08.2022
2183 Clouds 20 1008 87 10000 0.45 192 09:19 17.08.2022
2184 Clouds 20 1008 82 10000 2.85 152 06:29 17.08.2022
2185 Clouds 20 1006 68 10000 2.03 131 01:22 17.08.2022
2186 Clear 21 1006 64 10000 2.35 120 23:27 16.08.2022
2187 Clear 23 1006 58 10000 2.49 115 21:32 16.08.2022
2188 Clear 27 1006 44 10000 2.44 120 20:20 16.08.2022
2189 Clear 30 1006 37 10000 1.34 340 19:27 16.08.2022
2190 Clear 31 1006 35 10000 0.89 244 17:56 16.08.2022
2191 Clear 30 1006 37 10000 0.45 57 16:55 16.08.2022
2192 Clear 30 1007 39 10000 1.34 360 15:45 16.08.2022
2193 Clear 29 1007 43 10000 0.89 360 14:54 16.08.2022
2194 Clear 30 1007 42 10000 0.89 360 14:36 16.08.2022
2195 Clear 27 1008 51 10000 1.79 269 12:39 16.08.2022
2196 Clear 24 1008 66 10000 1.34 246 10:23 16.08.2022
2197 Clear 19 1008 82 10000 1.63 250 08:55 16.08.2022
2198 Clear 18 1007 86 10000 1.08 178 08:26 16.08.2022
2199 Clear 16 1007 89 10000 1.78 157 07:20 16.08.2022
2200 Clouds 17 1007 92 10000 2.61 156 01:20 16.08.2022
2201 Clear 18 1006 83 10000 2.74 152 22:29 15.08.2022
2202 Clear 20 1010 76 10000 2.74 152 21:51 15.08.2022
2203 Clouds 21 1009 70 10000 2.83 181 20:39 15.08.2022
2204 Clouds 22 1006 69 10000 1.79 167 20:00 15.08.2022
2205 Clouds 23 1005 71 10000 2.24 210 18:20 15.08.2022
2206 Clouds 21 1007 92 10000 5.57 232 16:40 15.08.2022
2207 Clouds 21 1007 92 10000 5.57 232 16:40 15.08.2022
2208 Rain 22 1007 40 10000 7.14 251 16:20 15.08.2022
2209 Clouds 26 1004 50 10000 2.68 206 13:55 15.08.2022
2210 Clouds 26 1004 55 10000 1.79 221 12:24 15.08.2022
2211 Clear 22 1005 71 10000 0.45 207 09:57 15.08.2022
2212 Clouds 18 1005 87 10000 0.45 225 08:21 15.08.2022
2213 Clouds 18 1005 85 10000 2.39 173 04:36 15.08.2022
2214 Rain 19 1006 84 10000 1.79 140 01:35 15.08.2022
2215 Clouds 23 1005 60 10000 0.45 213 22:39 14.08.2022
2216 Clouds 24 1005 58 10000 0.45 156 21:38 14.08.2022
2217 Clouds 25 1004 54 10000 1.34 203 19:58 14.08.2022
2218 Clouds 26 1004 50 10000 0.45 227 18:59 14.08.2022
2219 Clouds 26 1005 48 10000 1.34 244 18:19 14.08.2022
2220 Clouds 27 1003 43 10000 0.89 248 16:53 14.08.2022
2221 Clouds 28 1005 42 10000 4.47 223 15:50 14.08.2022
2222 Clouds 29 1005 47 10000 2.24 215 14:34 14.08.2022
2223 Clouds 29 1005 41 10000 1.34 360 13:50 14.08.2022
2224 Clouds 29 1005 34 10000 2.24 360 13:22 14.08.2022
2225 Clouds 28 1006 34 10000 3.58 360 12:34 14.08.2022
2226 Clouds 25 1006 44 10000 3.13 360 10:55 14.08.2022
2227 Clouds 21 1006 53 10000 0.79 284 08:52 14.08.2022
2228 Clouds 14 1006 70 10000 1.92 124 06:22 14.08.2022
2229 Clouds 16 1007 64 10000 2.19 102 03:48 14.08.2022
2230 Clear 17 1013 57 10000 2.4 125 00:39 14.08.2022
2231 Clear 20 1014 55 10000 2.78 119 22:56 13.08.2022
2232 Clear 22 1013 54 10000 2.99 120 21:47 13.08.2022
2233 Clear 26 1013 51 10000 2.92 115 20:47 13.08.2022
2234 Clear 30 1012 27 10000 2.8 105 19:46 13.08.2022
2235 Clear 31 1008 25 10000 4.04 90 18:19 13.08.2022
2236 Clear 31 1010 25 10000 1.34 127 15:57 13.08.2022
2237 Clear 30 1010 30 10000 3.58 313 14:40 13.08.2022
2238 Clear 30 1011 31 10000 3.13 303 13:46 13.08.2022
2239 Clear 27 1011 36 10000 1.79 302 11:59 13.08.2022
2240 Clear 24 1012 45 10000 0.89 315 10:44 13.08.2022
2241 Clear 22 1012 53 10000 1.34 335 09:22 13.08.2022
2242 Clear 15 1011 69 10000 1.92 116 06:26 13.08.2022
2243 Clear 17 1016 59 10000 2.46 117 00:44 13.08.2022
2244 Clear 21 1016 52 10000 2.74 111 22:37 12.08.2022
2245 Clear 24 1016 50 10000 3.02 121 21:35 12.08.2022
2246 Clear 29 1015 26 10000 2.47 110 19:47 12.08.2022
2247 Clear 29 1010 27 10000 1.79 136 19:22 12.08.2022
2248 Clear 30 1010 25 10000 0.89 130 17:59 12.08.2022
2249 Clear 31 1011 24 10000 1.79 341 16:25 12.08.2022
2250 Clear 30 1011 27 10000 0.89 137 14:50 12.08.2022
2251 Clear 29 1012 30 10000 1.79 128 13:30 12.08.2022
2252 Clear 28 1012 32 10000 0.89 123 12:25 12.08.2022
2253 Clear 21 1014 54 10000 0.89 323 08:51 12.08.2022
2254 Clouds 18 1014 62 10000 1.28 109 07:45 12.08.2022
2255 Clouds 15 1013 72 10000 2.05 108 06:21 12.08.2022
2256 Clouds 19 1018 58 10000 2.87 109 00:32 12.08.2022
2257 Clouds 20 1018 55 10000 2.84 111 23:58 11.08.2022
2258 Clouds 22 1014 50 10000 2.93 112 23:22 11.08.2022
2259 Clouds 24 1017 51 10000 2.91 113 21:53 11.08.2022
2260 Clouds 25 1017 50 10000 3.1 102 21:28 11.08.2022
2261 Clouds 25 1017 50 10000 3.1 102 21:28 11.08.2022
2262 Clouds 28 1017 50 10000 3.1 102 20:31 11.08.2022
2263 Clouds 28 1017 50 10000 3.1 102 20:31 11.08.2022
2264 Clouds 29 1016 39 10000 3.37 75 19:33 11.08.2022
2265 Clouds 31 1011 28 10000 1.79 128 18:56 11.08.2022
2266 Clouds 32 1012 29 10000 4.05 57 16:47 11.08.2022
2267 Clouds 31 1013 31 10000 0.89 212 15:48 11.08.2022
2268 Clear 31 1014 32 10000 1.34 124 14:40 11.08.2022
2269 Clear 28 1016 38 10000 1.34 306 11:59 11.08.2022
2270 Clear 21 1016 53 10000 1.13 83 09:22 11.08.2022
2271 Clear 16 1016 66 10000 1.78 117 06:52 11.08.2022
2272 Clear 18 1016 54 10000 2.31 107 02:49 11.08.2022
2273 Clear 21 1016 48 10000 2.73 102 23:57 10.08.2022
2274 Clear 24 1021 54 10000 2.99 106 21:56 10.08.2022
2275 Clear 25 1020 49 10000 2.97 104 21:19 10.08.2022
2276 Clear 26 1020 49 10000 2.97 104 20:42 10.08.2022
2277 Clear 31 1019 28 10000 4.74 82 18:53 10.08.2022
2278 Clear 31 1019 28 10000 4.74 82 18:53 10.08.2022
2279 Clear 31 1015 26 10000 0.89 116 17:28 10.08.2022
2280 Clear 31 1017 25 10000 2.24 16 15:26 10.08.2022
2281 Clear 30 1017 30 10000 2.24 128 13:34 10.08.2022
2282 Clear 28 1018 34 10000 1.34 7 11:47 10.08.2022
2283 Clear 21 1019 55 10000 1.34 312 08:44 10.08.2022
2284 Clear 18 1019 63 10000 1.34 330 07:44 10.08.2022
2285 Clear 16 1022 68 10000 2.29 87 05:53 10.08.2022
2286 Clear 18 1018 58 10000 2.08 95 02:44 10.08.2022
2287 Clear 20 1018 52 10000 2.63 102 23:33 09.08.2022
2288 Clear 21 1023 48 10000 2.93 106 22:55 09.08.2022
2289 Clear 26 1023 51 10000 3.06 109 21:34 09.08.2022
2290 Clear 30 1021 26 10000 2.89 86 19:34 09.08.2022
2291 Clear 31 1019 27 10000 1.79 338 18:23 09.08.2022
2292 Clear 31 1017 28 10000 1.79 126 17:26 09.08.2022
2293 Clear 31 1019 28 10000 1.34 338 16:40 09.08.2022
2294 Clear 32 1019 27 10000 2.24 338 15:40 09.08.2022
2295 Clear 29 1020 34 10000 2.68 338 12:48 09.08.2022
2296 Clear 23 1018 51 10000 0.45 92 09:30 09.08.2022
2297 Clear 20 1019 60 10000 1.92 34 08:33 09.08.2022
2298 Clear 17 1020 69 10000 0.89 338 07:52 09.08.2022
2299 Clear 16 1018 69 10000 1.8 106 03:34 09.08.2022
2300 Clear 20 1018 56 10000 2.57 114 23:27 08.08.2022
2301 Clear 21 1018 54 10000 2.57 114 22:54 08.08.2022
2302 Clear 24 1022 51 10000 3.04 114 21:58 08.08.2022
2303 Clear 25 1021 43 10000 2.84 111 20:59 08.08.2022
2304 Clear 28 1016 34 10000 2.24 298 19:50 08.08.2022
2305 Clear 30 1017 32 10000 4.92 330 18:45 08.08.2022
2306 Clear 31 1017 32 10000 4.02 332 16:40 08.08.2022
2307 Clear 30 1018 32 10000 4.92 311 15:40 08.08.2022
2308 Clear 29 1018 35 10000 4.02 342 13:54 08.08.2022
2309 Clear 27 1019 40 10000 3.13 322 12:19 08.08.2022
2310 Clear 21 1019 55 10000 1.34 360 09:46 08.08.2022
2311 Clear 15 1019 75 10000 1.18 92 06:51 08.08.2022
2312 Clear 15 1017 80 10000 1.35 99 02:56 08.08.2022
2313 Clouds 20 1020 61 10000 2.31 111 22:42 07.08.2022
2314 Clouds 24 1019 64 10000 2.89 99 21:40 07.08.2022
2315 Clouds 26 1016 36 10000 2.24 330 20:26 07.08.2022
2316 Clouds 27 1016 33 10000 2.24 344 19:57 07.08.2022
2317 Clouds 26 1018 42 10000 3.11 70 19:39 07.08.2022
2318 Clouds 28 1016 37 10000 5.36 342 18:35 07.08.2022
2319 Clouds 29 1016 38 10000 4.47 319 16:54 07.08.2022
2320 Clouds 29 1016 38 10000 3.13 266 16:35 07.08.2022
2321 Clear 29 1017 40 10000 1.79 28 15:23 07.08.2022
2322 Clouds 27 1018 44 10000 4.02 352 13:37 07.08.2022
2323 Clouds 24 1019 49 10000 1.79 317 11:58 07.08.2022
2324 Clear 21 1018 52 10000 3.13 263 10:34 07.08.2022
2325 Clear 15 1019 72 10000 1.39 32 07:59 07.08.2022
2326 Clear 15 1019 70 10000 1.54 82 03:32 07.08.2022
2327 Clouds 16 1019 68 10000 1.64 95 01:50 07.08.2022
2328 Clouds 20 1022 48 10000 2.55 97 22:28 06.08.2022
2329 Clouds 23 1020 53 10000 2.6 83 21:28 06.08.2022
2330 Clouds 24 1019 52 10000 0.89 106 19:42 06.08.2022
2331 Clouds 25 1019 51 10000 0.89 132 18:33 06.08.2022
2332 Clouds 25 1020 49 10000 1.34 142 17:37 06.08.2022
2333 Clouds 24 1021 52 10000 0.89 167 15:21 06.08.2022
2334 Clouds 24 1021 54 10000 1.34 223 13:50 06.08.2022
2335 Clouds 22 1021 54 10000 0.89 339 12:21 06.08.2022
2336 Clouds 21 1019 59 10000 0.45 60 10:37 06.08.2022
2337 Clouds 20 1023 62 10000 2.18 50 09:21 06.08.2022
2338 Clouds 20 1021 75 10000 1.33 33 03:56 06.08.2022
2339 Clouds 22 1021 92 10000 1.02 36 00:27 06.08.2022
2340 Clouds 23 1021 92 10000 1.8 25 22:34 05.08.2022
2341 Clouds 26 1018 84 10000 0.49 92 20:30 05.08.2022
2342 Clouds 27 1013 58 10000 3.13 357 18:55 05.08.2022
2343 Clouds 28 1013 57 10000 4.02 316 18:36 05.08.2022
2344 Clouds 33 1012 41 10000 5.36 343 16:52 05.08.2022
2345 Clouds 33 1013 39 10000 3.13 271 15:24 05.08.2022
2346 Clouds 33 1013 40 10000 3.13 232 14:35 05.08.2022
2347 Clouds 33 1013 39 10000 3.58 360 13:36 05.08.2022
2348 Clouds 32 1013 40 10000 2.68 360 13:18 05.08.2022
2349 Clouds 29 1013 45 10000 2.24 45 11:29 05.08.2022
2350 Clouds 25 1014 60 10000 2.68 45 08:57 05.08.2022
2351 Clouds 24 1014 64 10000 0.89 45 07:53 05.08.2022
2352 Clouds 24 1011 59 10000 1.25 162 04:19 05.08.2022
2353 Clouds 26 1009 51 10000 2.28 148 23:36 04.08.2022
2354 Clear 29 1008 39 10000 2.21 117 21:28 04.08.2022
2355 Clear 28 1008 48 10000 2.21 117 20:57 04.08.2022
2356 Clear 29 1008 45 10000 2.21 117 20:37 04.08.2022
2357 Clear 37 1010 24 10000 1.34 34 18:59 04.08.2022
2358 Clear 37 1010 25 10000 0.45 45 18:34 04.08.2022
2359 Clear 37 1011 24 10000 2.24 260 15:59 04.08.2022
2360 Clear 35 1012 28 10000 0.45 246 13:32 04.08.2022
2361 Clear 33 1012 38 10000 0.89 219 11:40 04.08.2022
2362 Clear 30 1012 46 10000 2.24 244 10:22 04.08.2022
2363 Clear 22 1013 64 10000 1.05 172 07:49 04.08.2022
2364 Clouds 22 1013 62 10000 1.63 140 03:29 04.08.2022
2365 Clouds 23 1011 62 10000 0.45 82 00:52 04.08.2022
2366 Clouds 24 1010 59 10000 2.25 137 23:41 03.08.2022
2367 Clouds 25 1010 55 10000 2.67 127 21:34 03.08.2022
2368 Clouds 30 1010 42 10000 1.84 61 20:21 03.08.2022
2369 Clouds 30 1010 42 10000 1.84 61 20:21 03.08.2022
2370 Clouds 34 1010 30 10000 0.45 300 19:27 03.08.2022
2371 Clouds 35 1012 26 10000 0.89 267 17:20 03.08.2022
2372 Clouds 35 1013 30 10000 1.34 317 16:23 03.08.2022
2373 Clouds 33 1014 37 10000 2.24 242 14:23 03.08.2022
2374 Clouds 29 1014 46 10000 2.24 267 11:46 03.08.2022
2375 Clouds 20 1015 70 10000 0.35 202 07:55 03.08.2022
2376 Clouds 18 1013 73 10000 1.5 138 04:46 03.08.2022
2377 Clouds 18 1014 74 10000 1.59 130 03:26 03.08.2022
2378 Clouds 20 1014 71 10000 0.45 39 01:18 03.08.2022
2379 Clouds 22 1014 63 10000 2.26 113 22:53 02.08.2022
2380 Clouds 24 1017 59 10000 2.43 110 21:53 02.08.2022
2381 Clouds 24 1013 67 10000 2.45 95 20:58 02.08.2022
2382 Clouds 30 1015 37 10000 0.89 45 18:48 02.08.2022
2383 Clouds 30 1015 39 10000 2.24 32 16:22 02.08.2022
2384 Clouds 24 1017 65 10000 1.79 324 11:45 02.08.2022
2385 Clouds 21 1017 80 10000 1.29 323 09:34 02.08.2022
2386 Clouds 17 1017 89 10000 0.45 62 07:54 02.08.2022
2387 Clouds 16 1017 91 10000 1.07 127 06:43 02.08.2022
2388 Clear 17 1017 89 10000 1.28 129 04:55 02.08.2022
2389 Clouds 18 1017 89 10000 1.97 135 23:52 01.08.2022
2390 Clouds 19 1017 89 10000 2.39 144 22:36 01.08.2022
2391 Rain 20 1016 86 10000 1.49 122 20:53 01.08.2022
2392 Rain 22 1018 92 10000 3.06 109 19:34 01.08.2022
2393 Clouds 25 1017 93 8216 1.14 112 18:42 01.08.2022
2394 Clouds 28 1017 68 10000 3.03 81 16:54 01.08.2022
2395 Clouds 31 1017 61 10000 3.76 355 16:28 01.08.2022
2396 Clouds 31 1017 36 10000 3.76 355 15:31 01.08.2022
2397 Clouds 31 1014 38 10000 2.24 275 14:43 01.08.2022
2398 Clouds 31 1014 38 10000 2.24 275 14:43 01.08.2022
2399 Clear 29 1015 43 10000 1.34 339 12:52 01.08.2022
2400 Clear 25 1016 54 10000 1.79 360 10:29 01.08.2022
2401 Clear 21 1016 68 10000 1.01 300 08:41 01.08.2022
2402 Clear 17 1015 77 10000 1 131 06:50 01.08.2022
2403 Clear 18 1015 73 10000 0.99 130 04:24 01.08.2022
2404 Clear 20 1014 63 10000 1.72 158 00:56 01.08.2022
2405 Clear 23 1014 55 10000 2.04 150 22:42 31.07.2022
2406 Clear 26 1017 53 10000 1.56 149 21:46 31.07.2022
2407 Clouds 30 1014 36 10000 0.89 298 20:18 31.07.2022
2408 Clouds 31 1014 34 10000 1.79 360 18:38 31.07.2022
2409 Clouds 32 1015 34 10000 2.68 318 16:18 31.07.2022
2410 Clouds 30 1016 37 10000 0.45 315 13:59 31.07.2022
2411 Clouds 29 1017 39 10000 0.45 209 12:43 31.07.2022
2412 Clouds 26 1017 46 10000 1.72 263 10:22 31.07.2022
2413 Clouds 20 1018 64 10000 1.03 205 08:19 31.07.2022
2414 Clouds 18 1017 70 10000 1.42 150 04:30 31.07.2022
2415 Clouds 20 1017 62 10000 0.45 83 00:56 31.07.2022
2416 Clouds 22 1017 55 10000 2.42 158 22:20 30.07.2022
2417 Clouds 21 1016 61 10000 2.42 158 21:50 30.07.2022
2418 Clouds 23 1015 58 10000 2.4 173 21:24 30.07.2022
2419 Clouds 26 1015 43 10000 2.37 241 20:24 30.07.2022
2420 Clouds 28 1016 38 10000 2.24 248 19:27 30.07.2022
2421 Clouds 29 1017 38 10000 1.34 360 17:52 30.07.2022
2422 Clouds 28 1017 38 10000 0.89 263 16:37 30.07.2022
2423 Clouds 28 1017 38 10000 0.89 296 15:29 30.07.2022
2424 Clear 28 1018 39 10000 0.45 338 13:22 30.07.2022
2425 Clear 27 1019 40 10000 0.45 225 12:21 30.07.2022
2426 Clear 25 1019 49 10000 2.64 268 10:45 30.07.2022
2427 Clear 23 1018 54 10000 2.22 250 09:59 30.07.2022
2428 Clear 20 1018 67 10000 1.62 239 08:49 30.07.2022
2429 Clear 17 1018 74 10000 1.38 153 06:55 30.07.2022
2430 Clouds 19 1019 68 10000 1.55 175 02:33 30.07.2022
2431 Clouds 21 1015 56 10000 2.06 174 23:57 29.07.2022
2432 Clouds 21 1018 52 10000 2.77 158 21:37 29.07.2022
2433 Clouds 24 1017 50 10000 2.93 174 20:50 29.07.2022
2434 Clouds 26 1015 41 10000 2.24 212 19:45 29.07.2022
2435 Clouds 24 1015 56 10000 0.89 180 17:25 29.07.2022
2436 Clouds 25 1014 57 10000 1.79 234 14:48 29.07.2022
2437 Clouds 25 1014 58 10000 1.79 256 12:42 29.07.2022
2438 Clouds 21 1014 72 10000 1.95 244 08:52 29.07.2022
2439 Clouds 20 1014 75 10000 1.22 212 08:23 29.07.2022
2440 Clouds 18 1011 80 10000 1.68 157 05:22 29.07.2022
2441 Clouds 19 1012 79 10000 0.45 124 01:19 29.07.2022
2442 Clouds 21 1010 84 10000 1.34 94 21:41 28.07.2022
2443 Clouds 20 1010 89 10000 2.05 137 20:54 28.07.2022
2444 Clouds 26 1013 71 10000 1.99 184 20:20 28.07.2022
2445 Clouds 28 1013 44 10000 1.99 184 19:40 28.07.2022
2446 Clouds 29 1010 44 10000 1.34 357 18:20 28.07.2022
2447 Clouds 30 1010 41 10000 2.24 311 17:36 28.07.2022
2448 Clouds 30 1010 39 10000 2.24 317 16:41 28.07.2022
2449 Clouds 28 1011 44 10000 1.79 263 14:30 28.07.2022
2450 Clouds 26 1011 47 10000 2.08 310 12:41 28.07.2022
2451 Clouds 19 1013 64 10000 3.13 271 09:25 28.07.2022
2452 Clear 14 1012 77 10000 1.48 93 05:45 28.07.2022
2453 Clear 15 1012 76 10000 1.37 85 05:24 28.07.2022
2454 Clouds 19 1016 64 10000 2.05 109 00:29 28.07.2022
2455 Clouds 19 1012 66 10000 2.18 76 22:25 27.07.2022
2456 Clouds 24 1013 47 10000 3.58 33 20:20 27.07.2022
2457 Clouds 26 1012 43 10000 4.02 342 19:32 27.07.2022
2458 Clouds 27 1013 42 10000 4.47 229 16:34 27.07.2022
2459 Clouds 27 1016 40 10000 1.34 45 15:51 27.07.2022
2460 Clouds 26 1014 42 10000 1.34 344 14:46 27.07.2022
2461 Clouds 26 1014 43 10000 4.47 240 14:27 27.07.2022
2462 Clouds 24 1015 51 10000 1.79 221 12:19 27.07.2022
2463 Clear 18 1015 72 10000 1.1 351 07:53 27.07.2022
2464 Clear 15 1013 80 10000 0.77 110 05:33 27.07.2022
2465 Clouds 18 1017 65 10000 1.49 96 00:28 27.07.2022
2466 Clouds 19 1013 67 10000 1.74 77 22:24 26.07.2022
2467 Clouds 21 1012 59 10000 1.97 33 21:19 26.07.2022
2468 Clouds 25 1014 44 10000 1.79 330 19:59 26.07.2022
2469 Clouds 26 1014 42 10000 1.34 325 18:41 26.07.2022
2470 Clouds 27 1014 42 10000 2.24 229 17:57 26.07.2022
2471 Clouds 27 1014 42 10000 2.68 357 15:50 26.07.2022
2472 Clouds 27 1015 45 10000 0.89 45 14:49 26.07.2022
2473 Clouds 25 1015 49 10000 1.34 192 12:59 26.07.2022
2474 Clear 24 1015 54 10000 1.34 268 10:58 26.07.2022
2475 Clear 21 1015 70 10000 3.58 249 08:46 26.07.2022
2476 Clouds 20 1017 73 10000 0.8 192 05:49 26.07.2022
2477 Clouds 24 1011 58 10000 1.47 184 00:28 26.07.2022
2478 Clouds 24 1015 55 10000 1.31 193 22:53 25.07.2022
2479 Clouds 25 1015 51 10000 1.8 198 22:22 25.07.2022
2480 Clouds 27 1015 50 10000 1.8 198 21:38 25.07.2022
2481 Clouds 30 1014 44 10000 2.43 248 20:40 25.07.2022
2482 Clouds 32 1009 39 10000 2.68 357 19:27 25.07.2022
2483 Clouds 33 1009 40 10000 3.58 326 18:18 25.07.2022
2484 Clouds 33 1009 37 10000 2.68 259 17:27 25.07.2022
2485 Clouds 33 1010 36 10000 3.58 198 14:44 25.07.2022
2486 Clear 33 1011 37 10000 4.47 155 12:22 25.07.2022
2487 Clear 30 1011 45 10000 2.68 164 09:50 25.07.2022
2488 Clear 21 1012 72 10000 1.89 142 04:25 25.07.2022
2489 Clear 23 1011 67 10000 2.2 128 23:54 24.07.2022
2490 Clear 24 1016 63 10000 2.18 126 22:59 24.07.2022
2491 Clear 25 1012 62 10000 2.15 123 22:29 24.07.2022
2492 Clear 26 1012 61 10000 1.65 110 21:23 24.07.2022
2493 Clear 27 1011 58 10000 1.65 110 20:50 24.07.2022
2494 Clouds 29 1011 48 10000 1.17 21 20:26 24.07.2022
2495 Clouds 31 1011 42 10000 1.8 339 18:48 24.07.2022
2496 Clouds 32 1015 40 10000 2.68 360 16:29 24.07.2022
2497 Clouds 32 1015 42 10000 1.34 360 15:50 24.07.2022
2498 Clouds 31 1016 43 10000 2.24 248 14:35 24.07.2022
2499 Clouds 30 1017 48 10000 2.68 7 12:54 24.07.2022
2500 Clouds 28 1018 51 10000 3.13 360 11:40 24.07.2022
2501 Clouds 27 1018 53 10000 3.13 269 11:18 24.07.2022
2502 Clouds 22 1018 72 10000 0.91 323 08:48 24.07.2022
2503 Clouds 20 1019 79 10000 0.33 301 07:52 24.07.2022
2504 Clouds 17 1017 84 10000 1.37 134 06:18 24.07.2022
2505 Clouds 21 1018 75 10000 1.1 160 01:27 24.07.2022
2506 Clouds 24 1018 61 10000 0.63 167 22:25 23.07.2022
2507 Clouds 26 1019 58 10000 0.27 274 20:31 23.07.2022
2508 Clouds 29 1014 52 10000 2.57 344 18:51 23.07.2022
2509 Clouds 29 1016 50 10000 1.34 357 17:41 23.07.2022
2510 Clouds 29 1016 50 10000 1.34 357 17:41 23.07.2022
2511 Clouds 29 1016 51 10000 0.89 342 17:23 23.07.2022
2512 Clouds 29 1016 51 10000 0.45 338 15:42 23.07.2022
2513 Clouds 29 1016 53 10000 1.79 253 14:59 23.07.2022
2514 Clouds 28 1016 57 10000 2.68 253 14:35 23.07.2022
2515 Clouds 27 1017 59 10000 0.89 159 13:50 23.07.2022
2516 Clouds 25 1016 70 10000 1.34 252 11:19 23.07.2022
2517 Clouds 23 1016 75 10000 0.89 259 10:28 23.07.2022
2518 Clouds 22 1016 82 10000 1.34 360 09:26 23.07.2022
2519 Clouds 20 1014 85 10000 0.45 338 04:59 23.07.2022
2520 Rain 21 1018 79 10000 2.04 180 02:54 23.07.2022
2521 Clouds 24 1014 71 8884 2.25 228 23:57 22.07.2022
2522 Clouds 27 1015 57 10000 2.8 109 21:18 22.07.2022
2523 Clouds 29 1012 53 10000 0.45 194 19:58 22.07.2022
2524 Clouds 32 1012 37 10000 1.17 340 18:41 22.07.2022
2525 Clouds 33 1015 34 10000 1.64 331 17:38 22.07.2022
2526 Clear 31 1014 48 10000 1.34 244 15:30 22.07.2022
2527 Clear 28 1016 56 10000 1.79 271 12:41 22.07.2022
2528 Clear 22 1017 72 10000 3.13 248 09:52 22.07.2022
2529 Clear 21 1017 76 10000 2.24 263 09:20 22.07.2022
2530 Clear 19 1017 82 10000 0.53 343 07:30 22.07.2022
2531 Clear 18 1018 81 10000 1.01 102 04:22 22.07.2022
2532 Clear 22 1018 69 10000 2.29 134 23:29 21.07.2022
2533 Clear 23 1016 64 10000 2.47 132 21:41 21.07.2022
2534 Clear 28 1016 48 10000 2.18 124 19:42 21.07.2022
2535 Clear 29 1018 44 10000 0.93 18 18:30 21.07.2022
2536 Clear 29 1017 44 10000 2.68 360 17:21 21.07.2022
2537 Clear 29 1019 44 10000 1.34 267 15:58 21.07.2022
2538 Clear 28 1019 48 10000 1.79 259 14:46 21.07.2022
2539 Clear 28 1019 51 10000 2.68 349 13:53 21.07.2022
2540 Clear 25 1020 61 10000 1.79 360 11:58 21.07.2022
2541 Clear 23 1020 72 10000 1.34 203 10:20 21.07.2022
2542 Clear 21 1020 82 10000 1.34 221 08:53 21.07.2022
2543 Clouds 21 1020 85 10000 0.89 203 08:18 21.07.2022
2544 Clouds 19 1020 90 10000 0.45 203 06:45 21.07.2022
2545 Clouds 19 1019 92 10000 0.45 225 02:59 21.07.2022
2546 Rain 20 1019 91 10000 1.46 222 22:51 20.07.2022
2547 Rain 20 1019 90 10000 0.79 155 22:20 20.07.2022
2548 Clouds 20 1016 86 10000 1.81 87 20:46 20.07.2022
2549 Clouds 21 1015 81 10000 3.13 360 19:47 20.07.2022
2550 Rain 21 1020 94 10000 2.08 63 18:56 20.07.2022
2551 Rain 29 1020 94 10000 2.08 63 18:33 20.07.2022
2552 Clouds 33 1018 93 4854 7.7 218 17:42 20.07.2022
2553 Clouds 32 1015 48 10000 1.34 45 15:43 20.07.2022
2554 Clouds 32 1016 32 10000 2.08 283 14:54 20.07.2022
2555 Rain 31 1017 49 10000 2.51 285 13:44 20.07.2022
2556 Clouds 31 1015 50 10000 1.79 213 11:31 20.07.2022
2557 Clouds 26 1013 50 10000 0.45 198 07:36 20.07.2022
2558 Clouds 23 1012 49 10000 1.59 149 02:44 20.07.2022
2559 Clear 24 1012 55 10000 2.16 130 00:44 20.07.2022
2560 Clear 26 1012 51 10000 3.06 118 22:41 19.07.2022
2561 Clear 27 1012 47 10000 3.34 120 22:21 19.07.2022
2562 Clear 31 1015 48 10000 3.65 124 20:54 19.07.2022
2563 Clear 33 1011 35 10000 2.71 136 20:18 19.07.2022
2564 Clear 36 1011 26 10000 2.24 265 18:43 19.07.2022
2565 Clear 37 1013 26 10000 1.79 238 17:57 19.07.2022
2566 Clear 37 1014 27 10000 1.34 247 16:26 19.07.2022
2567 Clear 34 1015 32 10000 2.24 246 14:31 19.07.2022
2568 Clear 31 1016 40 10000 2.24 274 11:35 19.07.2022
2569 Clear 28 1016 45 10000 1.34 245 10:31 19.07.2022
2570 Clear 25 1015 52 10000 0.14 81 08:48 19.07.2022
2571 Clear 23 1017 56 10000 0.98 105 08:22 19.07.2022
2572 Clear 19 1018 62 10000 1.71 121 07:18 19.07.2022
2573 Clear 18 1016 65 10000 1.82 132 05:27 19.07.2022
2574 Clear 19 1016 64 10000 1.82 132 04:48 19.07.2022
2575 Clear 21 1016 63 10000 2.43 129 00:35 19.07.2022
2576 Clear 22 1017 60 10000 2.46 129 23:36 18.07.2022
2577 Clear 23 1017 57 10000 2.62 127 23:18 18.07.2022
2578 Clear 24 1016 55 10000 2.96 116 21:58 18.07.2022
2579 Clear 30 1020 53 10000 3.11 102 20:51 18.07.2022
2580 Clear 32 1019 31 10000 3.14 73 19:33 18.07.2022
2581 Clear 35 1019 28 10000 2.24 247 17:31 18.07.2022
2582 Clear 35 1020 29 10000 1.34 2 15:52 18.07.2022
2583 Clear 33 1020 30 10000 1.79 268 14:51 18.07.2022
2584 Clear 31 1021 33 10000 2.24 218 13:23 18.07.2022
2585 Clear 28 1021 40 10000 3.13 261 11:31 18.07.2022
2586 Clear 22 1022 52 10000 1.79 360 09:28 18.07.2022
2587 Clear 19 1022 62 10000 0.12 178 07:45 18.07.2022
2588 Clouds 18 1022 60 10000 1.58 115 02:21 18.07.2022
2589 Clear 20 1020 56 10000 2.29 124 22:51 17.07.2022
2590 Clear 21 1020 54 10000 2.26 115 22:25 17.07.2022
2591 Clear 24 1020 44 10000 2.31 81 21:26 17.07.2022
2592 Clear 28 1023 35 10000 2.31 79 20:44 17.07.2022
2593 Clear 28 1021 32 10000 2.68 336 19:49 17.07.2022
2594 Clear 29 1021 33 10000 3.13 331 19:20 17.07.2022
2595 Clear 30 1021 35 10000 3.58 331 17:39 17.07.2022
2596 Clear 31 1021 34 10000 3.13 287 16:53 17.07.2022
2597 Clear 31 1021 34 10000 3.13 26 16:27 17.07.2022
2598 Clear 30 1022 36 10000 2.24 318 15:34 17.07.2022
2599 Clear 29 1022 38 10000 2.68 336 13:51 17.07.2022
2600 Clear 27 1023 42 10000 1.79 328 12:40 17.07.2022
2601 Clear 22 1022 54 10000 1.79 272 10:18 17.07.2022
2602 Clear 15 1022 71 10000 1.06 86 06:58 17.07.2022
2603 Clouds 16 1021 67 10000 1.65 104 02:34 17.07.2022
2604 Clouds 16 1021 67 10000 1.65 104 02:34 17.07.2022
2605 Clear 18 1020 59 10000 2.42 102 23:23 16.07.2022
2606 Clear 20 1020 57 10000 2.56 97 22:20 16.07.2022
2607 Clear 25 1020 39 10000 2.24 334 20:30 16.07.2022
2608 Clear 27 1020 34 10000 2.68 289 18:54 16.07.2022
2609 Clear 28 1020 32 10000 3.13 357 17:38 16.07.2022
2610 Clear 28 1020 34 10000 2.68 328 15:54 16.07.2022
2611 Clouds 25 1020 43 10000 2.24 360 12:26 16.07.2022
2612 Clouds 21 1020 55 10000 1.34 230 10:28 16.07.2022
2613 Clear 19 1020 61 10000 1.34 250 09:25 16.07.2022
2614 Clear 18 1019 66 10000 2 347 08:41 16.07.2022
2615 Clear 14 1020 72 10000 0.7 99 06:59 16.07.2022
2616 Clear 14 1017 77 10000 1.26 86 03:33 16.07.2022
2617 Clear 18 1017 66 10000 1.13 109 00:23 16.07.2022
2618 Clear 19 1017 63 10000 1.57 124 22:56 15.07.2022
2619 Clear 21 1016 56 10000 1.84 119 22:24 15.07.2022
2620 Clear 24 1019 50 10000 1.86 103 20:41 15.07.2022
2621 Clear 26 1017 39 10000 2.68 302 19:34 15.07.2022
2622 Clear 28 1017 39 10000 1.34 329 18:23 15.07.2022
2623 Clear 28 1017 38 10000 3.13 310 17:19 15.07.2022
2624 Clear 28 1017 39 10000 1.79 220 14:19 15.07.2022
2625 Clear 26 1017 44 10000 1.79 259 12:37 15.07.2022
2626 Clear 23 1018 51 10000 2.68 236 10:52 15.07.2022
2627 Clear 19 1018 67 10000 1.11 340 07:55 15.07.2022
2628 Clear 17 1020 70 10000 1.57 113 04:54 15.07.2022
2629 Clear 22 1019 67 10000 1.59 102 00:47 15.07.2022
2630 Clear 23 1018 58 10000 1.24 44 23:25 14.07.2022
2631 Clear 24 1018 58 10000 1.24 48 22:32 14.07.2022
2632 Clear 25 1017 55 10000 0.32 24 21:41 14.07.2022
2633 Clear 27 1016 50 10000 1.6 224 21:23 14.07.2022
2634 Clear 31 1016 36 10000 1.6 224 20:43 14.07.2022
2635 Clouds 31 1016 35 10000 2.51 268 20:19 14.07.2022
2636 Clouds 34 1013 27 10000 2.24 196 18:38 14.07.2022
2637 Clouds 35 1014 26 10000 3.13 246 16:21 14.07.2022
2638 Clouds 34 1014 28 10000 1.79 132 15:26 14.07.2022
2639 Clouds 34 1015 27 10000 2.68 229 13:52 14.07.2022
2640 Clouds 33 1016 30 10000 1.79 268 12:39 14.07.2022
2641 Clouds 31 1016 32 10000 1.34 205 11:41 14.07.2022
2642 Clouds 30 1017 36 10000 0.89 360 11:21 14.07.2022
2643 Clouds 28 1017 42 10000 0.45 252 09:49 14.07.2022
2644 Clouds 19 1016 62 10000 2.01 155 05:20 14.07.2022
2645 Clouds 24 1019 49 10000 2.24 137 01:22 14.07.2022
2646 Clouds 24 1019 47 10000 2.24 137 00:52 14.07.2022
2647 Clouds 26 1019 43 10000 2.03 145 22:32 13.07.2022
2648 Clouds 26 1019 43 10000 2.45 141 21:54 13.07.2022
2649 Clouds 27 1016 40 10000 1.62 156 20:45 13.07.2022
2650 Clouds 31 1018 27 10000 1.85 259 19:19 13.07.2022
2651 Clouds 32 1018 23 10000 0.89 246 17:42 13.07.2022
2652 Clouds 33 1019 26 10000 0.45 302 16:29 13.07.2022
2653 Clouds 32 1019 23 10000 2.24 312 15:24 13.07.2022
2654 Clouds 29 1021 38 10000 1.34 249 12:55 13.07.2022
2655 Clouds 25 1021 49 10000 0.89 231 10:45 13.07.2022
2656 Clouds 24 1021 53 10000 1.34 234 09:58 13.07.2022
2657 Clouds 22 1021 59 10000 0.38 298 09:22 13.07.2022
2658 Clouds 15 1021 78 10000 1.89 146 06:20 13.07.2022
2659 Clouds 16 1020 76 10000 1.85 117 02:21 13.07.2022
2660 Clouds 19 1020 70 10000 2.43 121 23:45 12.07.2022
2661 Clouds 20 1020 71 10000 2.91 110 21:58 12.07.2022
2662 Clouds 21 1020 69 10000 2.91 110 21:32 12.07.2022
2663 Clouds 26 1023 67 10000 2.67 85 20:41 12.07.2022
2664 Clouds 27 1021 47 10000 2.68 20 19:28 12.07.2022
2665 Clouds 29 1021 43 10000 1.79 13 17:50 12.07.2022
2666 Clouds 29 1021 43 10000 2.68 7 16:20 12.07.2022
2667 Clouds 29 1021 43 10000 2.68 7 16:20 12.07.2022
2668 Clouds 28 1022 44 10000 3.13 323 14:31 12.07.2022
2669 Clouds 27 1022 49 10000 1.79 15 13:20 12.07.2022
2670 Clouds 24 1022 55 10000 1.34 316 11:37 12.07.2022
2671 Clouds 22 1022 64 10000 1.34 360 10:18 12.07.2022
2672 Clouds 22 1022 64 10000 1.34 360 10:18 12.07.2022
2673 Clouds 18 1021 77 10000 0.35 78 08:24 12.07.2022
2674 Clouds 16 1022 79 10000 1.2 108 06:59 12.07.2022
2675 Clouds 15 1021 83 10000 1.37 120 05:42 12.07.2022
2676 Clouds 16 1021 78 10000 1.53 115 03:29 12.07.2022
2677 Clouds 19 1019 70 10000 2.34 118 23:42 11.07.2022
2678 Clouds 19 1019 72 10000 2.7 111 22:31 11.07.2022
2679 Clouds 23 1021 56 10000 0.45 338 20:54 11.07.2022
2680 Clear 24 1019 53 10000 1.34 344 20:25 11.07.2022
2681 Clouds 26 1019 49 10000 4.02 337 18:38 11.07.2022
2682 Clear 27 1019 47 10000 4.02 37 17:55 11.07.2022
2683 Clear 27 1019 48 10000 2.24 352 16:22 11.07.2022
2684 Clouds 26 1019 48 10000 0.89 34 14:52 11.07.2022
2685 Clear 24 1020 48 10000 3.13 302 12:28 11.07.2022
2686 Clear 22 1020 51 10000 1.34 155 10:54 11.07.2022
2687 Clear 20 1021 59 10000 0.45 341 09:54 11.07.2022
2688 Clear 18 1021 65 10000 2.24 352 09:21 11.07.2022
2689 Clouds 15 1021 75 10000 1.31 58 07:52 11.07.2022
2690 Clear 15 1020 72 10000 1.74 101 00:54 11.07.2022
2691 Clear 15 1021 71 10000 1.65 96 23:53 10.07.2022
2692 Clear 18 1024 73 10000 1.89 92 22:37 10.07.2022
2693 Clear 20 1023 66 10000 2.64 47 20:55 10.07.2022
2694 Clear 21 1020 48 10000 2.24 338 20:24 10.07.2022
2695 Clear 23 1020 44 10000 3.58 329 19:28 10.07.2022
2696 Clear 24 1021 37 10000 4.02 7 18:23 10.07.2022
2697 Clear 24 1021 40 10000 3.58 316 17:20 10.07.2022
2698 Clear 24 1021 44 10000 2.68 327 16:21 10.07.2022
2699 Clear 23 1021 49 10000 3.58 306 14:44 10.07.2022
2700 Clouds 23 1021 56 10000 3.13 300 13:29 10.07.2022
2701 Clouds 21 1022 63 10000 2.68 249 11:44 10.07.2022
2702 Clouds 18 1022 73 10000 1.79 2 09:45 10.07.2022
2703 Clouds 17 1022 77 10000 1.79 13 08:43 10.07.2022
2704 Clouds 16 1021 84 10000 1.88 13 07:19 10.07.2022
2705 Clouds 19 1022 67 10000 0.86 98 23:50 09.07.2022
2706 Clouds 20 1020 64 10000 2.23 135 22:26 09.07.2022
2707 Clouds 20 1020 64 10000 2.23 135 22:26 09.07.2022
2708 Clouds 19 1020 69 10000 2.23 135 21:47 09.07.2022
2709 Clouds 25 1022 45 10000 1.79 315 19:50 09.07.2022
2710 Clouds 27 1022 42 10000 1.79 20 18:28 09.07.2022
2711 Clouds 27 1022 43 10000 2.24 357 17:32 09.07.2022
2712 Clouds 27 1023 43 10000 2.68 267 16:36 09.07.2022
2713 Clear 27 1023 44 10000 0.89 338 15:39 09.07.2022
2714 Clouds 26 1024 45 10000 0.89 338 14:24 09.07.2022
2715 Clouds 26 1024 44 10000 1.79 78 13:48 09.07.2022
2716 Clouds 24 1025 50 10000 0.45 244 12:29 09.07.2022
2717 Clouds 21 1025 55 10000 0.89 263 10:42 09.07.2022
2718 Clouds 21 1025 58 10000 1.79 248 10:21 09.07.2022
2719 Clouds 15 1026 74 10000 0.48 17 07:44 09.07.2022
2720 Clear 13 1025 79 10000 1.61 113 04:53 09.07.2022
2721 Clear 14 1025 75 10000 2.1 116 00:43 09.07.2022
2722 Clear 16 1026 73 10000 2.15 103 22:42 08.07.2022
2723 Clear 17 1025 70 10000 2.26 90 21:31 08.07.2022
2724 Clear 22 1028 47 10000 2.25 52 20:40 08.07.2022
2725 Clear 22 1025 50 10000 2.37 16 19:48 08.07.2022
2726 Clear 24 1026 47 10000 2.24 252 18:19 08.07.2022
2727 Clear 24 1027 48 10000 3.13 360 16:39 08.07.2022
2728 Clear 23 1027 50 10000 3.58 304 14:51 08.07.2022
2729 Clouds 22 1028 52 10000 4.02 325 13:24 08.07.2022
2730 Clouds 22 1028 52 10000 4.02 325 13:24 08.07.2022
2731 Clouds 20 1028 58 10000 1.79 231 11:25 08.07.2022
2732 Clouds 19 1028 65 10000 1.34 360 10:27 08.07.2022
2733 Clouds 16 1027 76 10000 1.9 13 08:26 08.07.2022
2734 Clouds 14 1027 81 10000 1.44 34 06:49 08.07.2022
2735 Clouds 16 1027 73 10000 1.67 36 01:23 08.07.2022
2736 Clouds 19 1025 68 10000 0.46 330 22:57 07.07.2022
2737 Clouds 19 1024 67 10000 0.86 167 22:29 07.07.2022
2738 Clouds 20 1023 64 10000 1.34 334 20:22 07.07.2022
2739 Clouds 22 1022 60 10000 1.79 256 18:20 07.07.2022
2740 Clouds 22 1022 59 10000 0.89 253 16:51 07.07.2022
2741 Clouds 23 1021 52 10000 0.89 155 14:34 07.07.2022
2742 Clouds 22 1021 53 10000 0.45 227 13:18 07.07.2022
2743 Clouds 22 1021 53 10000 4.02 360 12:24 07.07.2022
2744 Clouds 22 1021 53 10000 4.02 360 12:24 07.07.2022
2745 Clouds 22 1021 53 10000 1.34 244 11:45 07.07.2022
2746 Clouds 22 1021 52 10000 2.51 271 11:24 07.07.2022
2747 Clouds 21 1021 55 10000 0.45 148 10:41 07.07.2022
2748 Clouds 20 1021 55 10000 0.45 252 10:23 07.07.2022
2749 Clouds 14 1021 75 10000 1.02 169 06:48 07.07.2022
2750 Clouds 13 1021 72 10000 1.7 136 01:43 07.07.2022
2751 Clouds 15 1021 72 10000 1.29 99 23:36 06.07.2022
2752 Clouds 15 1021 69 10000 1.43 92 23:18 06.07.2022
2753 Clouds 16 1025 61 10000 1.43 92 22:52 06.07.2022
2754 Clouds 17 1025 61 10000 1.43 92 22:34 06.07.2022
2755 Clouds 21 1024 46 10000 1.95 19 20:36 06.07.2022
2756 Clouds 22 1023 43 10000 2.16 11 19:34 06.07.2022
2757 Clouds 25 1020 50 10000 4.02 302 17:22 06.07.2022
2758 Clouds 25 1020 50 10000 4.02 302 17:22 06.07.2022
2759 Clouds 25 1021 48 10000 3.58 225 15:59 06.07.2022
2760 Clear 25 1020 49 10000 0.89 220 13:56 06.07.2022
2761 Clear 23 1021 55 10000 1.79 360 12:30 06.07.2022
2762 Clear 24 1021 52 10000 2.68 360 12:30 06.07.2022
2763 Clear 22 1021 56 10000 0.89 335 11:45 06.07.2022
2764 Clear 20 1021 64 10000 0.89 338 10:18 06.07.2022
2765 Clear 16 1021 76 10000 1.5 355 07:44 06.07.2022
2766 Clear 16 1021 76 10000 1.47 354 07:44 06.07.2022
2767 Clear 15 1021 77 10000 0.68 63 07:20 06.07.2022
2768 Clear 16 1020 75 10000 0.99 79 01:42 06.07.2022
2769 Clouds 20 1018 70 10000 1.01 88 22:45 05.07.2022
2770 Clouds 21 1017 65 10000 0.73 110 21:32 05.07.2022
2771 Clouds 21 1017 65 10000 0.73 110 21:32 05.07.2022
2772 Clear 25 1021 66 10000 0.52 59 20:38 05.07.2022
2773 Clear 25 1017 47 10000 0.9 42 19:41 05.07.2022
2774 Clear 26 1017 42 10000 1.34 327 19:21 05.07.2022
2775 Clear 27 1020 41 10000 1.77 344 17:46 05.07.2022
2776 Clear 28 1017 41 10000 2.68 212 16:39 05.07.2022
2777 Clear 27 1017 42 10000 3.13 360 15:24 05.07.2022
2778 Clear 26 1018 45 10000 0.45 229 13:47 05.07.2022
2779 Clear 26 1018 47 10000 1.79 265 12:42 05.07.2022
2780 Clear 24 1018 52 10000 1.34 244 11:24 05.07.2022
2781 Clear 23 1019 53 10000 1.79 225 10:31 05.07.2022
2782 Clear 20 1019 74 10000 0.74 272 08:25 05.07.2022
2783 Clear 18 1018 80 10000 0.78 272 07:31 05.07.2022
2784 Clear 16 1017 87 10000 0.65 129 04:47 05.07.2022
2785 Clear 16 1017 86 10000 0.75 87 04:20 05.07.2022
2786 Clouds 19 1020 86 10000 1.78 122 23:42 04.07.2022
2787 Clouds 19 1016 80 10000 1.91 117 22:59 04.07.2022
2788 Clouds 20 1016 79 10000 1.64 109 22:20 04.07.2022
2789 Clouds 22 1015 73 10000 1.38 38 21:20 04.07.2022
2790 Clouds 23 1019 78 10000 1.38 38 20:51 04.07.2022
2791 Clouds 23 1019 63 10000 1.38 38 20:33 04.07.2022
2792 Clouds 24 1016 59 10000 0.89 323 19:51 04.07.2022
2793 Clouds 25 1015 58 10000 1.88 1 19:33 04.07.2022
2794 Rain 26 1015 56 10000 2.24 347 17:42 04.07.2022
2795 Clouds 26 1016 53 10000 1.79 323 15:44 04.07.2022
2796 Clouds 26 1016 55 10000 2.24 357 14:42 04.07.2022
2797 Clouds 25 1016 56 10000 0.45 219 13:29 04.07.2022
2798 Clouds 24 1017 61 10000 2.24 360 12:20 04.07.2022
2799 Clouds 22 1017 67 10000 3.13 245 10:33 04.07.2022
2800 Clouds 20 1017 72 10000 2.68 238 09:40 04.07.2022
2801 Clouds 19 1018 74 10000 0.22 2 07:21 04.07.2022
2802 Clouds 19 1015 87 10000 0.9 94 03:35 04.07.2022
2803 Clouds 19 1015 81 10000 1.31 53 00:30 04.07.2022
2804 Clear 20 1015 77 10000 0.48 59 22:58 03.07.2022
2805 Clear 24 1013 66 10000 1.44 208 20:51 03.07.2022
2806 Clouds 26 1013 64 10000 2.03 233 20:25 03.07.2022
2807 Clouds 29 1014 42 10000 0.89 218 19:26 03.07.2022
2808 Clouds 30 1014 40 10000 2.24 164 18:35 03.07.2022
2809 Clouds 30 1014 38 10000 2.24 204 17:43 03.07.2022
2810 Clouds 31 1015 36 10000 1.34 200 15:49 03.07.2022
2811 Clouds 30 1015 38 10000 1.34 272 14:59 03.07.2022
2812 Clear 30 1016 40 10000 2.68 251 14:18 03.07.2022
2813 Clear 29 1015 41 10000 2.68 242 13:48 03.07.2022
2814 Clear 29 1016 42 10000 0.89 166 12:33 03.07.2022
2815 Clear 27 1017 44 10000 1.79 244 11:20 03.07.2022
2816 Clear 26 1017 48 10000 2.84 260 10:38 03.07.2022
2817 Clear 24 1017 61 10000 2.61 251 09:31 03.07.2022
2818 Clear 18 1017 73 10000 1.25 220 07:35 03.07.2022
2819 Clear 17 1017 83 10000 1.9 168 02:49 03.07.2022
2820 Clear 18 1016 82 10000 2.06 150 00:20 03.07.2022
2821 Clear 19 1015 84 10000 2.09 146 22:33 02.07.2022
2822 Clear 22 1015 73 10000 1.21 114 20:50 02.07.2022
2823 Clear 25 1015 63 10000 0.48 10 19:52 02.07.2022
2824 Clear 26 1015 57 10000 0.59 329 19:20 02.07.2022
2825 Clear 28 1015 52 10000 0.45 234 17:41 02.07.2022
2826 Clear 27 1016 53 10000 2.68 250 16:53 02.07.2022
2827 Clear 26 1017 52 10000 1.79 236 14:31 02.07.2022
2828 Clear 23 1018 63 10000 0.45 228 12:21 02.07.2022
2829 Clear 22 1019 64 10000 0.45 146 11:26 02.07.2022
2830 Clear 21 1020 67 10000 0.89 304 10:39 02.07.2022
2831 Clear 19 1020 74 10000 0.8 351 09:18 02.07.2022
2832 Clear 16 1021 85 10000 0.44 47 08:20 02.07.2022
2833 Clear 14 1021 87 10000 0.89 130 07:27 02.07.2022
2834 Clear 13 1020 88 10000 1.51 112 02:50 02.07.2022
2835 Clear 15 1020 84 10000 1.78 117 23:59 01.07.2022
2836 Clear 16 1019 82 10000 2.1 115 22:41 01.07.2022
2837 Clear 15 1019 83 10000 1.99 104 21:49 01.07.2022
2838 Clear 18 1018 74 10000 1.76 60 21:29 01.07.2022
2839 Clear 18 1018 73 10000 1.76 60 20:43 01.07.2022
2840 Clouds 21 1019 63 10000 0.45 351 19:47 01.07.2022
2841 Clouds 23 1017 56 10000 0.45 233 17:53 01.07.2022
2842 Clouds 22 1017 61 10000 0.89 160 16:22 01.07.2022
2843 Clouds 20 1018 69 10000 1.69 257 13:55 01.07.2022
2844 Clouds 18 1018 75 10000 0.45 195 12:55 01.07.2022
2845 Clouds 14 1018 92 6968 0.89 221 10:20 01.07.2022
2846 Clouds 14 1018 92 6968 1.79 210 09:47 01.07.2022
2847 Rain 14 1016 93 1741 1.7 253 05:27 01.07.2022
2848 Clouds 15 1014 93 2741 0.99 237 01:27 01.07.2022
2849 Rain 15 1015 92 2161 0.45 237 23:26 30.06.2022
2850 Rain 16 1013 90 2161 1.79 254 22:44 30.06.2022
2851 Rain 16 1012 90 3782 2.68 244 22:26 30.06.2022
2852 Rain 18 1012 90 3782 2.68 186 21:48 30.06.2022
2853 Rain 21 1014 79 5359 2.11 334 20:31 30.06.2022
2854 Rain 23 1009 75 9523 5.28 255 19:55 30.06.2022
2855 Clouds 21 1014 95 10000 2.77 283 19:32 30.06.2022
2856 Rain 23 1012 87 10000 0.94 148 18:43 30.06.2022
2857 Rain 26 1012 61 6726 2.25 72 17:49 30.06.2022
2858 Rain 27 1007 57 10000 3.94 267 16:55 30.06.2022
2859 Clouds 30 1006 46 10000 0.45 282 15:50 30.06.2022
2860 Clouds 29 1006 48 10000 0.89 360 13:50 30.06.2022
2861 Clouds 28 1007 51 10000 1.79 250 12:36 30.06.2022
2862 Clouds 28 1007 51 10000 1.79 250 12:36 30.06.2022
2863 Clouds 27 1008 56 10000 1.79 243 11:59 30.06.2022
2864 Clouds 24 1009 63 10000 2.68 263 10:19 30.06.2022
2865 Clouds 23 1009 68 10000 2.24 360 09:40 30.06.2022
2866 Clear 21 1009 76 10000 0.14 30 08:22 30.06.2022
2867 Clear 18 1009 78 10000 0.37 81 07:40 30.06.2022
2868 Clouds 17 1010 84 10000 1.58 133 03:35 30.06.2022
2869 Clouds 20 1010 76 10000 0.45 69 23:38 29.06.2022
2870 Clouds 21 1010 76 10000 2.02 129 22:41 29.06.2022
2871 Clouds 21 1009 78 10000 1.88 123 22:19 29.06.2022
2872 Clear 26 1013 76 10000 0.8 89 20:35 29.06.2022
2873 Clouds 26 1008 58 10000 1.22 1 19:56 29.06.2022
2874 Clouds 28 1009 52 10000 0.79 295 17:55 29.06.2022
2875 Clouds 28 1009 52 10000 0.45 129 17:32 29.06.2022
2876 Clouds 26 1014 53 10000 2.01 298 16:23 29.06.2022
2877 Clouds 27 1012 55 10000 1.79 153 13:45 29.06.2022
2878 Clouds 26 1012 59 10000 0.45 13 12:38 29.06.2022
2879 Clouds 23 1012 70 10000 1.81 253 10:18 29.06.2022
2880 Clouds 22 1012 75 10000 1.86 249 09:27 29.06.2022
2881 Clouds 17 1012 90 10000 0.93 186 06:32 29.06.2022
2882 Clouds 18 1012 87 10000 1.17 161 04:44 29.06.2022
2883 Clouds 18 1013 86 10000 1.57 154 00:53 29.06.2022
2884 Clouds 18 1013 85 10000 1.57 154 00:34 29.06.2022
2885 Clouds 19 1014 83 10000 1.35 116 22:52 28.06.2022
2886 Clouds 19 1013 82 10000 1.77 104 22:18 28.06.2022
2887 Clouds 20 1012 80 10000 1.77 104 21:49 28.06.2022
2888 Clouds 21 1013 77 10000 2.3 106 21:29 28.06.2022
2889 Clouds 22 1013 71 10000 2.25 86 19:56 28.06.2022
2890 Clouds 22 1013 70 10000 0.89 318 19:31 28.06.2022
2891 Clouds 22 1013 70 10000 0.45 24 18:40 28.06.2022
2892 Clouds 22 1014 69 10000 3.42 42 17:36 28.06.2022
2893 Clouds 23 1015 65 10000 1.79 346 15:55 28.06.2022
2894 Clouds 23 1015 65 10000 2.68 342 14:54 28.06.2022
2895 Clouds 23 1016 65 10000 0.89 352 14:19 28.06.2022
2896 Clouds 23 1016 67 10000 3.37 39 13:45 28.06.2022
2897 Clouds 23 1016 67 10000 0.45 329 12:47 28.06.2022
2898 Clouds 21 1017 74 10000 1.34 317 10:44 28.06.2022
2899 Clouds 18 1019 86 10000 1.6 11 08:56 28.06.2022
2900 Clouds 17 1019 87 10000 1.6 11 08:38 28.06.2022
2901 Clouds 15 1019 91 10000 1.15 39 07:20 28.06.2022
2902 Clouds 15 1019 89 10000 1.28 63 04:54 28.06.2022
2903 Clouds 18 1019 79 10000 1.05 94 23:56 27.06.2022
2904 Clouds 18 1018 85 10000 0.91 216 23:28 27.06.2022
2905 Clouds 18 1018 87 10000 0.91 216 22:42 27.06.2022
2906 Rain 19 1017 84 10000 0.34 89 21:30 27.06.2022
2907 Clouds 20 1023 98 10000 1.69 211 20:38 27.06.2022
2908 Clouds 20 1021 98 2554 1.76 239 18:55 27.06.2022
2909 Clouds 21 1021 92 10000 2.39 269 17:45 27.06.2022
2910 Clouds 22 1016 68 10000 1.64 319 15:51 27.06.2022
2911 Clouds 22 1016 70 10000 0.89 201 14:44 27.06.2022
2912 Clouds 21 1020 92 10000 0.18 288 13:24 27.06.2022
2913 Clouds 20 1016 80 10000 2.24 205 12:49 27.06.2022
2914 Rain 19 1014 93 4597 2.03 253 10:22 27.06.2022
2915 Clouds 18 1014 94 8778 0.45 171 08:47 27.06.2022
2916 Clouds 17 1013 94 10000 0.67 279 07:58 27.06.2022
2917 Clouds 17 1012 95 10000 0.45 213 06:38 27.06.2022
2918 Clouds 18 1012 93 1476 1.36 312 01:54 27.06.2022
2919 Rain 20 1009 91 818 1.79 360 23:39 26.06.2022
2920 Clouds 22 1008 75 10000 1.85 142 21:57 26.06.2022
2921 Clouds 23 1009 72 10000 0.7 29 20:34 26.06.2022
2922 Clouds 25 1010 67 10000 3.13 346 19:23 26.06.2022
2923 Clouds 25 1010 66 10000 2.24 345 18:24 26.06.2022
2924 Clouds 25 1011 65 10000 3.13 227 16:21 26.06.2022
2925 Clouds 25 1012 66 10000 1.34 360 14:34 26.06.2022
2926 Clouds 24 1012 67 10000 1.34 319 13:38 26.06.2022
2927 Clouds 24 1012 70 10000 1.34 32 13:18 26.06.2022
2928 Clouds 21 1013 80 10000 2.41 339 11:26 26.06.2022
2929 Clouds 21 1013 81 10000 1.34 244 10:23 26.06.2022
2930 Clouds 19 1013 87 10000 2.24 360 09:19 26.06.2022
2931 Clouds 17 1012 92 10000 1.19 357 07:30 26.06.2022
2932 Clouds 18 1012 91 10000 0.93 78 01:53 26.06.2022
2933 Rain 19 1012 86 10000 2.68 173 00:20 26.06.2022
2934 Clouds 19 1009 81 10000 1.51 187 23:41 25.06.2022
2935 Clouds 20 1009 72 10000 1.86 156 22:57 25.06.2022
2936 Clouds 21 1009 70 10000 2.84 121 22:27 25.06.2022
2937 Clouds 20 1008 74 10000 2.84 121 21:40 25.06.2022
2938 Clouds 21 1008 74 10000 2.33 110 21:18 25.06.2022
2939 Clouds 25 1007 59 10000 2.06 77 20:27 25.06.2022
2940 Clouds 28 1008 40 10000 0.45 7 19:21 25.06.2022
2941 Clouds 28 1008 44 10000 1.61 44 17:56 25.06.2022
2942 Clouds 28 1008 45 10000 1.46 359 17:22 25.06.2022
2943 Clouds 27 1009 52 10000 1.89 317 15:26 25.06.2022
2944 Clouds 26 1010 54 10000 2.35 311 13:27 25.06.2022
2945 Clouds 25 1010 57 10000 1.34 261 12:37 25.06.2022
2946 Clouds 23 1012 63 10000 1.7 300 10:34 25.06.2022
2947 Clear 20 1012 78 10000 0.89 272 08:58 25.06.2022
2948 Clear 19 1012 80 10000 0.86 271 08:36 25.06.2022
2949 Clear 17 1012 84 10000 0.62 218 07:54 25.06.2022
2950 Clear 15 1012 87 10000 2.05 155 03:34 25.06.2022
2951 Clouds 16 1012 84 10000 2.24 158 00:35 25.06.2022
2952 Clouds 17 1011 83 10000 2.57 158 22:54 24.06.2022
2953 Clouds 18 1015 80 10000 2.53 150 21:41 24.06.2022
2954 Clouds 18 1009 79 10000 0.45 246 20:47 24.06.2022
2955 Clouds 18 1010 80 10000 0.89 199 20:19 24.06.2022
2956 Clouds 18 1010 82 10000 0.89 242 19:21 24.06.2022
2957 Clouds 18 1010 83 10000 0.89 144 18:49 24.06.2022
2958 Rain 18 1010 84 10000 0.89 148 18:30 24.06.2022
2959 Rain 18 1013 96 6534 4.84 209 17:20 24.06.2022
2960 Clouds 20 1008 77 7089 4.47 164 15:47 24.06.2022
2961 Rain 21 1010 82 10000 4.26 263 14:28 24.06.2022
2962 Rain 21 1006 76 10000 4.26 263 13:55 24.06.2022
2963 Clouds 23 1007 67 10000 2.68 161 11:44 24.06.2022
2964 Clouds 23 1007 67 10000 1.34 259 11:18 24.06.2022
2965 Clouds 23 1007 67 10000 2.24 196 10:19 24.06.2022
2966 Clouds 22 1007 74 10000 1.34 238 09:40 24.06.2022
2967 Clear 20 1007 83 10000 1.34 223 08:52 24.06.2022
2968 Clouds 18 1008 89 10000 1.89 195 06:49 24.06.2022
2969 Clouds 17 1008 89 10000 1.79 167 06:31 24.06.2022
2970 Clouds 17 1008 92 10000 1.34 187 05:55 24.06.2022
2971 Clouds 18 1009 93 10000 0.45 63 01:36 24.06.2022
2972 Rain 18 1009 91 4998 2.13 126 22:45 23.06.2022
2973 Rain 18 1010 91 10000 1.29 190 22:18 23.06.2022
2974 Rain 19 1009 85 10000 4.47 135 20:56 23.06.2022
2975 Clouds 21 1009 78 10000 5.36 190 20:32 23.06.2022
2976 Clouds 30 1008 41 10000 1.79 53 18:59 23.06.2022
2977 Clouds 30 1009 41 10000 1.76 31 17:50 23.06.2022
2978 Clear 31 1006 47 10000 1.79 229 16:50 23.06.2022
2979 Clear 31 1007 49 10000 2.24 261 15:43 23.06.2022
2980 Clear 30 1007 50 10000 2.24 244 15:23 23.06.2022
2981 Clear 29 1009 55 10000 1.34 360 13:32 23.06.2022
2982 Clear 26 1010 67 10000 0.89 249 11:23 23.06.2022
2983 Clear 25 1010 69 10000 1.79 323 10:31 23.06.2022
2984 Clear 20 1011 89 10000 0.2 331 08:35 23.06.2022
2985 Clear 17 1010 93 10000 1.61 179 02:46 23.06.2022
2986 Clouds 18 1011 93 10000 1.78 143 00:26 23.06.2022
2987 Clouds 19 1010 92 10000 2.85 167 23:27 22.06.2022
2988 Clouds 19 1010 91 10000 2.85 167 22:39 22.06.2022
2989 Clouds 20 1008 90 10000 1.34 192 21:22 22.06.2022
2990 Rain 20 1007 89 10000 1.79 233 20:42 22.06.2022
2991 Rain 21 1010 88 10000 0.45 168 19:56 22.06.2022
2992 Clouds 22 1008 82 10000 0.67 297 18:46 22.06.2022
2993 Clouds 22 1008 78 10000 0.45 18 17:28 22.06.2022
2994 Clouds 24 1008 73 10000 1.34 352 16:24 22.06.2022
2995 Clouds 21 1012 90 10000 1.43 67 15:26 22.06.2022
2996 Rain 21 1012 88 10000 1.08 139 14:20 22.06.2022
2997 Clouds 20 1013 91 10000 0.84 159 13:39 22.06.2022
2998 Clouds 20 1013 90 10000 1.35 134 13:21 22.06.2022
2999 Rain 21 1009 87 10000 1.49 186 11:49 22.06.2022
3000 Clouds 21 1009 88 10000 2.25 208 10:57 22.06.2022
3001 Clouds 21 1009 89 10000 2.43 208 10:19 22.06.2022
3002 Rain 20 1008 92 10000 1.08 143 08:28 22.06.2022
3003 Rain 20 1008 88 10000 1.77 178 05:38 22.06.2022
3004 Rain 22 1013 89 10000 1.78 113 01:39 22.06.2022
3005 Clouds 21 1007 81 10000 1.92 152 00:29 22.06.2022
3006 Clouds 22 1012 88 10000 2.47 185 22:37 21.06.2022
3007 Rain 27 1007 53 10000 0.89 357 19:57 21.06.2022
3008 Clouds 30 1006 46 10000 0.89 348 18:36 21.06.2022
3009 Clear 31 1006 46 10000 1.34 357 17:40 21.06.2022
3010 Clear 30 1007 48 10000 3.13 242 14:42 21.06.2022
3011 Clouds 25 1010 61 10000 2.18 316 11:52 21.06.2022
3012 Clouds 21 1010 67 10000 1.37 334 10:20 21.06.2022
3013 Clouds 17 1011 70 10000 1.18 307 08:50 21.06.2022
3014 Clouds 15 1011 72 10000 1.04 346 07:35 21.06.2022
3015 Clouds 15 1011 73 10000 1.26 44 03:21 21.06.2022
3016 Clear 19 1011 72 10000 0.45 350 23:27 20.06.2022
3017 Clear 22 1015 69 10000 1.81 69 21:58 20.06.2022
3018 Clear 22 1015 80 10000 1.81 69 21:32 20.06.2022
3019 Clouds 26 1009 60 10000 1.55 39 19:57 20.06.2022
3020 Clouds 27 1009 58 10000 2.57 54 18:56 20.06.2022
3021 Clouds 28 1013 59 10000 2.78 66 18:24 20.06.2022
3022 Clouds 27 1013 56 10000 2.78 66 17:41 20.06.2022
3023 Clouds 29 1010 51 10000 3.58 36 16:21 20.06.2022
3024 Clouds 29 1009 48 10000 3.13 2 14:36 20.06.2022
3025 Clear 29 1010 46 10000 3.58 226 11:47 20.06.2022
3026 Clear 27 1010 51 10000 2.24 133 09:55 20.06.2022
3027 Clear 26 1010 52 10000 3.13 170 08:45 20.06.2022
3028 Clear 25 1010 52 10000 2.24 203 07:36 20.06.2022
3029 Clear 26 1011 56 10000 3.46 176 04:30 20.06.2022
3030 Clear 22 1005 71 10000 2.75 161 01:32 20.06.2022
3031 Clear 25 1005 60 10000 3.45 167 23:48 19.06.2022
3032 Clear 25 1005 69 10000 3.4 144 22:20 19.06.2022
3033 Clear 26 1004 68 10000 3.4 144 21:42 19.06.2022
3034 Clear 29 1004 55 10000 2 177 20:52 19.06.2022
3035 Clear 32 1004 46 10000 1.49 249 19:49 19.06.2022
3036 Clear 32 1004 46 10000 1.49 249 19:49 19.06.2022
3037 Clear 34 1004 39 10000 2.49 268 19:25 19.06.2022
3038 Clear 35 1003 36 10000 2.49 268 18:32 19.06.2022
3039 Clear 36 1006 34 10000 2.24 350 17:43 19.06.2022
3040 Clear 36 1006 35 10000 2.24 285 17:20 19.06.2022
3041 Clear 36 1006 34 10000 1.79 248 16:34 19.06.2022
3042 Clear 36 1006 35 10000 1.34 195 15:35 19.06.2022
3043 Clear 35 1007 36 10000 1.34 249 14:43 19.06.2022
3044 Clear 34 1008 38 10000 2.24 236 13:54 19.06.2022
3045 Clear 33 1008 41 10000 1.34 117 12:26 19.06.2022
3046 Clear 31 1009 47 10000 2.24 159 10:53 19.06.2022
3047 Clear 29 1009 51 10000 1.79 57 09:34 19.06.2022
3048 Clear 27 1009 57 10000 0.89 145 08:43 19.06.2022
3049 Clouds 24 1009 62 10000 1.26 191 07:36 19.06.2022
3050 Clouds 22 1008 65 10000 2.1 155 04:33 19.06.2022
3051 Clear 23 1008 58 10000 2.09 132 01:28 19.06.2022
3052 Clear 23 1013 58 10000 2.6 121 00:24 19.06.2022
3053 Clear 24 1013 54 10000 2.6 121 23:35 18.06.2022
3054 Clear 24 1014 55 10000 2.74 126 22:36 18.06.2022
3055 Clear 31 1013 61 10000 3.02 128 20:55 18.06.2022
3056 Clear 30 1010 38 10000 2.47 88 20:27 18.06.2022
3057 Clear 35 1013 55 10000 2.55 103 19:31 18.06.2022
3058 Clear 34 1013 32 10000 2.37 71 18:44 18.06.2022
3059 Clear 36 1012 30 10000 0.45 92 17:31 18.06.2022
3060 Clear 36 1014 31 10000 1.34 243 16:37 18.06.2022
3061 Clear 36 1015 32 10000 1.79 264 15:30 18.06.2022
3062 Clear 35 1016 34 10000 1.79 254 14:42 18.06.2022
3063 Clear 32 1017 38 10000 2.24 267 13:22 18.06.2022
3064 Clear 29 1018 45 10000 3.58 266 11:38 18.06.2022
3065 Clear 28 1018 49 10000 2.68 360 10:46 18.06.2022
3066 Clear 24 1019 58 10000 0.4 301 09:22 18.06.2022
3067 Clouds 22 1019 65 10000 0.47 117 08:19 18.06.2022
3068 Clouds 19 1020 71 10000 1 123 06:44 18.06.2022
3069 Clouds 19 1019 70 10000 1.78 148 03:30 18.06.2022
3070 Clouds 19 1020 70 10000 1.81 134 01:25 18.06.2022
3071 Clouds 19 1019 72 10000 1.81 134 00:46 18.06.2022
3072 Clouds 20 1019 68 10000 1.82 133 23:52 17.06.2022
3073 Clouds 21 1019 66 10000 2.04 128 23:20 17.06.2022
3074 Clouds 24 1019 60 10000 1.89 109 20:56 17.06.2022
3075 Clouds 27 1019 44 10000 1.23 68 19:59 17.06.2022
3076 Clouds 30 1018 41 10000 1.36 3 18:44 17.06.2022
3077 Clouds 30 1018 38 10000 2.24 215 17:43 17.06.2022
3078 Clouds 31 1019 36 10000 0.45 240 16:43 17.06.2022
3079 Clouds 30 1021 37 10000 0.89 246 15:49 17.06.2022
3080 Clouds 30 1021 39 10000 1.34 259 15:22 17.06.2022
3081 Clouds 30 1021 40 10000 3.13 246 14:20 17.06.2022
3082 Clouds 30 1021 40 10000 3.13 246 14:20 17.06.2022
3083 Clouds 29 1022 38 10000 1.79 360 13:46 17.06.2022
3084 Clouds 28 1022 40 10000 2.68 360 13:24 17.06.2022
3085 Clouds 26 1022 47 10000 0.89 252 11:58 17.06.2022
3086 Clouds 26 1022 47 10000 1.79 238 11:39 17.06.2022
3087 Clouds 25 1022 49 10000 0.89 250 11:21 17.06.2022
3088 Clouds 19 1023 64 10000 0.9 325 08:33 17.06.2022
3089 Clouds 18 1022 66 10000 0.71 324 07:51 17.06.2022
3090 Clouds 16 1022 71 10000 0.82 122 06:32 17.06.2022
3091 Clouds 16 1019 74 10000 1.29 91 03:20 17.06.2022
3092 Clouds 18 1019 74 10000 1.68 105 00:43 17.06.2022
3093 Clouds 19 1018 72 10000 1.43 98 23:25 16.06.2022
3094 Clouds 19 1018 69 10000 1.43 98 22:31 16.06.2022
3095 Clouds 22 1017 64 10000 1.62 67 21:19 16.06.2022
3096 Clouds 28 1021 66 10000 1.59 67 20:50 16.06.2022
3097 Clouds 27 1016 46 10000 2.19 10 19:59 16.06.2022
3098 Clouds 29 1016 39 10000 0.45 153 18:48 16.06.2022
3099 Clouds 31 1017 35 10000 2.68 319 17:49 16.06.2022
3100 Clouds 31 1017 39 10000 0.89 338 17:27 16.06.2022
3101 Clouds 31 1017 38 10000 1.34 360 16:19 16.06.2022
3102 Clouds 31 1018 38 10000 2.24 248 15:21 16.06.2022
3103 Clouds 31 1018 39 10000 1.34 242 14:22 16.06.2022
3104 Clouds 29 1018 44 10000 1.34 246 12:53 16.06.2022
3105 Clouds 29 1018 41 10000 1.34 360 12:34 16.06.2022
3106 Clouds 29 1017 43 10000 1.34 13 11:48 16.06.2022
3107 Clouds 27 1017 54 10000 2.68 240 10:41 16.06.2022
3108 Clouds 25 1016 65 10000 0.45 315 09:43 16.06.2022
3109 Clouds 24 1016 71 10000 1.91 239 08:59 16.06.2022
3110 Clouds 21 1015 74 10000 1.34 338 07:42 16.06.2022
3111 Clouds 20 1015 76 10000 1.08 191 06:36 16.06.2022
3112 Clouds 19 1013 72 10000 1.31 159 04:27 16.06.2022
3113 Clear 19 1013 67 10000 1.95 179 01:53 16.06.2022
3114 Clear 20 1013 66 10000 2.34 174 01:29 16.06.2022
3115 Clear 20 1013 64 10000 2.34 174 00:31 16.06.2022
3116 Clear 20 1013 68 10000 1.91 130 22:59 15.06.2022
3117 Clear 23 1017 62 10000 1.76 120 21:55 15.06.2022
3118 Clear 25 1015 66 10000 1.6 84 21:20 15.06.2022
3119 Clear 26 1012 50 10000 1.6 84 20:37 15.06.2022
3120 Clear 28 1012 47 10000 1.74 39 20:18 15.06.2022
3121 Clear 31 1012 33 10000 2.09 16 18:48 15.06.2022
3122 Clear 32 1015 31 10000 1.74 5 17:54 15.06.2022
3123 Clear 31 1013 32 10000 0.45 245 16:38 15.06.2022
3124 Clear 31 1015 31 10000 1.34 257 15:26 15.06.2022
3125 Clear 30 1015 33 10000 1.96 289 13:43 15.06.2022
3126 Clear 29 1015 39 10000 0.45 225 12:53 15.06.2022
3127 Clear 27 1015 44 10000 1.34 250 11:48 15.06.2022
3128 Clear 25 1016 51 10000 0.45 230 10:23 15.06.2022
3129 Clear 23 1016 57 10000 1.37 280 09:38 15.06.2022
3130 Clear 20 1015 67 10000 0.58 257 08:27 15.06.2022
3131 Clear 17 1015 72 10000 0.98 144 06:33 15.06.2022
3132 Clear 16 1015 71 10000 1.81 144 03:45 15.06.2022
3133 Clouds 17 1015 70 10000 2.05 133 01:53 15.06.2022
3134 Clouds 16 1014 78 10000 2.14 126 00:50 15.06.2022
3135 Clouds 17 1014 78 10000 2.19 129 23:39 14.06.2022
3136 Clouds 17 1014 81 10000 2.23 127 22:56 14.06.2022
3137 Clouds 18 1013 77 10000 2.01 120 22:18 14.06.2022
3138 Clouds 20 1013 76 10000 1.59 108 21:28 14.06.2022
3139 Clouds 22 1013 71 10000 1.59 108 20:48 14.06.2022
3140 Clouds 24 1015 56 10000 0.88 72 20:28 14.06.2022
3141 Clouds 27 1015 46 10000 1.79 333 18:54 14.06.2022
3142 Clouds 28 1015 42 10000 1.79 234 17:39 14.06.2022
3143 Clouds 28 1016 43 10000 3.13 253 16:43 14.06.2022
3144 Rain 28 1016 43 10000 3.58 248 15:50 14.06.2022
3145 Rain 28 1016 43 10000 3.58 248 15:50 14.06.2022
3146 Clear 27 1017 44 10000 1.34 244 15:22 14.06.2022
3147 Clear 27 1017 44 10000 0.89 349 14:32 14.06.2022
3148 Rain 25 1018 47 10000 1.34 360 13:42 14.06.2022
3149 Clear 24 1018 51 10000 2.68 357 12:44 14.06.2022
3150 Clear 22 1019 57 10000 2.68 360 11:32 14.06.2022
3151 Clear 21 1019 60 10000 1.79 219 10:47 14.06.2022
3152 Clear 19 1019 62 10000 0.89 256 10:20 14.06.2022
3153 Clear 17 1019 71 10000 1.28 339 08:48 14.06.2022
3154 Clear 14 1019 79 10000 0.85 8 07:34 14.06.2022
3155 Clear 12 1019 82 10000 1.32 105 05:28 14.06.2022
3156 Clear 13 1019 77 10000 1.55 88 02:58 14.06.2022
3157 Clear 14 1019 75 10000 1.84 93 00:53 14.06.2022
3158 Clear 15 1019 76 10000 1.87 83 23:41 13.06.2022
3159 Clear 16 1019 75 10000 1.92 72 22:26 13.06.2022
3160 Clear 17 1018 69 10000 1.92 72 21:52 13.06.2022
3161 Clear 21 1022 68 10000 2.26 45 20:42 13.06.2022
3162 Clear 23 1021 44 10000 2.34 18 19:35 13.06.2022
3163 Clear 25 1019 43 10000 0.89 338 18:31 13.06.2022
3164 Clear 25 1019 41 10000 1.79 360 17:48 13.06.2022
3165 Clear 25 1019 39 10000 2.68 314 16:53 13.06.2022
3166 Clear 25 1020 41 10000 1.34 243 15:40 13.06.2022
3167 Clear 24 1020 42 10000 0.89 233 14:47 13.06.2022
3168 Clear 24 1020 42 10000 0.89 233 14:47 13.06.2022
3169 Clouds 24 1020 45 10000 2.24 231 13:55 13.06.2022
3170 Clouds 23 1020 49 10000 1.34 360 12:59 13.06.2022
3171 Clouds 21 1020 58 10000 0.89 360 11:37 13.06.2022
3172 Clear 20 1020 67 10000 0.45 338 10:28 13.06.2022
3173 Clear 19 1020 70 10000 0.89 338 09:42 13.06.2022
3174 Clouds 17 1020 77 10000 0.89 301 08:25 13.06.2022
3175 Clouds 17 1019 89 5071 0.38 263 06:34 13.06.2022
3176 Clouds 18 1018 93 4651 1.23 226 04:18 13.06.2022
3177 Clouds 18 1018 90 1678 1.71 334 01:39 13.06.2022
3178 Clouds 19 1018 90 5631 0.45 338 00:59 13.06.2022
3179 Rain 19 1017 88 10000 2.55 12 23:37 12.06.2022
3180 Rain 21 1015 80 10000 0.94 320 22:29 12.06.2022
3181 Clouds 22 1019 91 10000 0.94 320 21:41 12.06.2022
3182 Clear 26 1018 84 10000 2.27 11 20:43 12.06.2022
3183 Clear 27 1018 74 10000 2.52 351 19:43 12.06.2022
3184 Clear 28 1015 47 10000 3.23 355 18:46 12.06.2022
3185 Clear 30 1015 38 10000 0.45 264 16:57 12.06.2022
3186 Clear 30 1018 34 10000 0.45 338 15:34 12.06.2022
3187 Clear 30 1019 41 10000 1.79 254 14:48 12.06.2022
3188 Clear 29 1019 40 10000 1.34 252 14:18 12.06.2022
3189 Clear 29 1019 43 10000 2.24 360 13:43 12.06.2022
3190 Clear 26 1020 54 10000 1.34 360 11:58 12.06.2022
3191 Clear 24 1021 57 10000 2.68 250 10:46 12.06.2022
3192 Clear 22 1021 63 10000 2.68 244 09:36 12.06.2022
3193 Clear 20 1021 69 10000 1 322 08:50 12.06.2022
3194 Clear 18 1021 74 10000 0.79 282 07:52 12.06.2022
3195 Clear 16 1021 78 10000 1.24 136 06:27 12.06.2022
3196 Clear 16 1021 76 10000 0.45 52 03:54 12.06.2022
3197 Clear 17 1021 74 10000 1.53 145 02:25 12.06.2022
3198 Clear 17 1019 76 10000 1.5 142 01:35 12.06.2022
3199 Clear 17 1020 74 10000 1.73 135 00:48 12.06.2022
3200 Clear 18 1020 73 10000 1.77 123 00:19 12.06.2022
3201 Clear 19 1019 72 10000 1.84 116 23:21 11.06.2022
3202 Clear 20 1023 66 10000 1.88 114 22:37 11.06.2022
3203 Clear 21 1019 70 10000 1.29 82 21:18 11.06.2022
3204 Clear 24 1019 63 10000 1.1 9 20:27 11.06.2022
3205 Clear 26 1019 42 10000 1.32 3 19:36 11.06.2022
3206 Clear 27 1019 40 10000 1.34 345 18:45 11.06.2022
3207 Clear 28 1019 37 10000 1.47 337 18:27 11.06.2022
3208 Clear 28 1019 43 10000 1.34 249 17:48 11.06.2022
3209 Clear 28 1019 38 10000 1.68 330 17:26 11.06.2022
3210 Clear 28 1021 41 10000 0.89 338 16:44 11.06.2022
3211 Clear 28 1019 42 10000 1.79 360 16:18 11.06.2022
3212 Rain 28 1021 46 10000 0.45 258 14:57 11.06.2022
3213 Rain 27 1022 46 10000 0.89 250 13:52 11.06.2022
3214 Rain 25 1022 49 10000 2.24 248 12:19 11.06.2022
3215 Rain 25 1022 49 10000 2.24 248 12:19 11.06.2022
3216 Rain 22 1022 57 10000 1.34 360 10:32 11.06.2022
3217 Rain 20 1022 64 10000 1.64 298 09:41 11.06.2022
3218 Rain 18 1022 73 10000 1.12 286 08:44 11.06.2022
3219 Clear 14 1022 80 10000 0.99 154 06:33 11.06.2022
3220 Clear 13 1021 85 10000 1.47 144 05:44 11.06.2022
3221 Clear 13 1021 82 10000 1.63 147 03:31 11.06.2022
3222 Clear 14 1020 82 10000 1.77 142 01:51 11.06.2022
3223 Clouds 15 1021 81 10000 1.77 137 01:25 11.06.2022
3224 Clouds 16 1020 76 10000 2.08 120 23:27 10.06.2022
3225 Clouds 17 1020 74 10000 2.13 118 22:21 10.06.2022
3226 Clouds 16 1020 80 10000 2.13 118 21:46 10.06.2022
3227 Clouds 20 1019 67 10000 1.36 106 20:39 10.06.2022
3228 Clouds 21 1019 62 10000 0.78 76 20:19 10.06.2022
3229 Clouds 24 1019 52 10000 1.15 23 19:19 10.06.2022
3230 Clouds 24 1019 47 10000 1.34 240 18:44 10.06.2022
3231 Rain 25 1022 44 10000 1.53 355 17:54 10.06.2022
3232 Rain 25 1019 47 10000 0.45 264 17:23 10.06.2022
3233 Rain 25 1020 45 10000 2.42 329 16:28 10.06.2022
3234 Rain 24 1021 47 10000 0.45 205 15:40 10.06.2022
3235 Rain 23 1022 50 10000 2.64 316 14:29 10.06.2022
3236 Rain 22 1022 51 10000 1.34 248 13:19 10.06.2022
3237 Rain 21 1022 56 10000 1.79 217 11:59 10.06.2022
3238 Rain 19 1023 65 10000 1.34 238 10:59 10.06.2022
3239 Clear 18 1023 68 10000 1.34 252 10:24 10.06.2022
3240 Clear 15 1023 80 10000 1.03 302 08:58 10.06.2022
3241 Clear 13 1023 86 10000 0.29 310 07:51 10.06.2022
3242 Clear 11 1023 88 10000 0.82 127 06:47 10.06.2022
3243 Clear 10 1023 90 10000 1.34 131 06:28 10.06.2022
3244 Clear 10 1022 90 10000 1.33 137 04:55 10.06.2022
3245 Clear 11 1022 87 10000 1.43 147 02:46 10.06.2022
3246 Clouds 12 1021 87 10000 1.56 138 01:37 10.06.2022
3247 Clouds 12 1021 84 10000 0.45 70 23:58 09.06.2022
3248 Clouds 14 1021 82 10000 1.74 150 22:43 09.06.2022
3249 Clouds 14 1019 86 10000 1.59 154 21:43 09.06.2022
3250 Clouds 15 1019 81 10000 1.13 159 21:24 09.06.2022
3251 Clouds 15 1018 87 10000 1.13 159 20:38 09.06.2022
3252 Clouds 18 1018 74 10000 0.12 70 19:46 09.06.2022
3253 Clouds 17 1018 70 10000 0.83 353 18:41 09.06.2022
3254 Clouds 18 1016 75 10000 1.25 337 17:33 09.06.2022
3255 Clouds 19 1016 61 10000 0.45 230 16:28 09.06.2022
3256 Clouds 18 1017 70 10000 0.45 126 15:22 09.06.2022
3257 Clouds 17 1016 73 10000 0.45 124 14:30 09.06.2022
3258 Clouds 16 1015 78 9610 0.45 28 13:44 09.06.2022
3259 Rain 16 1015 80 9089 0.45 80 13:19 09.06.2022
3260 Clouds 17 1014 73 10000 1.34 180 11:43 09.06.2022
3261 Clouds 17 1015 78 10000 0.45 17 10:34 09.06.2022
3262 Rain 16 1016 81 10000 2.38 242 09:38 09.06.2022
3263 Clouds 14 1016 87 10000 2.37 236 09:20 09.06.2022
3264 Clouds 13 1013 92 10000 0.45 233 07:29 09.06.2022
3265 Rain 14 1011 91 10000 0.45 197 04:47 09.06.2022
3266 Clouds 15 1013 86 10000 3.13 190 00:36 09.06.2022
3267 Clouds 15 1010 84 10000 0.89 213 23:24 08.06.2022
3268 Clouds 15 1010 85 10000 1.79 146 22:45 08.06.2022
3269 Clouds 15 1012 85 10000 3.07 189 22:25 08.06.2022
3270 Clouds 16 1012 82 10000 3.07 189 21:45 08.06.2022
3271 Clouds 17 1009 85 9176 1.79 214 20:33 08.06.2022
3272 Rain 17 1009 86 10000 2.24 167 19:47 08.06.2022
3273 Clouds 16 1008 88 10000 2.68 164 18:49 08.06.2022
3274 Clouds 16 1009 88 10000 1.79 130 17:48 08.06.2022
3275 Rain 16 1009 89 10000 1.79 223 16:30 08.06.2022
3276 Clouds 22 1011 73 10000 5.38 247 14:49 08.06.2022
3277 Clouds 22 1008 47 10000 1.34 283 12:55 08.06.2022
3278 Clouds 22 1008 47 10000 1.34 283 12:55 08.06.2022
3279 Clouds 22 1008 48 10000 4.5 245 11:50 08.06.2022
3280 Clouds 22 1009 50 10000 1.34 315 11:22 08.06.2022
3281 Clouds 19 1010 71 10000 1.34 338 09:46 08.06.2022
3282 Clouds 18 1010 75 10000 1.59 242 09:19 08.06.2022
3283 Clouds 14 1011 85 10000 0.45 42 07:30 08.06.2022
3284 Clouds 12 1011 88 10000 0.45 65 05:20 08.06.2022
3285 Clear 12 1012 87 10000 0.45 86 02:28 08.06.2022
3286 Clouds 14 1014 88 10000 2.47 173 23:41 07.06.2022
3287 Clouds 14 1014 85 10000 2.42 165 23:22 07.06.2022
3288 Clouds 15 1014 84 10000 2.42 165 22:38 07.06.2022
3289 Clouds 15 1013 89 10000 2.41 174 21:52 07.06.2022
3290 Clouds 17 1014 82 10000 2.13 187 21:27 07.06.2022
3291 Clouds 17 1013 85 10000 0.45 338 20:46 07.06.2022
3292 Clouds 18 1014 80 10000 0.45 79 20:23 07.06.2022
3293 Clouds 18 1014 80 9028 0.45 76 18:51 07.06.2022
3294 Rain 17 1016 82 7502 0.45 315 17:55 07.06.2022
3295 Rain 20 1013 75 10000 0.89 203 16:56 07.06.2022
3296 Clouds 20 1013 72 10000 1.34 203 16:33 07.06.2022
3297 Rain 20 1014 75 8647 1.34 203 15:40 07.06.2022
3298 Rain 20 1014 72 10000 2.68 313 15:22 07.06.2022
3299 Clouds 22 1014 63 10000 0.89 215 14:46 07.06.2022
3300 Clouds 22 1014 67 10000 2.68 182 13:46 07.06.2022
3301 Clouds 22 1014 67 10000 2.68 182 13:46 07.06.2022
3302 Clouds 21 1014 71 10000 1.34 221 13:27 07.06.2022
3303 Clouds 19 1015 76 10000 2.68 202 12:39 07.06.2022
3304 Clouds 18 1015 82 10000 1.79 161 10:57 07.06.2022
3305 Clouds 18 1015 84 10000 2.68 207 09:58 07.06.2022
3306 Clouds 16 1015 91 10000 2.09 210 08:36 07.06.2022
3307 Clouds 15 1015 92 10000 1.59 208 07:22 07.06.2022
3308 Clouds 15 1015 93 10000 1.55 195 05:48 07.06.2022
3309 Rain 16 1015 91 8691 2.79 193 02:48 07.06.2022
3310 Rain 17 1014 85 6320 2.02 223 00:33 07.06.2022
3311 Rain 18 1015 77 10000 1.19 193 23:34 06.06.2022
3312 Rain 19 1015 73 10000 0.99 124 22:41 06.06.2022
3313 Clouds 19 1015 73 10000 1.13 93 21:41 06.06.2022
3314 Clouds 22 1015 57 10000 0.45 306 19:59 06.06.2022
3315 Clouds 22 1015 56 10000 0.89 340 19:21 06.06.2022
3316 Clouds 23 1015 54 10000 2.06 295 18:38 06.06.2022
3317 Clouds 23 1015 53 10000 1.79 270 17:51 06.06.2022
3318 Clouds 24 1015 53 10000 0.89 203 16:39 06.06.2022
3319 Clouds 24 1015 52 10000 2.24 189 15:40 06.06.2022
3320 Clouds 24 1015 52 10000 2.24 189 15:40 06.06.2022
3321 Clouds 24 1016 55 10000 3.13 186 14:56 06.06.2022
3322 Clouds 23 1017 60 10000 1.79 225 13:31 06.06.2022
3323 Clouds 22 1016 63 10000 0.89 224 12:39 06.06.2022
3324 Clouds 22 1016 63 10000 2.24 247 12:20 06.06.2022
3325 Clouds 21 1017 65 10000 3.13 229 11:42 06.06.2022
3326 Clouds 20 1017 72 10000 2.24 174 09:43 06.06.2022
3327 Clouds 18 1017 80 10000 0.45 204 08:35 06.06.2022
3328 Clouds 17 1017 83 10000 0.45 203 07:41 06.06.2022
3329 Clouds 15 1016 88 10000 1.97 174 05:48 06.06.2022
3330 Clear 15 1016 89 10000 0.89 181 04:28 06.06.2022
3331 Clear 16 1017 87 10000 2.23 170 01:30 06.06.2022
3332 Clear 16 1017 86 10000 2.34 173 00:47 06.06.2022
3333 Clear 16 1017 86 10000 2.78 173 00:28 06.06.2022
3334 Clear 17 1016 84 10000 3.28 183 22:58 05.06.2022
3335 Clear 17 1015 85 10000 3.48 184 21:56 05.06.2022
3336 Clouds 20 1015 77 9528 0.45 230 20:23 05.06.2022
3337 Clouds 21 1016 75 9571 0.45 126 18:51 05.06.2022
3338 Clouds 21 1015 76 9615 0.45 82 17:59 05.06.2022
3339 Clouds 21 1015 76 9615 3.67 240 17:38 05.06.2022
3340 Rain 22 1015 69 10000 1.79 203 17:19 05.06.2022
3341 Clouds 24 1013 60 10000 1.79 167 16:47 05.06.2022
3342 Clouds 24 1015 84 10000 3.91 214 15:22 05.06.2022
3343 Clouds 22 1015 88 10000 4.12 218 14:18 05.06.2022
3344 Clouds 24 1012 73 10000 1.79 299 11:58 05.06.2022
3345 Clouds 21 1013 84 10000 1.34 213 10:45 05.06.2022
3346 Clouds 21 1013 85 10000 2.24 199 10:24 05.06.2022
3347 Clouds 21 1012 89 10000 3.56 224 09:33 05.06.2022
3348 Clouds 19 1013 93 10000 1.18 198 08:23 05.06.2022
3349 Clouds 18 1013 90 10000 1.5 221 06:23 05.06.2022
3350 Clouds 19 1014 85 10000 0.89 178 05:19 05.06.2022
3351 Clouds 19 1012 81 10000 1.81 141 02:47 05.06.2022
3352 Clouds 20 1017 94 10000 2.54 144 01:24 05.06.2022
3353 Clouds 21 1016 94 10000 1.68 144 23:36 04.06.2022
3354 Clouds 22 1019 97 1587 5.8 218 21:30 04.06.2022
3355 Clouds 26 1016 76 10000 2.09 30 19:36 04.06.2022
3356 Clear 28 1015 49 10000 0.45 190 17:28 04.06.2022
3357 Clear 28 1016 50 10000 1.34 360 16:22 04.06.2022
3358 Clear 28 1016 50 10000 2.24 331 15:51 04.06.2022
3359 Clouds 26 1016 60 10000 0.89 338 14:22 04.06.2022
3360 Clouds 22 1016 78 10000 1.34 341 11:45 04.06.2022
3361 Clouds 22 1016 76 10000 1.78 297 10:55 04.06.2022
3362 Clouds 21 1015 83 10000 1.22 228 10:19 04.06.2022
3363 Clouds 19 1016 89 10000 1.19 227 09:39 04.06.2022
3364 Clouds 18 1016 93 10000 1.79 194 08:39 04.06.2022
3365 Rain 17 1015 90 10000 0.89 38 07:27 04.06.2022
3366 Rain 18 1013 88 10000 0.45 50 04:33 04.06.2022
3367 Rain 18 1013 88 10000 0.45 50 04:33 04.06.2022
3368 Rain 18 1013 88 10000 0.45 50 04:33 04.06.2022
3369 Clouds 18 1014 84 10000 1.69 107 00:37 04.06.2022
3370 Clouds 18 1013 82 10000 2.63 122 23:31 03.06.2022
3371 Clouds 18 1012 86 10000 1.66 144 22:28 03.06.2022
3372 Clouds 21 1016 87 10000 1.66 146 20:42 03.06.2022
3373 Clouds 21 1016 87 10000 1.66 146 20:42 03.06.2022
3374 Clouds 23 1012 67 10000 1.79 336 20:18 03.06.2022
3375 Clouds 27 1012 54 10000 0.89 118 17:32 03.06.2022
3376 Clouds 26 1013 61 10000 0.45 357 16:37 03.06.2022
3377 Clouds 23 1014 69 10000 0.73 203 14:53 03.06.2022
3378 Clouds 24 1014 65 10000 2.03 336 12:52 03.06.2022
3379 Clouds 21 1014 73 10000 0.45 315 10:36 03.06.2022
3380 Clouds 19 1013 78 10000 1.42 320 09:37 03.06.2022
3381 Clouds 18 1015 82 10000 0.99 3 08:32 03.06.2022
3382 Clouds 16 1015 90 10000 0.99 132 07:26 03.06.2022
3383 Clouds 14 1015 89 10000 0.99 132 06:31 03.06.2022
3384 Clouds 14 1014 91 10000 1.6 116 05:19 03.06.2022
3385 Clouds 16 1016 87 10000 1.81 113 00:25 03.06.2022
3386 Clouds 18 1016 83 10000 1.89 114 22:41 02.06.2022
3387 Clouds 19 1017 76 10000 1.49 121 21:38 02.06.2022
3388 Clouds 22 1016 69 10000 1.35 334 20:22 02.06.2022
3389 Clouds 22 1016 66 10000 0.89 338 19:46 02.06.2022
3390 Clouds 22 1015 65 10000 0.89 338 19:28 02.06.2022
3391 Clouds 22 1016 72 10000 1.34 338 17:32 02.06.2022
3392 Clouds 21 1017 79 10000 1.51 5 16:27 02.06.2022
3393 Rain 21 1017 55 10000 0.45 258 14:20 02.06.2022
3394 Rain 22 1017 58 10000 2.68 360 13:29 02.06.2022
3395 Clouds 20 1017 57 10000 2.24 360 11:36 02.06.2022
3396 Clouds 18 1017 63 10000 3.13 260 10:20 02.06.2022
3397 Clouds 16 1017 69 10000 1.79 257 09:28 02.06.2022
3398 Clouds 14 1016 74 10000 0.88 357 08:27 02.06.2022
3399 Clouds 13 1016 78 10000 0.88 357 07:33 02.06.2022
3400 Clouds 12 1015 91 10000 1.28 71 04:54 02.06.2022
3401 Clouds 13 1015 88 10000 1.45 84 02:48 02.06.2022
3402 Clouds 14 1014 81 10000 1.37 74 23:52 01.06.2022
3403 Clouds 16 1014 76 10000 0.68 103 22:51 01.06.2022
3404 Clouds 17 1013 69 10000 1.19 152 21:39 01.06.2022
3405 Clouds 18 1013 66 10000 1.58 182 21:19 01.06.2022
3406 Clouds 21 1017 76 10000 1.58 182 20:37 01.06.2022
3407 Clouds 22 1016 78 10000 2.68 175 19:31 01.06.2022
3408 Clouds 22 1016 77 10000 3.84 170 17:46 01.06.2022
3409 Clouds 21 1016 45 10000 4.58 172 16:41 01.06.2022
3410 Clouds 21 1014 46 10000 1.79 225 15:37 01.06.2022
3411 Clouds 20 1015 55 10000 1.34 203 13:57 01.06.2022
3412 Clouds 21 1014 50 10000 2.5 260 12:29 01.06.2022
3413 Clouds 20 1014 58 10000 0.89 201 10:37 01.06.2022
3414 Clouds 19 1013 65 10000 1.34 182 09:25 01.06.2022
3415 Clouds 13 1013 83 10000 0.34 195 07:25 01.06.2022
3416 Clouds 13 1013 83 10000 0.34 195 06:41 01.06.2022
3417 Clouds 12 1013 88 10000 1.75 155 01:30 01.06.2022
3418 Clouds 13 1013 81 10000 1.98 147 23:41 31.05.2022
3419 Clouds 14 1012 84 10000 1.88 138 22:37 31.05.2022
3420 Clouds 15 1012 71 10000 1.84 138 21:46 31.05.2022
3421 Clouds 15 1012 71 10000 1.84 138 21:46 31.05.2022
3422 Rain 20 1014 80 10000 1.56 127 20:57 31.05.2022
3423 Clouds 21 1014 80 10000 1.56 127 20:33 31.05.2022
3424 Clouds 22 1013 39 10000 4.97 259 18:57 31.05.2022
3425 Clouds 22 1010 42 10000 2.24 181 17:51 31.05.2022
3426 Clouds 22 1010 38 10000 2.24 268 17:31 31.05.2022
3427 Clouds 23 1010 39 10000 3.13 175 15:42 31.05.2022
3428 Clouds 23 1010 40 10000 2.68 170 14:36 31.05.2022
3429 Clouds 22 1010 42 10000 0.89 148 12:39 31.05.2022
3430 Clouds 21 1010 42 10000 1.79 230 12:18 31.05.2022
3431 Clouds 16 1010 55 10000 0.89 250 09:50 31.05.2022
3432 Clouds 11 1011 69 10000 0.9 228 07:42 31.05.2022
3433 Clouds 9 1010 74 10000 1.2 152 05:25 31.05.2022
3434 Clouds 10 1011 68 10000 1.34 137 03:41 31.05.2022
3435 Clouds 10 1009 62 10000 2.04 122 23:39 30.05.2022
3436 Clouds 11 1010 60 10000 2.22 113 23:18 30.05.2022
3437 Clouds 11 1010 61 10000 2.22 113 22:32 30.05.2022
3438 Clouds 12 1008 62 10000 2.1 105 21:37 30.05.2022
3439 Clear 18 1012 64 10000 2.16 73 20:43 30.05.2022
3440 Clear 20 1011 31 10000 2.1 33 19:40 30.05.2022
3441 Clear 20 1008 32 10000 1.34 249 17:48 30.05.2022
3442 Clear 20 1008 32 10000 0.45 219 17:20 30.05.2022
3443 Clear 20 1009 32 10000 0.45 61 15:51 30.05.2022
3444 Clear 19 1009 38 10000 0.89 257 13:26 30.05.2022
3445 Clear 17 1009 44 10000 1.34 216 11:40 30.05.2022
3446 Clear 13 1010 63 10000 2.24 269 09:45 30.05.2022
3447 Clouds 9 1009 76 10000 0.67 357 07:51 30.05.2022
3448 Clouds 6 1008 81 10000 1.13 83 06:22 30.05.2022
3449 Clouds 7 1008 79 10000 1.31 101 04:46 30.05.2022
3450 Clouds 10 1008 69 10000 2.01 111 00:18 30.05.2022
3451 Clouds 11 1012 69 10000 2.2 112 22:40 29.05.2022
3452 Clouds 13 1012 63 10000 2.26 103 21:46 29.05.2022
3453 Clouds 15 1009 45 10000 1.34 357 20:23 29.05.2022
3454 Clouds 16 1009 42 10000 3.58 319 19:29 29.05.2022
3455 Clouds 17 1009 46 10000 0.89 229 17:57 29.05.2022
3456 Clouds 17 1010 47 10000 1.34 45 16:22 29.05.2022
3457 Clouds 17 1011 46 10000 1.34 45 15:44 29.05.2022
3458 Clouds 17 1010 45 10000 0.89 113 14:54 29.05.2022
3459 Clouds 16 1013 51 10000 3.39 358 12:57 29.05.2022
3460 Clouds 15 1012 56 10000 1.34 45 11:20 29.05.2022
3461 Clouds 14 1012 59 10000 0.45 45 10:34 29.05.2022
3462 Clouds 12 1010 69 10000 0.89 325 08:31 29.05.2022
3463 Clouds 9 1011 74 10000 1.49 49 04:58 29.05.2022
3464 Clouds 9 1011 77 10000 1.49 49 04:39 29.05.2022
3465 Clouds 10 1012 70 10000 1.67 91 01:52 29.05.2022
3466 Clouds 11 1013 76 10000 1.94 89 23:48 28.05.2022
3467 Clouds 11 1013 75 10000 2.1 78 23:20 28.05.2022
3468 Clouds 12 1013 70 10000 2.17 69 22:19 28.05.2022
3469 Clouds 14 1013 55 10000 2.64 53 21:19 28.05.2022
3470 Clouds 14 1013 55 10000 2.64 53 21:19 28.05.2022
3471 Clouds 18 1014 43 10000 1.34 45 19:21 28.05.2022
3472 Clouds 18 1015 39 10000 0.89 155 18:40 28.05.2022
3473 Clouds 19 1015 41 10000 0.45 168 17:34 28.05.2022
3474 Clouds 19 1016 39 10000 0.89 45 16:22 28.05.2022
3475 Clouds 19 1016 44 10000 1.34 250 15:38 28.05.2022
3476 Clouds 18 1018 43 10000 1.34 45 13:42 28.05.2022
3477 Clouds 18 1018 46 10000 3.58 290 12:43 28.05.2022
3478 Clouds 17 1019 48 10000 2.24 242 11:54 28.05.2022
3479 Clouds 16 1019 56 10000 1.34 352 10:43 28.05.2022
3480 Clouds 15 1019 62 10000 1.79 238 09:56 28.05.2022
3481 Clouds 13 1019 75 10000 0.45 45 08:43 28.05.2022
3482 Clouds 12 1019 84 4504 0.45 224 07:23 28.05.2022
3483 Clouds 11 1019 89 10000 1.08 350 05:24 28.05.2022
3484 Clouds 12 1020 84 10000 0.41 205 02:38 28.05.2022
3485 Clouds 13 1021 82 10000 0.78 121 00:31 28.05.2022
3486 Clouds 15 1021 74 10000 0.52 59 22:50 27.05.2022
3487 Clouds 17 1020 69 10000 0.83 47 21:37 27.05.2022
3488 Clouds 17 1020 69 10000 1.86 7 20:48 27.05.2022
3489 Clouds 17 1020 69 10000 2.75 360 20:23 27.05.2022
3490 Clouds 18 1020 67 10000 1.34 2 19:41 27.05.2022
3491 Clouds 18 1020 66 10000 1.79 331 19:21 27.05.2022
3492 Clouds 19 1020 63 10000 0.89 306 17:52 27.05.2022
3493 Clouds 20 1020 60 10000 0.45 213 16:38 27.05.2022
3494 Clouds 22 1022 54 10000 1.79 203 15:22 27.05.2022
3495 Clouds 21 1021 57 10000 0.45 180 13:53 27.05.2022
3496 Clouds 20 1022 63 10000 1.34 203 12:39 27.05.2022
3497 Clouds 19 1022 69 10000 0.89 182 11:33 27.05.2022
3498 Clouds 18 1022 70 10000 2.24 203 10:54 27.05.2022
3499 Clouds 17 1022 72 10000 0.89 180 10:29 27.05.2022
3500 Clouds 17 1022 74 10000 2.24 209 09:34 27.05.2022
3501 Clouds 14 1022 83 10000 1.89 245 07:50 27.05.2022
3502 Clouds 11 1022 87 10000 1.16 188 05:39 27.05.2022
3503 Clear 13 1022 83 10000 1.51 165 02:26 27.05.2022
3504 Clear 14 1022 81 10000 1.26 140 00:26 27.05.2022
3505 Clear 14 1022 78 10000 1.29 128 22:35 26.05.2022
3506 Clear 15 1021 77 10000 1.17 105 21:39 26.05.2022
3507 Clear 19 1024 61 10000 0.75 76 20:30 26.05.2022
3508 Clouds 21 1021 56 10000 1.65 355 19:19 26.05.2022
3509 Clouds 21 1022 54 10000 0.45 203 17:51 26.05.2022
3510 Clouds 21 1023 53 10000 0.89 229 16:42 26.05.2022
3511 Clouds 21 1023 54 10000 2.68 173 15:45 26.05.2022
3512 Clouds 20 1023 54 10000 2.24 244 14:28 26.05.2022
3513 Clouds 20 1023 55 10000 0.89 230 12:37 26.05.2022
3514 Clouds 19 1023 55 10000 0.89 238 11:23 26.05.2022
3515 Clouds 18 1022 61 10000 1.34 128 09:44 26.05.2022
3516 Clouds 17 1022 62 10000 0.45 236 09:26 26.05.2022
3517 Clouds 16 1022 71 10000 2.5 231 08:30 26.05.2022
3518 Clouds 11 1020 81 10000 1.95 175 04:41 26.05.2022
3519 Clouds 13 1019 75 10000 1.37 176 00:48 26.05.2022
3520 Clouds 14 1019 71 10000 0.9 92 23:40 25.05.2022
3521 Clouds 15 1021 77 10000 1.21 10 21:59 25.05.2022
3522 Clouds 18 1021 77 10000 1.21 10 21:32 25.05.2022
3523 Clouds 20 1020 72 10000 1.03 313 20:37 25.05.2022
3524 Clouds 21 1016 44 10000 1.35 296 19:29 25.05.2022
3525 Clear 23 1016 41 10000 0.89 360 17:43 25.05.2022
3526 Clear 22 1014 44 10000 1.79 251 16:38 25.05.2022
3527 Clear 23 1016 44 10000 0.89 203 15:54 25.05.2022
3528 Clear 22 1016 45 10000 2.68 360 14:54 25.05.2022
3529 Clear 22 1016 45 10000 0.89 220 14:33 25.05.2022
3530 Clouds 21 1016 47 10000 0.89 258 13:54 25.05.2022
3531 Clouds 20 1016 49 10000 1.79 149 12:39 25.05.2022
3532 Clear 19 1016 56 10000 1.34 240 10:54 25.05.2022
3533 Clear 18 1016 59 10000 1.79 242 10:18 25.05.2022
3534 Clear 15 1015 73 10000 1.36 295 08:41 25.05.2022
3535 Clouds 12 1015 85 10000 0.79 163 07:23 25.05.2022
3536 Clouds 12 1012 83 10000 0.92 136 04:23 25.05.2022
3537 Clouds 13 1012 77 10000 1.85 146 00:23 25.05.2022
3538 Clouds 13 1010 78 10000 1.85 146 23:47 24.05.2022
3539 Clouds 15 1014 64 10000 1.58 141 22:39 24.05.2022
3540 Clouds 16 1010 64 10000 1.31 118 21:43 24.05.2022
3541 Clouds 17 1009 61 10000 0.94 198 21:21 24.05.2022
3542 Clouds 17 1012 66 10000 0.94 198 20:30 24.05.2022
3543 Clouds 19 1009 52 10000 2.24 360 18:57 24.05.2022
3544 Clouds 20 1008 46 10000 3.13 190 16:58 24.05.2022
3545 Clouds 21 1008 46 10000 3.58 180 16:28 24.05.2022
3546 Clouds 20 1008 47 10000 2.68 198 15:20 24.05.2022
3547 Clouds 20 1008 48 10000 2.68 182 14:36 24.05.2022
3548 Clouds 18 1010 54 10000 1.34 203 13:34 24.05.2022
3549 Clouds 18 1008 61 10000 1.79 144 12:18 24.05.2022
3550 Clouds 14 1008 81 10000 1.79 214 09:50 24.05.2022
3551 Rain 14 1008 80 10000 1.34 199 08:51 24.05.2022
3552 Rain 16 1006 77 10000 1.79 360 07:32 24.05.2022
3553 Clouds 16 1005 75 10000 1.79 203 06:27 24.05.2022
3554 Clouds 16 1007 94 10000 2.91 182 02:58 24.05.2022
3555 Clouds 18 1007 95 10000 3.23 192 01:44 24.05.2022
3556 Clouds 18 1005 78 10000 2.68 174 00:21 24.05.2022
3557 Clouds 18 1007 95 10000 3.42 204 22:24 23.05.2022
3558 Clouds 19 1007 70 10000 3.42 204 21:45 23.05.2022
3559 Clouds 20 1006 94 10000 4.62 215 20:46 23.05.2022
3560 Clouds 20 1005 68 10000 4.49 209 19:51 23.05.2022
3561 Clouds 21 1003 65 10000 4.02 201 19:22 23.05.2022
3562 Rain 21 1002 65 10000 1.79 203 18:40 23.05.2022
3563 Clouds 23 1002 58 6963 2.24 203 17:56 23.05.2022
3564 Clouds 24 1002 61 5378 1.79 186 16:28 23.05.2022
3565 Clouds 23 1003 74 10000 0.45 242 14:18 23.05.2022
3566 Rain 18 1006 84 10000 2.24 203 11:52 23.05.2022
3567 Rain 20 1003 69 10000 1.34 238 10:49 23.05.2022
3568 Rain 20 1003 68 10000 1.83 327 09:48 23.05.2022
3569 Clouds 18 1004 77 10000 1.34 188 08:46 23.05.2022
3570 Clouds 18 1004 77 10000 1.34 188 08:46 23.05.2022
3571 Clouds 18 1004 76 10000 0.88 315 07:31 23.05.2022
3572 Clouds 17 1005 79 10000 0.45 69 06:40 23.05.2022
3573 Clouds 15 1005 83 10000 1.44 207 03:41 23.05.2022
3574 Clouds 16 1006 79 10000 1.34 136 02:18 23.05.2022
3575 Clouds 16 1007 79 10000 1.34 136 01:32 23.05.2022
3576 Clouds 18 1008 70 10000 2.13 146 23:18 22.05.2022
3577 Clouds 18 1010 71 10000 2.13 146 22:33 22.05.2022
3578 Clouds 18 1008 75 10000 1.69 140 21:53 22.05.2022
3579 Clouds 20 1011 78 10000 1.49 103 20:50 22.05.2022
3580 Clouds 21 1008 62 10000 0.45 360 20:23 22.05.2022
3581 Clouds 23 1011 48 10000 1.21 96 19:42 22.05.2022
3582 Clouds 23 1008 54 10000 2.71 30 18:52 22.05.2022
3583 Clouds 23 1010 52 10000 3.23 341 18:22 22.05.2022
3584 Clouds 24 1010 46 10000 0.89 329 17:26 22.05.2022
3585 Clouds 25 1011 48 10000 0.89 242 15:59 22.05.2022
3586 Clouds 25 1011 48 10000 1.79 232 14:48 22.05.2022
3587 Clouds 23 1012 53 10000 3.16 333 13:27 22.05.2022
3588 Clouds 22 1013 56 10000 1.34 246 12:50 22.05.2022
3589 Clouds 20 1013 62 10000 2.68 360 11:32 22.05.2022
3590 Clouds 18 1014 68 10000 0.89 360 09:42 22.05.2022
3591 Clouds 16 1014 77 10000 0.9 359 08:31 22.05.2022
3592 Clouds 13 1015 83 10000 0.7 92 07:21 22.05.2022
3593 Clouds 12 1016 82 10000 0.74 117 05:31 22.05.2022
3594 Clear 14 1017 79 10000 1.19 114 01:41 22.05.2022
3595 Clear 14 1017 79 10000 1.28 98 00:43 22.05.2022
3596 Clouds 14 1016 81 10000 1.48 90 23:52 21.05.2022
3597 Clouds 17 1020 72 10000 1.79 82 22:28 21.05.2022
3598 Clouds 16 1016 75 10000 1.79 82 21:42 21.05.2022
3599 Clouds 18 1015 63 10000 1.98 55 20:59 21.05.2022
3600 Clouds 21 1015 60 10000 2.13 27 20:22 21.05.2022
3601 Clouds 23 1016 47 10000 2.29 9 19:27 21.05.2022
3602 Clouds 24 1017 42 10000 0.45 238 17:48 21.05.2022
3603 Clouds 24 1019 45 10000 0.45 142 16:43 21.05.2022
3604 Clouds 23 1020 44 10000 1.34 250 14:37 21.05.2022
3605 Clouds 22 1020 46 10000 1.34 360 13:42 21.05.2022
3606 Clouds 22 1021 48 10000 0.89 235 12:50 21.05.2022
3607 Clouds 21 1021 52 10000 0.89 360 12:25 21.05.2022
3608 Clouds 19 1022 56 10000 1.34 247 10:34 21.05.2022
3609 Clouds 18 1022 69 10000 0.45 241 09:44 21.05.2022
3610 Clouds 17 1022 74 10000 0.45 338 08:57 21.05.2022
3611 Clouds 15 1021 81 10000 1.34 315 07:54 21.05.2022
3612 Clouds 16 1021 84 10000 0.77 336 04:29 21.05.2022
3613 Rain 19 1020 85 8527 2.07 308 00:38 21.05.2022
3614 Clouds 19 1021 91 10000 2.42 275 22:59 20.05.2022
3615 Clouds 24 1020 87 10000 2.22 195 22:24 20.05.2022
3616 Clouds 26 1020 87 10000 2.22 195 21:47 20.05.2022
3617 Clouds 28 1019 81 10000 3.44 214 20:57 20.05.2022
3618 Clouds 29 1018 63 10000 3.91 233 20:29 20.05.2022
3619 Clouds 28 1015 43 10000 0.89 269 19:27 20.05.2022
3620 Clouds 28 1013 42 10000 1.34 250 18:47 20.05.2022
3621 Clouds 29 1016 41 10000 2.24 360 17:43 20.05.2022
3622 Clouds 32 1015 40 10000 3.13 275 16:21 20.05.2022
3623 Clouds 32 1017 51 10000 4.62 230 15:53 20.05.2022
3624 Clouds 32 1015 40 10000 0.45 125 14:31 20.05.2022
3625 Clouds 31 1016 42 10000 0.89 236 13:56 20.05.2022
3626 Clouds 29 1019 43 10000 1.34 261 11:45 20.05.2022
3627 Clouds 28 1017 53 10000 2.69 245 10:24 20.05.2022
3628 Clouds 23 1019 68 10000 1.59 230 08:50 20.05.2022
3629 Clouds 19 1018 81 10000 0.45 87 07:25 20.05.2022
3630 Clouds 18 1018 82 10000 1.35 148 06:36 20.05.2022
3631 Clouds 17 1018 82 10000 1.74 145 05:22 20.05.2022
3632 Clouds 18 1019 83 10000 2.26 150 00:54 20.05.2022
3633 Clouds 19 1019 79 10000 2.26 157 23:25 19.05.2022
3634 Clouds 19 1018 76 10000 2.87 152 22:26 19.05.2022
3635 Clouds 19 1018 76 10000 2.87 152 21:49 19.05.2022
3636 Clouds 21 1018 74 10000 3.45 143 21:23 19.05.2022
3637 Clouds 28 1022 84 10000 3.45 143 20:40 19.05.2022
3638 Clouds 29 1021 79 10000 3.04 153 19:54 19.05.2022
3639 Clouds 27 1017 49 10000 0.89 360 18:45 19.05.2022
3640 Clouds 29 1018 43 10000 3.58 172 17:35 19.05.2022
3641 Clouds 29 1019 44 10000 4.02 202 15:33 19.05.2022
3642 Clouds 30 1019 46 10000 0.89 360 14:30 19.05.2022
3643 Clouds 30 1019 46 10000 1.79 360 13:59 19.05.2022
3644 Clouds 28 1020 50 10000 0.45 261 11:52 19.05.2022
3645 Clouds 27 1019 51 10000 1.79 238 10:25 19.05.2022
3646 Clouds 21 1018 70 10000 1.97 196 08:31 19.05.2022
3647 Clouds 18 1019 74 10000 1.67 165 06:57 19.05.2022
3648 Clouds 17 1016 76 10000 2 128 02:59 19.05.2022
3649 Clouds 18 1020 74 10000 2.39 126 00:56 19.05.2022
3650 Clear 20 1021 66 10000 3.05 119 23:21 18.05.2022
3651 Clear 20 1016 64 10000 3.05 119 22:41 18.05.2022
3652 Clear 18 1016 76 10000 3.33 119 21:33 18.05.2022
3653 Clear 22 1015 65 10000 3.05 119 20:55 18.05.2022
3654 Clouds 24 1015 61 10000 1.88 110 20:19 18.05.2022
3655 Clear 28 1019 62 10000 1.29 95 18:47 18.05.2022
3656 Clouds 29 1015 45 10000 0.45 259 17:42 18.05.2022
3657 Clouds 29 1015 47 10000 0.45 153 17:23 18.05.2022
3658 Clouds 29 1016 46 10000 0.45 129 16:52 18.05.2022
3659 Clouds 29 1016 45 10000 0.89 123 15:45 18.05.2022
3660 Clear 29 1016 45 10000 1.34 211 15:20 18.05.2022
3661 Clouds 28 1019 49 10000 1.34 217 13:59 18.05.2022
3662 Clouds 27 1020 56 10000 2.26 334 12:53 18.05.2022
3663 Clouds 25 1020 60 10000 1.79 268 11:48 18.05.2022
3664 Clouds 24 1020 61 10000 1.79 258 11:29 18.05.2022
3665 Clouds 23 1020 62 10000 1.34 258 10:43 18.05.2022
3666 Clouds 17 1020 80 10000 0.68 112 07:59 18.05.2022
3667 Clouds 15 1019 84 10000 1.42 134 06:54 18.05.2022
3668 Clear 15 1018 84 10000 1.97 121 03:40 18.05.2022
3669 Clear 17 1017 82 10000 2.29 131 00:42 18.05.2022
3670 Clouds 17 1017 78 10000 2.31 129 23:33 17.05.2022
3671 Clouds 19 1016 78 10000 1.86 95 21:21 17.05.2022
3672 Clouds 23 1020 86 10000 1.86 95 20:43 17.05.2022
3673 Clouds 26 1019 65 10000 1.51 26 19:31 17.05.2022
3674 Clouds 25 1015 61 10000 1.79 359 18:46 17.05.2022
3675 Clouds 26 1019 54 10000 1.68 358 17:34 17.05.2022
3676 Clouds 26 1016 53 10000 1.26 4 16:57 17.05.2022
3677 Clouds 26 1020 46 10000 0.98 1 15:58 17.05.2022
3678 Clouds 25 1020 54 10000 1.22 324 14:55 17.05.2022
3679 Clouds 25 1019 57 10000 0.89 202 14:28 17.05.2022
3680 Clouds 24 1020 64 10000 2.24 250 12:39 17.05.2022
3681 Clouds 21 1020 69 10000 1.34 248 10:42 17.05.2022
3682 Clouds 17 1020 82 10000 0.52 11 08:51 17.05.2022
3683 Clouds 16 1020 85 10000 0.48 58 07:55 17.05.2022
3684 Clouds 13 1020 87 10000 1.46 128 06:23 17.05.2022
3685 Clear 15 1019 85 10000 1.41 126 01:34 17.05.2022
3686 Clear 16 1019 80 10000 1.39 121 23:46 16.05.2022
3687 Clear 17 1022 84 10000 1.16 123 22:39 16.05.2022
3688 Clear 18 1018 86 10000 0.73 93 21:24 16.05.2022
3689 Clear 19 1017 78 10000 0.73 93 20:43 16.05.2022
3690 Clouds 23 1020 66 10000 1.14 307 18:53 16.05.2022
3691 Clouds 24 1017 65 10000 1.34 227 17:26 16.05.2022
3692 Rain 23 1018 64 10000 1.79 203 15:36 16.05.2022
3693 Clouds 21 1018 73 10000 0.89 203 13:48 16.05.2022
3694 Clouds 20 1020 85 10000 2.1 237 12:44 16.05.2022
3695 Clouds 21 1018 67 10000 4.02 214 10:38 16.05.2022
3696 Clouds 21 1016 63 10000 3.13 164 08:37 16.05.2022
3697 Clouds 16 1013 83 10000 2.54 178 06:30 16.05.2022
3698 Clouds 19 1017 88 10000 2.48 139 01:44 16.05.2022
3699 Clouds 19 1012 72 10000 2.67 144 22:52 15.05.2022
3700 Clouds 19 1012 73 10000 2.75 130 22:25 15.05.2022
3701 Clouds 20 1012 72 10000 2.75 130 21:38 15.05.2022
3702 Clouds 21 1011 72 10000 1.99 128 20:53 15.05.2022
3703 Clouds 27 1011 53 10000 1.29 54 18:53 15.05.2022
3704 Clouds 28 1011 54 10000 0.45 248 17:45 15.05.2022
3705 Clouds 27 1013 48 10000 1.79 231 15:26 15.05.2022
3706 Clouds 25 1015 51 10000 1.79 261 13:49 15.05.2022
3707 Clouds 23 1016 54 10000 1.79 265 12:22 15.05.2022
3708 Clouds 22 1016 55 10000 2.68 262 11:38 15.05.2022
3709 Clouds 22 1016 55 10000 2.68 262 11:38 15.05.2022
3710 Clouds 20 1016 60 10000 2.68 236 10:20 15.05.2022
3711 Clouds 14 1017 79 10000 0.22 43 07:36 15.05.2022
3712 Clouds 13 1017 81 10000 1.28 121 06:57 15.05.2022
3713 Clouds 12 1017 82 10000 1.15 130 04:44 15.05.2022
3714 Clouds 14 1016 76 10000 1.7 115 00:48 15.05.2022
3715 Clouds 14 1016 74 10000 1.73 110 23:38 14.05.2022
3716 Clouds 15 1016 71 10000 1.86 104 22:45 14.05.2022
3717 Clouds 17 1017 62 10000 1.77 79 21:27 14.05.2022
3718 Clouds 18 1016 69 10000 1.77 79 20:32 14.05.2022
3719 Clouds 22 1016 50 10000 1.66 349 19:21 14.05.2022
3720 Clouds 22 1016 50 10000 1.66 349 19:21 14.05.2022
3721 Clouds 23 1016 49 10000 1.66 349 18:59 14.05.2022
3722 Clouds 24 1016 50 10000 1.34 360 17:54 14.05.2022
3723 Clouds 24 1018 50 10000 1.79 252 16:32 14.05.2022
3724 Clouds 24 1019 55 10000 2.24 233 14:56 14.05.2022
3725 Clear 23 1019 55 10000 1.34 360 14:30 14.05.2022
3726 Clouds 21 1020 61 10000 1.79 223 12:23 14.05.2022
3727 Clear 19 1020 62 10000 0.45 327 10:53 14.05.2022
3728 Clear 18 1020 69 10000 2.24 245 10:20 14.05.2022
3729 Clear 17 1020 76 10000 1.99 325 09:51 14.05.2022
3730 Clouds 14 1020 90 10000 0.76 2 08:22 14.05.2022
3731 Clouds 11 1019 93 10000 0.72 73 05:43 14.05.2022
3732 Clouds 14 1019 91 10000 1.15 67 01:58 14.05.2022
3733 Clouds 15 1019 89 10000 1.78 72 23:32 13.05.2022
3734 Clouds 16 1022 85 10000 2.13 68 22:57 13.05.2022
3735 Clouds 16 1018 89 10000 2.39 59 22:23 13.05.2022
3736 Clouds 17 1018 86 10000 2.39 59 21:38 13.05.2022
3737 Clouds 18 1022 83 10000 2.44 40 20:44 13.05.2022
3738 Clouds 19 1019 76 10000 2.31 13 20:24 13.05.2022
3739 Clouds 21 1019 69 10000 1.75 2 19:25 13.05.2022
3740 Clouds 22 1019 68 10000 0.89 223 17:50 13.05.2022
3741 Clouds 22 1019 68 10000 0.89 223 17:50 13.05.2022
3742 Clouds 22 1019 67 10000 1.05 334 17:27 13.05.2022
3743 Clouds 21 1019 66 10000 0.89 360 16:18 13.05.2022
3744 Clouds 20 1020 71 10000 0.89 360 15:20 13.05.2022
3745 Clouds 18 1020 85 10000 2.15 324 13:29 13.05.2022
3746 Clouds 17 1020 88 10000 1.96 308 12:25 13.05.2022
3747 Clouds 16 1020 91 10000 0.89 236 10:53 13.05.2022
3748 Rain 17 1019 93 10000 0.45 203 09:34 13.05.2022
3749 Rain 17 1019 90 10000 1.79 209 08:24 13.05.2022
3750 Clouds 17 1018 89 10000 1.79 203 07:48 13.05.2022
3751 Clouds 17 1018 88 10000 1.34 203 06:33 13.05.2022
3752 Clouds 17 1018 88 10000 0.89 225 02:48 13.05.2022
3753 Rain 17 1019 87 3558 1.34 203 00:24 13.05.2022
3754 Rain 18 1018 87 10000 0.89 203 22:45 12.05.2022
3755 Rain 18 1018 86 10000 0.89 203 21:56 12.05.2022
3756 Rain 20 1017 81 10000 1.34 203 20:29 12.05.2022
3757 Rain 21 1017 69 10000 1.8 300 18:59 12.05.2022
3758 Clouds 25 1016 50 10000 3.13 194 17:23 12.05.2022
3759 Clouds 25 1019 52 9112 4.02 250 16:18 12.05.2022
3760 Clouds 25 1019 50 10000 0.89 203 14:41 12.05.2022
3761 Clouds 24 1018 51 10000 1.79 210 13:41 12.05.2022
3762 Clouds 21 1019 55 10000 3.58 215 10:46 12.05.2022
3763 Clouds 20 1019 55 10000 2.24 200 09:30 12.05.2022
3764 Clouds 20 1018 55 10000 2.68 216 08:51 12.05.2022
3765 Clouds 20 1020 79 10000 2.87 188 07:40 12.05.2022
3766 Clouds 17 1019 82 10000 2.9 180 06:34 12.05.2022
3767 Clouds 21 1018 75 10000 3.35 192 02:58 12.05.2022
3768 Clouds 15 1013 75 10000 2.79 176 00:36 12.05.2022
3769 Clouds 19 1012 59 10000 2.31 166 22:36 11.05.2022
3770 Clear 20 1012 55 10000 2.61 163 21:52 11.05.2022
3771 Clear 21 1012 47 10000 2.79 155 21:24 11.05.2022
3772 Clouds 27 1011 38 10000 0.45 272 18:58 11.05.2022
3773 Clouds 28 1012 39 10000 2.68 171 16:55 11.05.2022
3774 Clouds 28 1013 43 10000 3.13 165 15:50 11.05.2022
3775 Clouds 28 1014 44 10000 2.24 275 14:39 11.05.2022
3776 Clouds 27 1014 45 10000 1.79 281 14:19 11.05.2022
3777 Clouds 25 1015 46 10000 0.89 245 11:54 11.05.2022
3778 Clouds 25 1015 46 10000 2.24 279 11:23 11.05.2022
3779 Clouds 20 1016 71 10000 2.39 206 08:55 11.05.2022
3780 Clouds 14 1015 80 10000 2.32 159 05:45 11.05.2022
3781 Clouds 15 1016 85 10000 2.23 160 01:28 11.05.2022
3782 Clouds 18 1016 80 10000 2.32 162 22:32 10.05.2022
3783 Clouds 19 1020 76 10000 2.39 158 21:58 10.05.2022
3784 Clouds 22 1019 79 10000 2.78 169 20:59 10.05.2022
3785 Clouds 22 1019 76 10000 2.83 192 20:21 10.05.2022
3786 Clouds 25 1019 42 10000 2.47 202 18:35 10.05.2022
3787 Clouds 25 1015 50 10000 2.48 217 17:37 10.05.2022
3788 Clouds 26 1016 45 10000 1.34 239 15:49 10.05.2022
3789 Clouds 24 1020 55 10000 0.89 233 12:48 10.05.2022
3790 Clouds 22 1020 61 10000 1.34 360 11:53 10.05.2022
3791 Clouds 21 1020 66 10000 2.24 246 11:21 10.05.2022
3792 Clouds 20 1020 69 10000 1.79 234 10:55 10.05.2022
3793 Clouds 17 1020 80 10000 0.86 256 09:27 10.05.2022
3794 Clouds 14 1021 85 10000 0.67 167 07:47 10.05.2022
3795 Clouds 12 1019 88 10000 1.82 132 05:43 10.05.2022
3796 Clear 14 1020 85 10000 1.88 135 01:37 10.05.2022
3797 Clouds 15 1020 82 10000 2.23 134 23:42 09.05.2022
3798 Clouds 15 1020 82 10000 2.23 134 23:42 09.05.2022
3799 Clouds 16 1020 78 10000 2.54 126 22:30 09.05.2022
3800 Clouds 17 1023 84 10000 2.97 121 21:36 09.05.2022
3801 Clouds 23 1022 72 10000 2.28 97 19:52 09.05.2022
3802 Clouds 23 1022 72 10000 2.28 97 19:52 09.05.2022
3803 Clouds 23 1018 49 10000 1.83 77 18:22 09.05.2022
3804 Clouds 24 1022 50 10000 1.7 63 17:25 09.05.2022
3805 Clouds 24 1019 52 10000 0.45 119 15:54 09.05.2022
3806 Clouds 23 1019 56 10000 1.5 15 15:35 09.05.2022
3807 Clouds 23 1021 56 10000 0.89 338 14:33 09.05.2022
3808 Clouds 22 1021 58 10000 0.89 338 13:56 09.05.2022
3809 Clouds 22 1022 59 10000 0.89 22 12:51 09.05.2022
3810 Clear 20 1022 64 10000 0.89 252 11:52 09.05.2022
3811 Clear 19 1022 68 10000 2.24 253 10:47 09.05.2022
3812 Clear 18 1022 70 10000 0.45 283 10:20 09.05.2022
3813 Clear 12 1022 86 10000 0.8 63 07:56 09.05.2022
3814 Clear 10 1021 84 10000 1.68 101 04:35 09.05.2022
3815 Clouds 13 1020 85 10000 2.03 95 00:30 09.05.2022
3816 Clouds 14 1020 84 10000 2.36 100 23:27 08.05.2022
3817 Clouds 15 1020 81 10000 2.4 97 22:29 08.05.2022
3818 Clouds 17 1022 75 10000 2.47 85 20:54 08.05.2022
3819 Clouds 18 1020 60 10000 0.89 36 20:22 08.05.2022
3820 Clouds 18 1020 60 10000 0.89 81 19:32 08.05.2022
3821 Clouds 19 1020 60 10000 1.79 45 18:35 08.05.2022
3822 Clouds 19 1020 59 10000 0.45 111 17:36 08.05.2022
3823 Clouds 19 1020 59 10000 0.45 338 15:46 08.05.2022
3824 Clouds 19 1020 56 10000 3.36 64 15:22 08.05.2022
3825 Clouds 20 1019 57 10000 2.24 19 12:46 08.05.2022
3826 Clouds 18 1020 66 10000 0.89 344 10:59 08.05.2022
3827 Clouds 17 1020 71 10000 1.34 313 10:22 08.05.2022
3828 Clouds 16 1020 71 10000 1.34 348 09:51 08.05.2022
3829 Clouds 11 1020 83 10000 0.96 64 07:44 08.05.2022
3830 Clouds 9 1019 89 10000 1.46 99 05:57 08.05.2022
3831 Clouds 11 1019 87 10000 1.6 105 03:22 08.05.2022
3832 Clouds 12 1019 80 10000 1.88 95 00:48 08.05.2022
3833 Clouds 13 1021 76 10000 1.87 101 23:56 07.05.2022
3834 Clouds 13 1022 75 10000 1.87 101 23:32 07.05.2022
3835 Clouds 13 1018 74 10000 2.07 105 22:42 07.05.2022
3836 Clouds 14 1018 72 10000 2.14 98 21:56 07.05.2022
3837 Clouds 15 1018 71 10000 2.29 85 21:21 07.05.2022
3838 Clouds 19 1020 74 10000 2.21 53 20:25 07.05.2022
3839 Clouds 18 1017 57 10000 2.22 53 20:25 07.05.2022
3840 Clouds 20 1017 49 10000 3.12 24 18:49 07.05.2022
3841 Clouds 21 1018 47 10000 2.24 186 16:34 07.05.2022
3842 Clear 21 1019 49 10000 3.58 335 14:53 07.05.2022
3843 Clouds 17 1020 66 10000 1.79 246 11:28 07.05.2022
3844 Clear 14 1021 79 10000 0.45 338 09:44 07.05.2022
3845 Clouds 11 1021 88 10000 1.61 6 08:30 07.05.2022
3846 Clouds 9 1021 92 10000 1.19 100 07:25 07.05.2022
3847 Clouds 8 1021 91 10000 1.19 100 06:42 07.05.2022
3848 Clouds 8 1021 91 10000 1.6 111 04:18 07.05.2022
3849 Clouds 12 1022 86 10000 1.58 113 23:51 06.05.2022
3850 Clouds 13 1022 84 10000 1.7 116 22:40 06.05.2022
3851 Clouds 13 1023 82 10000 1.87 117 21:54 06.05.2022
3852 Clouds 14 1023 80 10000 1.87 117 21:30 06.05.2022
3853 Clouds 16 1020 72 10000 1.32 81 19:48 06.05.2022
3854 Clouds 17 1021 69 10000 1.7 53 19:25 06.05.2022
3855 Clouds 17 1020 68 10000 1.34 333 18:34 06.05.2022
3856 Clouds 17 1021 71 10000 1.93 51 17:37 06.05.2022
3857 Clouds 17 1021 70 10000 4.02 309 15:54 06.05.2022
3858 Clouds 17 1021 71 10000 1.79 344 15:30 06.05.2022
3859 Clouds 16 1021 81 10000 1.34 350 13:50 06.05.2022
3860 Clouds 15 1021 85 10000 1.34 36 12:51 06.05.2022
3861 Clouds 14 1022 90 10000 1.79 360 11:58 06.05.2022
3862 Clouds 13 1021 91 10000 1.34 338 11:27 06.05.2022
3863 Clouds 11 1021 94 10000 3.25 6 09:48 06.05.2022
3864 Clouds 11 1021 95 10000 0.45 338 09:18 06.05.2022
3865 Clouds 11 1021 96 10000 1.99 16 07:55 06.05.2022
3866 Clouds 10 1021 95 4099 1.56 23 06:27 06.05.2022
3867 Rain 11 1021 95 6026 0.89 338 03:44 06.05.2022
3868 Rain 11 1021 95 7442 0.67 1 02:38 06.05.2022
3869 Rain 11 1022 94 10000 0.88 33 23:24 05.05.2022
3870 Rain 11 1021 94 10000 1.06 37 21:51 05.05.2022
3871 Clouds 11 1020 93 10000 0.45 338 20:37 05.05.2022
3872 Rain 12 1020 92 10000 0.45 338 19:20 05.05.2022
3873 Rain 12 1019 91 10000 1.34 360 16:49 05.05.2022
3874 Rain 13 1019 89 10000 2.6 342 15:46 05.05.2022
3875 Rain 12 1019 90 10000 0.45 338 14:34 05.05.2022
3876 Clouds 12 1019 90 3575 0.45 251 13:18 05.05.2022
3877 Clouds 12 1019 91 2904 0.89 238 11:46 05.05.2022
3878 Clouds 12 1019 93 10000 1.34 248 09:47 05.05.2022
3879 Clouds 12 1018 93 10000 0.99 328 09:26 05.05.2022
3880 Rain 11 1017 92 10000 0.22 131 06:49 05.05.2022
3881 Clouds 11 1017 85 10000 1.21 188 02:30 05.05.2022
3882 Clouds 11 1017 84 10000 0.67 64 01:47 05.05.2022
3883 Clouds 12 1017 84 10000 1.32 45 01:19 05.05.2022
3884 Clouds 13 1017 81 10000 0.45 338 23:27 04.05.2022
3885 Clouds 12 1016 80 10000 2.18 18 22:23 04.05.2022
3886 Clouds 13 1016 79 10000 2.18 18 21:46 04.05.2022
3887 Clouds 14 1015 79 8103 1.09 235 21:22 04.05.2022
3888 Clouds 15 1015 77 10000 0.89 211 20:20 04.05.2022
3889 Clouds 16 1015 72 10000 0.45 229 19:51 04.05.2022
3890 Clouds 17 1015 67 10000 0.45 121 18:45 04.05.2022
3891 Rain 17 1014 65 10000 1.68 315 18:20 04.05.2022
3892 Clouds 18 1015 59 10000 1.92 311 17:28 04.05.2022
3893 Rain 19 1014 54 10000 3.58 269 15:38 04.05.2022
3894 Clouds 20 1014 51 10000 0.89 310 14:49 04.05.2022
3895 Clouds 20 1014 54 10000 0.45 267 14:20 04.05.2022
3896 Clouds 19 1014 57 10000 1.34 238 12:58 04.05.2022
3897 Clouds 19 1015 59 10000 1.34 243 12:28 04.05.2022
3898 Clouds 16 1015 67 10000 2.01 262 10:33 04.05.2022
3899 Clouds 13 1015 78 10000 1.82 263 09:38 04.05.2022
3900 Clouds 12 1015 80 10000 1.33 261 08:33 04.05.2022
3901 Clouds 9 1015 86 10000 1.51 149 05:50 04.05.2022
3902 Clouds 9 1015 84 10000 1.63 149 02:49 04.05.2022
3903 Clouds 12 1015 77 10000 1.65 130 23:41 03.05.2022
3904 Clouds 13 1013 76 10000 2.07 122 22:20 03.05.2022
3905 Clouds 13 1013 78 10000 2.07 122 21:36 03.05.2022
3906 Clouds 13 1012 78 10000 2 112 20:53 03.05.2022
3907 Clouds 18 1013 52 10000 1.86 97 19:45 03.05.2022
3908 Clouds 19 1012 49 10000 1.34 351 18:50 03.05.2022
3909 Clouds 19 1012 49 10000 1.34 351 18:50 03.05.2022
3910 Clouds 20 1012 46 10000 0.89 338 18:20 03.05.2022
3911 Clouds 18 1013 52 10000 0.45 45 16:37 03.05.2022
3912 Clouds 19 1013 53 10000 0.89 90 15:32 03.05.2022
3913 Clouds 19 1013 60 10000 0.89 253 12:47 03.05.2022
3914 Clouds 19 1013 62 10000 2.24 360 12:27 03.05.2022
3915 Clouds 17 1013 69 10000 1.79 261 10:57 03.05.2022
3916 Clouds 13 1013 78 10000 0.87 298 09:29 03.05.2022
3917 Clouds 8 1013 87 10000 1.05 119 06:46 03.05.2022
3918 Clouds 8 1013 88 10000 1.14 116 05:58 03.05.2022
3919 Clouds 11 1012 84 10000 1.47 119 00:32 03.05.2022
3920 Clouds 13 1015 76 10000 1.87 110 22:38 02.05.2022
3921 Clouds 13 1015 82 10000 1.91 104 21:52 02.05.2022
3922 Clouds 14 1011 75 10000 1.91 81 20:51 02.05.2022
3923 Clouds 18 1012 52 10000 1.34 319 18:41 02.05.2022
3924 Clouds 19 1012 51 10000 2.68 337 18:21 02.05.2022
3925 Clouds 19 1012 51 10000 2.68 327 17:37 02.05.2022
3926 Clouds 19 1013 54 10000 1.34 318 16:22 02.05.2022
3927 Clouds 19 1013 53 10000 2.24 311 15:31 02.05.2022
3928 Clouds 18 1013 58 10000 0.89 254 13:51 02.05.2022
3929 Clouds 17 1014 64 10000 1.79 360 12:19 02.05.2022
3930 Clouds 14 1015 72 10000 4.02 267 10:51 02.05.2022
3931 Clouds 11 1015 84 10000 1.34 244 09:29 02.05.2022
3932 Clouds 8 1015 87 10000 0.14 69 07:51 02.05.2022
3933 Clouds 7 1016 87 10000 1.54 118 03:53 02.05.2022
3934 Clouds 9 1017 83 10000 1.75 109 00:25 02.05.2022
3935 Clouds 10 1016 83 10000 1.75 109 23:52 01.05.2022
3936 Clouds 11 1018 76 10000 1.73 104 22:33 01.05.2022
3937 Clouds 12 1017 76 10000 1.84 57 21:22 01.05.2022
3938 Clouds 14 1017 66 10000 0.45 338 20:19 01.05.2022
3939 Clouds 16 1017 57 10000 0.89 316 18:59 01.05.2022
3940 Clouds 16 1017 57 10000 2.82 357 18:39 01.05.2022
3941 Clouds 17 1017 57 10000 0.89 338 17:38 01.05.2022
3942 Clouds 17 1017 56 10000 1.79 273 16:24 01.05.2022
3943 Clouds 17 1018 55 10000 0.89 261 15:38 01.05.2022
3944 Clouds 16 1019 60 10000 4.02 273 13:52 01.05.2022
3945 Clouds 13 1020 70 10000 1.79 360 11:41 01.05.2022
3946 Clear 10 1020 85 10000 1.34 241 09:32 01.05.2022
3947 Clear 8 1020 88 10000 1.05 344 08:47 01.05.2022
3948 Clear 5 1020 91 10000 0.93 94 04:31 01.05.2022
3949 Clear 8 1021 87 10000 1.05 81 00:34 01.05.2022
3950 Clear 10 1023 92 10000 1.64 62 21:52 30.04.2022
3951 Clouds 12 1023 72 10000 2.05 26 21:19 30.04.2022
3952 Clouds 13 1022 90 10000 2.94 356 19:47 30.04.2022
3953 Clouds 14 1018 66 10000 3.51 351 18:45 30.04.2022
3954 Clouds 15 1019 67 10000 2.68 332 17:20 30.04.2022
3955 Clouds 15 1020 68 10000 4.02 263 15:50 30.04.2022
3956 Clouds 15 1020 66 9587 4.02 350 14:54 30.04.2022
3957 Clouds 16 1020 66 10000 3.58 360 13:41 30.04.2022
3958 Clouds 15 1021 75 10000 2.24 360 11:34 30.04.2022
3959 Clouds 13 1021 81 10000 1.79 265 10:55 30.04.2022
3960 Clouds 13 1021 81 10000 1.79 258 09:54 30.04.2022
3961 Clouds 10 1020 90 10000 1 337 07:35 30.04.2022
3962 Rain 11 1022 79 10000 0.52 121 03:45 30.04.2022
3963 Clouds 13 1021 72 10000 0.49 169 23:54 29.04.2022
3964 Clouds 13 1022 72 10000 0.28 86 22:36 29.04.2022
3965 Clouds 14 1022 68 10000 0.69 24 21:55 29.04.2022
3966 Clouds 14 1022 64 10000 1.25 53 21:21 29.04.2022
3967 Clouds 17 1021 58 10000 1.45 359 19:52 29.04.2022
3968 Clouds 18 1021 51 10000 1.21 321 18:58 29.04.2022
3969 Clouds 19 1021 49 10000 0.45 332 17:34 29.04.2022
3970 Clouds 19 1021 47 10000 3.58 257 16:30 29.04.2022
3971 Clouds 19 1022 46 10000 2.24 252 14:34 29.04.2022
3972 Clouds 18 1022 51 10000 2.24 360 13:27 29.04.2022
3973 Clouds 17 1023 53 10000 3.13 252 12:33 29.04.2022
3974 Clouds 12 1023 69 10000 1.34 244 09:52 29.04.2022
3975 Clouds 9 1024 76 10000 0.77 113 07:52 29.04.2022
3976 Clouds 8 1024 76 10000 1.51 119 07:25 29.04.2022
3977 Clouds 6 1023 81 10000 1.68 120 06:29 29.04.2022
3978 Clear 9 1024 74 10000 2.33 122 00:52 29.04.2022
3979 Clear 11 1024 69 10000 2.34 115 23:52 28.04.2022
3980 Clear 11 1024 72 10000 2.88 117 23:25 28.04.2022
3981 Clear 12 1027 71 10000 2.95 110 22:19 28.04.2022
3982 Clear 12 1027 78 10000 2.95 110 21:41 28.04.2022
3983 Clear 14 1027 74 10000 3.1 97 20:43 28.04.2022
3984 Clear 18 1025 70 10000 3.17 72 19:49 28.04.2022
3985 Clear 19 1022 44 10000 3.52 60 19:24 28.04.2022
3986 Clear 19 1022 44 10000 3.52 60 19:24 28.04.2022
3987 Clear 19 1024 59 10000 3.52 60 18:51 28.04.2022
3988 Clear 20 1024 49 10000 4.06 58 17:42 28.04.2022
3989 Clear 21 1022 39 10000 1.79 338 16:51 28.04.2022
3990 Clear 21 1023 37 10000 1.79 338 16:20 28.04.2022
3991 Clear 21 1023 37 10000 1.79 338 16:20 28.04.2022
3992 Clear 21 1023 39 10000 1.34 338 15:43 28.04.2022
3993 Clear 21 1023 40 10000 1.79 115 14:58 28.04.2022
3994 Clear 19 1024 47 10000 1.34 31 13:33 28.04.2022
3995 Clear 17 1024 55 10000 0.45 124 12:29 28.04.2022
3996 Clear 14 1024 66 10000 1.34 360 10:59 28.04.2022
3997 Clear 13 1024 68 10000 2.68 277 10:26 28.04.2022
3998 Clear 12 1024 70 10000 1.13 25 09:47 28.04.2022
3999 Clear 7 1023 84 10000 0.94 100 07:41 28.04.2022
4000 Clear 5 1022 88 10000 1.65 111 06:43 28.04.2022
4001 Clear 6 1022 85 10000 1.73 105 05:52 28.04.2022
4002 Clear 7 1022 84 10000 1.75 110 04:43 28.04.2022
4003 Clear 7 1021 81 10000 1.98 113 02:41 28.04.2022
4004 Clear 10 1021 75 10000 2.48 111 23:32 27.04.2022
4005 Clear 10 1020 75 10000 3.06 107 22:20 27.04.2022
4006 Clear 11 1024 85 10000 3.06 107 21:46 27.04.2022
4007 Clear 12 1023 81 10000 3.25 93 20:46 27.04.2022
4008 Clear 15 1022 75 10000 3.37 71 19:57 27.04.2022
4009 Clear 15 1022 75 10000 3.37 71 19:36 27.04.2022
4010 Clear 17 1019 52 10000 1.34 84 18:42 27.04.2022
4011 Clear 17 1019 53 10000 1.34 338 18:21 27.04.2022
4012 Clear 18 1019 51 10000 2.24 269 16:20 27.04.2022
4013 Clouds 15 1020 63 10000 3.13 306 13:21 27.04.2022
4014 Clouds 13 1020 70 10000 1.34 329 11:26 27.04.2022
4015 Clouds 12 1020 72 10000 2.68 336 10:51 27.04.2022
4016 Clear 8 1020 89 10000 0.45 338 08:31 27.04.2022
4017 Clouds 5 1020 93 10000 1.44 100 06:44 27.04.2022
4018 Clouds 8 1019 89 10000 1.63 57 02:40 27.04.2022
4019 Clouds 8 1019 88 10000 1.41 44 01:24 27.04.2022
4020 Clouds 8 1018 88 10000 1.41 44 00:34 27.04.2022
4021 Clouds 9 1018 84 10000 0.9 80 23:24 26.04.2022
4022 Clouds 9 1017 84 10000 0.9 80 22:52 26.04.2022
4023 Clouds 9 1017 84 10000 0.9 80 22:32 26.04.2022
4024 Clouds 10 1017 80 10000 1.71 46 21:25 26.04.2022
4025 Clouds 11 1016 78 10000 1.71 46 20:39 26.04.2022
4026 Clouds 12 1016 72 10000 2.18 358 19:48 26.04.2022
4027 Clouds 12 1016 70 10000 2.24 307 19:26 26.04.2022
4028 Clouds 13 1016 69 10000 2.24 307 18:40 26.04.2022
4029 Clouds 13 1015 69 10000 0.45 357 17:42 26.04.2022
4030 Clouds 15 1015 61 10000 3.13 360 16:19 26.04.2022
4031 Clouds 13 1015 72 10000 0.89 119 13:58 26.04.2022
4032 Rain 12 1015 80 10000 0.45 43 13:29 26.04.2022
4033 Clouds 12 1014 72 10000 2.68 360 11:32 26.04.2022
4034 Clouds 11 1013 85 10000 0.45 196 10:31 26.04.2022
4035 Rain 9 1012 93 10000 0.45 248 08:47 26.04.2022
4036 Clouds 8 1011 95 10000 1.7 154 05:46 26.04.2022
4037 Rain 9 1011 94 9147 1 131 04:23 26.04.2022
4038 Rain 9 1012 93 2610 0.45 248 00:53 26.04.2022
4039 Rain 9 1011 93 3056 0.39 252 23:52 25.04.2022
4040 Rain 10 1011 92 8962 1.52 162 22:19 25.04.2022
4041 Clouds 10 1011 92 8920 1.52 162 21:33 25.04.2022
4042 Rain 10 1011 91 10000 1.25 156 20:34 25.04.2022
4043 Rain 10 1011 91 7366 2.32 229 18:54 25.04.2022
4044 Rain 11 1010 87 7259 2.4 233 17:41 25.04.2022
4045 Rain 15 1009 70 9213 0.89 187 16:51 25.04.2022
4046 Rain 15 1010 64 10000 1.36 176 15:23 25.04.2022
4047 Clouds 15 1009 76 10000 0.45 250 14:34 25.04.2022
4048 Clouds 12 1009 89 5689 1.93 278 13:29 25.04.2022
4049 Rain 10 1009 92 10000 0.45 19 11:37 25.04.2022
4050 Clouds 12 1007 90 10000 2.31 212 09:55 25.04.2022
4051 Clouds 9 1007 95 9888 1.38 231 08:33 25.04.2022
4052 Clouds 8 1006 94 3598 1.2 187 06:27 25.04.2022
4053 Clouds 9 1006 94 4277 1.26 239 02:20 25.04.2022
4054 Clouds 9 1005 94 1590 2.09 261 00:33 25.04.2022
4055 Clouds 9 1005 94 3752 1.67 229 23:51 24.04.2022
4056 Clouds 9 1005 94 10000 0.45 203 22:41 24.04.2022
4057 Rain 9 1005 93 8438 1.79 222 21:58 24.04.2022
4058 Rain 9 1004 93 1857 0.89 204 21:24 24.04.2022
4059 Clouds 9 1004 92 1857 0.89 218 20:48 24.04.2022
4060 Clouds 9 1003 92 3641 2.24 242 20:21 24.04.2022
4061 Clouds 9 1003 90 3049 1.79 182 19:19 24.04.2022
4062 Clouds 10 1002 89 6015 1.79 203 18:20 24.04.2022
4063 Clouds 10 1002 89 10000 2.68 198 17:27 24.04.2022
4064 Rain 10 1002 90 10000 1.34 203 16:58 24.04.2022
4065 Rain 10 1002 89 10000 3.13 202 16:30 24.04.2022
4066 Rain 10 1001 88 10000 2.24 246 15:53 24.04.2022
4067 Rain 10 1001 87 10000 2.68 175 14:57 24.04.2022
4068 Rain 10 1000 84 10000 2.24 203 13:51 24.04.2022
4069 Clouds 10 1000 82 10000 2.68 223 13:24 24.04.2022
4070 Clouds 10 1000 82 10000 1.34 227 11:56 24.04.2022
4071 Clouds 10 999 79 10000 3.13 211 11:27 24.04.2022
4072 Rain 10 999 87 10000 1.79 225 09:55 24.04.2022
4073 Rain 9 998 90 10000 1.34 203 08:51 24.04.2022
4074 Rain 8 998 90 6127 0.89 203 06:18 24.04.2022
4075 Clouds 9 996 82 4066 3.58 138 03:37 24.04.2022
4076 Clouds 11 994 81 10000 2.46 201 01:37 24.04.2022
4077 Clouds 11 995 82 10000 1.74 77 23:57 23.04.2022
4078 Clouds 11 995 82 10000 2.23 86 23:26 23.04.2022
4079 Clouds 11 995 80 10000 2.23 86 22:55 23.04.2022
4080 Clouds 13 996 72 10000 2.55 91 21:51 23.04.2022
4081 Clouds 13 996 71 10000 2.55 91 21:32 23.04.2022
4082 Clouds 14 996 67 10000 0.45 15 20:33 23.04.2022
4083 Clouds 16 996 65 10000 1.34 338 19:46 23.04.2022
4084 Clouds 16 996 65 10000 0.45 13 19:19 23.04.2022
4085 Clouds 16 997 65 10000 1.34 338 18:46 23.04.2022
4086 Clouds 16 997 67 10000 1.34 338 17:48 23.04.2022
4087 Clouds 16 998 67 10000 0.89 234 16:50 23.04.2022
4088 Clouds 15 998 68 10000 0.89 338 16:23 23.04.2022
4089 Clouds 14 999 71 10000 0.89 223 14:47 23.04.2022
4090 Clouds 13 1000 74 10000 3.13 257 12:22 23.04.2022
4091 Rain 11 999 80 10000 0.45 360 10:41 23.04.2022
4092 Clouds 10 999 83 10000 0.5 357 08:55 23.04.2022
4093 Clouds 8 998 82 10000 1.32 114 05:47 23.04.2022
4094 Clouds 9 999 79 10000 1.81 118 03:54 23.04.2022
4095 Clouds 10 998 79 10000 2.01 126 00:53 23.04.2022
4096 Clouds 12 998 73 10000 2.29 120 23:29 22.04.2022
4097 Clouds 13 1001 71 10000 2.16 119 22:19 22.04.2022
4098 Clouds 12 998 78 10000 2.16 119 21:41 22.04.2022
4099 Clouds 13 997 77 10000 1.73 105 20:46 22.04.2022
4100 Clouds 15 998 68 10000 0.89 87 20:26 22.04.2022
4101 Clouds 18 998 56 10000 0.66 360 19:18 22.04.2022
4102 Clouds 18 997 54 10000 2.24 360 18:36 22.04.2022
4103 Clouds 19 997 53 10000 3.13 242 17:39 22.04.2022
4104 Clouds 18 998 54 10000 3.13 251 16:33 22.04.2022
4105 Clouds 18 998 53 10000 4.02 244 15:32 22.04.2022
4106 Clouds 18 998 54 10000 2.24 360 14:44 22.04.2022
4107 Clear 17 998 55 10000 3.13 262 13:49 22.04.2022
4108 Clear 16 998 58 10000 0.45 2 12:57 22.04.2022
4109 Clear 14 998 60 10000 2.24 238 11:48 22.04.2022
4110 Clear 13 999 64 10000 2.68 264 11:21 22.04.2022
4111 Clear 12 999 65 10000 1.79 251 10:48 22.04.2022
4112 Clear 11 1000 69 10000 2.68 360 10:29 22.04.2022
4113 Clear 10 1000 72 10000 3.13 229 09:50 22.04.2022
4114 Clear 8 999 77 10000 1.73 4 08:50 22.04.2022
4115 Clouds 5 1000 81 10000 0.89 334 06:58 22.04.2022
4116 Clouds 8 1003 68 10000 1.64 99 02:45 22.04.2022
4117 Clear 9 1005 85 10000 2.04 106 00:51 22.04.2022
4118 Clear 10 1005 82 10000 2.64 94 23:24 21.04.2022
4119 Clear 11 1005 81 10000 2.96 92 22:29 21.04.2022
4120 Clear 14 1005 78 10000 3.28 81 20:37 21.04.2022
4121 Clouds 14 1004 73 10000 3.45 67 20:18 21.04.2022
4122 Clouds 18 1004 47 10000 4.13 58 18:42 21.04.2022
4123 Clouds 18 1003 45 10000 5.81 321 17:57 21.04.2022
4124 Clouds 19 1002 42 10000 5.81 317 16:44 21.04.2022
4125 Clouds 19 1003 41 10000 4.02 24 15:22 21.04.2022
4126 Clouds 18 1003 42 10000 2.68 321 14:49 21.04.2022
4127 Clear 17 1005 45 10000 0.89 338 13:23 21.04.2022
4128 Clear 16 1005 46 10000 1.34 272 12:57 21.04.2022
4129 Clear 12 1007 55 10000 1.34 276 10:57 21.04.2022
4130 Clear 8 1006 65 10000 0.81 22 08:57 21.04.2022
4131 Clouds 5 1007 72 10000 0.45 80 07:32 21.04.2022
4132 Clouds 4 1007 72 10000 1.54 104 05:43 21.04.2022
4133 Clouds 5 1007 70 10000 1.65 111 03:32 21.04.2022
4134 Clouds 7 1008 64 10000 0.89 80 02:47 21.04.2022
4135 Clouds 7 1007 64 10000 0.45 69 00:47 21.04.2022
4136 Clouds 8 1008 62 10000 2.43 113 23:51 20.04.2022
4137 Clouds 9 1008 58 10000 2.77 117 23:22 20.04.2022
4138 Clouds 10 1011 60 10000 2.77 117 22:51 20.04.2022
4139 Clouds 9 1011 64 10000 2.77 117 22:32 20.04.2022
4140 Clouds 12 1011 71 10000 3.25 116 21:33 20.04.2022
4141 Clouds 13 1011 69 10000 2.92 106 20:41 20.04.2022
4142 Clouds 14 1009 65 10000 3.04 72 19:53 20.04.2022
4143 Clouds 17 1007 39 10000 0.45 90 19:22 20.04.2022
4144 Clouds 18 1007 36 10000 0.89 338 18:23 20.04.2022
4145 Clouds 18 1007 37 10000 0.89 338 16:57 20.04.2022
4146 Clouds 18 1007 38 10000 1.79 247 16:38 20.04.2022
4147 Clouds 18 1008 40 10000 1.34 326 14:26 20.04.2022
4148 Clouds 15 1009 47 10000 2.24 256 11:55 20.04.2022
4149 Clouds 14 1009 49 10000 2.24 352 11:29 20.04.2022
4150 Clouds 12 1009 54 10000 0.89 309 10:27 20.04.2022
4151 Clouds 10 1009 63 10000 1.34 81 09:26 20.04.2022
4152 Clouds 8 1009 73 10000 1.19 56 08:24 20.04.2022
4153 Clouds 8 1009 73 10000 1.19 56 08:24 20.04.2022
4154 Clouds 6 1010 76 10000 1.11 58 07:42 20.04.2022
4155 Clouds 8 1009 69 10000 0.45 82 04:37 20.04.2022
4156 Clouds 10 1012 61 10000 2.47 110 00:55 20.04.2022
4157 Clouds 9 1009 70 10000 2.58 106 00:20 20.04.2022
4158 Clouds 11 1012 57 10000 2.5 102 22:40 19.04.2022
4159 Clouds 12 1011 52 10000 2.45 97 22:19 19.04.2022
4160 Clouds 12 1012 75 10000 2.45 97 21:38 19.04.2022
4161 Clouds 13 1008 60 10000 2.47 82 20:56 19.04.2022
4162 Clouds 14 1011 74 10000 2.47 82 20:36 19.04.2022
4163 Clouds 16 1010 73 10000 2.24 49 19:31 19.04.2022
4164 Clouds 19 1008 35 10000 2.68 312 18:18 19.04.2022
4165 Clouds 19 1008 35 10000 2.68 265 16:46 19.04.2022
4166 Clouds 19 1008 35 10000 3.58 236 16:24 19.04.2022
4167 Clouds 19 1009 36 10000 1.34 278 15:23 19.04.2022
4168 Clouds 18 1009 39 10000 2.24 267 14:32 19.04.2022
4169 Clouds 17 1010 45 10000 4.47 256 12:52 19.04.2022
4170 Clouds 16 1010 48 10000 1.34 267 12:29 19.04.2022
4171 Clouds 15 1011 54 10000 1.79 269 11:23 19.04.2022
4172 Clouds 10 1011 64 10000 1.13 316 09:28 19.04.2022
4173 Clear 7 1011 70 10000 0.35 209 07:37 19.04.2022
4174 Clear 7 1012 73 10000 1.46 138 04:24 19.04.2022
4175 Clear 8 1012 72 10000 1.92 128 01:24 19.04.2022
4176 Clear 8 1012 71 10000 2.05 126 23:44 18.04.2022
4177 Clear 9 1012 71 10000 2.02 117 21:57 18.04.2022
4178 Clear 11 1012 69 10000 1.69 106 21:25 18.04.2022
4179 Clear 14 1015 79 10000 1.69 106 20:39 18.04.2022
4180 Clear 15 1014 74 10000 1.01 61 19:59 18.04.2022
4181 Clear 17 1014 74 10000 0.99 57 19:32 18.04.2022
4182 Clear 17 1014 64 10000 2.06 348 18:43 18.04.2022
4183 Clear 19 1012 39 10000 0.89 191 17:40 18.04.2022
4184 Clear 19 1012 37 10000 0.45 338 17:19 18.04.2022
4185 Clear 19 1013 37 10000 2.24 360 16:38 18.04.2022
4186 Clear 18 1013 38 10000 3.58 257 15:30 18.04.2022
4187 Clear 17 1014 39 10000 0.45 267 14:27 18.04.2022
4188 Clear 15 1015 41 10000 2.24 281 12:56 18.04.2022
4189 Clear 14 1015 44 10000 3.13 244 12:24 18.04.2022
4190 Clear 11 1016 47 10000 2.68 254 10:46 18.04.2022
4191 Clear 8 1016 54 10000 2.68 360 09:32 18.04.2022
4192 Clear 6 1016 62 10000 0.3 104 08:46 18.04.2022
4193 Clear 4 1016 65 10000 1.73 123 07:25 18.04.2022
4194 Clear 6 1019 59 10000 2.14 114 02:45 18.04.2022
4195 Clear 9 1022 72 10000 2.79 107 23:23 17.04.2022
4196 Clear 7 1018 63 10000 2.79 107 22:37 17.04.2022
4197 Clear 12 1022 71 10000 3.09 108 21:34 17.04.2022
4198 Clear 12 1021 68 10000 3.22 97 20:52 17.04.2022
4199 Clouds 13 1020 63 10000 3.25 80 20:19 17.04.2022
4200 Clouds 16 1020 53 10000 3.95 68 18:59 17.04.2022
4201 Clouds 16 1020 44 10000 4.66 57 17:34 17.04.2022
4202 Clouds 19 1019 27 10000 4.02 124 15:37 17.04.2022
4203 Clouds 18 1020 28 10000 2.24 105 14:46 17.04.2022
4204 Clear 17 1021 33 10000 3.13 105 13:41 17.04.2022
4205 Clear 15 1022 35 10000 1.79 118 12:52 17.04.2022
4206 Clear 12 1023 42 10000 1.34 92 11:22 17.04.2022
4207 Clear 11 1023 45 10000 1.34 322 10:30 17.04.2022
4208 Clear 10 1023 49 10000 1.34 344 09:57 17.04.2022
4209 Clear 9 1023 50 10000 2.68 335 09:21 17.04.2022
4210 Clear 7 1024 57 10000 1.34 24 08:41 17.04.2022
4211 Clear 5 1024 60 10000 0.89 125 06:52 17.04.2022
4212 Clear 7 1024 60 10000 2.99 83 02:56 17.04.2022
4213 Clear 5 1025 78 10000 2.91 81 00:43 17.04.2022
4214 Clear 8 1028 77 10000 2.82 84 23:48 16.04.2022
4215 Clear 10 1028 74 10000 2.9 89 21:55 16.04.2022
4216 Clear 10 1028 72 10000 3.33 84 21:23 16.04.2022
4217 Clear 14 1027 68 10000 4.28 79 19:33 16.04.2022
4218 Clear 15 1026 61 10000 5.21 70 18:54 16.04.2022
4219 Clear 16 1023 49 10000 3.13 338 17:38 16.04.2022
4220 Clear 17 1024 47 10000 3.13 338 16:31 16.04.2022
4221 Clear 17 1024 47 10000 3.13 338 15:26 16.04.2022
4222 Clear 17 1024 46 10000 2.68 115 14:47 16.04.2022
4223 Clouds 16 1024 51 10000 3.58 338 13:56 16.04.2022
4224 Clouds 16 1024 51 10000 2.24 338 13:25 16.04.2022
4225 Clouds 15 1024 58 10000 2.68 119 11:58 16.04.2022
4226 Clouds 12 1024 68 10000 1.79 24 10:37 16.04.2022
4227 Clouds 11 1024 72 10000 1.79 107 09:41 16.04.2022
4228 Clouds 10 1024 77 10000 1.79 93 08:56 16.04.2022
4229 Clouds 7 1023 87 10000 1.59 55 07:31 16.04.2022
4230 Clouds 7 1023 86 10000 1.59 61 06:22 16.04.2022
4231 Clouds 11 1023 75 10000 1.34 357 01:53 16.04.2022
4232 Clouds 12 1021 71 10000 1.83 88 00:21 16.04.2022
4233 Clouds 13 1021 70 10000 2.07 86 22:54 15.04.2022
4234 Clouds 14 1021 69 10000 2.07 86 22:31 15.04.2022
4235 Clouds 15 1021 70 10000 2.12 74 21:44 15.04.2022
4236 Clouds 16 1024 82 10000 2.35 55 20:56 15.04.2022
4237 Clouds 18 1023 81 10000 2.49 36 19:59 15.04.2022
4238 Clouds 19 1024 81 10000 2.59 39 19:38 15.04.2022
4239 Clouds 19 1023 74 10000 2.6 15 18:46 15.04.2022
4240 Clouds 20 1023 44 10000 2.88 6 18:24 15.04.2022
4241 Clouds 21 1021 46 10000 2.68 266 17:30 15.04.2022
4242 Clouds 21 1021 48 10000 4.02 225 16:26 15.04.2022
4243 Clouds 21 1021 47 10000 0.45 338 15:59 15.04.2022
4244 Clouds 21 1021 52 10000 0.89 338 14:41 15.04.2022
4245 Clouds 20 1021 60 10000 0.89 338 13:33 15.04.2022
4246 Clouds 19 1022 63 10000 3.13 246 12:40 15.04.2022
4247 Clouds 18 1022 69 10000 2.24 244 11:54 15.04.2022
4248 Clouds 16 1022 73 10000 1.79 257 10:53 15.04.2022
4249 Clouds 15 1022 78 10000 2.24 264 10:24 15.04.2022
4250 Clouds 14 1022 80 10000 1.34 354 09:41 15.04.2022
4251 Clouds 14 1022 82 10000 0.45 226 09:19 15.04.2022
4252 Clouds 12 1021 87 10000 0.69 96 07:24 15.04.2022
4253 Clouds 12 1021 85 10000 0.66 108 05:58 15.04.2022
4254 Clouds 13 1020 83 10000 1.06 94 02:34 15.04.2022
4255 Clouds 14 1020 80 10000 1.22 72 23:30 14.04.2022
4256 Clouds 14 1020 80 10000 1.21 73 22:48 14.04.2022
4257 Clouds 15 1020 75 10000 1.36 65 22:29 14.04.2022
4258 Clouds 15 1019 77 10000 1.36 65 21:59 14.04.2022
4259 Clouds 15 1021 94 10000 1.32 42 20:37 14.04.2022
4260 Clouds 19 1019 64 10000 1.34 338 19:23 14.04.2022
4261 Clouds 19 1019 82 10000 2.16 5 18:19 14.04.2022
4262 Clouds 20 1019 60 10000 2.12 4 17:38 14.04.2022
4263 Clouds 17 1019 81 10000 2.7 0 16:36 14.04.2022
4264 Clouds 18 1019 83 10000 2.61 354 14:58 14.04.2022
4265 Clouds 19 1020 90 10000 2.07 358 13:46 14.04.2022
4266 Clouds 19 1020 90 10000 1.77 354 12:56 14.04.2022
4267 Clouds 18 1019 71 10000 0.89 338 12:31 14.04.2022
4268 Clouds 17 1018 74 4177 2.68 264 11:29 14.04.2022
4269 Clouds 17 1018 72 4177 3.13 277 10:52 14.04.2022
4270 Clouds 16 1017 71 3698 1.34 338 10:26 14.04.2022
4271 Clouds 15 1018 76 3099 0.9 326 09:24 14.04.2022
4272 Clouds 12 1018 81 1073 0.51 294 07:27 14.04.2022
4273 Clouds 13 1017 77 4097 0.98 272 03:32 14.04.2022
4274 Clouds 14 1015 73 10000 0.62 105 23:26 13.04.2022
4275 Clouds 15 1014 73 10000 1.36 60 22:23 13.04.2022
4276 Clouds 15 1014 77 10000 1.36 60 21:37 13.04.2022
4277 Clouds 18 1012 69 10000 1.83 24 20:23 13.04.2022
4278 Clouds 22 1015 83 10000 1.71 34 19:37 13.04.2022
4279 Clouds 23 1012 42 10000 1.99 10 18:36 13.04.2022
4280 Clouds 23 1011 41 10000 2.53 356 17:24 13.04.2022
4281 Clouds 23 1011 41 10000 2.24 250 16:37 13.04.2022
4282 Clouds 23 1013 40 10000 2.68 243 15:41 13.04.2022
4283 Clouds 23 1013 40 10000 2.68 360 14:53 13.04.2022
4284 Clouds 22 1013 40 10000 2.68 241 14:30 13.04.2022
4285 Clouds 21 1013 41 10000 2.68 246 13:29 13.04.2022
4286 Clouds 20 1014 45 10000 1.79 251 12:30 13.04.2022
4287 Clouds 19 1014 48 10000 2.24 253 10:58 13.04.2022
4288 Clouds 16 1014 58 10000 1.49 272 09:45 13.04.2022
4289 Clouds 13 1014 68 10000 0.44 238 08:43 13.04.2022
4290 Clouds 12 1013 70 10000 0.82 157 07:18 13.04.2022
4291 Clouds 12 1013 69 10000 0.82 157 06:46 13.04.2022
4292 Clouds 12 1013 69 10000 1.2 114 06:18 13.04.2022
4293 Clouds 15 1011 66 10000 1.15 141 00:25 13.04.2022
4294 Clouds 15 1010 64 10000 1.15 141 23:46 12.04.2022
4295 Clouds 16 1011 58 10000 0.45 63 22:20 12.04.2022
4296 Clouds 16 1011 63 10000 1.75 133 21:39 12.04.2022
4297 Clouds 17 1009 68 10000 1.96 125 20:42 12.04.2022
4298 Clouds 18 1012 52 10000 1.5 122 19:54 12.04.2022
4299 Clouds 20 1012 53 10000 1.27 107 19:35 12.04.2022
4300 Clouds 21 1009 49 10000 0.81 73 18:50 12.04.2022
4301 Clouds 22 1009 43 10000 0.89 360 17:36 12.04.2022
4302 Clouds 22 1009 42 10000 2.24 259 16:34 12.04.2022
4303 Clouds 22 1010 43 10000 2.68 270 15:33 12.04.2022
4304 Clouds 21 1010 44 10000 3.13 360 14:33 12.04.2022
4305 Clouds 19 1010 43 10000 1.79 273 13:40 12.04.2022
4306 Clouds 19 1010 44 10000 2.24 277 13:20 12.04.2022
4307 Clouds 16 1012 50 10000 0.98 305 11:48 12.04.2022
4308 Clouds 16 1011 49 10000 3.13 272 11:28 12.04.2022
4309 Clouds 11 1011 62 10000 0.45 294 09:32 12.04.2022
4310 Clouds 9 1012 73 10000 0.26 172 08:32 12.04.2022
4311 Clouds 7 1011 71 10000 1.45 133 06:33 12.04.2022
4312 Clouds 8 1012 70 10000 1.53 131 05:38 12.04.2022
4313 Clouds 7 1012 72 10000 1.82 129 01:48 12.04.2022
4314 Clouds 10 1012 64 10000 2.09 132 23:20 11.04.2022
4315 Clouds 10 1012 73 10000 2.09 130 21:51 11.04.2022
4316 Clouds 11 1012 73 10000 2 122 21:18 11.04.2022
4317 Clouds 13 1012 66 10000 1.54 106 20:30 11.04.2022
4318 Clouds 14 1011 67 10000 1.49 106 19:58 11.04.2022
4319 Clouds 16 1011 54 10000 0.52 7 19:25 11.04.2022
4320 Clouds 16 1013 68 10000 0.52 7 18:53 11.04.2022
4321 Clouds 18 1010 43 10000 0.89 261 17:58 11.04.2022
4322 Clouds 18 1011 44 10000 0.45 232 17:30 11.04.2022
4323 Clouds 18 1013 47 10000 3.13 275 16:25 11.04.2022
4324 Clouds 16 1014 50 10000 2.68 360 14:42 11.04.2022
4325 Clouds 14 1014 51 10000 2.68 247 13:34 11.04.2022
4326 Clouds 13 1015 54 10000 2.24 272 12:38 11.04.2022
4327 Clouds 11 1016 56 10000 4.02 360 11:54 11.04.2022
4328 Clouds 9 1016 62 10000 1.79 360 10:35 11.04.2022
4329 Clouds 7 1016 69 10000 0.55 296 09:41 11.04.2022
4330 Clouds 3 1017 79 10000 1.19 135 07:54 11.04.2022
4331 Clouds 4 1018 77 10000 1.66 129 03:19 11.04.2022
4332 Clouds 5 1018 70 10000 0.45 96 23:22 10.04.2022
4333 Clouds 6 1019 66 10000 2.31 109 22:26 10.04.2022
4334 Clouds 6 1022 63 10000 2.33 110 21:43 10.04.2022
4335 Clouds 8 1022 56 10000 2.54 99 20:50 10.04.2022
4336 Clouds 7 1021 68 10000 1.97 77 19:54 10.04.2022
4337 Clouds 10 1021 41 10000 1.88 73 19:33 10.04.2022
4338 Clouds 11 1018 44 10000 1.14 10 18:46 10.04.2022
4339 Clouds 12 1019 42 10000 0.45 315 18:20 10.04.2022
4340 Clouds 12 1019 41 10000 0.45 219 17:41 10.04.2022
4341 Clouds 12 1019 41 10000 1.05 307 16:51 10.04.2022
4342 Clouds 12 1020 41 10000 2.24 360 15:38 10.04.2022
4343 Clouds 11 1020 41 10000 3.58 244 14:37 10.04.2022
4344 Clouds 11 1021 46 10000 1.34 265 12:58 10.04.2022
4345 Clouds 9 1021 55 10000 3.13 360 12:26 10.04.2022
4346 Clouds 9 1022 58 10000 0.45 208 11:35 10.04.2022
4347 Clouds 8 1022 67 10000 2.24 360 10:58 10.04.2022
4348 Clouds 7 1021 76 10000 1.75 252 10:22 10.04.2022
4349 Clouds 6 1021 81 10000 1.73 254 09:40 10.04.2022
4350 Clouds 2 1021 90 10000 1.36 158 08:25 10.04.2022
4351 Clouds 1 1020 91 10000 1.41 155 07:47 10.04.2022
4352 Clouds 1 1020 90 10000 1.83 147 06:43 10.04.2022
4353 Clouds 3 1019 89 10000 1.8 171 02:48 10.04.2022
4354 Clouds 4 1019 87 10000 1.75 180 01:29 10.04.2022
4355 Rain 5 1018 84 10000 1.58 178 23:52 09.04.2022
4356 Clouds 5 1016 81 10000 1.4 171 22:52 09.04.2022
4357 Clouds 5 1020 93 10000 1.62 162 21:48 09.04.2022
4358 Clouds 5 1019 94 10000 1.78 158 20:57 09.04.2022
4359 Clouds 7 1015 70 10000 1.75 181 20:26 09.04.2022
4360 Clouds 7 1015 62 10000 1.75 181 19:43 09.04.2022
4361 Clouds 7 1015 64 10000 1.03 302 19:21 09.04.2022
4362 Clouds 9 1014 57 10000 0.89 2 18:22 09.04.2022
4363 Clouds 9 1014 52 10000 0.89 360 17:42 09.04.2022
4364 Clouds 9 1013 52 10000 0.89 237 16:55 09.04.2022
4365 Clouds 9 1013 53 10000 1.79 360 16:28 09.04.2022
4366 Clouds 9 1014 53 10000 0.89 305 15:48 09.04.2022
4367 Clouds 9 1013 57 10000 0.45 336 14:45 09.04.2022
4368 Clouds 8 1013 60 10000 2.68 344 14:24 09.04.2022
4369 Clouds 7 1014 68 10000 0.89 276 13:21 09.04.2022
4370 Clouds 6 1014 72 10000 1.39 331 12:52 09.04.2022
4371 Clouds 6 1014 74 8278 1.39 305 11:44 09.04.2022
4372 Clouds 5 1013 88 1881 1.06 239 10:22 09.04.2022
4373 Clouds 4 1013 90 1804 1.07 241 09:53 09.04.2022
4374 Clouds 3 1012 92 108 1.33 238 08:59 09.04.2022
4375 Clouds 3 1011 93 45 1.7 226 07:49 09.04.2022
4376 Rain 2 1005 92 40 1.34 360 03:22 09.04.2022
4377 Rain 11 995 82 4949 6.26 217 00:32 09.04.2022
4378 Clouds 12 994 82 10000 5.81 266 23:20 08.04.2022
4379 Rain 13 993 72 10000 4.92 203 21:42 08.04.2022
4380 Clouds 13 994 73 10000 3.58 234 20:41 08.04.2022
4381 Rain 13 995 73 10000 5.81 203 19:41 08.04.2022
4382 Clouds 14 997 71 10000 3.58 203 18:42 08.04.2022
4383 Clouds 11 999 91 10000 8.76 223 18:18 08.04.2022
4384 Clouds 13 997 75 10000 6.26 203 17:27 08.04.2022
4385 Rain 13 996 76 10000 7.15 180 16:52 08.04.2022
4386 Clouds 13 997 80 5724 5.81 215 16:26 08.04.2022
4387 Clouds 12 996 80 5995 5.81 254 15:33 08.04.2022
4388 Rain 12 998 82 5859 5.81 148 14:45 08.04.2022
4389 Rain 13 997 81 6364 7.15 217 13:59 08.04.2022
4390 Clouds 13 997 84 6082 6.71 217 13:30 08.04.2022
4391 Rain 12 997 86 6984 5.36 192 12:49 08.04.2022
4392 Rain 9 998 91 7527 1.34 209 11:26 08.04.2022
4393 Rain 9 1001 92 7463 0.89 203 09:57 08.04.2022
4394 Rain 8 1002 91 8720 0.89 203 09:19 08.04.2022
4395 Clouds 8 1003 90 9712 1.34 203 07:44 08.04.2022
4396 Rain 8 1003 88 8060 1.79 203 06:45 08.04.2022
4397 Clouds 10 1003 84 10000 2.68 270 02:53 08.04.2022
4398 Clouds 11 1001 86 7875 4.02 203 00:30 08.04.2022
4399 Clouds 11 1001 86 10000 3.58 246 23:47 07.04.2022
4400 Clouds 11 1000 83 10000 4.92 184 22:54 07.04.2022
4401 Rain 10 1000 84 10000 4.02 150 22:36 07.04.2022
4402 Clouds 10 999 84 4329 3.58 203 22:18 07.04.2022
4403 Rain 11 999 87 3223 3.13 203 21:30 07.04.2022
4404 Rain 12 998 84 3094 4.47 311 20:46 07.04.2022
4405 Rain 13 997 79 10000 5.36 284 20:21 07.04.2022
4406 Clouds 13 996 68 10000 8.05 214 17:43 07.04.2022
4407 Clouds 13 996 70 10000 8.05 156 17:23 07.04.2022
4408 Clouds 13 995 68 10000 7.6 227 16:35 07.04.2022
4409 Clouds 13 996 72 10000 8.94 190 15:52 07.04.2022
4410 Clouds 12 997 75 10000 6.71 203 13:59 07.04.2022
4411 Clouds 12 998 76 10000 7.15 158 13:26 07.04.2022
4412 Clouds 12 998 75 10000 6.71 203 11:54 07.04.2022
4413 Rain 12 999 74 10000 7.15 183 10:56 07.04.2022
4414 Clouds 11 1000 73 10000 7.15 203 09:34 07.04.2022
4415 Clouds 10 1000 78 10000 6.26 124 07:38 07.04.2022
4416 Clouds 10 1001 78 10000 4.92 203 06:18 07.04.2022
4417 Clouds 10 1004 82 10000 5.36 360 02:38 07.04.2022
4418 Clouds 10 1004 85 10000 4.02 227 00:47 07.04.2022
4419 Clouds 11 1003 79 10000 3.58 360 23:39 06.04.2022
4420 Clouds 11 1004 77 10000 3.58 196 22:45 06.04.2022
4421 Clouds 11 1004 77 10000 2.68 183 22:24 06.04.2022
4422 Clouds 11 1004 78 10000 2.68 203 21:18 06.04.2022
4423 Clouds 11 1004 77 10000 3.13 203 20:27 06.04.2022
4424 Clouds 12 1004 77 10000 2.24 209 19:52 06.04.2022
4425 Clouds 12 1004 74 10000 2.68 103 18:50 06.04.2022
4426 Clouds 13 1004 72 10000 2.24 194 17:51 06.04.2022
4427 Clouds 14 1004 70 10000 2.68 192 17:21 06.04.2022
4428 Clouds 14 1004 68 10000 3.58 195 16:34 06.04.2022
4429 Clouds 15 1005 67 10000 4.02 238 15:46 06.04.2022
4430 Clouds 15 1005 70 10000 2.68 175 14:20 06.04.2022
4431 Clouds 13 1006 70 10000 2.68 203 12:58 06.04.2022
4432 Clouds 13 1007 76 10000 4.02 212 11:54 06.04.2022
4433 Clouds 12 1008 78 10000 3.13 203 10:43 06.04.2022
4434 Clouds 11 1008 80 10000 3.13 203 10:19 06.04.2022
4435 Clouds 10 1008 83 10000 2.68 154 09:27 06.04.2022
4436 Clouds 10 1008 84 10000 2.68 232 08:30 06.04.2022
4437 Clouds 10 1008 86 10000 1.79 243 07:38 06.04.2022
4438 Clouds 10 1010 81 10000 2.24 203 02:57 06.04.2022
4439 Clouds 9 1010 94 10000 3 183 23:51 05.04.2022
4440 Clouds 9 1011 91 10000 0.89 203 22:30 05.04.2022
4441 Clouds 9 1014 93 10000 3.4 182 21:19 05.04.2022
4442 Clouds 9 1014 93 10000 3.49 187 20:25 05.04.2022
4443 Clouds 11 1014 92 10000 3.49 190 19:26 05.04.2022
4444 Clouds 11 1014 92 10000 3.94 188 17:55 05.04.2022
4445 Clouds 12 1014 89 10000 4.1 188 16:54 05.04.2022
4446 Clouds 12 1015 87 10000 4.36 190 15:53 05.04.2022
4447 Clouds 12 1015 87 10000 4.47 190 15:33 05.04.2022
4448 Rain 11 1015 88 10000 4.24 191 14:27 05.04.2022
4449 Clouds 8 1015 82 10000 4.35 190 13:21 05.04.2022
4450 Clouds 8 1013 69 10000 3.58 132 11:50 05.04.2022
4451 Clouds 8 1013 63 10000 4.02 167 11:32 05.04.2022
4452 Clouds 7 1013 63 10000 3.13 160 09:55 05.04.2022
4453 Clouds 6 1013 73 10000 3.58 203 08:52 05.04.2022
4454 Clouds 5 1013 74 3345 3.58 203 06:58 05.04.2022
4455 Clouds 6 1014 69 10000 2.68 160 01:51 05.04.2022
4456 Clouds 6 1015 67 10000 2.24 152 22:42 04.04.2022
4457 Rain 6 1015 71 10000 2.24 203 22:24 04.04.2022
4458 Rain 6 1015 61 10000 3.58 203 21:21 04.04.2022
4459 Rain 5 1018 80 10000 4.15 201 20:49 04.04.2022
4460 Clouds 6 1017 77 10000 4.15 205 19:57 04.04.2022
4461 Rain 7 1014 54 10000 2.68 132 19:26 04.04.2022
4462 Clouds 8 1014 51 10000 3.13 190 18:33 04.04.2022
4463 Clouds 9 1015 50 10000 4.47 224 16:37 04.04.2022
4464 Clouds 8 1016 52 10000 3.58 203 15:47 04.04.2022
4465 Clouds 8 1016 50 10000 3.58 206 15:29 04.04.2022
4466 Clouds 7 1017 54 10000 4.02 194 14:46 04.04.2022
4467 Clouds 7 1018 57 10000 2.24 203 13:31 04.04.2022
4468 Clouds 5 1019 63 10000 2.68 228 11:56 04.04.2022
4469 Clouds 4 1020 67 10000 2.24 196 11:29 04.04.2022
4470 Clouds 1 1020 86 10000 1.47 211 09:20 04.04.2022
4471 Clouds -2 1020 91 10000 1.82 140 05:21 04.04.2022
4472 Clouds -1 1024 85 10000 1.93 127 01:36 04.04.2022
4473 Clouds 0 1024 92 10000 2.08 111 22:45 03.04.2022
4474 Clouds 1 1020 86 10000 1.83 100 21:47 03.04.2022
4475 Clouds 2 1020 83 10000 1.85 89 21:19 03.04.2022
4476 Clouds 2 1020 76 10000 1.75 41 19:52 03.04.2022
4477 Clouds 3 1020 74 10000 1.79 327 18:33 03.04.2022
4478 Clouds 4 1020 74 10000 1.79 324 17:48 03.04.2022
4479 Clouds 4 1019 73 10000 3.13 304 17:21 03.04.2022
4480 Clouds 4 1019 73 10000 0.45 32 16:42 03.04.2022
4481 Clouds 4 1020 73 6408 0.45 24 15:32 03.04.2022
4482 Clouds 3 1020 76 4488 2.68 47 13:57 03.04.2022
4483 Clouds 3 1020 80 4983 2.68 7 12:56 03.04.2022
4484 Clouds 3 1020 85 3968 3.68 359 11:33 03.04.2022
4485 Snow 0 1018 94 10000 0.89 317 09:40 03.04.2022
4486 Clouds 0 1018 94 10000 1.79 317 08:52 03.04.2022
4487 Clouds 0 1016 93 10000 0.45 23 05:44 03.04.2022
4488 Clouds 1 1020 96 10000 1.46 90 02:55 03.04.2022
4489 Clouds 0 1016 94 10000 0.89 341 23:27 02.04.2022
4490 Clouds 0 1015 94 10000 1.34 23 22:41 02.04.2022
4491 Clouds 0 1015 94 3982 1.79 2 21:55 02.04.2022
4492 Clouds 0 1015 94 4318 2.68 343 21:19 02.04.2022
4493 Clouds 0 1014 94 4318 1.79 315 20:36 02.04.2022
4494 Snow 0 1012 94 2878 1.79 323 18:47 02.04.2022
4495 Snow 0 1012 93 1456 4.02 351 18:19 02.04.2022
4496 Clouds 1 1011 92 714 2.24 335 16:50 02.04.2022
4497 Clouds 1 1010 92 1134 4.02 337 15:42 02.04.2022
4498 Clouds 1 1010 92 1165 4.02 303 15:18 02.04.2022
4499 Rain 1 1009 93 876 2.68 347 14:26 02.04.2022
4500 Clouds 1 1009 93 751 4.02 328 13:31 02.04.2022
4501 Rain 1 1008 93 1187 3.58 324 12:21 02.04.2022
4502 Snow 0 1007 94 269 4.92 2 10:31 02.04.2022
4503 Snow 0 1005 94 146 2.24 346 07:52 02.04.2022
4504 Clouds 0 1004 93 138 2.24 349 04:59 02.04.2022
4505 Clouds 0 1003 93 376 2.24 329 02:37 02.04.2022
4506 Clouds 0 1003 92 175 2.24 331 23:54 01.04.2022
4507 Clouds 0 1003 92 182 1.79 317 22:51 01.04.2022
4508 Snow 1 1003 93 3909 2.24 353 21:24 01.04.2022
4509 Snow 1 1002 93 3724 2.24 17 20:48 01.04.2022
4510 Rain 2 1001 93 3162 1.34 323 19:50 01.04.2022
4511 Rain 2 1001 94 88 1.79 23 19:26 01.04.2022
4512 Rain 1 1001 95 88 1.79 360 18:42 01.04.2022
4513 Rain 1 1000 94 455 0.45 269 17:43 01.04.2022
4514 Clouds 2 1000 94 766 0.45 360 16:33 01.04.2022
4515 Clouds 2 1000 94 29 0.89 254 15:18 01.04.2022
4516 Clouds 2 1000 94 26 0.89 265 14:18 01.04.2022
4517 Clouds 2 1000 94 26 0.89 265 13:32 01.04.2022
4518 Clouds 2 999 93 27 0.45 255 12:30 01.04.2022
4519 Clouds 2 999 94 32 0.45 256 11:18 01.04.2022
4520 Clouds 2 998 93 35 1.34 23 09:53 01.04.2022
4521 Clouds 3 997 93 54 1.79 23 07:50 01.04.2022
4522 Clouds 3 996 93 92 0.89 252 06:30 01.04.2022
4523 Clouds 4 996 93 3076 1.79 263 04:45 01.04.2022
4524 Clouds 4 996 93 3316 1.34 239 03:41 01.04.2022
4525 Clouds 5 996 93 3249 1.79 23 01:53 01.04.2022
4526 Clouds 6 996 94 3478 2.56 337 22:56 31.03.2022
4527 Rain 6 996 93 3247 2.05 346 21:49 31.03.2022
4528 Rain 6 996 93 3247 0.89 329 21:31 31.03.2022
4529 Clouds 6 995 94 1950 1.34 23 20:28 31.03.2022
4530 Clouds 7 994 93 1863 1.34 327 19:46 31.03.2022
4531 Rain 7 994 92 3034 0.89 229 18:43 31.03.2022
4532 Rain 8 993 92 1332 2.68 317 17:33 31.03.2022
4533 Clouds 10 992 88 8154 0.45 261 16:34 31.03.2022
4534 Clouds 10 993 89 8190 0.89 263 15:35 31.03.2022
4535 Rain 10 993 91 9513 1.34 269 14:54 31.03.2022
4536 Clouds 10 993 89 10000 2.34 335 14:20 31.03.2022
4537 Rain 9 993 95 10000 1.76 285 11:34 31.03.2022
4538 Rain 9 994 94 8212 0.89 277 10:41 31.03.2022
4539 Clouds 8 994 94 10000 0.74 311 09:44 31.03.2022
4540 Clouds 8 994 94 10000 0.43 242 07:53 31.03.2022
4541 Clouds 8 995 93 10000 0.54 246 04:42 31.03.2022
4542 Clouds 8 998 93 10000 0.81 330 23:34 30.03.2022
4543 Clouds 9 998 91 10000 1.08 8 22:27 30.03.2022
4544 Clouds 9 998 90 10000 1.08 8 21:37 30.03.2022
4545 Clouds 10 998 88 10000 1.3 19 20:44 30.03.2022
4546 Clouds 10 997 86 10000 1.67 353 19:59 30.03.2022
4547 Clouds 10 998 87 10000 0.45 45 18:59 30.03.2022
4548 Clouds 12 997 79 10000 2.68 357 17:53 30.03.2022
4549 Clouds 13 997 75 10000 3.58 325 17:34 30.03.2022
4550 Clouds 13 997 69 10000 0.89 196 16:54 30.03.2022
4551 Clouds 13 998 71 10000 1.34 255 16:31 30.03.2022
4552 Clouds 13 999 73 10000 1.79 281 14:56 30.03.2022
4553 Clouds 13 999 78 10000 3.13 238 13:34 30.03.2022
4554 Clouds 12 1000 80 10000 1.79 165 12:41 30.03.2022
4555 Clouds 11 1001 86 10000 1.79 203 10:55 30.03.2022
4556 Clouds 10 1001 87 10000 1.34 146 09:58 30.03.2022
4557 Clouds 10 1001 87 10000 1.79 203 09:20 30.03.2022
4558 Rain 9 1001 91 10000 0.89 203 07:31 30.03.2022
4559 Rain 9 1002 88 10000 3.83 206 05:40 30.03.2022
4560 Rain 13 1003 61 10000 1.97 198 03:31 30.03.2022
4561 Rain 13 1004 53 10000 0.45 182 00:31 30.03.2022
4562 Rain 14 1005 47 10000 2.12 161 22:20 29.03.2022
4563 Clouds 14 1005 43 10000 2.12 161 21:44 29.03.2022
4564 Clouds 15 1007 42 10000 2.18 162 20:49 29.03.2022
4565 Clouds 17 1007 34 10000 2.15 176 19:47 29.03.2022
4566 Clouds 17 1006 35 10000 1.34 203 18:55 29.03.2022
4567 Clouds 18 1005 34 10000 1.79 249 18:19 29.03.2022
4568 Clouds 18 1006 33 10000 3.13 133 17:21 29.03.2022
4569 Clouds 19 1006 32 10000 1.79 203 16:56 29.03.2022
4570 Clouds 18 1007 32 10000 0.89 242 15:57 29.03.2022
4571 Clouds 18 1007 33 10000 1.34 242 14:50 29.03.2022
4572 Clouds 18 1008 33 10000 2.24 242 13:53 29.03.2022
4573 Clouds 18 1009 32 10000 1.34 203 12:47 29.03.2022
4574 Clouds 17 1010 32 10000 1.34 263 11:31 29.03.2022
4575 Clouds 16 1011 35 10000 1.34 253 10:28 29.03.2022
4576 Clouds 14 1011 42 10000 1.34 203 09:23 29.03.2022
4577 Clouds 9 1011 61 10000 1.93 170 06:56 29.03.2022
4578 Clouds 11 1013 53 10000 1.59 149 03:49 29.03.2022
4579 Clouds 12 1015 46 10000 0.45 132 23:54 28.03.2022
4580 Clouds 12 1016 46 10000 0.45 73 23:19 28.03.2022
4581 Clouds 12 1015 46 10000 1.9 158 22:47 28.03.2022
4582 Clouds 13 1016 45 10000 2.23 160 22:22 28.03.2022
4583 Clouds 13 1015 48 10000 2.54 158 20:53 28.03.2022
4584 Clear 14 1015 51 10000 2.45 153 19:59 28.03.2022
4585 Clear 16 1018 51 10000 2.45 153 19:41 28.03.2022
4586 Clear 21 1018 24 10000 1.69 172 18:54 28.03.2022
4587 Clear 21 1017 24 10000 2.68 244 18:20 28.03.2022
4588 Clear 22 1016 23 10000 0.89 267 17:32 28.03.2022
4589 Clear 22 1019 23 10000 1.79 210 15:54 28.03.2022
4590 Clear 21 1020 28 10000 2.68 268 14:27 28.03.2022
4591 Clear 20 1021 32 10000 1.79 184 13:47 28.03.2022
4592 Clear 15 1022 48 10000 3.13 272 11:58 28.03.2022
4593 Clear 14 1023 53 10000 2.01 259 10:50 28.03.2022
4594 Clear 11 1025 59 10000 1.41 258 09:41 28.03.2022
4595 Clear 10 1024 59 10000 0.6 197 09:19 28.03.2022
4596 Clear 8 1023 63 10000 1.25 145 08:22 28.03.2022
4597 Clear 8 1023 61 10000 1.51 145 07:27 28.03.2022
4598 Clear 9 1024 59 10000 1.72 150 03:43 28.03.2022
4599 Clear 12 1025 58 10000 0.89 73 23:28 27.03.2022
4600 Clear 12 1025 58 10000 1.96 127 22:24 27.03.2022
4601 Clear 12 1024 58 10000 1.96 127 21:41 27.03.2022
4602 Clear 14 1024 56 10000 1.82 129 20:54 27.03.2022
4603 Clear 15 1022 55 10000 1.2 145 19:47 27.03.2022
4604 Clear 17 1026 59 10000 0.61 267 18:55 27.03.2022
4605 Clear 20 1023 37 10000 1.34 241 18:27 27.03.2022
4606 Clear 20 1023 37 10000 1.34 241 18:27 27.03.2022
4607 Clear 20 1023 38 10000 1.34 240 17:38 27.03.2022
4608 Clear 20 1024 38 10000 1.79 263 15:59 27.03.2022
4609 Clear 18 1025 39 10000 1.79 259 14:55 27.03.2022
4610 Clear 17 1025 40 10000 1.79 273 13:55 27.03.2022
4611 Clear 14 1026 47 10000 4.92 269 12:20 27.03.2022
4612 Clear 11 1026 52 10000 3.58 267 10:47 27.03.2022
4613 Clear 7 1027 64 10000 0.58 123 08:43 27.03.2022
4614 Clear 6 1025 61 10000 1.61 111 05:54 27.03.2022
4615 Clear 7 1025 57 10000 2.04 103 00:47 27.03.2022
4616 Clear 9 1025 50 10000 0.45 136 23:34 26.03.2022
4617 Clear 9 1024 53 10000 2.11 100 22:35 26.03.2022
4618 Clear 11 1024 46 10000 2.37 96 21:33 26.03.2022
4619 Clear 12 1027 65 10000 2.9 89 20:20 26.03.2022
4620 Clear 14 1026 62 10000 3.11 76 19:19 26.03.2022
4621 Clear 18 1025 55 10000 3.25 56 17:51 26.03.2022
4622 Clear 20 1023 33 10000 0.89 105 17:30 26.03.2022
4623 Clear 20 1023 33 10000 2.24 23 16:25 26.03.2022
4624 Clear 20 1023 35 10000 3.58 341 14:51 26.03.2022
4625 Clear 19 1024 39 10000 2.24 353 13:52 26.03.2022
4626 Clear 18 1024 41 10000 2.68 326 12:47 26.03.2022
4627 Clear 14 1025 47 10000 3.58 196 11:29 26.03.2022
4628 Clear 9 1026 55 10000 1.27 24 09:23 26.03.2022
4629 Clear 8 1027 59 10000 1.27 24 08:33 26.03.2022
4630 Clear 5 1024 68 10000 1.67 91 05:54 26.03.2022
4631 Clear 6 1024 66 10000 1.34 357 03:59 26.03.2022
4632 Clouds 10 1024 52 10000 0.89 123 23:39 25.03.2022
4633 Clouds 11 1023 52 10000 2.28 97 21:35 25.03.2022
4634 Clouds 11 1023 52 10000 2.28 97 21:35 25.03.2022
4635 Clouds 12 1023 50 10000 2.37 97 20:46 25.03.2022
4636 Clouds 13 1022 56 10000 2.04 86 19:28 25.03.2022
4637 Clouds 15 1025 34 10000 2.04 86 18:47 25.03.2022
4638 Clouds 18 1025 29 10000 1.96 31 17:37 25.03.2022
4639 Clouds 19 1024 31 10000 0.89 45 16:41 25.03.2022
4640 Clouds 19 1023 32 10000 0.45 5 15:57 25.03.2022
4641 Clouds 19 1024 38 10000 4.02 254 13:58 25.03.2022
4642 Clear 17 1025 43 10000 3.58 249 12:33 25.03.2022
4643 Clear 12 1025 51 10000 2.68 268 09:55 25.03.2022
4644 Clear 10 1025 56 10000 2.68 265 09:26 25.03.2022
4645 Clear 8 1026 61 10000 0.18 192 07:51 25.03.2022
4646 Clear 7 1025 62 10000 1.06 134 07:23 25.03.2022
4647 Clear 7 1024 61 10000 1.24 126 05:23 25.03.2022
4648 Clouds 9 1025 59 10000 1.47 115 00:33 25.03.2022
4649 Clouds 10 1024 57 10000 0.89 50 22:30 24.03.2022
4650 Clouds 11 1024 53 10000 1.91 105 21:35 24.03.2022
4651 Clouds 11 1024 52 10000 1.85 105 19:51 24.03.2022
4652 Clouds 14 1023 53 10000 1.37 85 18:58 24.03.2022
4653 Clouds 17 1025 64 10000 1.17 2 17:45 24.03.2022
4654 Clouds 19 1024 31 10000 1.79 261 16:54 24.03.2022
4655 Clear 19 1025 36 10000 2.68 360 15:21 24.03.2022
4656 Clear 19 1025 36 10000 2.68 273 14:42 24.03.2022
4657 Clear 18 1025 38 10000 4.02 360 13:59 24.03.2022
4658 Clear 16 1026 40 10000 2.24 279 12:42 24.03.2022
4659 Clear 14 1027 45 10000 4.47 269 11:33 24.03.2022
4660 Clear 12 1027 54 10000 2.68 360 09:51 24.03.2022
4661 Clear 12 1028 49 10000 0.82 287 08:40 24.03.2022
4662 Clear 6 1026 61 10000 1.22 142 06:48 24.03.2022
4663 Clear 8 1026 56 10000 1.42 139 02:18 24.03.2022
4664 Clear 9 1027 55 10000 1.84 111 23:18 23.03.2022
4665 Clear 10 1027 58 10000 0.45 42 21:27 23.03.2022
4666 Clear 10 1027 56 10000 1.88 109 20:49 23.03.2022
4667 Clear 12 1026 51 10000 1.89 106 19:45 23.03.2022
4668 Clear 16 1029 33 10000 1.41 86 18:36 23.03.2022
4669 Clear 18 1028 30 10000 1.22 6 17:36 23.03.2022
4670 Clear 17 1026 38 10000 3.13 239 16:33 23.03.2022
4671 Clear 17 1027 38 10000 2.24 360 14:51 23.03.2022
4672 Clear 17 1027 39 10000 2.68 360 14:26 23.03.2022
4673 Clear 16 1028 40 10000 1.79 251 12:50 23.03.2022
4674 Clear 10 1030 55 10000 1.42 297 09:42 23.03.2022
4675 Clear 5 1029 65 10000 1.12 148 06:41 23.03.2022
4676 Clear 6 1028 61 10000 1.27 154 04:41 23.03.2022
4677 Clear 7 1028 60 10000 0.89 65 00:29 23.03.2022
4678 Clear 8 1028 57 10000 1.36 133 23:39 22.03.2022
4679 Clear 9 1028 56 10000 1.46 116 21:30 22.03.2022
4680 Clear 9 1028 53 10000 0.45 85 20:45 22.03.2022
4681 Clear 10 1028 51 10000 1.65 108 19:51 22.03.2022
4682 Clear 12 1028 43 10000 1.35 88 19:23 22.03.2022
4683 Clouds 12 1030 66 10000 1.42 83 18:38 22.03.2022
4684 Clouds 16 1029 31 10000 1.18 13 17:37 22.03.2022
4685 Clouds 17 1027 33 10000 1.34 267 16:27 22.03.2022
4686 Clear 17 1028 35 10000 2.68 360 15:23 22.03.2022
4687 Clear 16 1028 35 10000 2.68 242 14:57 22.03.2022
4688 Clear 16 1028 36 10000 0.89 360 14:38 22.03.2022
4689 Clear 16 1029 39 10000 3.58 246 13:36 22.03.2022
4690 Clear 13 1030 45 10000 1.79 360 11:52 22.03.2022
4691 Clear 11 1030 55 10000 1.34 267 10:44 22.03.2022
4692 Clear 7 1030 64 10000 1.27 273 08:36 22.03.2022
4693 Clear 5 1030 65 10000 1.36 155 06:53 22.03.2022
4694 Clear 7 1029 58 10000 1.62 145 03:52 22.03.2022
4695 Clear 8 1028 59 10000 1.81 127 00:29 22.03.2022
4696 Clear 8 1028 58 10000 0.89 341 22:42 21.03.2022
4697 Clear 11 1028 54 10000 0.45 39 21:18 21.03.2022
4698 Clear 11 1028 54 10000 0.45 39 21:18 21.03.2022
4699 Clear 10 1028 54 10000 2.61 118 20:41 21.03.2022
4700 Clear 12 1030 57 10000 2.65 111 19:59 21.03.2022
4701 Clear 12 1030 58 10000 2.65 111 19:34 21.03.2022
4702 Clouds 14 1027 50 10000 2.19 94 18:36 21.03.2022
4703 Clouds 17 1027 42 10000 2.24 13 17:31 21.03.2022
4704 Clouds 18 1027 42 10000 3.13 324 16:53 21.03.2022
4705 Clouds 18 1027 40 10000 4.02 335 16:24 21.03.2022
4706 Clouds 18 1028 44 10000 0.89 11 15:21 21.03.2022
4707 Clouds 18 1028 43 10000 2.24 258 14:28 21.03.2022
4708 Clear 16 1029 47 10000 1.79 269 12:53 21.03.2022
4709 Clear 14 1030 51 10000 3.58 360 11:54 21.03.2022
4710 Clear 13 1030 55 10000 2.68 360 10:59 21.03.2022
4711 Clear 11 1031 61 10000 1.52 314 09:42 21.03.2022
4712 Clear 7 1030 73 10000 1.31 129 07:22 21.03.2022
4713 Clear 7 1029 71 10000 1.34 40 05:42 21.03.2022
4714 Clear 7 1028 63 10000 1.51 148 00:46 21.03.2022
4715 Clear 8 1027 60 10000 0.45 82 22:56 20.03.2022
4716 Clear 9 1027 58 10000 2.18 132 22:23 20.03.2022
4717 Clear 9 1027 57 10000 2.2 131 21:31 20.03.2022
4718 Clear 9 1026 58 10000 2.26 131 20:54 20.03.2022
4719 Clear 10 1026 54 10000 2.28 125 20:27 20.03.2022
4720 Clear 10 1026 54 10000 2.28 125 19:48 20.03.2022
4721 Clouds 11 1025 50 10000 2.07 107 19:19 20.03.2022
4722 Clouds 14 1028 58 10000 1.49 52 17:44 20.03.2022
4723 Clouds 18 1027 34 10000 1 352 17:24 20.03.2022
4724 Clouds 18 1025 40 10000 0.45 23 16:35 20.03.2022
4725 Clouds 18 1026 39 10000 0.89 23 14:42 20.03.2022
4726 Clouds 17 1026 46 10000 0.45 237 13:38 20.03.2022
4727 Clouds 13 1027 62 10000 2.96 205 12:19 20.03.2022
4728 Clouds 10 1027 74 10000 0.45 23 09:59 20.03.2022
4729 Rain 5 1027 77 10000 0.45 217 08:21 20.03.2022
4730 Clouds 4 1025 74 10000 1.69 149 06:37 20.03.2022
4731 Clouds 4 1025 73 10000 1.02 140 03:18 20.03.2022
4732 Clouds 5 1025 65 10000 0.89 312 00:54 20.03.2022
4733 Clouds 5 1025 65 10000 0.89 312 00:54 20.03.2022
4734 Clouds 5 1025 63 10000 0.89 67 00:34 20.03.2022
4735 Clouds 7 1026 53 10000 1.66 112 22:39 19.03.2022
4736 Clouds 8 1026 49 10000 1.34 109 21:26 19.03.2022
4737 Clouds 10 1027 44 10000 0.89 45 19:39 19.03.2022
4738 Clouds 10 1027 45 10000 0.89 23 18:44 19.03.2022
4739 Clear 11 1026 45 10000 2.68 45 17:55 19.03.2022
4740 Clear 12 1026 43 10000 2.24 23 17:33 19.03.2022
4741 Clear 14 1026 42 10000 2.68 23 15:41 19.03.2022
4742 Clear 15 1028 42 10000 2.68 23 14:21 19.03.2022
4743 Clear 14 1029 43 10000 1.79 23 12:56 19.03.2022
4744 Clear 14 1030 42 10000 2.24 45 12:37 19.03.2022
4745 Clear 13 1030 43 10000 3.13 90 11:47 19.03.2022
4746 Clear 10 1032 54 10000 1.79 89 09:55 19.03.2022
4747 Clouds 5 1035 69 10000 3.04 64 05:48 19.03.2022
4748 Clouds 8 1033 59 10000 4.02 16 02:37 19.03.2022
4749 Clouds 9 1033 61 10000 3.13 19 01:32 19.03.2022
4750 Clouds 9 1033 65 10000 1.79 91 23:22 18.03.2022
4751 Clouds 9 1034 67 10000 1.34 101 22:23 18.03.2022
4752 Clouds 9 1034 69 10000 1.34 23 20:48 18.03.2022
4753 Clouds 10 1033 69 10000 1.79 45 19:49 18.03.2022
4754 Clouds 10 1033 69 10000 1.79 7 19:19 18.03.2022
4755 Clouds 12 1032 66 10000 2.24 357 17:27 18.03.2022
4756 Clouds 12 1033 64 10000 1.79 45 16:45 18.03.2022
4757 Clouds 12 1033 64 10000 3.58 117 14:37 18.03.2022
4758 Clouds 12 1033 65 10000 3.58 16 14:18 18.03.2022
4759 Clouds 10 1034 75 10000 2.68 23 12:23 18.03.2022
4760 Clouds 8 1033 86 10000 1.34 340 10:39 18.03.2022
4761 Clouds 6 1033 91 10000 1.34 346 09:23 18.03.2022
4762 Clouds 6 1033 92 10000 1.34 318 07:59 18.03.2022
4763 Rain 6 1032 93 10000 1.34 342 06:34 18.03.2022
4764 Clouds 7 1031 94 10000 2.24 309 02:51 18.03.2022
4765 Clouds 7 1031 92 10000 1.34 23 00:22 18.03.2022
4766 Clouds 7 1031 90 10000 1.79 23 23:22 17.03.2022
4767 Clouds 8 1030 88 10000 1.79 2 22:24 17.03.2022
4768 Clouds 8 1030 87 10000 0.89 16 21:48 17.03.2022
4769 Clouds 8 1029 87 10000 1.34 11 21:20 17.03.2022
4770 Clouds 8 1029 85 10000 1.34 23 20:42 17.03.2022
4771 Clouds 9 1028 85 10000 2.68 353 19:46 17.03.2022
4772 Clouds 10 1027 82 10000 4.92 338 18:57 17.03.2022
4773 Clouds 10 1027 81 10000 4.47 342 18:37 17.03.2022
4774 Clouds 12 1026 79 10000 4.02 323 16:49 17.03.2022
4775 Clouds 13 1025 78 10000 2.24 360 15:44 17.03.2022
4776 Clouds 13 1025 77 10000 3.58 346 15:24 17.03.2022
4777 Clouds 13 1025 77 10000 3.13 325 14:28 17.03.2022
4778 Clouds 14 1025 76 10000 3.13 337 12:54 17.03.2022
4779 Clouds 14 1025 74 10000 3.13 38 12:23 17.03.2022
4780 Clouds 13 1024 78 10000 1.34 23 11:27 17.03.2022
4781 Clouds 11 1024 86 10000 1.34 215 10:29 17.03.2022
4782 Clouds 10 1024 87 10000 0.93 344 08:37 17.03.2022
4783 Clouds 8 1023 93 10000 0.35 354 07:34 17.03.2022
4784 Clouds 7 1022 93 10000 0.12 228 05:47 17.03.2022
4785 Clouds 7 1022 93 10000 0.12 228 05:47 17.03.2022
4786 Clouds 8 1020 91 10000 0.82 157 01:30 17.03.2022
4787 Clouds 8 1020 91 10000 1.37 126 23:50 16.03.2022
4788 Clouds 8 1020 91 10000 1.51 121 22:48 16.03.2022
4789 Clouds 8 1020 91 10000 1.51 121 22:48 16.03.2022
4790 Clouds 8 1020 92 10000 1.51 121 22:30 16.03.2022
4791 Clouds 8 1020 91 10000 1.69 119 21:42 16.03.2022
4792 Clouds 9 1020 89 10000 1.58 108 19:47 16.03.2022
4793 Clear 9 1020 88 10000 1.64 81 19:21 16.03.2022
4794 Clear 10 1020 87 10000 1.65 83 18:38 16.03.2022
4795 Clear 15 1020 69 10000 1.45 38 17:43 16.03.2022
4796 Clear 16 1020 66 10000 2.04 347 17:20 16.03.2022
4797 Clear 17 1020 60 10000 2.15 343 15:55 16.03.2022
4798 Clear 18 1021 61 10000 2.11 337 14:27 16.03.2022
4799 Clear 18 1021 62 10000 2.11 337 13:32 16.03.2022
4800 Clear 17 1022 64 10000 1.97 310 11:57 16.03.2022
4801 Clear 16 1023 67 10000 1.43 301 11:21 16.03.2022
4802 Clear 15 1023 71 10000 1.08 349 10:23 16.03.2022
4803 Clear 15 1023 75 10000 1.08 349 09:42 16.03.2022
4804 Clouds 6 1022 93 10000 0.78 110 06:27 16.03.2022
4805 Clouds 8 1022 86 10000 1.01 189 01:56 16.03.2022
4806 Clouds 11 1022 76 10000 0.52 336 22:44 15.03.2022
4807 Clouds 11 1022 74 10000 0.45 203 22:18 15.03.2022
4808 Clouds 12 1021 72 10000 0.89 203 20:36 15.03.2022
4809 Clouds 13 1021 69 10000 0.45 222 18:58 15.03.2022
4810 Clouds 13 1020 71 10000 2.68 203 17:24 15.03.2022
4811 Clouds 12 1021 74 10000 4.02 196 16:32 15.03.2022
4812 Clouds 11 1022 94 10000 1.97 200 15:21 15.03.2022
4813 Clouds 11 1022 94 10000 1.97 200 14:46 15.03.2022
4814 Clouds 12 1023 94 10000 0.81 230 13:55 15.03.2022
4815 Clouds 10 1024 94 10000 1.73 190 12:29 15.03.2022
4816 Clouds 10 1021 87 10000 1.73 190 11:31 15.03.2022
4817 Clouds 9 1024 88 10000 0.45 84 09:54 15.03.2022
4818 Clouds 7 1024 90 10000 1.22 82 08:49 15.03.2022
4819 Clouds 7 1026 90 10000 1.49 111 07:52 15.03.2022
4820 Clouds 7 1026 89 10000 1.49 111 07:34 15.03.2022
4821 Clouds 7 1027 77 10000 1.63 181 04:20 15.03.2022
4822 Clouds 7 1027 72 10000 1.15 113 23:58 14.03.2022
4823 Clouds 6 1027 73 10000 0.45 119 23:25 14.03.2022
4824 Clouds 7 1027 72 10000 1.26 93 22:30 14.03.2022
4825 Clouds 8 1027 68 10000 1.37 101 21:35 14.03.2022
4826 Clouds 8 1026 66 10000 1.58 100 20:54 14.03.2022
4827 Clouds 9 1026 64 10000 1.86 91 20:20 14.03.2022
4828 Clouds 9 1025 61 10000 1.89 90 19:21 14.03.2022
4829 Clouds 14 1028 42 10000 1.42 5 17:55 14.03.2022
4830 Clouds 15 1026 45 10000 1.34 331 17:24 14.03.2022
4831 Clouds 15 1026 43 10000 0.89 357 16:18 14.03.2022
4832 Clouds 15 1027 43 10000 0.45 232 14:41 14.03.2022
4833 Clear 13 1027 50 10000 2.24 240 12:54 14.03.2022
4834 Clear 11 1027 62 10000 1.79 234 10:54 14.03.2022
4835 Clear 10 1027 67 10000 1.79 360 09:56 14.03.2022
4836 Clear 9 1027 70 10000 0.89 203 09:22 14.03.2022
4837 Clear 8 1027 74 10000 1.34 203 08:57 14.03.2022
4838 Clear 7 1026 78 10000 0.89 203 08:20 14.03.2022
4839 Clouds 7 1024 81 10000 1.79 203 05:46 14.03.2022
4840 Clouds 8 1022 83 10000 3.13 203 02:51 14.03.2022
4841 Rain 8 1020 82 6882 4.47 263 01:29 14.03.2022
4842 Clouds 10 1016 68 10000 3.31 201 23:25 13.03.2022
4843 Clouds 10 1015 70 10000 1.96 182 21:40 13.03.2022
4844 Clouds 10 1014 70 10000 2.47 119 21:19 13.03.2022
4845 Clouds 10 1014 69 10000 2.47 119 20:43 13.03.2022
4846 Clouds 10 1014 64 10000 2.15 123 20:20 13.03.2022
4847 Clouds 11 1013 65 10000 2.15 123 19:40 13.03.2022
4848 Clouds 11 1013 61 10000 2.11 134 19:20 13.03.2022
4849 Clouds 12 1012 56 10000 1.45 118 18:40 13.03.2022
4850 Clouds 13 1012 55 10000 0.89 326 17:52 13.03.2022
4851 Clouds 13 1012 54 10000 0.45 348 17:33 13.03.2022
4852 Clouds 15 1012 51 10000 1.34 45 16:44 13.03.2022
4853 Clouds 15 1012 50 10000 1.34 325 16:20 13.03.2022
4854 Clouds 15 1012 47 10000 0.45 37 15:34 13.03.2022
4855 Clouds 16 1013 46 10000 1.79 250 14:20 13.03.2022
4856 Clouds 15 1013 48 10000 2.68 290 13:27 13.03.2022
4857 Clouds 14 1013 49 10000 2.68 360 12:20 13.03.2022
4858 Clouds 13 1013 52 10000 2.24 7 11:36 13.03.2022
4859 Clouds 13 1013 52 10000 3.58 360 11:36 13.03.2022
4860 Clouds 12 1013 55 10000 3.13 45 10:49 13.03.2022
4861 Clouds 11 1014 58 10000 1.79 23 10:25 13.03.2022
4862 Clouds 9 1015 64 10000 1.29 11 09:41 13.03.2022
4863 Clouds 7 1015 70 10000 0.45 23 08:49 13.03.2022
4864 Clouds 6 1014 75 10000 1.08 107 08:21 13.03.2022
4865 Clouds 5 1014 73 10000 1.13 129 05:59 13.03.2022
4866 Clouds 5 1014 73 10000 1.52 143 03:56 13.03.2022
4867 Clouds 6 1014 70 10000 1.83 140 00:48 13.03.2022
4868 Clouds 7 1014 69 10000 0.45 87 22:48 12.03.2022
4869 Clouds 8 1014 67 10000 2.19 129 21:29 12.03.2022
4870 Clouds 9 1015 66 10000 2.13 133 20:18 12.03.2022
4871 Clouds 9 1014 67 10000 2.13 133 19:43 12.03.2022
4872 Clouds 12 1017 56 10000 1.46 131 18:34 12.03.2022
4873 Clouds 13 1017 68 10000 0.21 163 17:46 12.03.2022
4874 Clouds 15 1015 50 10000 1.08 319 16:28 12.03.2022
4875 Clouds 15 1015 49 10000 0.89 32 15:40 12.03.2022
4876 Clouds 15 1016 51 10000 0.45 23 15:18 12.03.2022
4877 Clouds 14 1017 55 10000 1.79 360 13:53 12.03.2022
4878 Clouds 13 1017 58 10000 3.13 360 12:27 12.03.2022
4879 Clouds 13 1018 58 10000 2.24 360 11:52 12.03.2022
4880 Clouds 13 1018 59 10000 0.45 225 11:21 12.03.2022
4881 Clouds 12 1018 60 10000 0.78 324 10:18 12.03.2022
4882 Clouds 10 1018 65 10000 0.78 324 09:40 12.03.2022
4883 Clouds 7 1018 74 10000 1.04 116 07:52 12.03.2022
4884 Clouds 7 1017 70 10000 1.07 161 05:46 12.03.2022
4885 Clouds 7 1016 63 10000 1.59 172 00:27 12.03.2022
4886 Clouds 6 1016 62 10000 1.59 172 23:38 11.03.2022
4887 Clouds 7 1015 63 10000 1.92 143 22:29 11.03.2022
4888 Clouds 7 1015 62 10000 2.04 139 21:23 11.03.2022
4889 Clouds 7 1014 60 10000 2.04 139 20:42 11.03.2022
4890 Clouds 7 1014 62 10000 2.27 126 20:22 11.03.2022
4891 Clouds 9 1014 58 10000 2.5 105 19:29 11.03.2022
4892 Clouds 13 1014 42 10000 0.89 315 17:50 11.03.2022
4893 Clouds 14 1014 41 10000 1.34 315 17:21 11.03.2022
4894 Clouds 14 1014 39 10000 0.89 249 15:58 11.03.2022
4895 Clouds 14 1014 39 10000 1.79 360 15:29 11.03.2022
4896 Clouds 13 1015 41 10000 2.24 360 13:28 11.03.2022
4897 Clouds 12 1016 44 10000 2.68 360 12:37 11.03.2022
4898 Clouds 11 1016 46 10000 2.24 263 11:57 11.03.2022
4899 Clouds 8 1017 54 10000 3.13 242 10:44 11.03.2022
4900 Clouds 6 1017 60 10000 0.93 326 09:34 11.03.2022
4901 Clouds 3 1017 69 10000 0.56 157 08:28 11.03.2022
4902 Clouds 4 1017 66 10000 0.56 157 07:48 11.03.2022
4903 Clouds 4 1017 64 10000 1.2 124 06:26 11.03.2022
4904 Clouds 4 1017 64 10000 1.16 134 04:37 11.03.2022
4905 Clouds 5 1018 57 10000 1.8 137 01:29 11.03.2022
4906 Clouds 5 1018 61 10000 0.89 88 22:32 10.03.2022
4907 Clear 6 1018 59 10000 0.89 63 21:53 10.03.2022
4908 Clear 6 1018 60 10000 0.89 55 21:25 10.03.2022
4909 Clear 6 1018 65 10000 2.45 115 20:34 10.03.2022
4910 Clear 9 1019 56 10000 1.87 123 19:20 10.03.2022
4911 Clear 13 1021 61 10000 0.99 157 17:51 10.03.2022
4912 Clear 14 1019 42 10000 1.34 241 16:52 10.03.2022
4913 Clear 14 1020 42 10000 3.13 360 15:29 10.03.2022
4914 Clear 13 1021 43 10000 3.13 250 13:46 10.03.2022
4915 Clear 11 1022 48 10000 4.02 258 12:41 10.03.2022
4916 Clear 9 1023 54 10000 3.13 360 11:29 10.03.2022
4917 Clear 5 1024 64 10000 0.73 347 09:43 10.03.2022
4918 Clear 2 1023 75 10000 1.24 127 08:23 10.03.2022
4919 Clear 1 1024 74 10000 1.64 129 05:33 10.03.2022
4920 Clear 2 1023 70 10000 0.45 57 02:39 10.03.2022
4921 Clear 3 1023 73 10000 1.34 30 23:37 09.03.2022
4922 Clear 4 1022 71 10000 0.89 73 22:32 09.03.2022
4923 Clear 4 1022 69 10000 0.89 42 21:47 09.03.2022
4924 Clear 5 1022 66 10000 0.45 78 20:50 09.03.2022
4925 Clear 7 1022 61 10000 0.45 107 19:23 09.03.2022
4926 Clear 12 1023 57 10000 1.33 348 17:28 09.03.2022
4927 Clear 13 1023 58 10000 1.33 348 16:48 09.03.2022
4928 Clear 14 1021 41 10000 1.79 241 15:41 09.03.2022
4929 Clear 13 1021 43 10000 0.89 360 14:24 09.03.2022
4930 Clear 12 1022 44 10000 2.24 244 13:50 09.03.2022
4931 Clear 10 1022 44 10000 2.24 360 12:25 09.03.2022
4932 Clear 9 1023 46 10000 3.58 242 11:48 09.03.2022
4933 Clear 7 1023 52 10000 4.02 262 10:55 09.03.2022
4934 Clear 4 1023 53 10000 0.96 323 09:40 09.03.2022
4935 Clear 2 1022 61 10000 0.39 296 08:45 09.03.2022
4936 Clear -1 1022 68 10000 1.33 145 06:25 09.03.2022
4937 Clear -1 1021 68 10000 0.89 37 00:59 09.03.2022
4938 Clear 0 1021 66 10000 0.45 68 00:22 09.03.2022
4939 Clear 0 1020 65 10000 1.82 129 22:46 08.03.2022
4940 Clear 1 1020 63 10000 0.89 47 21:51 08.03.2022
4941 Clear 1 1020 63 10000 2.12 122 21:21 08.03.2022
4942 Clear 3 1019 62 10000 2.13 122 20:21 08.03.2022
4943 Clouds 3 1019 61 10000 1.92 126 19:21 08.03.2022
4944 Clouds 6 1018 52 10000 0.84 134 18:22 08.03.2022
4945 Clouds 9 1018 43 10000 2.24 227 16:42 08.03.2022
4946 Clouds 9 1018 43 10000 3.13 230 14:57 08.03.2022
4947 Clouds 7 1019 46 10000 0.89 246 13:45 08.03.2022
4948 Clouds 5 1019 53 10000 3.58 248 12:20 08.03.2022
4949 Clouds 4 1019 54 10000 2.68 360 11:42 08.03.2022
4950 Clear 3 1020 57 10000 0.89 136 10:28 08.03.2022
4951 Clear 0 1020 70 10000 1.03 75 08:57 08.03.2022
4952 Clear -3 1019 78 10000 1.46 110 06:30 08.03.2022
4953 Clear -2 1019 71 10000 1.55 117 02:50 08.03.2022
4954 Clear 0 1020 65 10000 0.45 104 22:48 07.03.2022
4955 Clear 1 1019 60 10000 2.94 109 21:45 07.03.2022
4956 Clear 1 1019 63 10000 3.11 107 21:22 07.03.2022
4957 Clear 1 1023 58 10000 3.11 107 20:34 07.03.2022
4958 Clear 2 1023 57 10000 3.16 108 19:50 07.03.2022
4959 Clear 3 1022 60 10000 3.11 107 19:20 07.03.2022
4960 Clear 5 1022 47 10000 3.12 100 18:33 07.03.2022
4961 Clear 6 1021 44 10000 2.85 86 17:31 07.03.2022
4962 Clear 8 1018 42 10000 2.24 44 16:54 07.03.2022
4963 Clear 7 1018 43 10000 1.79 23 14:51 07.03.2022
4964 Clear 5 1019 52 10000 1.34 132 12:35 07.03.2022
4965 Clear 4 1020 58 10000 2.24 112 11:36 07.03.2022
4966 Clear 3 1020 59 10000 1.79 119 10:34 07.03.2022
4967 Clear -1 1019 69 10000 1.34 38 08:35 07.03.2022
4968 Clear -2 1020 68 10000 0.89 22 02:56 07.03.2022
4969 Clouds 0 1019 65 10000 2.68 352 00:21 07.03.2022
4970 Clouds 1 1019 60 10000 2.23 88 23:28 06.03.2022
4971 Clouds 2 1019 57 10000 2.23 88 22:30 06.03.2022
4972 Clouds 1 1022 68 10000 2.42 85 21:44 06.03.2022
4973 Clouds 3 1022 54 10000 2.75 76 20:29 06.03.2022
4974 Clouds 3 1018 55 10000 2.75 76 19:48 06.03.2022
4975 Clouds 4 1021 51 10000 2.87 66 18:51 06.03.2022
4976 Clear 6 1020 46 10000 3.1 43 17:49 06.03.2022
4977 Clear 7 1017 46 10000 2.24 343 17:20 06.03.2022
4978 Clear 7 1017 47 10000 0.89 100 16:40 06.03.2022
4979 Clear 7 1017 47 10000 0.89 100 16:40 06.03.2022
4980 Clear 8 1017 44 10000 2.24 2 15:37 06.03.2022
4981 Clear 8 1017 45 10000 2.24 346 14:48 06.03.2022
4982 Clear 8 1017 45 10000 1.79 325 14:28 06.03.2022
4983 Clear 6 1018 51 10000 1.79 23 12:43 06.03.2022
4984 Clear 5 1018 55 10000 1.34 23 11:56 06.03.2022
4985 Clear 3 1019 60 10000 1.79 79 10:43 06.03.2022
4986 Clear 2 1019 65 10000 2.24 121 09:34 06.03.2022
4987 Clear -2 1018 78 10000 0.45 357 08:28 06.03.2022
4988 Clear -3 1018 76 10000 0.89 23 07:33 06.03.2022
4989 Clear -2 1017 73 10000 1.39 102 03:58 06.03.2022
4990 Clear 0 1017 65 10000 0.89 357 00:42 06.03.2022
4991 Clear 0 1017 67 10000 0.45 76 00:23 06.03.2022
4992 Clear 1 1017 63 10000 1.34 105 23:19 05.03.2022
4993 Clear 1 1017 61 10000 0.45 64 22:42 05.03.2022
4994 Clear 1 1017 62 10000 0.45 95 21:36 05.03.2022
4995 Clear 2 1017 60 10000 2.58 103 20:57 05.03.2022
4996 Clear 3 1016 56 10000 3.03 86 19:24 05.03.2022
4997 Clear 4 1016 54 10000 3.03 86 18:50 05.03.2022
4998 Clear 7 1016 43 10000 2.7 58 17:41 05.03.2022
4999 Clear 9 1016 41 10000 4.02 315 16:20 05.03.2022
5000 Clear 8 1016 41 10000 5.36 319 15:30 05.03.2022
5001 Clear 8 1016 40 10000 2.68 215 14:44 05.03.2022
5002 Clear 8 1016 39 10000 1.34 45 14:24 05.03.2022
5003 Clear 7 1017 47 10000 2.68 360 12:59 05.03.2022
5004 Clear 5 1018 55 10000 2.68 234 11:43 05.03.2022
5005 Clear 4 1018 59 10000 2.68 360 11:18 05.03.2022
5006 Clear 2 1018 66 10000 0.89 222 09:58 05.03.2022
5007 Clear 1 1017 61 10000 0.57 59 08:57 05.03.2022
5008 Clear -2 1018 73 10000 0.97 106 07:37 05.03.2022
5009 Clear -2 1017 71 10000 1.26 107 05:42 05.03.2022
5010 Clear 0 1017 68 10000 1.75 114 01:30 05.03.2022
5011 Clear 0 1017 68 10000 1.7 113 23:36 04.03.2022
5012 Clear 2 1017 63 10000 0.89 91 22:42 04.03.2022
5013 Clear 2 1017 62 10000 2.11 117 21:47 04.03.2022
5014 Clear 3 1017 58 10000 0.89 36 20:51 04.03.2022
5015 Clear 4 1016 58 10000 2.55 103 20:22 04.03.2022
5016 Clear 4 1016 64 10000 2.55 103 19:35 04.03.2022
5017 Clear 6 1018 48 10000 2.87 83 18:43 04.03.2022
5018 Clear 9 1017 43 10000 2.9 51 17:31 04.03.2022
5019 Clear 10 1016 42 10000 3.58 347 16:43 04.03.2022
5020 Clear 10 1016 42 10000 2.24 324 15:29 04.03.2022
5021 Clear 9 1016 49 10000 4.02 243 14:19 04.03.2022
5022 Clear 8 1017 52 10000 3.58 261 13:26 04.03.2022
5023 Clear 6 1017 60 10000 4.02 264 11:41 04.03.2022
5024 Clear 5 1017 62 10000 2.68 259 10:50 04.03.2022
5025 Clear 4 1019 48 10000 1.31 359 09:42 04.03.2022
5026 Clear 3 1019 67 10000 0.66 34 08:39 04.03.2022
5027 Clear -1 1016 81 10000 1.08 97 07:34 04.03.2022
5028 Clear 0 1015 82 10000 1.29 105 03:53 04.03.2022
5029 Clear 2 1015 79 10000 1.61 107 00:24 04.03.2022
5030 Clear 3 1015 75 10000 1.62 89 22:27 03.03.2022
5031 Clear 3 1015 74 10000 0.45 23 21:42 03.03.2022
5032 Clear 4 1014 74 10000 1.61 88 21:24 03.03.2022
5033 Clear 5 1014 65 10000 1.64 88 19:52 03.03.2022
5034 Clear 7 1014 60 10000 1.94 71 18:54 03.03.2022
5035 Clear 8 1014 49 10000 0.45 23 18:24 03.03.2022
5036 Clear 11 1016 44 10000 1.99 22 17:30 03.03.2022
5037 Clear 12 1013 49 10000 1.34 23 16:24 03.03.2022
5038 Clear 12 1013 52 10000 2.24 360 15:23 03.03.2022
5039 Clear 12 1014 53 10000 2.68 233 14:43 03.03.2022
5040 Clear 12 1014 55 10000 2.24 360 14:20 03.03.2022
5041 Clear 12 1014 55 10000 2.24 360 14:20 03.03.2022
5042 Clear 12 1014 55 10000 1.34 265 14:20 03.03.2022
5043 Clear 9 1016 60 10000 2.24 360 12:23 03.03.2022
5044 Clear 6 1016 70 10000 2.68 246 10:48 03.03.2022
5045 Clear 4 1017 74 10000 1.27 276 09:41 03.03.2022
5046 Clear 0 1017 83 10000 0.91 147 07:50 03.03.2022
5047 Clear 1 1018 82 10000 1.16 132 06:37 03.03.2022
5048 Clear 1 1019 81 10000 1.05 146 03:21 03.03.2022
5049 Clouds 3 1019 77 10000 0.89 76 23:39 02.03.2022
5050 Clouds 3 1019 73 10000 1.13 121 22:53 02.03.2022
5051 Clouds 5 1019 69 10000 0.8 122 21:35 02.03.2022
5052 Clouds 5 1019 69 10000 0.89 45 20:57 02.03.2022
5053 Clouds 6 1019 68 10000 0.9 131 20:25 02.03.2022
5054 Clouds 6 1019 67 10000 0.9 131 19:37 02.03.2022
5055 Clouds 6 1019 64 10000 0.95 106 18:57 02.03.2022
5056 Clouds 7 1019 61 10000 0.67 49 18:26 02.03.2022
5057 Clouds 7 1019 59 10000 1.34 326 17:37 02.03.2022
5058 Clouds 8 1019 56 10000 1.79 45 16:52 02.03.2022
5059 Clouds 9 1020 53 10000 1.79 45 15:20 02.03.2022
5060 Clouds 9 1020 50 10000 1.79 360 13:52 02.03.2022
5061 Clouds 8 1021 56 10000 2.24 45 12:46 02.03.2022
5062 Clouds 7 1021 58 10000 1.79 45 12:24 02.03.2022
5063 Clouds 5 1021 62 10000 2.24 253 11:26 02.03.2022
5064 Clouds 4 1021 65 10000 0.45 45 10:31 02.03.2022
5065 Clouds 3 1022 66 10000 0.69 294 09:36 02.03.2022
5066 Clouds 1 1022 70 10000 0.51 283 08:34 02.03.2022
5067 Clouds -1 1022 73 10000 1.18 143 07:23 02.03.2022
5068 Clouds -1 1022 78 10000 1.28 143 04:51 02.03.2022
5069 Clouds 1 1024 74 10000 1.34 59 00:40 02.03.2022
5070 Clouds 1 1024 73 10000 1.07 147 23:27 01.03.2022
5071 Clouds 2 1024 71 10000 1.06 146 22:38 01.03.2022
5072 Clouds 3 1025 69 10000 1.34 128 21:53 01.03.2022
5073 Clouds 4 1025 65 10000 1.18 118 20:40 01.03.2022
5074 Clouds 4 1024 65 10000 1.34 113 20:20 01.03.2022
5075 Clouds 5 1025 56 10000 1.38 99 18:58 01.03.2022
5076 Clouds 7 1024 54 10000 0.99 50 18:25 01.03.2022
5077 Clouds 7 1027 64 10000 0.99 50 17:54 01.03.2022
5078 Clouds 10 1025 38 10000 0.89 45 16:39 01.03.2022
5079 Clouds 10 1024 39 10000 1.79 230 15:49 01.03.2022
5080 Clouds 9 1025 41 10000 2.68 228 14:54 01.03.2022
5081 Clouds 9 1025 43 10000 2.68 248 14:33 01.03.2022
5082 Clouds 8 1025 49 10000 3.58 360 13:26 01.03.2022
5083 Clear 7 1026 53 10000 1.79 265 12:38 01.03.2022
5084 Clear 6 1027 57 10000 2.68 248 11:58 01.03.2022
5085 Clear 4 1027 64 10000 2.68 254 10:26 01.03.2022
5086 Clear 0 1027 75 10000 0.35 161 08:36 01.03.2022
5087 Clear -2 1027 80 10000 1.46 137 07:35 01.03.2022
5088 Clear 0 1027 73 10000 1.94 117 03:29 01.03.2022
5089 Clear 1 1027 72 10000 0.45 125 00:59 01.03.2022
5090 Clear 1 1027 75 10000 2.28 117 23:48 28.02.2022
5091 Clear 1 1027 77 10000 2.11 117 22:52 28.02.2022
5092 Clear 2 1027 76 10000 2.19 119 21:50 28.02.2022
5093 Clear 2 1027 76 10000 0.45 88 21:24 28.02.2022
5094 Clear 4 1027 72 10000 2.08 118 19:52 28.02.2022
5095 Clear 4 1027 71 10000 1.96 113 19:26 28.02.2022
5096 Clear 5 1027 68 10000 1.97 115 18:36 28.02.2022
5097 Clear 9 1027 52 10000 1.79 317 17:24 28.02.2022
5098 Clear 10 1027 47 10000 1.34 45 16:33 28.02.2022
5099 Clear 10 1028 44 10000 2.24 327 15:23 28.02.2022
5100 Clear 9 1028 46 10000 1.34 45 14:31 28.02.2022
5101 Clear 8 1028 51 10000 2.68 264 13:34 28.02.2022
5102 Clear 7 1029 53 10000 0.89 360 12:41 28.02.2022
5103 Clear 6 1029 57 10000 1.34 261 11:44 28.02.2022
5104 Clear 5 1029 61 10000 1.18 332 10:48 28.02.2022
5105 Clear 4 1029 64 10000 0.96 319 10:20 28.02.2022
5106 Clear 2 1030 66 10000 0.96 319 09:32 28.02.2022
5107 Clear -1 1029 80 10000 1.29 129 08:29 28.02.2022
5108 Clear -2 1028 81 10000 1.58 128 07:28 28.02.2022
5109 Clear -2 1028 81 10000 1.58 128 07:28 28.02.2022
5110 Clear -2 1029 78 10000 1.49 122 04:55 28.02.2022
5111 Clear -1 1028 77 10000 1.33 124 04:26 28.02.2022
5112 Clouds 1 1027 68 10000 1.97 124 23:42 27.02.2022
5113 Clear 2 1027 63 10000 2.41 111 22:34 27.02.2022
5114 Clear 3 1031 57 10000 2.63 103 21:51 27.02.2022
5115 Clear 3 1030 58 10000 2.75 97 20:59 27.02.2022
5116 Clear 3 1030 58 10000 2.75 97 20:32 27.02.2022
5117 Clear 4 1030 67 10000 2.99 88 19:58 27.02.2022
5118 Clear 5 1029 54 10000 3.21 82 19:27 27.02.2022
5119 Clear 6 1029 64 10000 3.21 82 18:47 27.02.2022
5120 Clear 7 1028 59 10000 3.58 76 17:56 27.02.2022
5121 Clear 9 1025 37 10000 1.34 115 17:18 27.02.2022
5122 Clear 10 1025 32 10000 2.68 119 16:21 27.02.2022
5123 Clear 9 1025 40 10000 2.68 127 13:34 27.02.2022
5124 Clear 8 1026 48 10000 2.24 87 12:33 27.02.2022
5125 Clear 6 1028 46 10000 2.24 136 10:59 27.02.2022
5126 Clear 5 1028 59 10000 2.24 100 10:20 27.02.2022
5127 Clear 5 1028 51 10000 3.13 105 09:50 27.02.2022
5128 Clear 2 1028 68 10000 2.68 88 09:20 27.02.2022
5129 Clear 0 1028 71 10000 1.34 89 08:31 27.02.2022
5130 Clear 0 1026 71 10000 1.34 30 05:39 27.02.2022
5131 Clear 0 1027 72 10000 1.34 107 02:45 27.02.2022
5132 Clear 2 1028 61 10000 1.34 31 23:34 26.02.2022
5133 Clear 2 1028 62 10000 0.89 67 22:34 26.02.2022
5134 Clear 3 1029 62 10000 0.89 75 21:19 26.02.2022
5135 Clear 3 1029 65 10000 2.9 93 20:37 26.02.2022
5136 Clear 3 1029 65 10000 3.06 88 19:54 26.02.2022
5137 Clear 3 1029 66 10000 3.06 88 19:33 26.02.2022
5138 Clear 5 1029 60 10000 3.23 77 18:31 26.02.2022
5139 Clear 7 1030 58 10000 3.31 60 17:31 26.02.2022
5140 Clear 8 1029 50 10000 3.67 51 16:38 26.02.2022
5141 Clear 8 1029 50 10000 1.34 23 15:28 26.02.2022
5142 Clear 8 1030 51 10000 1.34 23 14:59 26.02.2022
5143 Clear 8 1030 51 10000 0.45 203 14:41 26.02.2022
5144 Clear 7 1030 56 10000 1.34 65 13:51 26.02.2022
5145 Clouds 7 1031 58 10000 1.79 23 12:53 26.02.2022
5146 Clear 6 1031 63 10000 1.34 23 11:50 26.02.2022
5147 Clouds 5 1032 68 10000 1.79 23 11:25 26.02.2022
5148 Clear 3 1033 91 10000 1.83 43 09:31 26.02.2022
5149 Clear 1 1032 94 10000 1.66 79 08:28 26.02.2022
5150 Clouds 1 1031 93 10000 1.19 20 04:23 26.02.2022
5151 Clouds 1 1030 92 10000 0.8 153 23:52 25.02.2022
5152 Clouds 2 1029 91 10000 0.75 164 22:34 25.02.2022
5153 Clouds 2 1028 89 10000 0.45 340 21:32 25.02.2022
5154 Clouds 2 1028 89 10000 1.08 161 20:56 25.02.2022
5155 Clouds 2 1027 88 9031 0.52 153 20:27 25.02.2022
5156 Clouds 5 1026 73 8686 0.45 269 17:57 25.02.2022
5157 Clouds 7 1025 60 4124 2.24 217 16:59 25.02.2022
5158 Clouds 7 1026 58 4725 1.34 138 16:19 25.02.2022
5159 Clouds 7 1026 57 7496 2.24 224 15:24 25.02.2022
5160 Clouds 7 1026 57 7500 2.24 224 15:24 25.02.2022
5161 Clouds 7 1026 57 7500 2.68 360 14:56 25.02.2022
5162 Clouds 7 1026 58 7500 1.79 325 14:37 25.02.2022
5163 Clouds 7 1026 62 10000 3.13 203 13:30 25.02.2022
5164 Clouds 7 1026 63 10000 3.13 203 12:42 25.02.2022
5165 Clouds 6 1026 67 10000 2.68 360 11:23 25.02.2022
5166 Clouds 5 1025 77 10000 1.34 203 10:28 25.02.2022
5167 Clouds 4 1026 82 10000 0.89 203 09:52 25.02.2022
5168 Clouds 2 1025 89 10000 0.89 203 08:44 25.02.2022
5169 Clouds 1 1024 88 10000 0.45 203 07:37 25.02.2022
5170 Clouds 1 1023 89 10000 0.89 194 05:47 25.02.2022
5171 Clouds 3 1022 89 4506 0.89 203 02:58 25.02.2022
5172 Rain 5 1020 84 2923 1.91 265 22:56 24.02.2022
5173 Rain 6 1018 83 1900 3.58 328 21:56 24.02.2022
5174 Rain 7 1018 78 1900 6.71 323 21:37 24.02.2022
5175 Rain 10 1016 65 10000 2.68 259 21:18 24.02.2022
5176 Clouds 10 1015 67 10000 3.58 258 19:38 24.02.2022
5177 Clouds 11 1015 60 10000 1.34 193 18:38 24.02.2022
5178 Clouds 11 1014 60 10000 2.68 203 18:18 24.02.2022
5179 Clouds 12 1015 57 10000 3.13 203 17:33 24.02.2022
5180 Clouds 12 1014 60 10000 3.13 260 16:45 24.02.2022
5181 Clouds 13 1014 59 10000 4.02 210 16:22 24.02.2022
5182 Clouds 13 1014 57 10000 4.02 229 14:54 24.02.2022
5183 Clouds 13 1014 55 10000 4.47 280 14:35 24.02.2022
5184 Clouds 13 1015 49 10000 4.02 203 13:39 24.02.2022
5185 Clouds 13 1015 50 10000 2.24 159 12:50 24.02.2022
5186 Clouds 11 1016 56 10000 4.02 213 10:41 24.02.2022
5187 Clouds 7 1016 82 10000 1.34 203 09:18 24.02.2022
5188 Clouds 5 1018 96 10000 2.87 201 08:40 24.02.2022
5189 Clouds 4 1017 90 10000 2.12 165 05:53 24.02.2022
5190 Clouds 4 1020 88 10000 2.19 164 01:58 24.02.2022
5191 Clouds 5 1021 86 10000 1.87 157 23:31 23.02.2022
5192 Clouds 6 1021 84 10000 0.45 116 21:43 23.02.2022
5193 Clouds 7 1021 82 10000 2.03 142 20:31 23.02.2022
5194 Clouds 8 1022 80 10000 1.9 153 19:48 23.02.2022
5195 Clouds 10 1022 75 10000 1.42 160 18:32 23.02.2022
5196 Clouds 12 1023 65 10000 0.68 213 17:44 23.02.2022
5197 Clouds 12 1024 65 10000 1.79 246 15:26 23.02.2022
5198 Clouds 12 1025 71 10000 2.24 360 13:28 23.02.2022
5199 Clouds 11 1026 71 10000 2.24 360 12:24 23.02.2022
5200 Clouds 10 1026 83 10000 0.58 290 10:44 23.02.2022
5201 Clouds 8 1027 90 10000 1.02 162 09:24 23.02.2022
5202 Clouds 7 1027 92 10000 1.39 158 08:27 23.02.2022
5203 Clouds 7 1027 91 10000 1.53 169 07:18 23.02.2022
5204 Clouds 8 1024 85 10000 3.58 237 01:22 23.02.2022
5205 Clouds 8 1024 83 10000 4.02 211 23:40 22.02.2022
5206 Clouds 8 1024 83 10000 3.58 203 22:59 22.02.2022
5207 Clouds 8 1024 82 10000 3.58 212 21:58 22.02.2022
5208 Clouds 8 1024 82 10000 3.13 203 21:40 22.02.2022
5209 Clouds 8 1024 82 10000 3.13 230 21:18 22.02.2022
5210 Clouds 7 1024 82 10000 3.13 286 20:31 22.02.2022
5211 Clouds 8 1024 83 10000 3.13 203 19:53 22.02.2022
5212 Clouds 8 1024 81 10000 3.13 203 19:33 22.02.2022
5213 Clouds 8 1023 77 10000 2.68 207 18:35 22.02.2022
5214 Clouds 9 1023 75 10000 4.47 226 17:27 22.02.2022
5215 Clouds 9 1023 71 10000 4.02 205 16:55 22.02.2022
5216 Clouds 9 1023 70 10000 4.92 273 16:19 22.02.2022
5217 Clouds 9 1023 70 10000 4.47 220 15:18 22.02.2022
5218 Clouds 9 1024 74 10000 2.24 203 13:37 22.02.2022
5219 Clouds 8 1024 83 10000 2.68 203 11:18 22.02.2022
5220 Clouds 6 1024 89 3237 2.24 203 09:22 22.02.2022
5221 Clouds 6 1022 88 10000 1.34 204 07:29 22.02.2022
5222 Clouds 5 1022 88 10000 0.45 200 06:54 22.02.2022
5223 Clouds 5 1019 86 10000 1.79 207 02:49 22.02.2022
5224 Clouds 5 1018 89 10000 0.89 203 23:18 21.02.2022
5225 Clouds 6 1016 89 10000 1.34 165 21:56 21.02.2022
5226 Clouds 6 1014 87 10000 2.24 209 20:52 21.02.2022
5227 Rain 6 1011 84 3711 4.02 189 18:47 21.02.2022
5228 Clouds 6 1011 83 3158 3.58 196 18:19 21.02.2022
5229 Clouds 6 1010 78 7926 3.58 199 16:23 21.02.2022
5230 Clouds 6 1010 78 10000 4.92 198 14:23 21.02.2022
5231 Clouds 7 1011 68 10000 3.58 241 13:31 21.02.2022
5232 Rain 7 1011 73 10000 4.47 203 12:46 21.02.2022
5233 Clouds 7 1011 69 6709 4.92 182 12:21 21.02.2022
5234 Clouds 6 1011 79 10000 3.58 219 10:27 21.02.2022
5235 Rain 5 1009 88 3494 4.02 259 06:25 21.02.2022
5236 Clouds 10 1011 72 10000 5.36 203 00:35 21.02.2022
5237 Clouds 10 1013 74 10000 5.36 279 22:32 20.02.2022
5238 Clouds 10 1013 72 10000 5.36 240 21:44 20.02.2022
5239 Clouds 10 1013 72 10000 4.47 202 21:24 20.02.2022
5240 Clouds 10 1014 73 10000 5.36 202 20:43 20.02.2022
5241 Clouds 10 1015 73 10000 5.36 204 19:49 20.02.2022
5242 Clouds 10 1015 73 10000 4.47 254 18:55 20.02.2022
5243 Clouds 9 1015 73 10000 5.36 160 18:36 20.02.2022
5244 Clouds 9 1016 74 10000 4.47 187 17:55 20.02.2022
5245 Clouds 10 1017 74 10000 4.92 207 16:59 20.02.2022
5246 Clouds 10 1018 75 10000 4.47 132 14:55 20.02.2022
5247 Clouds 9 1019 75 10000 4.47 209 13:58 20.02.2022
5248 Clouds 8 1020 78 10000 4.92 215 12:45 20.02.2022
5249 Clouds 8 1020 79 10000 5.36 171 11:30 20.02.2022
5250 Clouds 7 1020 77 10000 4.02 202 10:21 20.02.2022
5251 Clouds 6 1020 77 10000 4.92 155 09:24 20.02.2022
5252 Clouds 6 1020 78 3295 5.81 225 06:28 20.02.2022
5253 Clouds 6 1020 61 10000 6.26 203 00:32 20.02.2022
5254 Clouds 6 1019 61 10000 5.36 183 23:33 19.02.2022
5255 Clear 5 1020 61 10000 4.47 238 22:24 19.02.2022
5256 Clear 6 1019 60 10000 4.47 188 21:45 19.02.2022
5257 Clear 5 1020 63 10000 2.24 203 20:26 19.02.2022
5258 Clear 5 1019 59 10000 1.79 178 19:34 19.02.2022
5259 Clouds 6 1019 56 10000 0.89 203 18:40 19.02.2022
5260 Clouds 7 1021 51 10000 3.26 224 17:57 19.02.2022
5261 Clouds 9 1019 48 10000 2.68 229 16:47 19.02.2022
5262 Clouds 9 1018 47 10000 2.68 186 15:59 19.02.2022
5263 Clouds 9 1019 49 10000 2.68 209 14:54 19.02.2022
5264 Clouds 9 1020 54 10000 4.02 211 13:57 19.02.2022
5265 Clouds 8 1020 59 10000 4.02 201 11:47 19.02.2022
5266 Clouds 7 1020 64 10000 3.13 233 10:48 19.02.2022
5267 Clouds 6 1019 74 10000 1.79 213 08:57 19.02.2022
5268 Clouds 6 1018 71 10000 2.24 203 06:48 19.02.2022
5269 Clouds 7 1013 79 10000 2.68 221 00:38 19.02.2022
5270 Clouds 7 1012 79 10000 4.02 264 22:28 18.02.2022
5271 Rain 8 1011 74 10000 4.02 223 21:22 18.02.2022
5272 Clouds 9 1010 67 10000 4.02 233 20:18 18.02.2022
5273 Clouds 13 1007 71 7505 5.36 269 19:25 18.02.2022
5274 Clouds 14 1006 70 10000 4.02 195 18:29 18.02.2022
5275 Clouds 14 1006 71 10000 4.92 167 17:56 18.02.2022
5276 Clouds 15 1006 69 10000 3.13 360 17:18 18.02.2022
5277 Clouds 16 1005 64 10000 4.92 204 14:30 18.02.2022
5278 Clouds 15 1006 68 10000 4.92 202 13:46 18.02.2022
5279 Clouds 14 1007 70 10000 5.81 211 12:50 18.02.2022
5280 Clouds 14 1008 69 10000 3.58 218 11:57 18.02.2022
5281 Clouds 13 1009 73 10000 3.58 198 10:42 18.02.2022
5282 Clouds 12 1010 76 10000 4.02 234 08:47 18.02.2022
5283 Clouds 10 1014 83 10000 2.83 180 06:35 18.02.2022
5284 Clouds 9 1013 80 10000 2.51 172 05:34 18.02.2022
5285 Clouds 10 1017 71 10000 2.68 203 22:20 17.02.2022
5286 Clouds 10 1017 70 10000 2.24 217 21:41 17.02.2022
5287 Clouds 10 1017 70 10000 1.79 203 20:44 17.02.2022
5288 Clouds 10 1017 65 10000 1.79 206 19:56 17.02.2022
5289 Clouds 11 1017 62 10000 2.68 192 19:26 17.02.2022
5290 Clouds 11 1016 55 10000 2.24 360 18:29 17.02.2022
5291 Clouds 11 1018 70 10000 4.46 235 17:45 17.02.2022
5292 Clouds 13 1013 53 10000 4.02 282 15:58 17.02.2022
5293 Clouds 13 1013 70 10000 4.02 360 14:30 17.02.2022
5294 Clouds 13 1013 67 10000 2.68 209 13:47 17.02.2022
5295 Clouds 13 1012 69 10000 3.58 203 11:55 17.02.2022
5296 Clouds 12 1012 78 10000 3.13 198 10:57 17.02.2022
5297 Clouds 13 1008 84 10000 6.71 197 07:57 17.02.2022
5298 Clouds 13 1009 85 10000 6.26 209 00:20 17.02.2022
5299 Clouds 12 1008 84 10000 6.26 123 22:38 16.02.2022
5300 Rain 12 1009 85 10000 4.92 203 20:32 16.02.2022
5301 Clouds 11 1009 85 10000 4.47 229 19:27 16.02.2022
5302 Clouds 10 1009 87 10000 4.92 240 18:35 16.02.2022
5303 Clouds 10 1009 86 10000 5.81 193 17:27 16.02.2022
5304 Clouds 10 1009 85 10000 4.02 186 15:24 16.02.2022
5305 Clouds 9 1009 85 10000 4.02 173 14:29 16.02.2022
5306 Clouds 9 1009 83 10000 4.47 203 12:31 16.02.2022
5307 Clouds 9 1010 82 10000 5.36 215 11:51 16.02.2022
5308 Clouds 8 1010 83 10000 4.92 154 10:37 16.02.2022
5309 Clouds 8 1010 83 10000 4.47 203 10:18 16.02.2022
5310 Rain 7 1011 78 10000 4.47 203 06:44 16.02.2022
5311 Rain 6 1013 75 10000 4.47 203 03:41 16.02.2022
5312 Clouds 5 1019 71 10000 3.6 180 22:35 15.02.2022
5313 Clouds 5 1019 71 10000 3.6 180 22:35 15.02.2022
5314 Clouds 5 1017 72 10000 3.58 144 21:59 15.02.2022
5315 Clouds 5 1017 72 10000 3.58 206 21:39 15.02.2022
5316 Clouds 5 1017 75 10000 2.68 203 21:21 15.02.2022
5317 Clouds 5 1017 78 10000 3.13 135 20:48 15.02.2022
5318 Clouds 5 1017 80 10000 2.24 203 19:48 15.02.2022
5319 Clouds 5 1017 82 10000 0.89 175 18:45 15.02.2022
5320 Clouds 6 1017 82 10000 1.79 203 18:19 15.02.2022
5321 Clouds 6 1017 82 10000 2.68 170 17:47 15.02.2022
5322 Clouds 6 1017 83 10000 3.13 181 16:30 15.02.2022
5323 Rain 7 1016 83 10000 2.68 202 14:39 15.02.2022
5324 Clouds 7 1016 84 3067 1.34 139 13:26 15.02.2022
5325 Clouds 7 1016 86 3501 2.68 237 11:54 15.02.2022
5326 Clouds 6 1015 89 3041 2.68 245 10:57 15.02.2022
5327 Clouds 5 1014 90 3141 1.79 216 09:25 15.02.2022
5328 Clouds 6 1012 86 3453 2.68 197 06:49 15.02.2022
5329 Clouds 6 1010 83 10000 0.45 201 00:48 15.02.2022
5330 Clouds 7 1010 82 10000 1.79 203 22:20 14.02.2022
5331 Clouds 6 1009 85 10000 0.89 203 21:24 14.02.2022
5332 Clouds 6 1008 86 10000 1.34 203 20:24 14.02.2022
5333 Clouds 7 1008 85 10000 1.34 196 19:30 14.02.2022
5334 Clouds 7 1008 86 10000 2.24 125 18:27 14.02.2022
5335 Clouds 7 1008 87 10000 1.79 210 17:43 14.02.2022
5336 Rain 7 1007 87 6218 1.34 138 17:24 14.02.2022
5337 Rain 8 1007 86 4169 4.02 171 15:58 14.02.2022
5338 Clouds 9 1007 78 9305 3.13 205 13:44 14.02.2022
5339 Clouds 10 1007 77 10000 3.13 205 13:23 14.02.2022
5340 Clouds 9 1009 91 10000 3.06 192 12:32 14.02.2022
5341 Clouds 9 1010 86 8874 3.32 178 11:54 14.02.2022
5342 Clouds 8 1007 76 10000 0.45 184 10:31 14.02.2022
5343 Rain 5 1007 73 10000 0.45 129 08:43 14.02.2022
5344 Clouds 3 1007 73 10000 2.51 168 07:30 14.02.2022
5345 Clear 3 1013 64 10000 2.76 138 23:45 13.02.2022
5346 Clear 3 1014 64 10000 2.83 138 22:42 13.02.2022
5347 Clear 4 1014 64 10000 2.68 140 22:23 13.02.2022
5348 Clear 4 1014 64 10000 2.68 140 21:32 13.02.2022
5349 Clear 3 1014 65 10000 2.99 136 20:35 13.02.2022
5350 Clouds 4 1015 67 10000 3.45 137 19:30 13.02.2022
5351 Clouds 6 1015 67 10000 3.41 134 18:46 13.02.2022
5352 Clouds 7 1015 69 10000 3.48 132 18:26 13.02.2022
5353 Clear 12 1015 47 10000 2.9 164 15:54 13.02.2022
5354 Clear 13 1015 44 10000 2.24 203 15:24 13.02.2022
5355 Clear 13 1015 44 10000 1.79 234 14:31 13.02.2022
5356 Clear 12 1017 47 10000 1.79 203 12:51 13.02.2022
5357 Clear 10 1018 54 10000 3.13 203 11:44 13.02.2022
5358 Clear 7 1019 71 10000 2.39 217 10:34 13.02.2022
5359 Clear 5 1019 75 10000 0.89 203 09:46 13.02.2022
5360 Clouds 1 1020 87 10000 0.45 71 07:49 13.02.2022
5361 Clouds 1 1023 84 10000 2.11 163 00:35 13.02.2022
5362 Clouds 1 1024 83 10000 2.03 162 23:53 12.02.2022
5363 Clouds 1 1024 83 10000 0.89 107 22:33 12.02.2022
5364 Clouds 1 1023 83 10000 1.91 157 21:31 12.02.2022
5365 Clouds 2 1024 82 10000 0.45 78 20:47 12.02.2022
5366 Clouds 2 1024 81 10000 0.45 78 19:35 12.02.2022
5367 Clouds 2 1024 78 10000 1.88 142 18:53 12.02.2022
5368 Clouds 3 1024 77 10000 1.88 142 18:35 12.02.2022
5369 Clouds 5 1024 70 10000 1.53 142 17:37 12.02.2022
5370 Clouds 6 1024 62 10000 1.34 245 16:43 12.02.2022
5371 Clouds 6 1025 61 10000 1.34 240 15:51 12.02.2022
5372 Clouds 6 1026 60 10000 1.79 242 14:55 12.02.2022
5373 Clouds 6 1026 60 10000 3.13 360 14:24 12.02.2022
5374 Clear 3 1029 74 10000 0.34 110 11:18 12.02.2022
5375 Clear 2 1029 76 10000 0.9 103 10:28 12.02.2022
5376 Clear -1 1028 86 10000 1.24 109 09:33 12.02.2022
5377 Clear 0 1028 87 10000 1.25 109 08:46 12.02.2022
5378 Clear -1 1029 86 10000 3.58 2 05:41 12.02.2022
5379 Clear -2 1029 87 10000 1.79 44 04:38 12.02.2022
5380 Clear -1 1031 85 10000 0.89 46 02:19 12.02.2022
5381 Clear 0 1032 84 10000 0.45 83 23:20 11.02.2022
5382 Clear 1 1033 84 10000 0.89 71 22:20 11.02.2022
5383 Clear 1 1033 85 10000 0.45 105 21:18 11.02.2022
5384 Clear 2 1032 82 10000 0.45 91 20:26 11.02.2022
5385 Clouds 3 1032 77 10000 1.78 88 19:28 11.02.2022
5386 Clouds 4 1032 72 10000 1.96 39 18:29 11.02.2022
5387 Clouds 6 1031 69 10000 1.79 320 17:26 11.02.2022
5388 Clouds 6 1031 64 10000 2.24 350 16:39 11.02.2022
5389 Clouds 7 1031 61 10000 0.9 330 15:19 11.02.2022
5390 Clouds 7 1031 61 10000 0.89 139 14:37 11.02.2022
5391 Clouds 6 1031 63 10000 1.18 300 14:19 11.02.2022
5392 Clouds 7 1030 64 10000 1.34 240 13:40 11.02.2022
5393 Clouds 7 1030 64 10000 1.34 240 13:21 11.02.2022
5394 Clouds 5 1030 78 10000 1.18 236 10:55 11.02.2022
5395 Clouds 3 1029 90 10000 1.85 296 09:32 11.02.2022
5396 Clouds 3 1028 91 10000 2.23 303 08:33 11.02.2022
5397 Clouds 3 1026 91 4390 1.68 319 07:45 11.02.2022
5398 Clouds 4 1025 91 101 0.45 45 06:22 11.02.2022
5399 Rain 7 1021 89 3950 2.46 237 02:21 11.02.2022
5400 Rain 8 1021 82 10000 2.68 203 23:45 10.02.2022
5401 Clouds 9 1021 73 10000 2.68 203 22:26 10.02.2022
5402 Clouds 9 1022 70 10000 2.24 203 21:41 10.02.2022
5403 Clouds 9 1022 72 10000 1.79 203 20:50 10.02.2022
5404 Clouds 9 1022 72 10000 0.45 203 19:56 10.02.2022
5405 Clouds 9 1022 72 10000 1.34 203 19:22 10.02.2022
5406 Clouds 9 1022 73 10000 2.68 203 18:32 10.02.2022
5407 Clouds 9 1023 75 10000 2.68 176 17:21 10.02.2022
5408 Clouds 9 1023 75 10000 2.24 268 16:43 10.02.2022
5409 Clouds 9 1023 73 10000 3.13 360 15:40 10.02.2022
5410 Clouds 9 1023 73 10000 3.58 275 15:21 10.02.2022
5411 Clouds 9 1023 73 10000 5.81 163 14:35 10.02.2022
5412 Clouds 10 1023 72 10000 5.36 206 13:56 10.02.2022
5413 Clouds 10 1023 69 10000 6.26 159 13:19 10.02.2022
5414 Clouds 11 1023 61 10000 4.92 144 11:53 10.02.2022
5415 Clouds 11 1024 61 10000 4.92 144 11:32 10.02.2022
5416 Clouds 9 1024 63 10000 4.02 203 10:23 10.02.2022
5417 Clouds 9 1023 63 10000 5.81 171 09:44 10.02.2022
5418 Clouds 6 1023 72 10000 4.02 190 08:40 10.02.2022
5419 Clouds 6 1023 66 10000 1.34 169 06:33 10.02.2022
5420 Clouds 2 1026 72 10000 2.94 169 03:21 10.02.2022
5421 Clouds 4 1027 72 10000 2.71 165 00:56 10.02.2022
5422 Clouds 4 1024 73 10000 0.45 139 00:38 10.02.2022
5423 Clouds 5 1024 69 10000 2.53 164 00:20 10.02.2022
5424 Clouds 5 1025 71 10000 2.45 165 22:56 09.02.2022
5425 Clear 5 1025 71 10000 0.45 69 22:33 09.02.2022
5426 Clear 5 1025 70 10000 2.33 164 21:47 09.02.2022
5427 Clear 6 1025 69 10000 2.32 160 21:27 09.02.2022
5428 Clear 6 1025 71 10000 2.32 160 20:44 09.02.2022
5429 Clear 6 1025 71 10000 2.32 160 20:44 09.02.2022
5430 Clear 6 1025 69 10000 2.31 158 20:22 09.02.2022
5431 Clear 6 1025 65 10000 0.45 148 19:42 09.02.2022
5432 Clear 7 1025 71 10000 2.46 152 18:50 09.02.2022
5433 Clear 10 1027 63 10000 1.64 179 17:24 09.02.2022
5434 Clear 12 1027 53 10000 1.51 234 16:20 09.02.2022
5435 Clear 13 1026 46 10000 1.34 273 15:24 09.02.2022
5436 Clouds 10 1028 70 10000 0.89 248 12:54 09.02.2022
5437 Clouds 8 1029 72 10000 1.79 252 11:52 09.02.2022
5438 Clouds 5 1029 77 10000 1.28 246 10:35 09.02.2022
5439 Clouds 3 1030 71 10000 0.88 224 09:56 09.02.2022
5440 Clouds 2 1029 89 10000 1.2 177 09:22 09.02.2022
5441 Clouds 2 1029 88 10000 1.2 177 08:51 09.02.2022
5442 Clouds 1 1030 88 10000 1.44 154 06:56 09.02.2022
5443 Clouds 1 1030 89 10000 1.45 145 04:36 09.02.2022
5444 Clouds 2 1030 87 10000 1.47 149 03:49 09.02.2022
5445 Clouds 3 1031 84 10000 0.89 91 23:45 08.02.2022
5446 Clouds 3 1031 84 10000 0.89 50 23:19 08.02.2022
5447 Clouds 3 1031 83 10000 0.45 63 23:19 08.02.2022
5448 Clouds 4 1031 85 10000 0.89 115 22:38 08.02.2022
5449 Clouds 4 1031 83 10000 0.45 98 22:20 08.02.2022
5450 Clouds 4 1031 83 10000 0.45 88 21:22 08.02.2022
5451 Clouds 4 1031 82 10000 0.89 82 20:58 08.02.2022
5452 Clouds 4 1031 81 10000 0.89 109 20:38 08.02.2022
5453 Clouds 5 1031 78 10000 0.45 98 19:31 08.02.2022
5454 Clear 6 1031 79 10000 1.58 133 18:24 08.02.2022
5455 Clear 8 1030 76 10000 1.58 133 17:30 08.02.2022
5456 Clouds 11 1030 57 10000 1.12 243 15:47 08.02.2022
5457 Clouds 11 1031 55 10000 1.34 246 15:28 08.02.2022
5458 Clouds 11 1031 54 10000 1.34 231 13:50 08.02.2022
5459 Clouds 10 1032 56 10000 2.68 208 12:25 08.02.2022
5460 Clouds 7 1033 67 10000 1.34 227 10:55 08.02.2022
5461 Clouds 4 1033 75 10000 0.89 203 09:50 08.02.2022
5462 Clouds 3 1034 78 10000 1.69 171 08:53 08.02.2022
5463 Clouds 2 1034 79 10000 1.68 171 08:53 08.02.2022
5464 Clouds 2 1033 81 10000 0.45 203 06:50 08.02.2022
5465 Clear 1 1033 83 10000 0.45 203 04:40 08.02.2022
5466 Clear 1 1033 80 10000 1.96 169 04:22 08.02.2022
5467 Clear 1 1033 82 10000 0.89 91 03:36 08.02.2022
5468 Clear 1 1033 82 10000 0.45 95 03:18 08.02.2022
5469 Clear 1 1033 82 10000 2 169 02:59 08.02.2022
5470 Clear 1 1033 84 10000 2 169 02:36 08.02.2022
5471 Clear 1 1033 84 10000 1.86 161 02:18 08.02.2022
5472 Clear 1 1032 83 10000 0.45 88 01:45 08.02.2022
5473 Clear 1 1032 82 10000 0.45 55 01:25 08.02.2022
5474 Clear 1 1032 82 10000 0.45 94 00:55 08.02.2022
5475 Clear 1 1032 82 10000 0.45 96 00:36 08.02.2022
5476 Clear 1 1032 80 10000 0.45 203 23:45 07.02.2022
5477 Clear 1 1032 80 10000 2.09 163 23:18 07.02.2022
5478 Clear 1 1032 81 10000 2.09 163 22:59 07.02.2022
5479 Clear 2 1031 78 10000 0.89 203 22:19 07.02.2022
5480 Clear 2 1031 78 10000 0.89 238 21:51 07.02.2022
5481 Clear 2 1030 77 10000 0.89 203 21:28 07.02.2022
5482 Clear 2 1031 77 10000 0.45 155 20:52 07.02.2022
5483 Clear 2 1031 76 10000 2.37 162 20:34 07.02.2022
5484 Clear 2 1030 76 10000 0.45 207 19:47 07.02.2022
5485 Clear 2 1030 76 10000 0.45 207 19:47 07.02.2022
5486 Clouds 3 1029 72 10000 0.45 201 18:58 07.02.2022
5487 Clouds 5 1032 61 10000 2.26 193 17:39 07.02.2022
5488 Clouds 7 1028 58 10000 0.45 203 16:52 07.02.2022
5489 Clouds 7 1028 55 10000 1.79 249 15:49 07.02.2022
5490 Clouds 7 1028 61 10000 2.68 286 14:41 07.02.2022
5491 Clouds 6 1028 62 10000 1.79 284 13:27 07.02.2022
5492 Clouds 6 1027 66 10000 0.45 259 12:37 07.02.2022
5493 Clouds 5 1026 71 10000 1.79 182 11:55 07.02.2022
5494 Clouds 5 1026 74 10000 0.45 219 11:26 07.02.2022
5495 Clouds 4 1025 80 10000 3.34 265 10:45 07.02.2022
5496 Clouds 4 1025 80 10000 3 266 10:26 07.02.2022
5497 Clouds 3 1024 83 10000 3 266 09:52 07.02.2022
5498 Clouds 3 1023 83 10000 2.05 231 09:18 07.02.2022
5499 Clouds 3 1021 81 10000 2.59 282 07:59 07.02.2022
5500 Clouds 4 1019 77 10000 1.79 283 06:35 07.02.2022
5501 Clouds 4 1018 81 7795 1.79 247 05:47 07.02.2022
5502 Rain 6 1012 89 1993 0.89 26 02:56 07.02.2022
5503 Rain 8 1007 91 1914 3.13 182 00:33 07.02.2022
5504 Rain 8 1008 89 10000 3.58 213 23:41 06.02.2022
5505 Rain 7 1009 87 10000 4.02 182 22:47 06.02.2022
5506 Rain 7 1010 86 10000 6.26 202 21:51 06.02.2022
5507 Rain 7 1011 84 10000 7.15 217 21:26 06.02.2022
5508 Clouds 7 1011 83 10000 6.26 197 20:52 06.02.2022
5509 Clouds 7 1011 82 10000 6.26 188 20:28 06.02.2022
5510 Clouds 7 1011 83 10000 8.05 243 19:32 06.02.2022
5511 Clouds 7 1012 82 10000 8.49 184 18:38 06.02.2022
5512 Clouds 7 1013 82 10000 8.05 192 17:55 06.02.2022
5513 Clouds 7 1014 81 10000 6.71 195 16:56 06.02.2022
5514 Clouds 7 1014 82 10000 5.81 204 16:38 06.02.2022
5515 Clouds 7 1014 81 10000 4.92 191 15:47 06.02.2022
5516 Rain 7 1014 80 10000 5.81 198 15:26 06.02.2022
5517 Clouds 7 1016 78 10000 6.26 189 14:33 06.02.2022
5518 Clouds 7 1017 74 10000 8.05 215 13:25 06.02.2022
5519 Clouds 7 1018 74 10000 6.71 216 12:50 06.02.2022
5520 Clouds 7 1019 75 10000 4.02 210 11:27 06.02.2022
5521 Clouds 6 1020 76 10000 4.47 205 10:29 06.02.2022
5522 Clouds 5 1021 78 10000 5.36 229 08:49 06.02.2022
5523 Clouds 5 1022 79 10000 5.36 217 07:37 06.02.2022
5524 Clouds 4 1022 79 10000 4.47 224 05:30 06.02.2022
5525 Clouds 4 1024 76 10000 4.02 213 02:49 06.02.2022
5526 Clouds 4 1024 76 10000 4.02 219 02:24 06.02.2022
5527 Clouds 4 1025 76 10000 2.68 159 00:27 06.02.2022
5528 Clouds 3 1025 77 10000 1.79 169 22:22 05.02.2022
5529 Clouds 3 1025 78 10000 0.45 168 21:32 05.02.2022
5530 Clear 3 1025 74 10000 1.34 183 20:24 05.02.2022
5531 Clear 3 1028 76 10000 2.7 181 19:46 05.02.2022
5532 Clear 4 1025 74 10000 0.45 188 18:58 05.02.2022
5533 Clear 5 1027 70 10000 2.83 172 17:39 05.02.2022
5534 Clear 5 1027 70 10000 2.83 172 17:39 05.02.2022
5535 Clear 5 1027 70 10000 2.83 172 17:39 05.02.2022
5536 Clear 5 1027 70 10000 2.83 172 17:39 05.02.2022
5537 Clear 7 1025 65 10000 2.24 177 16:58 05.02.2022
5538 Clear 8 1024 62 10000 1.79 155 15:40 05.02.2022
5539 Clear 8 1024 63 10000 0.45 191 15:21 05.02.2022
5540 Clear 7 1025 71 10000 0.45 236 12:47 05.02.2022
5541 Clear 6 1025 72 10000 0.45 236 12:27 05.02.2022
5542 Clouds 4 1025 77 10000 2.33 224 10:48 05.02.2022
5543 Clouds 4 1025 80 10000 1.97 216 10:22 05.02.2022
5544 Clouds 2 1025 85 10000 1.97 216 09:44 05.02.2022
5545 Clouds 0 1023 88 10000 1.92 162 07:51 05.02.2022
5546 Clouds 0 1023 88 10000 1.39 155 06:57 05.02.2022
5547 Clouds 2 1022 87 10000 1.13 140 04:30 05.02.2022
5548 Clouds 5 1020 83 5469 2.22 323 01:19 05.02.2022
5549 Clouds 5 1020 83 5469 2.22 323 00:53 05.02.2022
5550 Clouds 7 1018 85 3327 1.79 309 23:46 04.02.2022
5551 Clouds 8 1017 85 5179 2.68 227 23:28 04.02.2022
5552 Clouds 8 1016 81 10000 4.47 188 21:54 04.02.2022
5553 Clouds 8 1016 82 10000 4.47 204 21:36 04.02.2022
5554 Clouds 8 1016 82 10000 4.92 214 21:18 04.02.2022
5555 Clouds 8 1016 79 10000 4.02 193 20:20 04.02.2022
5556 Clouds 8 1014 76 10000 3.58 223 17:43 04.02.2022
5557 Clouds 8 1015 76 10000 3.13 228 15:42 04.02.2022
5558 Clouds 7 1015 77 10000 3.58 165 14:55 04.02.2022
5559 Clouds 7 1016 79 10000 2.68 243 13:39 04.02.2022
5560 Clouds 7 1016 79 10000 3.13 162 12:43 04.02.2022
5561 Clouds 7 1017 80 10000 3.13 224 11:42 04.02.2022
5562 Clouds 7 1017 80 10000 3.13 224 11:42 04.02.2022
5563 Clouds 6 1017 84 10000 3.58 144 10:36 04.02.2022
5564 Clouds 6 1017 87 10000 2.24 235 08:43 04.02.2022
5565 Clouds 6 1017 87 10000 1.79 214 06:57 04.02.2022
5566 Clouds 6 1016 89 10000 3.58 151 02:48 04.02.2022
5567 Clear 5 1016 89 10000 2.24 169 01:56 04.02.2022
5568 Clouds 6 1015 82 10000 3.14 184 23:29 03.02.2022
5569 Clouds 6 1014 85 10000 3.14 184 22:40 03.02.2022
5570 Clouds 6 1014 84 10000 2.89 188 21:49 03.02.2022
5571 Clouds 7 1015 85 10000 2.88 183 20:41 03.02.2022
5572 Clouds 7 1015 85 10000 2.33 175 20:19 03.02.2022
5573 Clouds 7 1014 85 10000 0.89 203 19:32 03.02.2022
5574 Clouds 8 1014 85 10000 1.73 167 18:40 03.02.2022
5575 Clouds 9 1015 83 10000 1.6 169 17:35 03.02.2022
5576 Clouds 9 1015 83 10000 0.83 195 16:35 03.02.2022
5577 Clouds 10 1015 84 10000 0.89 226 14:49 03.02.2022
5578 Clouds 9 1017 88 10000 1.34 244 12:59 03.02.2022
5579 Clouds 8 1018 90 10000 1.23 191 11:23 03.02.2022
5580 Clouds 5 1021 94 10000 1.84 156 08:37 03.02.2022
5581 Clouds 5 1022 93 10000 1.53 170 05:26 03.02.2022
5582 Clouds 8 1024 92 4789 0.45 233 00:32 03.02.2022
5583 Clouds 8 1024 92 6053 0.45 203 23:44 02.02.2022
5584 Clouds 8 1023 92 3798 3.15 190 22:32 02.02.2022
5585 Clouds 8 1024 92 2321 0.45 188 21:34 02.02.2022
5586 Clouds 8 1023 92 2452 3.06 199 20:53 02.02.2022
5587 Clouds 8 1023 93 1926 0.89 188 19:59 02.02.2022
5588 Clouds 8 1023 93 1926 0.89 194 19:32 02.02.2022
5589 Clouds 8 1023 92 3548 1.79 201 18:50 02.02.2022
5590 Clouds 8 1023 92 3373 2.66 203 18:22 02.02.2022
5591 Clouds 8 1022 92 3109 1.34 184 17:20 02.02.2022
5592 Clouds 8 1022 91 3109 1.79 151 16:46 02.02.2022
5593 Clouds 8 1021 90 3409 2.24 182 13:57 02.02.2022
5594 Clouds 8 1022 90 3487 0.45 203 12:25 02.02.2022
5595 Clouds 7 1022 91 3487 1.34 192 11:37 02.02.2022
5596 Clouds 7 1021 91 3397 0.89 208 10:38 02.02.2022
5597 Clouds 6 1019 92 3413 3.13 223 07:40 02.02.2022
5598 Clouds 5 1019 92 3661 3.58 174 00:34 02.02.2022
5599 Clouds 4 1020 89 5422 3.13 192 21:55 01.02.2022
5600 Clouds 4 1020 88 4768 4.47 223 20:47 01.02.2022
5601 Clouds 4 1019 86 2984 5.81 265 18:35 01.02.2022
5602 Clouds 4 1020 81 453 4.02 237 16:43 01.02.2022
5603 Clouds 3 1021 79 10000 5.36 267 14:56 01.02.2022
5604 Clouds 3 1024 81 5480 4.02 199 12:48 01.02.2022
5605 Clouds 3 1025 82 2668 5.36 204 11:48 01.02.2022
5606 Clouds 2 1024 86 10000 1.34 234 06:57 01.02.2022
5607 Rain 2 1020 88 522 0.45 273 23:54 31.01.2022
5608 Rain 2 1020 88 522 0.45 212 23:34 31.01.2022
5609 Rain 2 1020 88 522 0.45 212 23:34 31.01.2022
5610 Rain 3 1019 84 3188 0.45 213 22:27 31.01.2022
5611 Rain 3 1018 83 3188 0.45 225 21:34 31.01.2022
5612 Rain 4 1018 81 3188 1.34 138 20:34 31.01.2022
5613 Rain 4 1018 79 3253 1.34 229 19:46 31.01.2022
5614 Rain 4 1016 74 10000 1.79 273 18:31 31.01.2022
5615 Rain 4 1016 74 10000 1.79 273 18:31 31.01.2022
5616 Rain 4 1016 75 10000 0.89 214 17:53 31.01.2022
5617 Clouds 5 1016 77 6580 0.45 264 16:58 31.01.2022
5618 Clouds 5 1015 81 9684 1.34 213 15:44 31.01.2022
5619 Clouds 5 1015 82 3824 0.89 203 14:27 31.01.2022
5620 Clouds 5 1015 87 4815 0.45 261 12:55 31.01.2022
5621 Rain 5 1015 89 2953 2.24 186 11:59 31.01.2022
5622 Clouds 5 1015 89 2898 2.24 275 10:54 31.01.2022
5623 Rain 5 1014 90 2898 4.02 215 10:36 31.01.2022
5624 Clouds 5 1015 89 378 4.02 219 09:34 31.01.2022
5625 Rain 5 1014 87 376 4.47 211 08:53 31.01.2022
5626 Rain 5 1015 84 3079 5.81 214 08:20 31.01.2022
5627 Clouds 5 1016 79 3188 3.58 134 06:53 31.01.2022
5628 Clouds 4 1017 79 10000 4.02 221 05:24 31.01.2022
5629 Clouds 1 1023 88 10000 0.45 203 23:37 30.01.2022
5630 Clouds 2 1025 87 10000 1.77 170 22:31 30.01.2022
5631 Clouds 2 1025 86 10000 1.42 151 21:44 30.01.2022
5632 Clouds 2 1025 86 10000 1.42 151 21:44 30.01.2022
5633 Clouds 2 1025 85 10000 1.46 137 21:22 30.01.2022
5634 Clear 3 1026 84 10000 1.52 136 20:51 30.01.2022
5635 Clear 3 1026 83 10000 1.52 136 20:30 30.01.2022
5636 Clear 4 1026 81 10000 1.57 130 19:54 30.01.2022
5637 Clouds 5 1027 78 10000 1.45 111 18:51 30.01.2022
5638 Clouds 5 1027 76 10000 1.49 88 18:22 30.01.2022
5639 Clouds 6 1027 73 10000 1.49 88 17:30 30.01.2022
5640 Clouds 7 1028 70 10000 0.45 203 16:42 30.01.2022
5641 Clouds 8 1028 70 10000 0.89 203 16:22 30.01.2022
5642 Clouds 8 1028 69 10000 0.89 341 15:54 30.01.2022
5643 Clouds 8 1028 71 10000 0.89 350 15:32 30.01.2022
5644 Clouds 8 1028 72 10000 1.34 263 14:47 30.01.2022
5645 Clouds 8 1029 78 10000 0.45 236 13:44 30.01.2022
5646 Clouds 8 1030 85 10000 0.89 245 12:44 30.01.2022
5647 Clouds 6 1031 90 10000 1.11 247 10:47 30.01.2022
5648 Clouds 6 1031 91 10000 0.45 157 10:25 30.01.2022
5649 Clouds 5 1030 92 4293 2.09 208 09:22 30.01.2022
5650 Clouds 6 1029 91 5287 2.68 146 07:58 30.01.2022
5651 Clouds 6 1029 88 10000 4.92 176 02:44 30.01.2022
5652 Clouds 6 1030 88 10000 4.02 212 01:54 30.01.2022
5653 Clouds 6 1030 88 10000 3.58 150 23:49 29.01.2022
5654 Clouds 6 1030 87 10000 4.02 196 22:50 29.01.2022
5655 Clouds 5 1031 88 10000 3.58 168 21:29 29.01.2022
5656 Clouds 5 1031 88 10000 5.81 144 20:53 29.01.2022
5657 Clouds 5 1031 88 10000 5.81 236 19:52 29.01.2022
5658 Clouds 5 1031 87 10000 5.81 186 19:31 29.01.2022
5659 Clouds 5 1031 87 10000 5.36 194 18:44 29.01.2022
5660 Clouds 5 1031 86 10000 4.02 189 17:54 29.01.2022
5661 Clouds 6 1031 82 10000 5.81 159 16:59 29.01.2022
5662 Clouds 6 1031 81 10000 3.13 119 15:27 29.01.2022
5663 Clouds 5 1032 81 10000 3.58 200 13:48 29.01.2022
5664 Clouds 5 1031 81 10000 4.47 186 13:28 29.01.2022
5665 Clouds 4 1032 82 10000 3.58 182 12:58 29.01.2022
5666 Clouds 4 1034 83 10000 3.57 198 11:39 29.01.2022
5667 Clouds 3 1034 84 10000 3.27 205 10:33 29.01.2022
5668 Clouds 0 1033 92 10000 2.32 191 08:19 29.01.2022
5669 Clouds 0 1033 92 10000 0.45 115 02:26 29.01.2022
5670 Clouds 0 1034 92 10000 2.2 172 00:32 29.01.2022
5671 Clouds 1 1035 91 10000 0.45 247 23:31 28.01.2022
5672 Clouds 1 1035 91 10000 1.36 164 22:47 28.01.2022
5673 Clouds 1 1035 92 10000 1.01 161 22:19 28.01.2022
5674 Clouds 1 1036 91 10000 1.33 128 20:41 28.01.2022
5675 Clouds 2 1036 90 10000 1.11 106 19:57 28.01.2022
5676 Clouds 2 1036 87 10000 0.45 45 18:52 28.01.2022
5677 Clouds 2 1036 87 10000 0.45 45 18:52 28.01.2022
5678 Clouds 3 1036 86 10000 1.13 108 18:34 28.01.2022
5679 Clouds 6 1036 77 10000 0.45 194 16:23 28.01.2022
5680 Clouds 6 1035 81 10000 1.34 230 14:54 28.01.2022
5681 Clouds 5 1036 89 10000 0.45 202 13:21 28.01.2022
5682 Clouds 4 1037 89 10000 1.91 243 11:50 28.01.2022
5683 Clouds 2 1036 92 10000 0.45 206 10:27 28.01.2022
5684 Clouds 2 1035 93 10000 1.03 230 09:47 28.01.2022
5685 Clouds 1 1034 93 10000 1.14 214 07:42 28.01.2022
5686 Clouds 1 1034 93 10000 1.52 205 06:29 28.01.2022
5687 Clouds 2 1033 92 10000 1.75 214 03:51 28.01.2022
5688 Rain 2 1032 92 10000 1.34 198 02:28 28.01.2022
5689 Clouds 2 1032 91 10000 1.34 209 01:38 28.01.2022
5690 Rain 2 1032 91 10000 1.34 202 00:46 28.01.2022
5691 Rain 2 1030 90 10000 1.79 223 22:20 27.01.2022
5692 Clouds 1 1030 90 10000 0.45 45 21:40 27.01.2022
5693 Clouds 1 1029 90 10000 2.9 199 20:59 27.01.2022
5694 Clouds 1 1030 88 10000 2.86 201 19:45 27.01.2022
5695 Clouds -1 1030 89 10000 1.34 204 18:20 27.01.2022
5696 Clouds 0 1029 86 10000 1.34 232 16:59 27.01.2022
5697 Clouds 2 1031 61 10000 2.04 242 14:23 27.01.2022
5698 Clouds 1 1031 61 10000 2.29 241 12:49 27.01.2022
5699 Clouds 1 1031 63 10000 2.25 248 12:49 27.01.2022
5700 Clouds 1 1031 63 10000 2.25 248 12:49 27.01.2022
5701 Clouds 1 1032 64 10000 2.37 251 11:54 27.01.2022
5702 Clouds -2 1032 90 10000 1.41 241 09:48 27.01.2022
5703 Clouds -3 1031 92 10000 1.34 333 08:40 27.01.2022
5704 Clouds -3 1030 93 10000 0.45 221 07:53 27.01.2022
5705 Clouds -2 1031 93 10000 0.45 45 03:34 27.01.2022
5706 Clouds -2 1031 93 10000 1.27 160 00:24 27.01.2022
5707 Clouds -2 1032 94 10000 1.42 153 22:28 26.01.2022
5708 Clouds -2 1032 94 10000 1.42 153 21:44 26.01.2022
5709 Clouds -2 1032 94 10000 0.45 45 20:52 26.01.2022
5710 Clouds -2 1032 94 10000 1.1 121 20:33 26.01.2022
5711 Clouds -2 1032 94 10000 1.07 132 19:49 26.01.2022
5712 Clouds -1 1032 94 10000 1.55 146 18:52 26.01.2022
5713 Clouds -2 1032 94 10000 1.55 139 18:24 26.01.2022
5714 Clouds -1 1032 93 10000 0.45 338 17:34 26.01.2022
5715 Clouds 0 1033 81 10000 0.42 89 16:56 26.01.2022
5716 Clouds 5 1033 70 10000 0.41 280 16:25 26.01.2022
5717 Clouds 4 1033 63 10000 1.09 299 14:54 26.01.2022
5718 Clear 4 1033 61 10000 1.52 256 12:44 26.01.2022
5719 Clear 0 1033 65 10000 1.61 253 10:56 26.01.2022
5720 Clear -1 1034 71 10000 1.24 220 09:58 26.01.2022
5721 Clear -1 1034 71 10000 1.24 220 09:39 26.01.2022
5722 Clear -3 1031 94 10000 0.98 154 07:28 26.01.2022
5723 Clear -1 1032 91 10000 1.17 147 00:26 26.01.2022
5724 Clear -1 1031 92 10000 1.17 147 23:43 25.01.2022
5725 Clear -1 1031 91 10000 1.52 154 22:49 25.01.2022
5726 Clear 0 1031 90 10000 1.74 152 22:19 25.01.2022
5727 Clear 0 1031 88 10000 1.74 152 21:34 25.01.2022
5728 Clear 1 1032 89 10000 1.42 142 20:45 25.01.2022
5729 Clear 2 1031 84 10000 1.31 132 19:58 25.01.2022
5730 Clear 2 1031 84 10000 1.31 132 19:58 25.01.2022
5731 Clear 2 1031 85 10000 1.31 132 19:32 25.01.2022
5732 Clear 3 1031 80 10000 0.89 45 18:20 25.01.2022
5733 Clear 4 1030 77 10000 1.17 125 17:39 25.01.2022
5734 Clear 6 1033 72 10000 0.84 137 16:35 25.01.2022
5735 Clear 7 1030 70 10000 0.45 231 15:39 25.01.2022
5736 Clear 7 1031 68 10000 0.45 224 15:20 25.01.2022
5737 Clear 8 1031 69 10000 1.34 233 14:56 25.01.2022
5738 Clear 5 1032 78 10000 2.68 242 12:23 25.01.2022
5739 Clear 0 1034 94 10000 0.35 254 09:58 25.01.2022
5740 Clear -3 1032 94 10000 1.02 138 08:29 25.01.2022
5741 Clear -2 1032 94 10000 1.02 136 07:28 25.01.2022
5742 Clear -2 1032 93 10000 0.84 139 05:54 25.01.2022
5743 Clear -1 1032 91 10000 1.26 148 00:58 25.01.2022
5744 Clear -1 1032 91 10000 1.24 146 23:36 24.01.2022
5745 Clear -1 1032 91 10000 1.3 141 23:18 24.01.2022
5746 Clear -1 1032 90 10000 1.3 141 22:58 24.01.2022
5747 Clear -1 1032 90 10000 1.3 141 22:40 24.01.2022
5748 Clear 0 1032 89 10000 1.27 133 21:43 24.01.2022
5749 Clear 0 1032 89 10000 1.2 126 21:25 24.01.2022
5750 Clear 0 1032 87 10000 1.35 125 20:28 24.01.2022
5751 Clear 1 1032 86 10000 1.35 125 19:38 24.01.2022
5752 Clear 1 1031 85 10000 1.43 125 18:50 24.01.2022
5753 Clear 3 1031 80 10000 1.1 117 17:43 24.01.2022
5754 Clear 3 1031 79 10000 0.65 95 17:22 24.01.2022
5755 Clear 4 1030 75 10000 0.65 95 16:32 24.01.2022
5756 Clear 5 1030 74 10000 1.79 242 15:51 24.01.2022
5757 Clear 5 1031 74 10000 2.68 360 14:27 24.01.2022
5758 Clear 4 1032 79 10000 0.45 208 12:36 24.01.2022
5759 Clear 3 1032 82 10000 2.24 231 11:45 24.01.2022
5760 Clear 0 1032 90 10000 0.24 53 10:24 24.01.2022
5761 Clear -1 1032 92 10000 0.3 68 09:46 24.01.2022
5762 Clear -2 1031 92 10000 1.18 115 08:19 24.01.2022
5763 Clear -1 1031 91 10000 1.58 143 02:33 24.01.2022
5764 Clear -1 1031 91 10000 1.87 135 01:27 24.01.2022
5765 Clear -1 1031 91 10000 1.87 135 01:27 24.01.2022
5766 Clear -1 1031 90 10000 1.92 134 00:34 24.01.2022
5767 Clear 0 1031 90 10000 1.97 122 23:47 23.01.2022
5768 Clear 0 1032 89 10000 0.45 57 22:21 23.01.2022
5769 Clear 0 1032 88 10000 2.03 115 21:42 23.01.2022
5770 Clear 1 1032 89 10000 1.91 115 21:24 23.01.2022
5771 Clear 1 1032 87 10000 1.95 115 20:28 23.01.2022
5772 Clouds 2 1032 84 10000 1.77 107 19:21 23.01.2022
5773 Clouds 2 1031 83 10000 0.45 31 18:44 23.01.2022
5774 Clouds 4 1031 77 10000 1.37 92 17:27 23.01.2022
5775 Clouds 6 1031 74 10000 0.89 102 16:27 23.01.2022
5776 Clouds 6 1031 71 10000 0.45 109 14:56 23.01.2022
5777 Clouds 6 1031 75 10000 1.34 140 14:19 23.01.2022
5778 Clouds 5 1032 80 10000 2.68 360 12:49 23.01.2022
5779 Clouds 4 1033 81 10000 1.34 269 12:21 23.01.2022
5780 Clouds 4 1033 79 10000 0.89 257 11:51 23.01.2022
5781 Clouds 4 1034 81 10000 0.45 228 11:18 23.01.2022
5782 Clouds 2 1034 86 10000 0.63 56 10:26 23.01.2022
5783 Clouds 2 1034 89 10000 0.63 56 09:39 23.01.2022
5784 Clouds 1 1034 90 10000 0.81 112 08:51 23.01.2022
5785 Clouds 1 1033 88 10000 1.21 102 05:55 23.01.2022
5786 Clear 0 1033 90 10000 1.48 77 01:49 23.01.2022
5787 Clouds 0 1033 90 10000 1.37 70 01:25 23.01.2022
5788 Clouds 1 1034 90 10000 0.88 64 00:23 23.01.2022
5789 Clouds 1 1035 90 10000 0.88 64 23:35 22.01.2022
5790 Clouds 1 1035 89 10000 0.83 64 22:40 22.01.2022
5791 Clouds 1 1035 89 10000 0.45 65 21:28 22.01.2022
5792 Clouds 1 1034 87 10000 0.9 85 19:51 22.01.2022
5793 Clouds 2 1034 83 10000 1.3 98 18:49 22.01.2022
5794 Clouds 3 1034 81 10000 1.45 56 18:18 22.01.2022
5795 Clouds 4 1034 77 10000 1.45 56 17:40 22.01.2022
5796 Clouds 5 1033 78 10000 1.48 28 16:56 22.01.2022
5797 Clouds 6 1033 72 10000 0.45 150 15:50 22.01.2022
5798 Clouds 6 1033 69 10000 1.34 324 14:58 22.01.2022
5799 Clouds 5 1033 73 10000 1.35 359 13:42 22.01.2022
5800 Clouds 5 1034 75 10000 1.5 334 12:52 22.01.2022
5801 Clouds 4 1034 78 10000 0.94 316 12:29 22.01.2022
5802 Clouds 3 1034 81 10000 0.94 316 11:31 22.01.2022
5803 Clouds 2 1034 83 10000 0.42 259 10:29 22.01.2022
5804 Clouds 2 1034 86 10000 0.42 259 09:59 22.01.2022
5805 Clouds 1 1033 85 10000 0.53 290 08:53 22.01.2022
5806 Clouds 1 1033 85 10000 0.5 289 07:39 22.01.2022
5807 Clouds 1 1033 84 10000 0.62 89 04:53 22.01.2022
5808 Clouds 1 1033 85 10000 1.29 102 01:35 22.01.2022
5809 Clouds 1 1033 84 10000 1.51 90 23:45 21.01.2022
5810 Clouds 1 1036 83 10000 1.46 95 22:36 21.01.2022
5811 Clouds 1 1037 81 10000 1.57 106 20:32 21.01.2022
5812 Clouds 2 1036 85 10000 1.74 115 18:40 21.01.2022
5813 Clouds 2 1035 86 10000 1.59 95 17:41 21.01.2022
5814 Clouds 4 1033 68 10000 0.89 325 15:44 21.01.2022
5815 Clouds 3 1032 72 10000 2.31 357 13:55 21.01.2022
5816 Clouds 3 1033 73 10000 2.24 339 12:39 21.01.2022
5817 Clouds 2 1033 82 10000 0.89 45 11:28 21.01.2022
5818 Clouds 1 1033 88 10000 0.89 45 10:20 21.01.2022
5819 Clouds -1 1032 91 10000 0.45 45 08:25 21.01.2022
5820 Clouds -1 1032 91 10000 0.45 45 08:25 21.01.2022
5821 Clouds -1 1032 91 10000 1.39 35 07:19 21.01.2022
5822 Clouds -1 1031 92 10000 1 73 00:59 21.01.2022
5823 Clouds 0 1029 90 10000 1.39 102 22:45 20.01.2022
5824 Clouds 0 1029 89 10000 1.6 86 21:48 20.01.2022
5825 Clouds 1 1029 88 10000 1.21 77 20:56 20.01.2022
5826 Clouds 1 1029 89 10000 0.69 45 19:40 20.01.2022
5827 Clouds 2 1029 88 4626 1.13 354 19:18 20.01.2022
5828 Rain 2 1028 86 2916 1.14 335 17:32 20.01.2022
5829 Clouds 5 1027 82 704 0.45 265 15:46 20.01.2022
5830 Clouds 4 1027 83 3430 0.45 236 15:26 20.01.2022
5831 Clouds 5 1027 80 10000 1.34 241 13:54 20.01.2022
5832 Clouds 5 1027 80 10000 1.34 241 13:54 20.01.2022
5833 Clouds 4 1027 85 10000 0.89 248 12:44 20.01.2022
5834 Clouds 4 1027 86 10000 0.45 171 12:26 20.01.2022
5835 Clouds 3 1027 90 3184 1.34 218 10:58 20.01.2022
5836 Clouds 2 1027 91 97 1.34 215 09:43 20.01.2022
5837 Clouds 2 1026 90 51 1.79 236 08:36 20.01.2022
5838 Clouds 2 1026 90 26 2.68 190 06:18 20.01.2022
5839 Clouds 3 1026 84 3380 4.47 225 23:56 19.01.2022
5840 Clouds 3 1026 81 4882 4.02 146 22:37 19.01.2022
5841 Clouds 3 1026 80 10000 2.24 222 21:26 19.01.2022
5842 Clouds 3 1026 80 10000 1.79 150 20:55 19.01.2022
5843 Clouds 3 1026 80 10000 3.58 222 20:24 19.01.2022
5844 Clouds 3 1026 77 10000 3.13 207 18:49 19.01.2022
5845 Clouds 4 1025 78 10000 4.02 173 17:50 19.01.2022
5846 Clouds 4 1026 78 10000 3.58 236 17:18 19.01.2022
5847 Clouds 4 1026 78 10000 3.58 236 17:18 19.01.2022
5848 Clear 5 1026 74 10000 3.58 222 14:55 19.01.2022
5849 Clear 4 1026 80 10000 4.47 207 13:20 19.01.2022
5850 Clear 4 1028 80 10000 4.02 213 11:58 19.01.2022
5851 Clear 3 1028 77 10000 4.47 210 11:22 19.01.2022
5852 Clear 2 1028 79 10000 1.34 203 09:35 19.01.2022
5853 Clear 2 1028 79 10000 1.34 203 09:35 19.01.2022
5854 Clear -1 1028 92 10000 1.76 176 08:20 19.01.2022
5855 Clear -1 1029 91 10000 1.33 172 05:19 19.01.2022
5856 Clear 0 1031 90 10000 1.65 135 00:18 19.01.2022
5857 Clear 0 1032 89 10000 1.78 145 23:18 18.01.2022
5858 Clear 1 1032 87 10000 1.85 137 21:44 18.01.2022
5859 Clouds 2 1032 84 10000 2.35 121 20:22 18.01.2022
5860 Clear 2 1033 85 10000 0.45 49 19:45 18.01.2022
5861 Clear 3 1033 82 10000 2.25 105 19:25 18.01.2022
5862 Clouds 4 1033 77 10000 0.89 118 18:18 18.01.2022
5863 Clouds 5 1032 75 10000 0.45 37 17:31 18.01.2022
5864 Clouds 6 1033 72 10000 0.89 346 16:20 18.01.2022
5865 Clouds 7 1033 72 10000 0.89 76 15:25 18.01.2022
5866 Clouds 7 1033 74 10000 2.68 125 14:22 18.01.2022
5867 Clouds 5 1035 83 10000 0.89 12 11:31 18.01.2022
5868 Clouds 2 1035 94 10000 1.79 45 10:25 18.01.2022
5869 Clouds 1 1036 93 10000 0.45 68 08:29 18.01.2022
5870 Clouds 1 1036 92 10000 0.45 68 07:43 18.01.2022
5871 Clouds 1 1036 91 10000 1.75 78 00:39 18.01.2022
5872 Clouds 2 1036 89 10000 1.56 89 22:40 17.01.2022
5873 Clouds 3 1036 89 10000 1.61 78 21:42 17.01.2022
5874 Clouds 3 1036 88 10000 1.09 74 20:44 17.01.2022
5875 Clouds 4 1036 86 10000 0.73 120 18:46 17.01.2022
5876 Clouds 4 1035 86 10000 0.76 113 18:25 17.01.2022
5877 Clouds 5 1035 84 10000 0.6 5 17:22 17.01.2022
5878 Clouds 5 1035 84 10000 0.92 298 15:54 17.01.2022
5879 Clouds 5 1034 83 10000 0.45 241 14:58 17.01.2022
5880 Clouds 5 1035 83 10000 0.89 240 14:31 17.01.2022
5881 Clouds 5 1036 85 10000 1.79 246 13:18 17.01.2022
5882 Clouds 5 1036 85 10000 1.79 246 13:18 17.01.2022
5883 Clouds 4 1035 86 10000 1.68 214 11:53 17.01.2022
5884 Clouds 3 1035 86 10000 0.45 68 10:53 17.01.2022
5885 Clouds 2 1035 88 10000 0.45 45 09:46 17.01.2022
5886 Clouds 1 1034 86 10000 1.87 194 08:44 17.01.2022
5887 Clouds 1 1033 87 10000 1.44 205 07:20 17.01.2022
5888 Clouds 1 1033 79 10000 1.4 204 00:59 17.01.2022
5889 Clouds 1 1032 78 10000 1.45 203 23:33 16.01.2022
5890 Clouds 1 1031 80 10000 1.89 188 20:51 16.01.2022
5891 Clouds 1 1031 80 10000 0.89 165 20:18 16.01.2022
5892 Clouds 1 1030 83 10000 0.45 150 18:45 16.01.2022
5893 Clouds 2 1030 80 10000 2.42 161 17:47 16.01.2022
5894 Clouds 3 1030 73 10000 1.87 182 16:54 16.01.2022
5895 Clouds 5 1028 65 10000 0.45 242 15:40 16.01.2022
5896 Clear 5 1028 63 10000 1.34 179 14:29 16.01.2022
5897 Clear 5 1028 65 10000 1.34 153 13:23 16.01.2022
5898 Clear 4 1028 71 10000 0.45 189 11:58 16.01.2022
5899 Clear 3 1028 79 10000 1.34 196 11:27 16.01.2022
5900 Clear 1 1027 81 10000 3.13 203 10:27 16.01.2022
5901 Clear 2 1027 79 10000 2.68 203 09:57 16.01.2022
5902 Clear -1 1029 86 10000 2.78 194 09:23 16.01.2022
5903 Clear -1 1029 90 10000 2.78 194 08:53 16.01.2022
5904 Clouds -2 1028 95 10000 2.81 188 06:35 16.01.2022
5905 Clouds -2 1027 94 10000 1.37 164 00:19 16.01.2022
5906 Clouds -2 1027 94 10000 1.46 165 22:50 15.01.2022
5907 Clouds -2 1027 95 10000 1.48 162 21:21 15.01.2022
5908 Clouds -2 1027 95 10000 1.48 162 20:44 15.01.2022
5909 Clouds -2 1027 95 10000 1.38 147 20:21 15.01.2022
5910 Clouds -1 1027 94 10000 1.44 128 19:26 15.01.2022
5911 Clouds -1 1027 94 10000 1.19 120 17:58 15.01.2022
5912 Clouds 1 1026 87 10000 0.79 116 16:49 15.01.2022
5913 Clear 3 1026 74 10000 0.64 316 14:36 15.01.2022
5914 Clear 2 1027 69 10000 0.6 296 12:39 15.01.2022
5915 Clear -2 1029 75 10000 0.23 307 11:21 15.01.2022
5916 Clear -1 1029 79 10000 0.3 97 09:46 15.01.2022
5917 Clear -1 1030 92 10000 0.91 79 01:58 15.01.2022
5918 Clear 0 1031 90 10000 0.95 94 23:20 14.01.2022
5919 Clear 1 1032 87 10000 1.03 117 20:57 14.01.2022
5920 Clear 1 1032 86 10000 1.09 95 20:24 14.01.2022
5921 Clear 1 1032 86 10000 1.09 95 19:50 14.01.2022
5922 Clear 2 1033 84 10000 1.26 105 18:38 14.01.2022
5923 Clear 3 1032 77 10000 0.69 120 17:21 14.01.2022
5924 Clear 4 1033 76 10000 0.69 120 16:40 14.01.2022
5925 Clear 6 1033 70 10000 1.79 250 15:30 14.01.2022
5926 Clear 5 1034 75 10000 0.97 327 14:25 14.01.2022
5927 Clear 4 1035 70 10000 0.93 353 12:58 14.01.2022
5928 Clear 2 1036 82 10000 1.15 337 11:52 14.01.2022
5929 Clear 0 1036 69 10000 0.51 318 10:30 14.01.2022
5930 Clear -2 1035 82 10000 0.53 134 08:53 14.01.2022
5931 Clear -2 1035 91 10000 0.45 64 07:30 14.01.2022
5932 Clear -2 1037 93 10000 1.14 160 02:27 14.01.2022
5933 Clear -2 1037 94 10000 1.12 160 00:21 14.01.2022
5934 Clear -2 1037 94 10000 1.05 145 21:47 13.01.2022
5935 Clear -1 1037 94 10000 1.01 123 21:29 13.01.2022
5936 Clear -1 1038 93 10000 1 125 19:45 13.01.2022
5937 Clear -1 1037 92 10000 1.21 106 19:23 13.01.2022
5938 Clear -1 1037 92 10000 1.21 106 18:37 13.01.2022
5939 Clear 1 1037 87 10000 0.89 325 16:52 13.01.2022
5940 Clear 2 1038 84 10000 2.24 248 15:39 13.01.2022
5941 Clear 2 1038 80 10000 0.45 332 15:20 13.01.2022
5942 Clear 2 1040 79 10000 0.45 353 13:29 13.01.2022
5943 Clear 0 1040 84 10000 0.93 19 10:49 13.01.2022
5944 Clear -4 1039 92 10000 1.01 87 09:23 13.01.2022
5945 Clear -5 1039 92 10000 0.87 98 08:29 13.01.2022
5946 Clear -4 1039 92 10000 0.87 98 07:58 13.01.2022
5947 Clear -4 1039 92 10000 1.01 93 07:19 13.01.2022
5948 Clear -4 1039 92 10000 1.15 94 05:21 13.01.2022
5949 Clear -4 1039 93 10000 1.05 83 03:48 13.01.2022
5950 Clear -4 1038 92 10000 1.12 91 01:39 13.01.2022
5951 Clear -3 1039 93 10000 1.15 89 23:54 12.01.2022
5952 Clear -3 1039 93 10000 1.15 89 23:34 12.01.2022
5953 Clear -3 1039 92 10000 1.2 100 22:32 12.01.2022
5954 Clear -2 1038 92 10000 1.39 97 21:43 12.01.2022
5955 Clear -2 1038 92 10000 1.17 99 21:19 12.01.2022
5956 Clear -2 1038 92 10000 1.17 99 20:47 12.01.2022
5957 Clear -1 1038 92 10000 1.42 78 19:22 12.01.2022
5958 Clouds -1 1037 90 10000 1.62 71 18:25 12.01.2022
5959 Clouds 0 1037 88 10000 1.39 50 16:58 12.01.2022
5960 Clouds 2 1037 84 10000 0.45 341 15:49 12.01.2022
5961 Clouds 2 1037 74 10000 2.68 263 14:45 12.01.2022
5962 Clouds 2 1037 77 10000 2.2 2 12:58 12.01.2022
5963 Clouds -1 1036 85 10000 0.99 121 09:58 12.01.2022
5964 Clouds -4 1035 92 10000 1.6 97 07:59 12.01.2022
5965 Clouds -4 1035 92 10000 1.6 97 07:33 12.01.2022
5966 Clear -3 1033 91 10000 1.62 103 04:54 12.01.2022
5967 Clear -2 1033 92 10000 2.04 101 23:29 11.01.2022
5968 Clear -2 1033 92 10000 2.04 101 22:41 11.01.2022
5969 Clear -2 1032 92 10000 2.01 94 22:20 11.01.2022
5970 Clear -1 1032 92 10000 2.11 98 20:40 11.01.2022
5971 Clear -1 1032 94 10000 2.09 96 19:41 11.01.2022
5972 Clear 0 1031 94 10000 2.11 81 18:25 11.01.2022
5973 Clear 0 1030 93 10000 1.98 66 17:18 11.01.2022
5974 Clear 1 1030 95 10000 1.98 66 16:36 11.01.2022
5975 Clear 4 1031 67 10000 1.89 33 14:59 11.01.2022
5976 Clear 4 1031 67 10000 1.9 32 14:40 11.01.2022
5977 Clear 5 1031 73 10000 2.01 40 13:54 11.01.2022
5978 Clear 4 1030 83 10000 0.89 233 13:31 11.01.2022
5979 Clouds 4 1031 75 10000 1.8 36 12:37 11.01.2022
5980 Clouds 3 1032 84 10000 1.85 58 10:52 11.01.2022
5981 Clouds -1 1030 94 10000 0.45 357 08:53 11.01.2022
5982 Clouds -2 1028 93 10000 1.56 97 06:28 11.01.2022
5983 Clouds 0 1027 90 10000 0.89 332 00:30 11.01.2022
5984 Clouds 0 1026 88 10000 0.89 357 23:41 10.01.2022
5985 Clouds 0 1026 89 10000 0.45 40 22:51 10.01.2022
5986 Clouds 0 1026 89 10000 1.62 73 22:18 10.01.2022
5987 Clouds 0 1026 89 10000 0.45 67 21:48 10.01.2022
5988 Clouds 1 1027 89 10000 1.33 78 21:19 10.01.2022
5989 Clouds 1 1026 89 10000 1.33 78 20:56 10.01.2022
5990 Clouds 1 1026 88 10000 0.89 90 20:26 10.01.2022
5991 Clouds 1 1026 88 10000 0.89 90 19:41 10.01.2022
5992 Clouds 1 1025 87 10000 2.24 79 19:20 10.01.2022
5993 Clouds 2 1025 85 10000 0.89 90 18:48 10.01.2022
5994 Clouds 2 1024 85 10000 2.22 80 17:40 10.01.2022
5995 Clouds 4 1022 81 10000 2.11 60 16:41 10.01.2022
5996 Clouds 5 1021 84 10000 1.79 30 15:20 10.01.2022
5997 Clouds 4 1020 89 10000 0.89 11 13:41 10.01.2022
5998 Clouds 3 1019 93 10000 1.79 340 11:58 10.01.2022
5999 Clouds 3 1018 94 10000 1.16 16 11:25 10.01.2022
6000 Snow 2 1017 95 10000 0.56 7 09:48 10.01.2022
6001 Clouds 2 1013 95 10000 1.07 39 06:47 10.01.2022
6002 Clouds 2 1013 95 10000 0.91 86 05:49 10.01.2022
6003 Rain 2 1010 94 2986 0.93 244 01:30 10.01.2022
6004 Clouds 2 1009 92 59 1.13 231 00:24 10.01.2022
6005 Clouds 2 1008 92 59 0.89 90 23:33 09.01.2022
6006 Clouds 3 1008 92 44 0.89 32 22:37 09.01.2022
6007 Clouds 3 1007 91 31 0.45 34 21:46 09.01.2022
6008 Clouds 3 1007 91 32 0.89 347 21:23 09.01.2022
6009 Clouds 3 1007 90 32 0.85 196 20:51 09.01.2022
6010 Clouds 3 1007 90 32 0.85 196 20:33 09.01.2022
6011 Clouds 4 1006 89 63 2.24 184 19:44 09.01.2022
6012 Rain 4 1006 88 3391 1.34 251 19:23 09.01.2022
6013 Clouds 4 1006 86 68 0.89 212 18:56 09.01.2022
6014 Clouds 4 1006 84 68 0.89 193 18:34 09.01.2022
6015 Clouds 4 1005 86 932 1.79 203 17:40 09.01.2022
6016 Clouds 4 1005 86 2902 2.68 192 17:20 09.01.2022
6017 Clouds 5 1005 85 2898 0.89 149 15:58 09.01.2022
6018 Clouds 5 1005 85 2898 3.13 150 15:35 09.01.2022
6019 Clouds 5 1005 84 147 1.79 160 14:41 09.01.2022
6020 Clouds 5 1005 86 104 2.68 238 13:51 09.01.2022
6021 Clouds 5 1005 87 56 3.13 218 13:25 09.01.2022
6022 Clouds 4 1005 85 53 4.02 180 11:55 09.01.2022
6023 Clouds 4 1005 86 75 4.02 148 10:53 09.01.2022
6024 Clouds 4 1005 87 3068 3.58 225 09:50 09.01.2022
6025 Clouds 4 1004 88 4152 4.02 209 08:54 09.01.2022
6026 Clouds 4 1001 90 7382 4.47 153 05:54 09.01.2022
6027 Clouds 6 996 84 7537 5.81 207 01:25 09.01.2022
6028 Rain 6 996 85 6966 2.68 105 00:37 09.01.2022
6029 Rain 6 997 79 5342 5.36 192 23:27 08.01.2022
6030 Clouds 6 999 79 5342 2.24 173 22:35 08.01.2022
6031 Clouds 6 1002 76 10000 2.24 177 21:27 08.01.2022
6032 Clouds 6 1004 75 10000 4.47 182 20:43 08.01.2022
6033 Clouds 6 1005 75 10000 4.02 243 20:21 08.01.2022
6034 Clouds 5 1007 74 10000 0.89 184 18:46 08.01.2022
6035 Clouds 4 1009 69 10000 1.34 203 17:24 08.01.2022
6036 Clouds 5 1010 63 10000 0.89 230 16:42 08.01.2022
6037 Clouds 5 1013 74 10000 4.02 224 14:52 08.01.2022
6038 Clouds 4 1015 74 10000 2.24 176 13:56 08.01.2022
6039 Clouds 3 1017 80 10000 1.34 167 11:30 08.01.2022
6040 Clouds 3 1017 84 10000 2.24 140 10:33 08.01.2022
6041 Clouds 2 1017 86 8585 2.68 202 09:57 08.01.2022
6042 Clouds 2 1016 87 10000 0.89 204 09:33 08.01.2022
6043 Clouds 3 1012 89 10000 2.24 198 05:51 08.01.2022
6044 Rain 4 1011 77 10000 2.68 135 01:24 08.01.2022
6045 Clouds 4 1014 83 10000 1.79 191 23:30 07.01.2022
6046 Clouds 3 1016 87 10000 2.68 235 21:47 07.01.2022
6047 Clouds 3 1017 89 807 4.47 200 20:32 07.01.2022
6048 Clouds 2 1018 90 91 2.68 169 19:27 07.01.2022
6049 Clouds 2 1018 90 90 2.68 169 19:27 07.01.2022
6050 Clouds 2 1017 89 51 4.02 173 18:49 07.01.2022
6051 Clouds 2 1017 90 199 3.13 209 18:21 07.01.2022
6052 Rain 2 1017 87 2934 3.58 190 17:23 07.01.2022
6053 Clouds 3 1016 85 4306 3.13 223 14:56 07.01.2022
6054 Clouds 3 1016 83 10000 1.79 197 13:52 07.01.2022
6055 Clouds 2 1017 81 4520 4.02 170 12:51 07.01.2022
6056 Rain 3 1018 78 10000 4.02 179 11:22 07.01.2022
6057 Clouds 0 1020 88 10000 2.05 170 04:54 07.01.2022
6058 Clouds -1 1019 87 10000 0.89 61 02:53 07.01.2022
6059 Clouds -1 1020 89 10000 1.79 80 01:49 07.01.2022
6060 Clouds -1 1020 90 10000 0.89 73 01:26 07.01.2022
6061 Clouds -1 1021 90 10000 1.92 152 00:31 07.01.2022
6062 Clouds -1 1020 89 10000 0.89 90 22:33 06.01.2022
6063 Clouds 1 1020 88 10000 0.89 84 20:51 06.01.2022
6064 Clouds 1 1020 88 10000 1.58 129 20:18 06.01.2022
6065 Clouds 1 1020 89 10000 0.45 68 19:39 06.01.2022
6066 Clouds 2 1020 87 10000 1.18 91 17:52 06.01.2022
6067 Clouds 3 1020 85 10000 0.89 58 17:28 06.01.2022
6068 Clouds 4 1020 84 10000 1.29 68 16:39 06.01.2022
6069 Clouds 4 1020 85 10000 0.45 293 15:45 06.01.2022
6070 Clouds 4 1020 84 10000 1.34 293 15:23 06.01.2022
6071 Clouds 4 1019 87 10000 1.19 12 14:20 06.01.2022
6072 Clouds 4 1019 88 10000 1.19 12 13:44 06.01.2022
6073 Clouds 3 1019 90 10000 1.16 346 12:32 06.01.2022
6074 Clouds 3 1019 90 10000 1.11 318 11:41 06.01.2022
6075 Clouds 3 1019 90 10000 1.07 300 11:20 06.01.2022
6076 Clouds 1 1018 92 442 0.59 201 08:31 06.01.2022
6077 Clouds 2 1015 81 834 0.89 161 00:39 06.01.2022
6078 Clouds 2 1015 82 2703 0.89 225 23:35 05.01.2022
6079 Clouds 2 1015 82 2703 0.89 225 23:35 05.01.2022
6080 Clouds 2 1015 80 4799 0.45 191 22:51 05.01.2022
6081 Clouds 2 1014 80 5460 0.89 211 22:29 05.01.2022
6082 Clouds 2 1014 80 5460 0.45 182 21:45 05.01.2022
6083 Clouds 2 1014 80 3427 0.45 211 20:49 05.01.2022
6084 Clouds 2 1014 79 8524 0.89 193 19:58 05.01.2022
6085 Clouds 2 1013 77 7055 0.45 225 18:33 05.01.2022
6086 Clouds 3 1013 70 10000 0.89 175 17:23 05.01.2022
6087 Clouds 3 1013 66 10000 2.27 221 16:38 05.01.2022
6088 Clouds 4 1012 64 10000 1.79 291 15:20 05.01.2022
6089 Clouds 4 1011 64 10000 2.68 238 13:39 05.01.2022
6090 Clouds 4 1011 65 10000 2.24 303 12:51 05.01.2022
6091 Rain 3 1009 86 10000 3.65 286 09:30 05.01.2022
6092 Rain 4 1006 88 892 0.89 45 07:42 05.01.2022
6093 Rain 6 1003 87 9934 2.24 206 04:58 05.01.2022
6094 Rain 5 1002 91 10000 1.34 196 00:58 05.01.2022
6095 Rain 5 1002 93 1964 2.15 248 23:27 04.01.2022
6096 Rain 5 1001 92 1964 2.15 248 22:42 04.01.2022
6097 Rain 6 1001 91 1328 2 340 21:21 04.01.2022
6098 Rain 7 1000 92 1722 0.45 332 19:20 04.01.2022
6099 Rain 10 999 86 1493 1.34 38 17:51 04.01.2022
6100 Clouds 12 998 80 10000 4.47 200 16:43 04.01.2022
6101 Rain 12 998 80 10000 1.79 157 16:23 04.01.2022
6102 Clouds 12 998 83 10000 2.68 190 14:54 04.01.2022
6103 Rain 12 998 82 10000 4.47 213 14:34 04.01.2022
6104 Rain 14 998 77 10000 4.47 161 13:27 04.01.2022
6105 Clouds 15 999 69 10000 0.89 202 10:41 04.01.2022
6106 Clouds 14 999 75 10000 2.24 249 09:20 04.01.2022
6107 Clouds 13 999 77 10000 1.79 203 08:30 04.01.2022
6108 Clouds 12 1005 71 10000 0.45 206 02:32 04.01.2022
6109 Clouds 11 1008 71 10000 2.68 219 00:41 04.01.2022
6110 Clouds 11 1012 73 10000 5.2 217 23:26 03.01.2022
6111 Clouds 11 1010 70 10000 4.47 167 21:52 03.01.2022
6112 Clouds 11 1010 71 10000 1.34 182 21:33 03.01.2022
6113 Clouds 11 1012 71 10000 1.79 175 20:22 03.01.2022
6114 Clouds 12 1013 74 10000 2.68 196 18:54 03.01.2022
6115 Clouds 11 1014 75 10000 1.79 207 18:28 03.01.2022
6116 Clouds 12 1015 75 10000 2.24 180 16:58 03.01.2022
6117 Clouds 12 1015 76 10000 1.79 212 15:39 03.01.2022
6118 Clouds 12 1016 75 10000 1.79 202 14:31 03.01.2022
6119 Clouds 12 1016 75 10000 1.79 202 14:31 03.01.2022
6120 Clouds 12 1018 77 10000 2.68 219 12:48 03.01.2022
6121 Clouds 11 1019 77 10000 2.68 219 11:38 03.01.2022
6122 Clouds 11 1019 78 10000 4.47 253 10:37 03.01.2022
6123 Clouds 11 1019 78 10000 2.24 223 08:48 03.01.2022
6124 Clouds 11 1019 77 10000 1.79 214 07:36 03.01.2022
6125 Clouds 12 1021 73 10000 5.36 184 00:29 03.01.2022
6126 Clouds 12 1020 70 10000 5.36 230 23:22 02.01.2022
6127 Clouds 12 1020 70 10000 4.47 244 22:55 02.01.2022
6128 Clouds 12 1021 70 10000 1.34 180 21:46 02.01.2022
6129 Clouds 11 1020 66 10000 4.02 225 20:41 02.01.2022
6130 Clouds 12 1020 64 10000 5.36 219 20:22 02.01.2022
6131 Clouds 11 1023 62 10000 5.43 207 19:31 02.01.2022
6132 Clouds 11 1019 57 10000 3.58 235 18:47 02.01.2022
6133 Clouds 11 1022 58 10000 5.41 210 17:56 02.01.2022
6134 Clouds 12 1022 55 10000 5.41 210 17:37 02.01.2022
6135 Clouds 12 1021 55 10000 4.82 208 17:18 02.01.2022
6136 Clouds 13 1019 51 10000 4.02 200 16:27 02.01.2022
6137 Clouds 13 1019 58 10000 2.68 219 14:38 02.01.2022
6138 Clouds 13 1020 51 10000 4.47 225 12:57 02.01.2022
6139 Clouds 12 1021 54 10000 4.47 207 12:25 02.01.2022
6140 Clouds 12 1020 53 10000 3.58 211 11:36 02.01.2022
6141 Clouds 11 1020 61 10000 4.47 220 10:50 02.01.2022
6142 Clouds 8 1021 78 10000 3.14 191 09:52 02.01.2022
6143 Clouds 9 1020 61 10000 2.22 165 07:26 02.01.2022
6144 Clouds 8 1023 77 10000 1.5 167 02:20 02.01.2022
6145 Clouds 7 1023 90 10000 1.71 158 23:40 01.01.2022
6146 Clouds 7 1023 87 10000 1.33 151 23:22 01.01.2022
6147 Clouds 7 1023 88 10000 0.94 157 22:24 01.01.2022
6148 Clouds 7 1024 87 10000 0.94 157 21:44 01.01.2022
6149 Clouds 8 1023 89 10000 1.33 149 20:56 01.01.2022
6150 Clouds 8 1024 89 10000 1.49 143 19:59 01.01.2022
6151 Clouds 7 1024 89 10000 1.49 143 19:32 01.01.2022
6152 Clouds 8 1024 87 10000 1.3 142 18:29 01.01.2022
6153 Clouds 10 1023 80 10000 1.13 139 16:51 01.01.2022
6154 Clouds 12 1024 78 10000 0.87 118 16:29 01.01.2022
6155 Clouds 13 1026 75 10000 0.87 118 15:33 01.01.2022
6156 Clouds 13 1024 75 10000 0.61 288 14:22 01.01.2022
6157 Clouds 12 1026 76 10000 0.67 261 12:50 01.01.2022
6158 Clouds 10 1026 81 10000 0.84 251 11:59 01.01.2022
6159 Clouds 9 1027 83 10000 0.54 222 11:24 01.01.2022
6160 Clouds 8 1027 83 10000 0.54 222 10:43 01.01.2022
6161 Clouds 8 1027 89 10000 1.01 161 09:47 01.01.2022
6162 Clouds 5 1027 91 10000 1.16 135 08:27 01.01.2022
6163 Clouds 5 1027 90 10000 1.16 135 07:56 01.01.2022
6164 Clouds 5 1027 89 10000 1.16 135 07:37 01.01.2022
6165 Clouds 6 1027 89 10000 1.2 141 06:43 01.01.2022
6166 Clouds 6 1027 87 10000 1.11 136 04:39 01.01.2022
6167 Clouds 7 1027 85 10000 1.5 150 03:48 01.01.2022
6168 Clouds 9 1026 77 10000 1.61 177 23:53 31.12.2021
6169 Clouds 9 1025 78 10000 2.56 178 21:56 31.12.2021
6170 Clouds 9 1025 75 10000 2.56 178 21:32 31.12.2021
6171 Clear 9 1023 83 10000 2.83 177 19:43 31.12.2021
6172 Clear 6 1027 85 10000 2.75 181 18:47 31.12.2021
6173 Clear 12 1026 77 10000 3.24 186 17:49 31.12.2021
6174 Clear 12 1025 77 10000 3.59 182 17:24 31.12.2021
6175 Clear 12 1025 76 10000 3.59 182 16:51 31.12.2021
6176 Clear 14 1024 74 10000 3.7 188 16:18 31.12.2021
6177 Clear 14 1024 70 10000 3.7 188 15:42 31.12.2021
6178 Clear 16 1022 67 10000 4.02 200 15:20 31.12.2021
6179 Clear 15 1022 68 10000 3.13 159 14:38 31.12.2021
6180 Clear 14 1023 74 10000 3.58 203 13:45 31.12.2021
6181 Clear 14 1023 74 10000 3.58 203 13:45 31.12.2021
6182 Clear 14 1022 74 10000 2.68 203 12:50 31.12.2021
6183 Clear 12 1022 83 10000 2.25 211 12:20 31.12.2021
6184 Clear 12 1021 85 10000 2.25 211 11:41 31.12.2021
6185 Clear 10 1021 91 10000 1.71 195 10:50 31.12.2021
6186 Clear 8 1022 93 10000 1.1 189 10:28 31.12.2021
6187 Clear 8 1022 94 10000 1.1 189 09:34 31.12.2021
6188 Clear 7 1022 95 10000 1.46 161 08:52 31.12.2021
6189 Clear 7 1022 94 10000 1.72 160 07:55 31.12.2021
6190 Clear 8 1022 93 10000 1.5 154 04:54 31.12.2021
6191 Clouds 11 1023 88 10000 1.36 189 23:18 30.12.2021
6192 Clouds 11 1023 88 10000 1.36 189 22:32 30.12.2021
6193 Clouds 12 1023 87 10000 1.54 182 21:39 30.12.2021
6194 Clouds 13 1023 86 10000 0.45 203 21:19 30.12.2021
6195 Clouds 13 1023 86 10000 1.98 186 20:40 30.12.2021
6196 Clouds 13 1023 86 10000 0.89 254 19:56 30.12.2021
6197 Clouds 13 1023 85 10000 1.79 213 19:34 30.12.2021
6198 Clouds 14 1022 84 10000 1.34 360 18:29 30.12.2021
6199 Clouds 14 1022 87 10000 2.68 200 17:34 30.12.2021
6200 Clouds 15 1021 86 10000 2.68 230 15:54 30.12.2021
6201 Clouds 15 1021 86 10000 3.58 173 15:22 30.12.2021
6202 Clouds 15 1021 86 10000 2.24 109 14:36 30.12.2021
6203 Clouds 15 1020 85 10000 0.89 197 13:31 30.12.2021
6204 Clouds 14 1021 87 10000 4.92 194 11:59 30.12.2021
6205 Clouds 14 1021 88 10000 4.47 224 10:44 30.12.2021
6206 Clouds 14 1021 89 10000 4.02 200 09:54 30.12.2021
6207 Clouds 14 1020 89 10000 3.13 169 07:42 30.12.2021
6208 Clouds 14 1019 89 10000 1.34 200 06:38 30.12.2021
6209 Clouds 13 1017 90 10000 2.68 219 03:41 30.12.2021
6210 Clouds 13 1017 90 2702 3.58 215 02:38 30.12.2021
6211 Clouds 14 1015 91 5545 3.58 213 23:42 29.12.2021
6212 Clouds 14 1015 91 2084 4.02 202 23:22 29.12.2021
6213 Clouds 14 1014 92 3353 3.58 192 22:19 29.12.2021
6214 Clouds 14 1013 92 3460 1.79 209 21:27 29.12.2021
6215 Clouds 13 1012 92 3460 3.58 211 20:34 29.12.2021
6216 Clouds 13 1012 93 2183 2.68 176 19:48 29.12.2021
6217 Clouds 12 1011 92 10000 2.68 208 18:52 29.12.2021
6218 Clouds 11 1011 92 10000 4.92 134 17:56 29.12.2021
6219 Clouds 11 1011 92 10000 3.13 158 17:28 29.12.2021
6220 Clouds 10 1009 93 10000 2.57 172 16:24 29.12.2021
6221 Clouds 10 1010 91 10000 0.89 165 15:59 29.12.2021
6222 Clouds 9 1010 92 6407 1.92 178 14:24 29.12.2021
6223 Rain 8 1010 92 6739 2.32 162 12:39 29.12.2021
6224 Rain 8 1011 89 10000 1.34 146 11:43 29.12.2021
6225 Clouds 10 1011 81 10000 4.02 220 09:59 29.12.2021
6226 Clouds 9 1010 83 10000 3.13 152 07:52 29.12.2021
6227 Clouds 9 1010 83 10000 3.13 152 07:52 29.12.2021
6228 Clouds 9 1009 84 10000 1.79 209 06:40 29.12.2021
6229 Clouds 9 1009 84 10000 1.79 209 06:40 29.12.2021
6230 Clouds 9 1009 84 10000 2.68 226 06:22 29.12.2021
6231 Clouds 9 1009 84 10000 3.58 189 05:40 29.12.2021
6232 Clouds 9 1008 81 10000 3.58 208 03:18 29.12.2021
6233 Clouds 10 1005 80 10000 3.58 220 00:24 29.12.2021
6234 Clouds 10 1005 80 10000 4.47 123 23:45 28.12.2021
6235 Clouds 10 1004 80 10000 4.92 184 22:42 28.12.2021
6236 Clouds 10 1004 81 10000 4.02 139 22:24 28.12.2021
6237 Clouds 10 1003 80 10000 5.36 166 21:53 28.12.2021
6238 Clouds 10 1003 78 10000 4.02 225 20:47 28.12.2021
6239 Rain 10 1002 80 10000 6.26 200 19:39 28.12.2021
6240 Clouds 10 1002 83 9724 3.13 221 18:44 28.12.2021
6241 Clouds 10 1002 83 10000 4.02 161 18:23 28.12.2021
6242 Clouds 11 1001 81 10000 3.58 224 16:35 28.12.2021
6243 Rain 12 1000 81 10000 6.71 273 15:51 28.12.2021
6244 Rain 12 999 85 10000 4.92 201 15:25 28.12.2021
6245 Rain 12 999 86 10000 4.47 191 14:52 28.12.2021
6246 Rain 12 999 90 6317 5.36 196 14:21 28.12.2021
6247 Clouds 12 999 90 6317 3.58 127 13:54 28.12.2021
6248 Clouds 12 999 86 6317 4.02 150 13:31 28.12.2021
6249 Clouds 12 1000 86 10000 4.92 215 12:55 28.12.2021
6250 Clouds 12 1001 82 10000 4.92 231 11:51 28.12.2021
6251 Clouds 11 999 87 10000 4.02 163 09:30 28.12.2021
6252 Clouds 10 998 81 5531 4.92 207 07:33 28.12.2021
6253 Clouds 8 1004 95 10000 2.5 160 03:28 28.12.2021
6254 Clouds 10 1002 81 10000 2.24 203 23:26 27.12.2021
6255 Clouds 9 1002 85 10000 1.79 207 22:20 27.12.2021
6256 Clouds 10 1002 87 10000 3.13 213 21:30 27.12.2021
6257 Clouds 9 1002 88 10000 5.36 200 20:27 27.12.2021
6258 Clouds 9 1002 89 10000 3.13 174 19:47 27.12.2021
6259 Clouds 9 1002 86 5194 4.02 182 18:57 27.12.2021
6260 Clouds 9 1001 83 10000 2.24 215 17:51 27.12.2021
6261 Clouds 9 1000 82 9700 3.58 123 17:28 27.12.2021
6262 Rain 9 1000 85 10000 3.58 203 15:54 27.12.2021
6263 Rain 8 1000 91 10000 1.34 202 15:19 27.12.2021
6264 Clouds 8 1000 90 10000 0.45 157 14:22 27.12.2021
6265 Clouds 8 1000 92 10000 1.15 227 12:52 27.12.2021
6266 Clouds 7 1001 91 10000 1.34 61 10:40 27.12.2021
6267 Clouds 7 1001 92 10000 0.45 92 10:22 27.12.2021
6268 Clouds 5 1002 93 10000 0.45 73 09:19 27.12.2021
6269 Clouds 6 1002 91 10000 0.45 56 07:34 27.12.2021
6270 Clouds 7 1003 93 10000 1.68 159 06:29 27.12.2021
6271 Clouds 8 1004 91 10000 0.45 210 01:52 27.12.2021
6272 Clouds 8 1005 92 10000 0.89 203 23:49 26.12.2021
6273 Clouds 8 1005 92 10000 2.24 183 23:20 26.12.2021
6274 Rain 8 1005 94 10000 0.45 93 21:41 26.12.2021
6275 Clouds 8 1005 95 10000 0.89 203 19:57 26.12.2021
6276 Rain 8 1005 94 10000 1.34 203 18:53 26.12.2021
6277 Rain 8 1005 95 8015 1.34 203 18:22 26.12.2021
6278 Rain 8 1005 96 10000 1.34 203 15:54 26.12.2021
6279 Clouds 8 1004 97 10000 1.19 200 13:51 26.12.2021
6280 Clouds 8 1004 97 10000 1.19 200 13:32 26.12.2021
6281 Clouds 6 1005 96 10000 0.89 234 12:37 26.12.2021
6282 Clouds 6 1005 97 10000 0.65 191 11:56 26.12.2021
6283 Clouds 5 1005 97 10000 0.24 153 09:44 26.12.2021
6284 Clouds 4 1005 96 10000 0.22 168 08:59 26.12.2021
6285 Clouds 4 1005 96 10000 0.22 168 08:38 26.12.2021
6286 Rain 4 1005 96 10000 0.58 231 06:47 26.12.2021
6287 Rain 6 1004 95 1133 1.07 295 00:58 26.12.2021
6288 Clouds 7 1004 95 7267 0.25 55 23:50 25.12.2021
6289 Clouds 7 1004 95 10000 1.08 90 23:26 25.12.2021
6290 Clouds 7 1004 94 3087 0.28 152 22:22 25.12.2021
6291 Clouds 8 1004 94 5798 0.03 320 20:48 25.12.2021
6292 Rain 8 1004 93 10000 1.09 73 19:22 25.12.2021
6293 Clouds 8 1004 92 10000 0.78 80 18:54 25.12.2021
6294 Clouds 9 1003 91 2366 0.82 85 17:28 25.12.2021
6295 Clouds 9 1003 89 3649 0.85 23 16:18 25.12.2021
6296 Clouds 10 1003 88 10000 1.28 333 14:38 25.12.2021
6297 Clouds 10 1003 86 10000 1.72 264 12:48 25.12.2021
6298 Clouds 9 1004 86 10000 0.45 203 11:45 25.12.2021
6299 Clouds 9 1004 88 10000 0.45 203 09:50 25.12.2021
6300 Clouds 8 1003 87 10000 1.34 176 08:19 25.12.2021
6301 Clouds 8 1004 81 10000 0.89 157 02:22 25.12.2021
6302 Clouds 8 1004 86 10000 0.45 214 00:33 25.12.2021
6303 Clouds 8 1004 88 10000 0.45 203 23:39 24.12.2021
6304 Clouds 9 1005 88 10000 2.24 203 19:40 24.12.2021
6305 Clouds 9 1006 88 4376 2.24 151 19:22 24.12.2021
6306 Clouds 9 1006 87 10000 1.34 242 16:50 24.12.2021
6307 Clouds 9 1006 87 10000 0.89 161 16:21 24.12.2021
6308 Clouds 9 1006 88 10000 2.24 203 15:48 24.12.2021
6309 Rain 9 1006 90 10000 0.45 135 14:47 24.12.2021
6310 Clouds 9 1007 90 10000 1.34 153 14:24 24.12.2021
6311 Clouds 9 1007 90 10000 1.79 184 13:39 24.12.2021
6312 Rain 8 1008 89 6022 1.79 194 12:48 24.12.2021
6313 Clouds 8 1008 91 5229 2.24 197 12:19 24.12.2021
6314 Rain 8 1009 91 6896 1.34 196 11:29 24.12.2021
6315 Rain 8 1009 90 6896 1.79 228 10:59 24.12.2021
6316 Rain 8 1009 89 4279 2.24 229 10:28 24.12.2021
6317 Rain 8 1009 80 9190 1.79 185 08:28 24.12.2021
6318 Rain 7 1009 78 9190 3.58 202 07:57 24.12.2021
6319 Clouds 4 1012 84 10000 3.95 188 06:18 24.12.2021
6320 Clouds 6 1014 73 10000 2.93 179 00:19 24.12.2021
6321 Clouds 6 1015 74 10000 2.98 186 23:23 23.12.2021
6322 Clouds 7 1015 73 10000 2.98 186 22:44 23.12.2021
6323 Clouds 7 1015 72 10000 3.11 185 22:21 23.12.2021
6324 Clouds 4 1015 81 10000 3.11 185 21:34 23.12.2021
6325 Clouds 4 1015 79 10000 2.86 185 20:21 23.12.2021
6326 Clouds 4 1015 76 10000 2.91 188 19:27 23.12.2021
6327 Clouds 5 1016 66 10000 3.07 180 17:58 23.12.2021
6328 Clouds 6 1016 65 10000 3.23 180 17:18 23.12.2021
6329 Clouds 6 1016 64 10000 3.37 186 16:26 23.12.2021
6330 Clouds 7 1015 61 10000 2.24 203 15:32 23.12.2021
6331 Clouds 7 1015 58 10000 2.68 171 14:58 23.12.2021
6332 Clouds 7 1015 59 10000 2.24 181 14:38 23.12.2021
6333 Clouds 5 1017 61 10000 3.67 199 13:25 23.12.2021
6334 Clouds 5 1017 63 10000 1.79 182 11:27 23.12.2021
6335 Clouds 2 1017 75 10000 2.63 189 09:53 23.12.2021
6336 Rain 2 1017 74 10000 2.63 189 09:33 23.12.2021
6337 Clouds 0 1019 87 10000 2.63 174 08:28 23.12.2021
6338 Clouds -2 1019 53 10000 1.63 171 05:30 23.12.2021
6339 Clouds -4 1020 93 10000 1.57 157 00:40 23.12.2021
6340 Clouds -4 1021 92 10000 1.26 143 22:51 22.12.2021
6341 Clouds -4 1021 92 10000 1.15 139 21:59 22.12.2021
6342 Clouds -4 1021 92 10000 1.15 139 21:30 22.12.2021
6343 Clouds -4 1021 92 10000 1.16 162 20:59 22.12.2021
6344 Clouds -4 1021 92 10000 1.16 162 20:40 22.12.2021
6345 Clouds -3 1021 91 10000 1.45 145 19:54 22.12.2021
6346 Clouds -3 1022 91 10000 1.38 137 18:55 22.12.2021
6347 Clouds -2 1022 89 10000 1.31 127 17:38 22.12.2021
6348 Clouds -1 1022 85 10000 0.45 360 16:22 22.12.2021
6349 Clouds 2 1023 72 10000 0.54 292 14:28 22.12.2021
6350 Clouds 2 1024 70 10000 0.42 331 12:53 22.12.2021
6351 Clouds 0 1025 74 10000 0.76 291 11:48 22.12.2021
6352 Clear -2 1026 81 10000 0.45 123 09:52 22.12.2021
6353 Clear -5 1025 92 10000 1.4 119 08:23 22.12.2021
6354 Clear -5 1024 92 10000 0.45 331 05:54 22.12.2021
6355 Clear -5 1024 92 10000 0.45 329 05:36 22.12.2021
6356 Clear -5 1024 92 10000 1.37 116 05:18 22.12.2021
6357 Clear -5 1024 93 10000 1.37 116 04:40 22.12.2021
6358 Clear -5 1024 93 10000 0.45 328 03:52 22.12.2021
6359 Clear -5 1024 93 10000 1.32 115 03:31 22.12.2021
6360 Clear -4 1024 94 10000 1.57 114 23:49 21.12.2021
6361 Clear -4 1024 94 10000 1.55 119 22:41 21.12.2021
6362 Clear -3 1023 94 10000 1.69 117 21:58 21.12.2021
6363 Clear -3 1023 94 10000 1.69 117 21:33 21.12.2021
6364 Clear -3 1023 94 10000 1.59 113 20:42 21.12.2021
6365 Clear -3 1023 94 10000 1.48 116 20:18 21.12.2021
6366 Clear -3 1023 94 10000 1.48 116 19:40 21.12.2021
6367 Clear -2 1023 94 10000 1.51 112 18:33 21.12.2021
6368 Snow -2 1022 94 10000 1.6 115 17:59 21.12.2021
6369 Snow -2 1022 93 10000 0.45 128 17:40 21.12.2021
6370 Clear -2 1022 92 10000 3.13 360 15:46 21.12.2021
6371 Clear 2 1023 63 10000 1.03 320 14:29 21.12.2021
6372 Clear 1 1023 59 10000 1.03 320 13:42 21.12.2021
6373 Clear 1 1024 57 10000 0.9 328 12:39 21.12.2021
6374 Clear -1 1022 90 10000 1.34 238 10:53 21.12.2021
6375 Clear -3 1022 94 10000 0.45 184 09:57 21.12.2021
6376 Clear -4 1022 92 10000 1.19 131 09:18 21.12.2021
6377 Clear -4 1022 91 10000 1.37 127 07:45 21.12.2021
6378 Clouds -4 1022 92 10000 1.44 122 07:24 21.12.2021
6379 Clouds -3 1022 92 10000 1.28 112 04:37 21.12.2021
6380 Clouds -2 1022 91 10000 1.36 105 02:39 21.12.2021
6381 Clouds -2 1022 91 10000 1.64 107 23:57 20.12.2021
6382 Clouds -1 1023 90 10000 1.72 107 22:48 20.12.2021
6383 Clouds -1 1023 90 10000 1.83 106 22:27 20.12.2021
6384 Clouds -1 1023 91 10000 1.83 106 21:41 20.12.2021
6385 Clouds -1 1023 91 10000 1.93 106 21:22 20.12.2021
6386 Clouds 0 1023 91 10000 1.93 106 20:41 20.12.2021
6387 Clouds 0 1023 90 10000 1.95 109 19:40 20.12.2021
6388 Clouds 1 1023 90 10000 0.45 102 19:20 20.12.2021
6389 Clouds 0 1023 91 10000 1.92 109 18:49 20.12.2021
6390 Clouds 1 1023 91 10000 1.85 112 17:52 20.12.2021
6391 Clouds 2 1023 90 10000 1.65 103 16:56 20.12.2021
6392 Clouds 2 1023 89 10000 1.65 103 16:36 20.12.2021
6393 Clouds 4 1023 85 10000 1.34 321 15:47 20.12.2021
6394 Clouds 4 1023 83 10000 1.79 360 14:41 20.12.2021
6395 Clouds 4 1024 82 10000 1.79 360 12:51 20.12.2021
6396 Clouds 2 1025 84 10000 1.79 238 11:18 20.12.2021
6397 Clouds 1 1026 92 10000 0.84 86 09:47 20.12.2021
6398 Clouds -1 1025 92 10000 1.36 86 08:57 20.12.2021
6399 Clouds 0 1025 93 10000 1.36 86 08:38 20.12.2021
6400 Clouds -1 1025 93 10000 0.45 74 07:49 20.12.2021
6401 Clouds 0 1024 93 10000 1.42 86 06:47 20.12.2021
6402 Clouds -1 1025 95 10000 0.45 135 03:41 20.12.2021
6403 Clear -1 1026 96 10000 0.45 135 23:51 19.12.2021
6404 Clear -1 1026 96 10000 0.96 77 22:45 19.12.2021
6405 Clear -1 1026 96 10000 0.45 129 21:49 19.12.2021
6406 Clear -1 1026 96 10000 0.45 135 21:26 19.12.2021
6407 Clear -1 1026 96 10000 1.24 71 20:30 19.12.2021
6408 Clear 0 1026 96 10000 1.12 79 19:46 19.12.2021
6409 Clear 0 1026 96 10000 1.29 99 18:57 19.12.2021
6410 Clear 0 1026 96 10000 1.14 85 18:27 19.12.2021
6411 Clear 0 1026 95 10000 0.45 327 17:49 19.12.2021
6412 Clear 0 1026 95 10000 0.95 89 17:18 19.12.2021
6413 Clear 1 1027 94 10000 0.45 333 16:25 19.12.2021
6414 Clear 3 1028 77 10000 1.02 338 15:28 19.12.2021
6415 Clear 4 1028 77 10000 1.02 338 14:57 19.12.2021
6416 Clear 3 1028 77 10000 1.02 338 14:36 19.12.2021
6417 Clear 3 1029 70 10000 1.38 345 13:22 19.12.2021
6418 Clear 2 1029 90 10000 1.38 345 12:33 19.12.2021
6419 Clear 1 1030 92 10000 1.26 345 11:42 19.12.2021
6420 Clear 1 1032 92 10000 1.16 342 10:58 19.12.2021
6421 Clear 0 1031 93 10000 0.39 354 10:25 19.12.2021
6422 Clear 0 1031 94 10000 0.64 98 09:26 19.12.2021
6423 Clear 0 1031 94 10000 0.83 103 07:50 19.12.2021
6424 Clouds 1 1033 94 10000 0.87 128 04:45 19.12.2021
6425 Clouds 1 1033 95 10000 0.78 134 00:56 19.12.2021
6426 Clouds 1 1034 96 10000 0.45 135 00:28 19.12.2021
6427 Clouds 1 1034 96 10000 0.72 140 22:32 18.12.2021
6428 Clouds 2 1034 96 10000 0.98 151 21:54 18.12.2021
6429 Clouds 2 1034 95 10000 0.98 151 21:35 18.12.2021
6430 Clouds 2 1034 95 10000 0.93 131 20:44 18.12.2021
6431 Clouds 2 1034 97 10000 0.88 115 19:54 18.12.2021
6432 Clear 2 1034 97 10000 0.77 89 19:20 18.12.2021
6433 Clear 2 1033 96 10000 1.13 84 18:20 18.12.2021
6434 Clear 2 1033 96 10000 1.13 84 17:47 18.12.2021
6435 Clear 2 1032 96 10000 0.45 135 16:25 18.12.2021
6436 Clear 5 1033 75 10000 2.24 12 15:26 18.12.2021
6437 Clear 5 1033 75 10000 2.24 12 14:32 18.12.2021
6438 Clear 5 1033 64 10000 2.53 15 13:20 18.12.2021
6439 Clear 2 1035 64 10000 1.84 30 11:21 18.12.2021
6440 Clear 0 1036 97 10000 1.58 47 09:40 18.12.2021
6441 Clear 0 1035 97 10000 1.57 74 08:47 18.12.2021
6442 Clear 0 1035 97 10000 1.8 80 08:19 18.12.2021
6443 Clear 1 1036 96 10000 1.43 95 02:51 18.12.2021
6444 Clear 1 1036 96 10000 1.51 97 00:28 18.12.2021
6445 Clear 1 1036 96 10000 1.51 97 23:44 17.12.2021
6446 Clear 1 1036 95 10000 1.44 98 21:57 17.12.2021
6447 Clear 1 1036 96 10000 1.31 97 21:18 17.12.2021
6448 Clear 1 1037 96 10000 1.31 97 20:38 17.12.2021
6449 Clear 2 1035 95 10000 1.21 90 19:19 17.12.2021
6450 Clear 2 1035 94 10000 1.31 94 18:38 17.12.2021
6451 Clear 3 1035 94 10000 1.26 84 17:31 17.12.2021
6452 Clear 4 1035 94 10000 1.2 73 16:46 17.12.2021
6453 Clear 4 1035 93 10000 0.98 29 16:22 17.12.2021
6454 Clear 6 1035 89 10000 2.68 248 15:25 17.12.2021
6455 Clear 6 1035 89 10000 2.24 262 14:40 17.12.2021
6456 Clear 5 1035 93 10000 4.47 256 13:21 17.12.2021
6457 Clear 5 1036 90 10000 0.95 0 11:50 17.12.2021
6458 Clear 3 1036 95 10000 2.24 269 10:37 17.12.2021
6459 Clear 2 1035 96 10000 0.44 100 09:33 17.12.2021
6460 Clear 0 1035 95 10000 0.94 126 08:30 17.12.2021
6461 Clouds 1 1034 95 10000 1.65 79 06:47 17.12.2021
6462 Clear 1 1034 95 10000 2.28 76 02:54 17.12.2021
6463 Clear 1 1035 94 10000 2.3 72 23:40 16.12.2021
6464 Clear 2 1035 94 10000 1.99 86 22:24 16.12.2021
6465 Clear 2 1035 94 10000 1.99 86 22:24 16.12.2021
6466 Clear 2 1035 94 10000 1.99 86 22:24 16.12.2021
6467 Clear 2 1035 93 10000 1.99 86 21:50 16.12.2021
6468 Clear 2 1035 93 10000 1.99 86 21:30 16.12.2021
6469 Clouds 3 1036 93 10000 1.87 101 20:31 16.12.2021
6470 Clouds 3 1036 93 10000 1.87 101 19:44 16.12.2021
6471 Clouds 4 1035 90 10000 2.07 99 18:39 16.12.2021
6472 Clouds 5 1035 90 10000 2.03 95 17:57 16.12.2021
6473 Clouds 5 1035 91 10000 2.03 95 17:31 16.12.2021
6474 Clouds 5 1035 90 10000 1.53 83 16:22 16.12.2021
6475 Clouds 5 1035 89 10000 0.89 360 14:54 16.12.2021
6476 Clouds 5 1035 89 10000 1.34 244 13:43 16.12.2021
6477 Clouds 4 1036 93 10000 1.37 72 11:21 16.12.2021
6478 Clouds 4 1036 93 10000 1.37 72 11:00 16.12.2021
6479 Clouds 4 1036 93 10000 1.31 76 10:27 16.12.2021
6480 Clouds 3 1036 94 10000 1.51 88 08:37 16.12.2021
6481 Clouds 3 1034 95 10000 0.96 87 06:22 16.12.2021
6482 Clouds 3 1034 96 10000 1.25 122 02:54 16.12.2021
6483 Clouds 3 1034 96 10000 1.15 117 23:35 15.12.2021
6484 Clouds 4 1033 96 10000 1.04 109 22:44 15.12.2021
6485 Clouds 4 1033 96 10000 0.98 99 21:57 15.12.2021
6486 Clouds 4 1033 96 10000 1.05 96 21:27 15.12.2021
6487 Clouds 4 1032 96 10000 1.07 85 20:19 15.12.2021
6488 Clouds 4 1032 96 10000 1.07 85 19:51 15.12.2021
6489 Clouds 4 1031 96 10000 1.17 75 18:39 15.12.2021
6490 Clouds 4 1031 96 10000 1.37 73 17:56 15.12.2021
6491 Clouds 4 1031 96 10000 1.37 73 17:37 15.12.2021
6492 Clouds 4 1031 97 10000 0.45 203 16:35 15.12.2021
6493 Clouds 4 1031 97 10000 1.25 4 15:47 15.12.2021
6494 Clouds 4 1031 97 10000 1.41 347 15:29 15.12.2021
6495 Clouds 4 1031 97 10000 1.31 346 14:43 15.12.2021
6496 Clouds 4 1032 96 10000 1.2 352 12:52 15.12.2021
6497 Clouds 3 1032 97 10000 0.73 351 10:49 15.12.2021
6498 Clouds 3 1031 97 10000 0.14 35 09:31 15.12.2021
6499 Clouds 2 1030 97 10000 0.87 129 07:47 15.12.2021
6500 Clouds 3 1030 97 10000 0.82 113 02:40 15.12.2021
6501 Clouds 2 1029 96 10000 0.94 113 23:46 14.12.2021
6502 Clouds 2 1029 96 10000 0.98 106 22:52 14.12.2021
6503 Clouds 2 1029 96 10000 0.44 104 22:34 14.12.2021
6504 Clouds 2 1029 96 10000 1.2 113 21:25 14.12.2021
6505 Clouds 3 1029 94 10000 1.11 94 20:18 14.12.2021
6506 Clouds 3 1029 96 10000 0.45 203 19:21 14.12.2021
6507 Clouds 3 1028 95 10000 1.14 76 18:38 14.12.2021
6508 Clouds 3 1028 95 10000 0.86 129 17:51 14.12.2021
6509 Clouds 4 1028 95 10000 0.94 130 16:43 14.12.2021
6510 Clouds 5 1027 95 10000 0.29 113 15:54 14.12.2021
6511 Clouds 7 1026 93 10000 0.89 239 13:35 14.12.2021
6512 Clouds 6 1027 95 10000 1.34 244 12:47 14.12.2021
6513 Clouds 4 1027 96 10000 0.7 277 11:25 14.12.2021
6514 Clouds 4 1027 96 10000 0.7 277 10:45 14.12.2021
6515 Clouds 2 1027 96 10000 0.85 189 09:54 14.12.2021
6516 Clouds 1 1028 96 10000 0.44 138 08:48 14.12.2021
6517 Clouds 1 1028 96 10000 1.1 148 08:21 14.12.2021
6518 Rain 1 1027 96 10000 0.93 148 06:40 14.12.2021
6519 Clouds 2 1028 94 10000 1.37 145 23:42 13.12.2021
6520 Clouds 3 1028 93 10000 1.3 133 22:24 13.12.2021
6521 Clouds 2 1028 93 10000 1.3 133 21:39 13.12.2021
6522 Clouds 3 1028 92 10000 0.98 133 20:51 13.12.2021
6523 Clouds 3 1028 91 10000 1.16 138 20:21 13.12.2021
6524 Clouds 3 1028 91 10000 1.16 138 19:49 13.12.2021
6525 Clouds 5 1027 85 10000 1.11 109 17:27 13.12.2021
6526 Clouds 7 1026 81 10000 1.11 109 16:32 13.12.2021
6527 Clouds 7 1026 81 10000 1.79 234 15:43 13.12.2021
6528 Clear 8 1026 79 10000 0.45 229 14:30 13.12.2021
6529 Clear 8 1027 78 10000 1.79 246 13:37 13.12.2021
6530 Clouds 6 1027 83 10000 2.24 237 12:39 13.12.2021
6531 Clouds 6 1028 83 10000 2.24 240 11:52 13.12.2021
6532 Clouds 5 1028 84 10000 0.43 344 11:29 13.12.2021
6533 Clouds 4 1029 88 10000 0.43 344 10:36 13.12.2021
6534 Clouds 1 1028 92 10000 0.52 102 08:43 13.12.2021
6535 Clouds 2 1027 92 10000 0.78 114 06:55 13.12.2021
6536 Clouds 2 1027 91 10000 0.79 105 05:19 13.12.2021
6537 Clouds 4 1028 89 10000 0.49 114 23:55 12.12.2021
6538 Clouds 4 1027 88 10000 1.26 162 21:59 12.12.2021
6539 Clouds 4 1028 88 10000 1.3 149 21:24 12.12.2021
6540 Clouds 4 1027 84 10000 1.41 137 19:35 12.12.2021
6541 Clouds 5 1027 82 10000 1.44 171 18:23 12.12.2021
6542 Clouds 5 1027 78 10000 1.4 181 16:40 12.12.2021
6543 Clouds 5 1027 82 10000 1.39 183 15:58 12.12.2021
6544 Clouds 5 1027 82 10000 1.51 200 15:28 12.12.2021
6545 Clouds 5 1027 85 10000 1.51 200 14:51 12.12.2021
6546 Clouds 5 1027 85 10000 1.42 196 14:19 12.12.2021
6547 Clouds 3 1027 90 10000 1.45 199 12:48 12.12.2021
6548 Clouds 3 1027 90 10000 1.77 216 12:23 12.12.2021
6549 Clouds 3 1027 91 10000 1.77 216 11:43 12.12.2021
6550 Clouds 2 1027 93 10000 1.52 212 10:44 12.12.2021
6551 Clouds 1 1027 94 10000 1.31 190 10:21 12.12.2021
6552 Clouds 0 1027 94 10000 1.79 163 08:48 12.12.2021
6553 Clouds -1 1026 95 10000 0.45 71 07:30 12.12.2021
6554 Clouds -1 1026 95 10000 2.19 145 05:56 12.12.2021
6555 Clouds -1 1026 94 10000 2.18 146 04:53 12.12.2021
6556 Clouds 0 1025 93 10000 1.92 155 01:26 12.12.2021
6557 Clouds 1 1024 92 4714 1.52 183 23:28 11.12.2021
6558 Clouds 2 1024 92 3133 1.33 186 22:21 11.12.2021
6559 Clouds 3 1023 92 3133 1.33 186 21:47 11.12.2021
6560 Clouds 3 1023 92 125 1.37 184 20:20 11.12.2021
6561 Clouds 3 1022 92 76 0.45 163 19:21 11.12.2021
6562 Clouds 3 1022 92 76 1.85 199 18:49 11.12.2021
6563 Clouds 3 1021 92 44 0.89 197 17:56 11.12.2021
6564 Clouds 4 1020 91 33 2.18 208 16:40 11.12.2021
6565 Clouds 4 1019 91 37 0.45 203 15:46 11.12.2021
6566 Clouds 4 1018 91 38 1.34 213 14:54 11.12.2021
6567 Clouds 3 1017 90 32 0.45 196 12:41 11.12.2021
6568 Clouds 3 1016 92 28 0.89 223 11:24 11.12.2021
6569 Clouds 2 1014 92 27 0.45 163 09:45 11.12.2021
6570 Clouds 2 1014 92 27 0.45 163 09:45 11.12.2021
6571 Clouds 2 1014 92 27 0.45 163 09:45 11.12.2021
6572 Clouds 3 1011 91 28 1.34 194 07:30 11.12.2021
6573 Clouds 4 1005 87 3012 5.36 208 00:50 11.12.2021
6574 Clouds 4 1004 88 3016 3.58 227 23:45 10.12.2021
6575 Clouds 4 1004 88 2959 4.47 180 23:18 10.12.2021
6576 Clouds 4 1002 87 2979 4.47 227 21:52 10.12.2021
6577 Clouds 4 1001 87 2949 4.47 188 20:56 10.12.2021
6578 Clouds 4 999 86 2918 4.92 202 19:20 10.12.2021
6579 Clouds 4 998 89 150 3.13 175 17:54 10.12.2021
6580 Clouds 4 996 88 70 3.58 216 16:55 10.12.2021
6581 Clouds 4 995 89 83 4.92 146 15:51 10.12.2021
6582 Clouds 4 995 88 73 3.58 192 15:29 10.12.2021
6583 Clouds 4 994 88 73 4.02 204 14:59 10.12.2021
6584 Rain 3 993 90 555 3.58 230 13:51 10.12.2021
6585 Clouds 3 993 90 590 4.02 177 13:26 10.12.2021
6586 Rain 2 993 90 189 4.47 194 12:34 10.12.2021
6587 Rain 2 992 89 1263 0.45 76 11:28 10.12.2021
6588 Snow 1 992 92 2001 0.89 134 09:54 10.12.2021
6589 Snow 1 993 85 2642 0.45 248 08:32 10.12.2021
6590 Clouds 0 995 87 10000 0.89 81 06:22 10.12.2021
6591 Clouds 0 1000 86 10000 0.45 203 02:48 10.12.2021
6592 Clouds 1 1004 82 10000 2.59 145 23:54 09.12.2021
6593 Clouds 2 1006 79 10000 2.61 158 23:20 09.12.2021
6594 Clouds 3 1007 79 10000 1.34 150 22:24 09.12.2021
6595 Clouds 3 1007 79 10000 1.34 152 21:59 09.12.2021
6596 Clouds 3 1007 83 10000 1.79 198 20:44 09.12.2021
6597 Clouds 4 1007 83 3381 1.34 136 20:22 09.12.2021
6598 Rain 4 1008 83 4085 2.68 143 19:21 09.12.2021
6599 Rain 4 1008 83 10000 2.24 194 18:46 09.12.2021
6600 Clouds 4 1008 85 10000 1.34 109 17:52 09.12.2021
6601 Clouds 4 1008 84 10000 3.13 213 17:26 09.12.2021
6602 Clouds 4 1008 83 10000 3.13 177 16:55 09.12.2021
6603 Clouds 5 1007 81 10000 1.79 157 15:46 09.12.2021
6604 Clouds 5 1007 81 10000 4.92 210 14:48 09.12.2021
6605 Clouds 5 1007 81 10000 2.68 175 13:25 09.12.2021
6606 Clouds 5 1007 84 10000 3.13 138 12:42 09.12.2021
6607 Clouds 4 1008 88 10000 3.58 221 11:24 09.12.2021
6608 Clouds 3 1007 90 10000 1.79 188 09:44 09.12.2021
6609 Clouds 3 1006 92 5166 1.57 210 06:50 09.12.2021
6610 Clouds 3 1004 93 2873 1.44 227 03:43 09.12.2021
6611 Clouds 3 1002 93 3100 1.38 212 23:45 08.12.2021
6612 Clouds 3 1002 93 3061 1.08 183 23:21 08.12.2021
6613 Clouds 3 1002 93 3061 1.08 183 22:49 08.12.2021
6614 Clouds 4 1001 93 2922 1.09 182 21:46 08.12.2021
6615 Clouds 4 1001 93 2918 1.28 197 21:28 08.12.2021
6616 Clouds 4 1001 92 3103 1.13 209 20:18 08.12.2021
6617 Rain 4 1001 91 3103 1.13 209 19:37 08.12.2021
6618 Clouds 4 1000 91 10000 0.4 212 18:53 08.12.2021
6619 Clouds 5 1000 90 10000 0.45 132 17:52 08.12.2021
6620 Clouds 5 999 88 10000 1.12 197 15:59 08.12.2021
6621 Clouds 5 999 87 10000 0.91 225 15:29 08.12.2021
6622 Clouds 6 999 87 10000 0.91 225 14:52 08.12.2021
6623 Clouds 6 999 87 10000 0.89 203 12:39 08.12.2021
6624 Clouds 5 1000 87 10000 0.45 203 10:36 08.12.2021
6625 Clouds 5 1000 88 10000 0.45 82 09:31 08.12.2021
6626 Rain 5 1000 90 10000 2.24 233 07:34 08.12.2021
6627 Rain 5 1000 94 8029 1.34 196 04:58 08.12.2021
6628 Clouds 4 1000 79 10000 2.28 157 23:56 07.12.2021
6629 Clouds 4 1001 79 10000 1.34 90 22:37 07.12.2021
6630 Clouds 3 1002 80 10000 0.89 51 21:24 07.12.2021
6631 Clouds 3 1003 80 10000 1.79 108 20:25 07.12.2021
6632 Clouds 4 1005 76 10000 0.89 89 18:57 07.12.2021
6633 Clouds 4 1006 77 10000 1.34 80 18:19 07.12.2021
6634 Clouds 4 1007 78 10000 1.79 40 17:20 07.12.2021
6635 Clouds 5 1008 78 10000 2.11 126 16:37 07.12.2021
6636 Clouds 6 1011 74 10000 1.82 130 15:37 07.12.2021
6637 Clouds 7 1010 67 10000 0.45 126 14:37 07.12.2021
6638 Clouds 7 1012 75 10000 1.34 203 13:29 07.12.2021
6639 Clouds 6 1014 78 10000 2.68 188 12:21 07.12.2021
6640